<?xml version="1.0" encoding="UTF-8" standalone="no" ?>
<gpx xmlns="http://www.topografix.com/GPX/1/1" xmlns:xsi="http://www.w3.org/2001/XMLSchema-instance" xsi:schemaLocation="http://www.topografix.com/GPX/1/1 http://www.topografix.com/GPX/1/1/gpx.xsd" version="1.1" creator="VisuGPX - https://www.visugpx.com">
  <metadata>
    <name>Dent du Pra</name>
    <desc><![CDATA[A développer A développer A développer A développer A développer A développer A développer A développer A développer.]]></desc>
  </metadata>
  <trk>
    <name><![CDATA[Dent du Pra]]></name>
    <trkseg>
      <trkpt lat="45.22456" lon="5.99954">
        <ele>1379</ele>
        <time>2014-01-12T07:50:06Z</time>
      </trkpt>
      <trkpt lat="45.22457" lon="5.99955">
        <ele>1379.199951172</ele>
        <time>2014-01-12T07:50:07Z</time>
      </trkpt>
      <trkpt lat="45.22458" lon="5.99956">
        <ele>1379.400024414</ele>
        <time>2014-01-12T07:50:09Z</time>
      </trkpt>
      <trkpt lat="45.22459" lon="5.99955">
        <ele>1379.400024414</ele>
        <time>2014-01-12T07:50:12Z</time>
      </trkpt>
      <trkpt lat="45.22459" lon="5.99957">
        <ele>1379.599975586</ele>
        <time>2014-01-12T07:50:17Z</time>
      </trkpt>
      <trkpt lat="45.22454" lon="5.99966">
        <ele>1380.199951172</ele>
        <time>2014-01-12T07:50:24Z</time>
      </trkpt>
      <trkpt lat="45.22453" lon="5.99968">
        <ele>1380.400024414</ele>
        <time>2014-01-12T07:50:25Z</time>
      </trkpt>
      <trkpt lat="45.22454" lon="5.99978">
        <ele>1381.800048828</ele>
        <time>2014-01-12T07:50:31Z</time>
      </trkpt>
      <trkpt lat="45.22452" lon="5.99979">
        <ele>1381.599975586</ele>
        <time>2014-01-12T07:50:33Z</time>
      </trkpt>
      <trkpt lat="45.22449" lon="5.99984">
        <ele>1382</ele>
        <time>2014-01-12T07:50:38Z</time>
      </trkpt>
      <trkpt lat="45.22447" lon="5.99993">
        <ele>1382.800048828</ele>
        <time>2014-01-12T07:50:44Z</time>
      </trkpt>
      <trkpt lat="45.22443" lon="5.99996">
        <ele>1382.599975586</ele>
        <time>2014-01-12T07:50:49Z</time>
      </trkpt>
      <trkpt lat="45.22438" lon="6.00002">
        <ele>1382.599975586</ele>
        <time>2014-01-12T07:50:56Z</time>
      </trkpt>
      <trkpt lat="45.22439" lon="6.00004">
        <ele>1382.599975586</ele>
        <time>2014-01-12T07:50:57Z</time>
      </trkpt>
      <trkpt lat="45.22439" lon="6.00011">
        <ele>1382.599975586</ele>
        <time>2014-01-12T07:51:01Z</time>
      </trkpt>
      <trkpt lat="45.22438" lon="6.00018">
        <ele>1382.599975586</ele>
        <time>2014-01-12T07:51:08Z</time>
      </trkpt>
      <trkpt lat="45.22435" lon="6.00024">
        <ele>1382.199951172</ele>
        <time>2014-01-12T07:51:16Z</time>
      </trkpt>
      <trkpt lat="45.22435" lon="6.00026">
        <ele>1382.199951172</ele>
        <time>2014-01-12T07:51:18Z</time>
      </trkpt>
      <trkpt lat="45.22435" lon="6.00027">
        <ele>1382.199951172</ele>
        <time>2014-01-12T07:51:20Z</time>
      </trkpt>
      <trkpt lat="45.22433" lon="6.00029">
        <ele>1382</ele>
        <time>2014-01-12T07:51:25Z</time>
      </trkpt>
      <trkpt lat="45.22433" lon="6.00029">
        <ele>1382</ele>
        <time>2014-01-12T07:51:26Z</time>
      </trkpt>
      <trkpt lat="45.22431" lon="6.00031">
        <ele>1381.800048828</ele>
        <time>2014-01-12T07:51:29Z</time>
      </trkpt>
      <trkpt lat="45.22431" lon="6.00033">
        <ele>1381.800048828</ele>
        <time>2014-01-12T07:51:31Z</time>
      </trkpt>
      <trkpt lat="45.2243" lon="6.0004">
        <ele>1381.599975586</ele>
        <time>2014-01-12T07:51:38Z</time>
      </trkpt>
      <trkpt lat="45.22428" lon="6.00043">
        <ele>1388.599975586</ele>
        <time>2014-01-12T07:51:42Z</time>
      </trkpt>
      <trkpt lat="45.22428" lon="6.00044">
        <ele>1388.599975586</ele>
        <time>2014-01-12T07:51:43Z</time>
      </trkpt>
      <trkpt lat="45.22428" lon="6.00045">
        <ele>1388.800048828</ele>
        <time>2014-01-12T07:51:44Z</time>
      </trkpt>
      <trkpt lat="45.22427" lon="6.0005">
        <ele>1389.400024414</ele>
        <time>2014-01-12T07:51:50Z</time>
      </trkpt>
      <trkpt lat="45.22425" lon="6.00053">
        <ele>1389.800048828</ele>
        <time>2014-01-12T07:51:56Z</time>
      </trkpt>
      <trkpt lat="45.22425" lon="6.00054">
        <ele>1389.800048828</ele>
        <time>2014-01-12T07:51:57Z</time>
      </trkpt>
      <trkpt lat="45.22422" lon="6.00058">
        <ele>1389.800048828</ele>
        <time>2014-01-12T07:52:02Z</time>
      </trkpt>
      <trkpt lat="45.2242" lon="6.00062">
        <ele>1389.800048828</ele>
        <time>2014-01-12T07:52:07Z</time>
      </trkpt>
      <trkpt lat="45.22421" lon="6.00068">
        <ele>1391</ele>
        <time>2014-01-12T07:52:13Z</time>
      </trkpt>
      <trkpt lat="45.22418" lon="6.00073">
        <ele>1391</ele>
        <time>2014-01-12T07:52:19Z</time>
      </trkpt>
      <trkpt lat="45.22417" lon="6.00078">
        <ele>1391.400024414</ele>
        <time>2014-01-12T07:52:24Z</time>
      </trkpt>
      <trkpt lat="45.22414" lon="6.00082">
        <ele>1392.199951172</ele>
        <time>2014-01-12T07:52:30Z</time>
      </trkpt>
      <trkpt lat="45.22413" lon="6.00089">
        <ele>1394</ele>
        <time>2014-01-12T07:52:38Z</time>
      </trkpt>
      <trkpt lat="45.22411" lon="6.00091">
        <ele>1395</ele>
        <time>2014-01-12T07:52:45Z</time>
      </trkpt>
      <trkpt lat="45.2241" lon="6.00095">
        <ele>1396</ele>
        <time>2014-01-12T07:52:48Z</time>
      </trkpt>
      <trkpt lat="45.2241" lon="6.00099">
        <ele>1397.400024414</ele>
        <time>2014-01-12T07:52:54Z</time>
      </trkpt>
      <trkpt lat="45.22408" lon="6.00103">
        <ele>1398.599975586</ele>
        <time>2014-01-12T07:52:59Z</time>
      </trkpt>
      <trkpt lat="45.22406" lon="6.00107">
        <ele>1399.800048828</ele>
        <time>2014-01-12T07:53:04Z</time>
      </trkpt>
      <trkpt lat="45.22402" lon="6.00109">
        <ele>1400.800048828</ele>
        <time>2014-01-12T07:53:09Z</time>
      </trkpt>
      <trkpt lat="45.224" lon="6.00111">
        <ele>1401.400024414</ele>
        <time>2014-01-12T07:53:11Z</time>
      </trkpt>
      <trkpt lat="45.22397" lon="6.00114">
        <ele>1402.400024414</ele>
        <time>2014-01-12T07:53:14Z</time>
      </trkpt>
      <trkpt lat="45.2239" lon="6.00121">
        <ele>1404.400024414</ele>
        <time>2014-01-12T07:53:21Z</time>
      </trkpt>
      <trkpt lat="45.22386" lon="6.00124">
        <ele>1405.199951172</ele>
        <time>2014-01-12T07:53:27Z</time>
      </trkpt>
      <trkpt lat="45.22385" lon="6.00124">
        <ele>1405.400024414</ele>
        <time>2014-01-12T07:53:28Z</time>
      </trkpt>
      <trkpt lat="45.22383" lon="6.00125">
        <ele>1405.599975586</ele>
        <time>2014-01-12T07:53:32Z</time>
      </trkpt>
      <trkpt lat="45.22382" lon="6.00126">
        <ele>1405.800048828</ele>
        <time>2014-01-12T07:53:34Z</time>
      </trkpt>
      <trkpt lat="45.22381" lon="6.00126">
        <ele>1406</ele>
        <time>2014-01-12T07:53:36Z</time>
      </trkpt>
      <trkpt lat="45.2238" lon="6.00127">
        <ele>1406.199951172</ele>
        <time>2014-01-12T07:53:37Z</time>
      </trkpt>
      <trkpt lat="45.22379" lon="6.00128">
        <ele>1406.400024414</ele>
        <time>2014-01-12T07:53:39Z</time>
      </trkpt>
      <trkpt lat="45.22376" lon="6.00133">
        <ele>1407.199951172</ele>
        <time>2014-01-12T07:53:43Z</time>
      </trkpt>
      <trkpt lat="45.22376" lon="6.00134">
        <ele>1407.599975586</ele>
        <time>2014-01-12T07:53:45Z</time>
      </trkpt>
      <trkpt lat="45.22376" lon="6.00135">
        <ele>1407.800048828</ele>
        <time>2014-01-12T07:53:46Z</time>
      </trkpt>
      <trkpt lat="45.22375" lon="6.00136">
        <ele>1407.800048828</ele>
        <time>2014-01-12T07:53:47Z</time>
      </trkpt>
      <trkpt lat="45.22371" lon="6.00137">
        <ele>1408</ele>
        <time>2014-01-12T07:53:51Z</time>
      </trkpt>
      <trkpt lat="45.22372" lon="6.00139">
        <ele>1408.400024414</ele>
        <time>2014-01-12T07:53:54Z</time>
      </trkpt>
      <trkpt lat="45.22371" lon="6.0014">
        <ele>1408.599975586</ele>
        <time>2014-01-12T07:53:56Z</time>
      </trkpt>
      <trkpt lat="45.22369" lon="6.00143">
        <ele>1409</ele>
        <time>2014-01-12T07:54:01Z</time>
      </trkpt>
      <trkpt lat="45.22367" lon="6.00144">
        <ele>1409.199951172</ele>
        <time>2014-01-12T07:54:06Z</time>
      </trkpt>
      <trkpt lat="45.22366" lon="6.00146">
        <ele>1409.400024414</ele>
        <time>2014-01-12T07:54:08Z</time>
      </trkpt>
      <trkpt lat="45.22365" lon="6.00148">
        <ele>1409.599975586</ele>
        <time>2014-01-12T07:54:14Z</time>
      </trkpt>
      <trkpt lat="45.22365" lon="6.00148">
        <ele>1409.599975586</ele>
        <time>2014-01-12T07:54:17Z</time>
      </trkpt>
      <trkpt lat="45.22368" lon="6.00143">
        <ele>1409</ele>
        <time>2014-01-12T07:54:24Z</time>
      </trkpt>
      <trkpt lat="45.22369" lon="6.00143">
        <ele>1409</ele>
        <time>2014-01-12T07:54:26Z</time>
      </trkpt>
      <trkpt lat="45.22371" lon="6.00143">
        <ele>1409</ele>
        <time>2014-01-12T07:54:30Z</time>
      </trkpt>
      <trkpt lat="45.22372" lon="6.00145">
        <ele>1409.400024414</ele>
        <time>2014-01-12T07:54:32Z</time>
      </trkpt>
      <trkpt lat="45.22372" lon="6.00146">
        <ele>1409.599975586</ele>
        <time>2014-01-12T07:54:35Z</time>
      </trkpt>
      <trkpt lat="45.22371" lon="6.00147">
        <ele>1409.599975586</ele>
        <time>2014-01-12T07:54:37Z</time>
      </trkpt>
      <trkpt lat="45.22369" lon="6.00149">
        <ele>1409.800048828</ele>
        <time>2014-01-12T07:54:42Z</time>
      </trkpt>
      <trkpt lat="45.22368" lon="6.0015">
        <ele>1410</ele>
        <time>2014-01-12T07:54:44Z</time>
      </trkpt>
      <trkpt lat="45.22368" lon="6.00151">
        <ele>1410.199951172</ele>
        <time>2014-01-12T07:54:46Z</time>
      </trkpt>
      <trkpt lat="45.22368" lon="6.00153">
        <ele>1410.599975586</ele>
        <time>2014-01-12T07:54:49Z</time>
      </trkpt>
      <trkpt lat="45.22371" lon="6.00152">
        <ele>1410.400024414</ele>
        <time>2014-01-12T07:54:57Z</time>
      </trkpt>
      <trkpt lat="45.22372" lon="6.00151">
        <ele>1410.400024414</ele>
        <time>2014-01-12T07:54:58Z</time>
      </trkpt>
      <trkpt lat="45.22373" lon="6.00152">
        <ele>1410.400024414</ele>
        <time>2014-01-12T07:54:59Z</time>
      </trkpt>
      <trkpt lat="45.22374" lon="6.00151">
        <ele>1410.400024414</ele>
        <time>2014-01-12T07:55:00Z</time>
      </trkpt>
      <trkpt lat="45.22375" lon="6.00151">
        <ele>1410.400024414</ele>
        <time>2014-01-12T07:55:01Z</time>
      </trkpt>
      <trkpt lat="45.22377" lon="6.0015">
        <ele>1410.199951172</ele>
        <time>2014-01-12T07:55:03Z</time>
      </trkpt>
      <trkpt lat="45.22376" lon="6.00149">
        <ele>1410</ele>
        <time>2014-01-12T07:55:10Z</time>
      </trkpt>
      <trkpt lat="45.22375" lon="6.00149">
        <ele>1410.199951172</ele>
        <time>2014-01-12T07:55:12Z</time>
      </trkpt>
      <trkpt lat="45.22371" lon="6.00149">
        <ele>1410</ele>
        <time>2014-01-12T07:55:16Z</time>
      </trkpt>
      <trkpt lat="45.2237" lon="6.00149">
        <ele>1410</ele>
        <time>2014-01-12T07:55:17Z</time>
      </trkpt>
      <trkpt lat="45.22368" lon="6.00148">
        <ele>1409.800048828</ele>
        <time>2014-01-12T07:55:21Z</time>
      </trkpt>
      <trkpt lat="45.22369" lon="6.0015">
        <ele>1410</ele>
        <time>2014-01-12T07:55:24Z</time>
      </trkpt>
      <trkpt lat="45.22366" lon="6.00149">
        <ele>1409.800048828</ele>
        <time>2014-01-12T07:55:27Z</time>
      </trkpt>
      <trkpt lat="45.22362" lon="6.00147">
        <ele>1409.400024414</ele>
        <time>2014-01-12T07:55:35Z</time>
      </trkpt>
      <trkpt lat="45.22359" lon="6.00148">
        <ele>1409.599975586</ele>
        <time>2014-01-12T07:55:40Z</time>
      </trkpt>
      <trkpt lat="45.22357" lon="6.0015">
        <ele>1409.800048828</ele>
        <time>2014-01-12T07:55:42Z</time>
      </trkpt>
      <trkpt lat="45.22355" lon="6.00153">
        <ele>1410</ele>
        <time>2014-01-12T07:55:46Z</time>
      </trkpt>
      <trkpt lat="45.22351" lon="6.00153">
        <ele>1410</ele>
        <time>2014-01-12T07:55:51Z</time>
      </trkpt>
      <trkpt lat="45.2235" lon="6.00153">
        <ele>1409.800048828</ele>
        <time>2014-01-12T07:55:52Z</time>
      </trkpt>
      <trkpt lat="45.22349" lon="6.00152">
        <ele>1409.800048828</ele>
        <time>2014-01-12T07:55:53Z</time>
      </trkpt>
      <trkpt lat="45.22345" lon="6.00152">
        <ele>1409.599975586</ele>
        <time>2014-01-12T07:55:57Z</time>
      </trkpt>
      <trkpt lat="45.22343" lon="6.00152">
        <ele>1409.599975586</ele>
        <time>2014-01-12T07:55:59Z</time>
      </trkpt>
      <trkpt lat="45.22343" lon="6.00156">
        <ele>1409.800048828</ele>
        <time>2014-01-12T07:56:03Z</time>
      </trkpt>
      <trkpt lat="45.22342" lon="6.00156">
        <ele>1409.800048828</ele>
        <time>2014-01-12T07:56:04Z</time>
      </trkpt>
      <trkpt lat="45.2234" lon="6.00156">
        <ele>1409.800048828</ele>
        <time>2014-01-12T07:56:12Z</time>
      </trkpt>
      <trkpt lat="45.22342" lon="6.00153">
        <ele>1409.599975586</ele>
        <time>2014-01-12T07:56:19Z</time>
      </trkpt>
      <trkpt lat="45.22347" lon="6.00153">
        <ele>1409.800048828</ele>
        <time>2014-01-12T07:56:30Z</time>
      </trkpt>
      <trkpt lat="45.22349" lon="6.00151">
        <ele>1409.599975586</ele>
        <time>2014-01-12T07:56:35Z</time>
      </trkpt>
      <trkpt lat="45.22351" lon="6.00151">
        <ele>1409.800048828</ele>
        <time>2014-01-12T07:56:43Z</time>
      </trkpt>
      <trkpt lat="45.22352" lon="6.00151">
        <ele>1409.800048828</ele>
        <time>2014-01-12T07:56:47Z</time>
      </trkpt>
      <trkpt lat="45.22352" lon="6.0015">
        <ele>1409.599975586</ele>
        <time>2014-01-12T07:57:05Z</time>
      </trkpt>
      <trkpt lat="45.22354" lon="6.00151">
        <ele>1409.800048828</ele>
        <time>2014-01-12T07:57:15Z</time>
      </trkpt>
      <trkpt lat="45.22359" lon="6.00149">
        <ele>1409.599975586</ele>
        <time>2014-01-12T07:57:25Z</time>
      </trkpt>
      <trkpt lat="45.22363" lon="6.00144">
        <ele>1409.199951172</ele>
        <time>2014-01-12T07:57:31Z</time>
      </trkpt>
      <trkpt lat="45.22364" lon="6.00145">
        <ele>1409.199951172</ele>
        <time>2014-01-12T07:57:32Z</time>
      </trkpt>
      <trkpt lat="45.22366" lon="6.00147">
        <ele>1409.599975586</ele>
        <time>2014-01-12T07:57:36Z</time>
      </trkpt>
      <trkpt lat="45.22366" lon="6.00147">
        <ele>1409.599975586</ele>
        <time>2014-01-12T07:57:37Z</time>
      </trkpt>
      <trkpt lat="45.22368" lon="6.00146">
        <ele>1409.400024414</ele>
        <time>2014-01-12T07:57:41Z</time>
      </trkpt>
      <trkpt lat="45.22371" lon="6.00148">
        <ele>1409.800048828</ele>
        <time>2014-01-12T07:57:47Z</time>
      </trkpt>
      <trkpt lat="45.22376" lon="6.00149">
        <ele>1410</ele>
        <time>2014-01-12T07:58:08Z</time>
      </trkpt>
      <trkpt lat="45.22384" lon="6.00149">
        <ele>1410.199951172</ele>
        <time>2014-01-12T07:58:15Z</time>
      </trkpt>
      <trkpt lat="45.22386" lon="6.0015">
        <ele>1410.400024414</ele>
        <time>2014-01-12T07:58:18Z</time>
      </trkpt>
      <trkpt lat="45.22388" lon="6.0015">
        <ele>1410.599975586</ele>
        <time>2014-01-12T07:58:21Z</time>
      </trkpt>
      <trkpt lat="45.22394" lon="6.0015">
        <ele>1410.599975586</ele>
        <time>2014-01-12T07:58:28Z</time>
      </trkpt>
      <trkpt lat="45.224" lon="6.00146">
        <ele>1410</ele>
        <time>2014-01-12T07:58:34Z</time>
      </trkpt>
      <trkpt lat="45.22403" lon="6.00145">
        <ele>1409.800048828</ele>
        <time>2014-01-12T07:58:37Z</time>
      </trkpt>
      <trkpt lat="45.22407" lon="6.00144">
        <ele>1409.400024414</ele>
        <time>2014-01-12T07:58:41Z</time>
      </trkpt>
      <trkpt lat="45.22411" lon="6.00142">
        <ele>1408.800048828</ele>
        <time>2014-01-12T07:58:48Z</time>
      </trkpt>
      <trkpt lat="45.22409" lon="6.00135">
        <ele>1407</ele>
        <time>2014-01-12T07:58:58Z</time>
      </trkpt>
      <trkpt lat="45.22411" lon="6.00133">
        <ele>1406.400024414</ele>
        <time>2014-01-12T07:59:00Z</time>
      </trkpt>
      <trkpt lat="45.22414" lon="6.0013">
        <ele>1405.599975586</ele>
        <time>2014-01-12T07:59:02Z</time>
      </trkpt>
      <trkpt lat="45.22425" lon="6.00122">
        <ele>1405.599975586</ele>
        <time>2014-01-12T07:59:08Z</time>
      </trkpt>
      <trkpt lat="45.22437" lon="6.00109">
        <ele>1405.199951172</ele>
        <time>2014-01-12T07:59:15Z</time>
      </trkpt>
      <trkpt lat="45.22445" lon="6.00098">
        <ele>1404.599975586</ele>
        <time>2014-01-12T07:59:20Z</time>
      </trkpt>
      <trkpt lat="45.22455" lon="6.00087">
        <ele>1404.400024414</ele>
        <time>2014-01-12T07:59:26Z</time>
      </trkpt>
      <trkpt lat="45.22465" lon="6.00075">
        <ele>1404.400024414</ele>
        <time>2014-01-12T07:59:32Z</time>
      </trkpt>
      <trkpt lat="45.22472" lon="6.00065">
        <ele>1403.800048828</ele>
        <time>2014-01-12T07:59:37Z</time>
      </trkpt>
      <trkpt lat="45.22479" lon="6.00053">
        <ele>1402.400024414</ele>
        <time>2014-01-12T07:59:43Z</time>
      </trkpt>
      <trkpt lat="45.22486" lon="6.00045">
        <ele>1401.599975586</ele>
        <time>2014-01-12T07:59:48Z</time>
      </trkpt>
      <trkpt lat="45.22494" lon="6.00033">
        <ele>1399.400024414</ele>
        <time>2014-01-12T07:59:53Z</time>
      </trkpt>
      <trkpt lat="45.22495" lon="6.0003">
        <ele>1398.800048828</ele>
        <time>2014-01-12T07:59:54Z</time>
      </trkpt>
      <trkpt lat="45.225" lon="6.00022">
        <ele>1397.199951172</ele>
        <time>2014-01-12T07:59:57Z</time>
      </trkpt>
      <trkpt lat="45.22504" lon="6.00013">
        <ele>1396.599975586</ele>
        <time>2014-01-12T08:00:00Z</time>
      </trkpt>
      <trkpt lat="45.2251" lon="5.99997">
        <ele>1396</ele>
        <time>2014-01-12T08:00:05Z</time>
      </trkpt>
      <trkpt lat="45.22515" lon="5.99984">
        <ele>1398.800048828</ele>
        <time>2014-01-12T08:00:10Z</time>
      </trkpt>
      <trkpt lat="45.22518" lon="5.99973">
        <ele>1401</ele>
        <time>2014-01-12T08:00:15Z</time>
      </trkpt>
      <trkpt lat="45.22519" lon="5.99971">
        <ele>1401.400024414</ele>
        <time>2014-01-12T08:00:19Z</time>
      </trkpt>
      <trkpt lat="45.2252" lon="5.99969">
        <ele>1402.199951172</ele>
        <time>2014-01-12T08:00:29Z</time>
      </trkpt>
      <trkpt lat="45.2252" lon="5.99967">
        <ele>1402.199951172</ele>
        <time>2014-01-12T08:00:30Z</time>
      </trkpt>
      <trkpt lat="45.2252" lon="5.99964">
        <ele>1402.199951172</ele>
        <time>2014-01-12T08:00:32Z</time>
      </trkpt>
      <trkpt lat="45.2252" lon="5.99958">
        <ele>1401.800048828</ele>
        <time>2014-01-12T08:00:34Z</time>
      </trkpt>
      <trkpt lat="45.22519" lon="5.99951">
        <ele>1392.800048828</ele>
        <time>2014-01-12T08:00:37Z</time>
      </trkpt>
      <trkpt lat="45.22519" lon="5.99949">
        <ele>1392.400024414</ele>
        <time>2014-01-12T08:00:38Z</time>
      </trkpt>
      <trkpt lat="45.22521" lon="5.99944">
        <ele>1392.800048828</ele>
        <time>2014-01-12T08:00:41Z</time>
      </trkpt>
      <trkpt lat="45.22521" lon="5.99942">
        <ele>1392.599975586</ele>
        <time>2014-01-12T08:00:42Z</time>
      </trkpt>
      <trkpt lat="45.2252" lon="5.9994">
        <ele>1391.800048828</ele>
        <time>2014-01-12T08:00:43Z</time>
      </trkpt>
      <trkpt lat="45.22518" lon="5.99937">
        <ele>1390</ele>
        <time>2014-01-12T08:00:46Z</time>
      </trkpt>
      <trkpt lat="45.22517" lon="5.99937">
        <ele>1389.599975586</ele>
        <time>2014-01-12T08:00:47Z</time>
      </trkpt>
      <trkpt lat="45.2251" lon="5.99932">
        <ele>1384.599975586</ele>
        <time>2014-01-12T08:00:51Z</time>
      </trkpt>
      <trkpt lat="45.22504" lon="5.99928">
        <ele>1380.800048828</ele>
        <time>2014-01-12T08:00:55Z</time>
      </trkpt>
      <trkpt lat="45.22504" lon="5.99928">
        <ele>1381</ele>
        <time>2014-01-12T08:00:56Z</time>
      </trkpt>
      <trkpt lat="45.22499" lon="5.99929">
        <ele>1378.800048828</ele>
        <time>2014-01-12T08:01:01Z</time>
      </trkpt>
      <trkpt lat="45.22498" lon="5.99929">
        <ele>1378.800048828</ele>
        <time>2014-01-12T08:01:02Z</time>
      </trkpt>
      <trkpt lat="45.22493" lon="5.99927">
        <ele>1378.199951172</ele>
        <time>2014-01-12T08:01:05Z</time>
      </trkpt>
      <trkpt lat="45.22492" lon="5.99925">
        <ele>1377.800048828</ele>
        <time>2014-01-12T08:01:06Z</time>
      </trkpt>
      <trkpt lat="45.2249" lon="5.99923">
        <ele>1377.400024414</ele>
        <time>2014-01-12T08:01:08Z</time>
      </trkpt>
      <trkpt lat="45.22487" lon="5.99922">
        <ele>1377</ele>
        <time>2014-01-12T08:01:10Z</time>
      </trkpt>
      <trkpt lat="45.22486" lon="5.99921">
        <ele>1376.800048828</ele>
        <time>2014-01-12T08:01:11Z</time>
      </trkpt>
      <trkpt lat="45.22482" lon="5.9992">
        <ele>1376.400024414</ele>
        <time>2014-01-12T08:01:13Z</time>
      </trkpt>
      <trkpt lat="45.2248" lon="5.99919">
        <ele>1376.199951172</ele>
        <time>2014-01-12T08:01:15Z</time>
      </trkpt>
      <trkpt lat="45.22479" lon="5.99919">
        <ele>1376</ele>
        <time>2014-01-12T08:01:16Z</time>
      </trkpt>
      <trkpt lat="45.22475" lon="5.99917">
        <ele>1375.599975586</ele>
        <time>2014-01-12T08:01:18Z</time>
      </trkpt>
      <trkpt lat="45.22472" lon="5.99918">
        <ele>1375.400024414</ele>
        <time>2014-01-12T08:01:20Z</time>
      </trkpt>
      <trkpt lat="45.22466" lon="5.99918">
        <ele>1375.199951172</ele>
        <time>2014-01-12T08:01:25Z</time>
      </trkpt>
      <trkpt lat="45.22465" lon="5.99917">
        <ele>1375</ele>
        <time>2014-01-12T08:01:26Z</time>
      </trkpt>
      <trkpt lat="45.22464" lon="5.99917">
        <ele>1374.800048828</ele>
        <time>2014-01-12T08:01:27Z</time>
      </trkpt>
      <trkpt lat="45.2246" lon="5.99915">
        <ele>1374.199951172</ele>
        <time>2014-01-12T08:01:31Z</time>
      </trkpt>
      <trkpt lat="45.22459" lon="5.99914">
        <ele>1374</ele>
        <time>2014-01-12T08:01:32Z</time>
      </trkpt>
      <trkpt lat="45.22457" lon="5.99912">
        <ele>1373.400024414</ele>
        <time>2014-01-12T08:01:35Z</time>
      </trkpt>
      <trkpt lat="45.22456" lon="5.99908">
        <ele>1372.400024414</ele>
        <time>2014-01-12T08:01:38Z</time>
      </trkpt>
      <trkpt lat="45.22456" lon="5.99905">
        <ele>1371.599975586</ele>
        <time>2014-01-12T08:01:40Z</time>
      </trkpt>
      <trkpt lat="45.22457" lon="5.999">
        <ele>1370.599975586</ele>
        <time>2014-01-12T08:01:43Z</time>
      </trkpt>
      <trkpt lat="45.22456" lon="5.99891">
        <ele>1368.400024414</ele>
        <time>2014-01-12T08:01:48Z</time>
      </trkpt>
      <trkpt lat="45.22456" lon="5.99889">
        <ele>1368</ele>
        <time>2014-01-12T08:01:49Z</time>
      </trkpt>
      <trkpt lat="45.22456" lon="5.99877">
        <ele>1365.199951172</ele>
        <time>2014-01-12T08:01:55Z</time>
      </trkpt>
      <trkpt lat="45.22456" lon="5.99869">
        <ele>1363.400024414</ele>
        <time>2014-01-12T08:01:59Z</time>
      </trkpt>
      <trkpt lat="45.22457" lon="5.99863">
        <ele>1362.199951172</ele>
        <time>2014-01-12T08:02:02Z</time>
      </trkpt>
      <trkpt lat="45.22456" lon="5.99855">
        <ele>1360.199951172</ele>
        <time>2014-01-12T08:02:06Z</time>
      </trkpt>
      <trkpt lat="45.22455" lon="5.99854">
        <ele>1359.800048828</ele>
        <time>2014-01-12T08:02:08Z</time>
      </trkpt>
      <trkpt lat="45.22454" lon="5.99852">
        <ele>1359.199951172</ele>
        <time>2014-01-12T08:02:10Z</time>
      </trkpt>
      <trkpt lat="45.22454" lon="5.99849">
        <ele>1358.599975586</ele>
        <time>2014-01-12T08:02:13Z</time>
      </trkpt>
      <trkpt lat="45.22454" lon="5.99849">
        <ele>1358.599975586</ele>
        <time>2014-01-12T08:02:14Z</time>
      </trkpt>
      <trkpt lat="45.22452" lon="5.99849">
        <ele>1358.400024414</ele>
        <time>2014-01-12T08:02:20Z</time>
      </trkpt>
      <trkpt lat="45.2245" lon="5.9985">
        <ele>1358.400024414</ele>
        <time>2014-01-12T08:02:29Z</time>
      </trkpt>
      <trkpt lat="45.2245" lon="5.9985">
        <ele>1358.400024414</ele>
        <time>2014-01-12T08:02:31Z</time>
      </trkpt>
      <trkpt lat="45.22449" lon="5.99851">
        <ele>1358.599975586</ele>
        <time>2014-01-12T08:02:33Z</time>
      </trkpt>
      <trkpt lat="45.22449" lon="5.99849">
        <ele>1358.199951172</ele>
        <time>2014-01-12T08:02:36Z</time>
      </trkpt>
      <trkpt lat="45.22451" lon="5.99846">
        <ele>1357.599975586</ele>
        <time>2014-01-12T08:02:41Z</time>
      </trkpt>
      <trkpt lat="45.2245" lon="5.99845">
        <ele>1357.400024414</ele>
        <time>2014-01-12T08:02:42Z</time>
      </trkpt>
      <trkpt lat="45.22449" lon="5.99845">
        <ele>1357.199951172</ele>
        <time>2014-01-12T08:02:43Z</time>
      </trkpt>
      <trkpt lat="45.22449" lon="5.99847">
        <ele>1357.800048828</ele>
        <time>2014-01-12T08:02:47Z</time>
      </trkpt>
      <trkpt lat="45.22449" lon="5.99848">
        <ele>1358</ele>
        <time>2014-01-12T08:02:51Z</time>
      </trkpt>
      <trkpt lat="45.2245" lon="5.99848">
        <ele>1358</ele>
        <time>2014-01-12T08:02:55Z</time>
      </trkpt>
      <trkpt lat="45.22449" lon="5.99848">
        <ele>1357.800048828</ele>
        <time>2014-01-12T08:03:16Z</time>
      </trkpt>
      <trkpt lat="45.22449" lon="5.99847">
        <ele>1357.599975586</ele>
        <time>2014-01-12T08:03:28Z</time>
      </trkpt>
      <trkpt lat="45.22449" lon="5.99846">
        <ele>1357.400024414</ele>
        <time>2014-01-12T08:03:30Z</time>
      </trkpt>
      <trkpt lat="45.22448" lon="5.99845">
        <ele>1357.199951172</ele>
        <time>2014-01-12T08:03:37Z</time>
      </trkpt>
      <trkpt lat="45.22447" lon="5.99843">
        <ele>1356.400024414</ele>
        <time>2014-01-12T08:03:44Z</time>
      </trkpt>
      <trkpt lat="45.22447" lon="5.99847">
        <ele>1357.400024414</ele>
        <time>2014-01-12T08:03:51Z</time>
      </trkpt>
      <trkpt lat="45.22447" lon="5.99848">
        <ele>1357.599975586</ele>
        <time>2014-01-12T08:03:55Z</time>
      </trkpt>
      <trkpt lat="45.22448" lon="5.99848">
        <ele>1358</ele>
        <time>2014-01-12T08:04:11Z</time>
      </trkpt>
      <trkpt lat="45.22449" lon="5.9985">
        <ele>1358.400024414</ele>
        <time>2014-01-12T08:04:17Z</time>
      </trkpt>
      <trkpt lat="45.22449" lon="5.99849">
        <ele>1358</ele>
        <time>2014-01-12T08:04:33Z</time>
      </trkpt>
      <trkpt lat="45.2245" lon="5.99849">
        <ele>1358.199951172</ele>
        <time>2014-01-12T08:04:37Z</time>
      </trkpt>
      <trkpt lat="45.2245" lon="5.99848">
        <ele>1358</ele>
        <time>2014-01-12T08:04:43Z</time>
      </trkpt>
      <trkpt lat="45.22451" lon="5.9985">
        <ele>1358.599975586</ele>
        <time>2014-01-12T08:04:48Z</time>
      </trkpt>
      <trkpt lat="45.22451" lon="5.9985">
        <ele>1358.599975586</ele>
        <time>2014-01-12T08:04:49Z</time>
      </trkpt>
      <trkpt lat="45.2245" lon="5.9985">
        <ele>1358.400024414</ele>
        <time>2014-01-12T08:04:50Z</time>
      </trkpt>
      <trkpt lat="45.22451" lon="5.9985">
        <ele>1358.400024414</ele>
        <time>2014-01-12T08:04:52Z</time>
      </trkpt>
      <trkpt lat="45.2245" lon="5.99851">
        <ele>1358.599975586</ele>
        <time>2014-01-12T08:04:56Z</time>
      </trkpt>
      <trkpt lat="45.2245" lon="5.99851">
        <ele>1358.800048828</ele>
        <time>2014-01-12T08:04:59Z</time>
      </trkpt>
      <trkpt lat="45.2245" lon="5.99852">
        <ele>1358.800048828</ele>
        <time>2014-01-12T08:05:01Z</time>
      </trkpt>
      <trkpt lat="45.22449" lon="5.99852">
        <ele>1358.800048828</ele>
        <time>2014-01-12T08:05:03Z</time>
      </trkpt>
      <trkpt lat="45.22449" lon="5.99852">
        <ele>1359</ele>
        <time>2014-01-12T08:05:07Z</time>
      </trkpt>
      <trkpt lat="45.22449" lon="5.99853">
        <ele>1359.199951172</ele>
        <time>2014-01-12T08:05:21Z</time>
      </trkpt>
      <trkpt lat="45.2245" lon="5.99853">
        <ele>1359.199951172</ele>
        <time>2014-01-12T08:05:32Z</time>
      </trkpt>
      <trkpt lat="45.22449" lon="5.99854">
        <ele>1359.199951172</ele>
        <time>2014-01-12T08:05:42Z</time>
      </trkpt>
      <trkpt lat="45.22448" lon="5.99853">
        <ele>1359</ele>
        <time>2014-01-12T08:05:51Z</time>
      </trkpt>
      <trkpt lat="45.22447" lon="5.99853">
        <ele>1359</ele>
        <time>2014-01-12T08:05:54Z</time>
      </trkpt>
      <trkpt lat="45.22448" lon="5.99854">
        <ele>1359.400024414</ele>
        <time>2014-01-12T08:06:05Z</time>
      </trkpt>
      <trkpt lat="45.22445" lon="5.99854">
        <ele>1359</ele>
        <time>2014-01-12T08:06:26Z</time>
      </trkpt>
      <trkpt lat="45.22445" lon="5.99853">
        <ele>1358.800048828</ele>
        <time>2014-01-12T08:06:28Z</time>
      </trkpt>
      <trkpt lat="45.22446" lon="5.99852">
        <ele>1358.599975586</ele>
        <time>2014-01-12T08:06:30Z</time>
      </trkpt>
      <trkpt lat="45.22448" lon="5.99849">
        <ele>1358</ele>
        <time>2014-01-12T08:06:37Z</time>
      </trkpt>
      <trkpt lat="45.22448" lon="5.99849">
        <ele>1358</ele>
        <time>2014-01-12T08:06:38Z</time>
      </trkpt>
      <trkpt lat="45.22449" lon="5.99849">
        <ele>1358.199951172</ele>
        <time>2014-01-12T08:06:39Z</time>
      </trkpt>
      <trkpt lat="45.22449" lon="5.9985">
        <ele>1358.400024414</ele>
        <time>2014-01-12T08:06:44Z</time>
      </trkpt>
      <trkpt lat="45.22449" lon="5.99851">
        <ele>1358.599975586</ele>
        <time>2014-01-12T08:06:45Z</time>
      </trkpt>
      <trkpt lat="45.22449" lon="5.9985">
        <ele>1358.400024414</ele>
        <time>2014-01-12T08:06:47Z</time>
      </trkpt>
      <trkpt lat="45.2245" lon="5.99849">
        <ele>1358.199951172</ele>
        <time>2014-01-12T08:06:50Z</time>
      </trkpt>
      <trkpt lat="45.2245" lon="5.99846">
        <ele>1357.599975586</ele>
        <time>2014-01-12T08:06:59Z</time>
      </trkpt>
      <trkpt lat="45.2245" lon="5.99846">
        <ele>1357.599975586</ele>
        <time>2014-01-12T08:07:01Z</time>
      </trkpt>
      <trkpt lat="45.22452" lon="5.99843">
        <ele>1357</ele>
        <time>2014-01-12T08:07:18Z</time>
      </trkpt>
      <trkpt lat="45.22456" lon="5.99844">
        <ele>1357.800048828</ele>
        <time>2014-01-12T08:07:23Z</time>
      </trkpt>
      <trkpt lat="45.22461" lon="5.99843">
        <ele>1357.800048828</ele>
        <time>2014-01-12T08:07:28Z</time>
      </trkpt>
      <trkpt lat="45.22461" lon="5.99841">
        <ele>1357.599975586</ele>
        <time>2014-01-12T08:07:29Z</time>
      </trkpt>
      <trkpt lat="45.22462" lon="5.99841">
        <ele>1357.599975586</ele>
        <time>2014-01-12T08:07:30Z</time>
      </trkpt>
      <trkpt lat="45.22463" lon="5.9984">
        <ele>1357.599975586</ele>
        <time>2014-01-12T08:07:31Z</time>
      </trkpt>
      <trkpt lat="45.22466" lon="5.99839">
        <ele>1357.800048828</ele>
        <time>2014-01-12T08:07:36Z</time>
      </trkpt>
      <trkpt lat="45.22467" lon="5.99839">
        <ele>1357.800048828</ele>
        <time>2014-01-12T08:07:38Z</time>
      </trkpt>
      <trkpt lat="45.22468" lon="5.99839">
        <ele>1357.800048828</ele>
        <time>2014-01-12T08:07:41Z</time>
      </trkpt>
      <trkpt lat="45.2247" lon="5.99838">
        <ele>1357.800048828</ele>
        <time>2014-01-12T08:07:52Z</time>
      </trkpt>
      <trkpt lat="45.22469" lon="5.99838">
        <ele>1357.800048828</ele>
        <time>2014-01-12T08:07:53Z</time>
      </trkpt>
      <trkpt lat="45.22469" lon="5.99838">
        <ele>1357.800048828</ele>
        <time>2014-01-12T08:07:58Z</time>
      </trkpt>
      <trkpt lat="45.22469" lon="5.99839">
        <ele>1357.800048828</ele>
        <time>2014-01-12T08:07:59Z</time>
      </trkpt>
      <trkpt lat="45.22469" lon="5.99839">
        <ele>1358</ele>
        <time>2014-01-12T08:08:02Z</time>
      </trkpt>
      <trkpt lat="45.2247" lon="5.99843">
        <ele>1358.800048828</ele>
        <time>2014-01-12T08:08:07Z</time>
      </trkpt>
      <trkpt lat="45.22465" lon="5.99848">
        <ele>1359.400024414</ele>
        <time>2014-01-12T08:08:17Z</time>
      </trkpt>
      <trkpt lat="45.22464" lon="5.99849">
        <ele>1359.599975586</ele>
        <time>2014-01-12T08:08:19Z</time>
      </trkpt>
      <trkpt lat="45.22456" lon="5.99851">
        <ele>1359.199951172</ele>
        <time>2014-01-12T08:08:26Z</time>
      </trkpt>
      <trkpt lat="45.22451" lon="5.99851">
        <ele>1358.800048828</ele>
        <time>2014-01-12T08:08:32Z</time>
      </trkpt>
      <trkpt lat="45.2245" lon="5.99851">
        <ele>1358.599975586</ele>
        <time>2014-01-12T08:08:36Z</time>
      </trkpt>
      <trkpt lat="45.22449" lon="5.9985">
        <ele>1358.400024414</ele>
        <time>2014-01-12T08:08:37Z</time>
      </trkpt>
      <trkpt lat="45.22449" lon="5.99849">
        <ele>1358</ele>
        <time>2014-01-12T08:08:41Z</time>
      </trkpt>
      <trkpt lat="45.22449" lon="5.99848">
        <ele>1358</ele>
        <time>2014-01-12T08:08:43Z</time>
      </trkpt>
      <trkpt lat="45.22448" lon="5.99848">
        <ele>1358</ele>
        <time>2014-01-12T08:08:48Z</time>
      </trkpt>
      <trkpt lat="45.22448" lon="5.99849">
        <ele>1358</ele>
        <time>2014-01-12T08:08:53Z</time>
      </trkpt>
      <trkpt lat="45.22449" lon="5.99848">
        <ele>1358</ele>
        <time>2014-01-12T08:09:03Z</time>
      </trkpt>
      <trkpt lat="45.22449" lon="5.99848">
        <ele>1357.800048828</ele>
        <time>2014-01-12T08:09:07Z</time>
      </trkpt>
      <trkpt lat="45.2245" lon="5.99847">
        <ele>1357.800048828</ele>
        <time>2014-01-12T08:09:10Z</time>
      </trkpt>
      <trkpt lat="45.22451" lon="5.99846">
        <ele>1357.800048828</ele>
        <time>2014-01-12T08:09:14Z</time>
      </trkpt>
      <trkpt lat="45.22451" lon="5.99847">
        <ele>1357.800048828</ele>
        <time>2014-01-12T08:09:15Z</time>
      </trkpt>
      <trkpt lat="45.22451" lon="5.99847">
        <ele>1357.800048828</ele>
        <time>2014-01-12T08:09:16Z</time>
      </trkpt>
      <trkpt lat="45.22451" lon="5.99846">
        <ele>1357.800048828</ele>
        <time>2014-01-12T08:09:17Z</time>
      </trkpt>
      <trkpt lat="45.22451" lon="5.99846">
        <ele>1357.800048828</ele>
        <time>2014-01-12T08:09:31Z</time>
      </trkpt>
      <trkpt lat="45.22451" lon="5.99846">
        <ele>1357.599975586</ele>
        <time>2014-01-12T08:09:33Z</time>
      </trkpt>
      <trkpt lat="45.22452" lon="5.99847">
        <ele>1358.199951172</ele>
        <time>2014-01-12T08:09:37Z</time>
      </trkpt>
      <trkpt lat="45.2245" lon="5.99845">
        <ele>1357.199951172</ele>
        <time>2014-01-12T08:09:50Z</time>
      </trkpt>
      <trkpt lat="45.2245" lon="5.99847">
        <ele>1357.800048828</ele>
        <time>2014-01-12T08:09:58Z</time>
      </trkpt>
      <trkpt lat="45.22452" lon="5.99846">
        <ele>1357.599975586</ele>
        <time>2014-01-12T08:10:10Z</time>
      </trkpt>
      <trkpt lat="45.22453" lon="5.99845">
        <ele>1357.599975586</ele>
        <time>2014-01-12T08:10:16Z</time>
      </trkpt>
      <trkpt lat="45.22453" lon="5.99845">
        <ele>1357.599975586</ele>
        <time>2014-01-12T08:10:18Z</time>
      </trkpt>
      <trkpt lat="45.2245" lon="5.99848">
        <ele>1358</ele>
        <time>2014-01-12T08:10:22Z</time>
      </trkpt>
      <trkpt lat="45.22449" lon="5.9985">
        <ele>1358.199951172</ele>
        <time>2014-01-12T08:10:24Z</time>
      </trkpt>
      <trkpt lat="45.22445" lon="5.99859">
        <ele>1360</ele>
        <time>2014-01-12T08:10:32Z</time>
      </trkpt>
      <trkpt lat="45.22443" lon="5.99866">
        <ele>1361.599975586</ele>
        <time>2014-01-12T08:10:39Z</time>
      </trkpt>
      <trkpt lat="45.22443" lon="5.9987">
        <ele>1362.400024414</ele>
        <time>2014-01-12T08:10:42Z</time>
      </trkpt>
      <trkpt lat="45.22443" lon="5.99872">
        <ele>1363</ele>
        <time>2014-01-12T08:10:44Z</time>
      </trkpt>
      <trkpt lat="45.22444" lon="5.99877">
        <ele>1364.199951172</ele>
        <time>2014-01-12T08:10:48Z</time>
      </trkpt>
      <trkpt lat="45.22444" lon="5.99878">
        <ele>1364.599975586</ele>
        <time>2014-01-12T08:10:49Z</time>
      </trkpt>
      <trkpt lat="45.22446" lon="5.99884">
        <ele>1366</ele>
        <time>2014-01-12T08:10:54Z</time>
      </trkpt>
      <trkpt lat="45.22447" lon="5.99884">
        <ele>1366.199951172</ele>
        <time>2014-01-12T08:10:55Z</time>
      </trkpt>
      <trkpt lat="45.22447" lon="5.99886">
        <ele>1366.599975586</ele>
        <time>2014-01-12T08:10:56Z</time>
      </trkpt>
      <trkpt lat="45.2245" lon="5.99892">
        <ele>1368.199951172</ele>
        <time>2014-01-12T08:11:02Z</time>
      </trkpt>
      <trkpt lat="45.22449" lon="5.99893">
        <ele>1368.400024414</ele>
        <time>2014-01-12T08:11:03Z</time>
      </trkpt>
      <trkpt lat="45.2245" lon="5.99896">
        <ele>1369.199951172</ele>
        <time>2014-01-12T08:11:06Z</time>
      </trkpt>
      <trkpt lat="45.2245" lon="5.99899">
        <ele>1370</ele>
        <time>2014-01-12T08:11:11Z</time>
      </trkpt>
      <trkpt lat="45.22451" lon="5.999">
        <ele>1370.199951172</ele>
        <time>2014-01-12T08:11:12Z</time>
      </trkpt>
      <trkpt lat="45.22452" lon="5.99903">
        <ele>1371</ele>
        <time>2014-01-12T08:11:16Z</time>
      </trkpt>
      <trkpt lat="45.22453" lon="5.99906">
        <ele>1371.599975586</ele>
        <time>2014-01-12T08:11:18Z</time>
      </trkpt>
      <trkpt lat="45.22453" lon="5.99906">
        <ele>1371.599975586</ele>
        <time>2014-01-12T08:11:23Z</time>
      </trkpt>
      <trkpt lat="45.22456" lon="5.99912">
        <ele>1373.199951172</ele>
        <time>2014-01-12T08:11:29Z</time>
      </trkpt>
      <trkpt lat="45.22458" lon="5.99915">
        <ele>1374.199951172</ele>
        <time>2014-01-12T08:11:32Z</time>
      </trkpt>
      <trkpt lat="45.2246" lon="5.99918">
        <ele>1374.800048828</ele>
        <time>2014-01-12T08:11:35Z</time>
      </trkpt>
      <trkpt lat="45.22459" lon="5.99924">
        <ele>1375.400024414</ele>
        <time>2014-01-12T08:11:40Z</time>
      </trkpt>
      <trkpt lat="45.22459" lon="5.99925">
        <ele>1375.599975586</ele>
        <time>2014-01-12T08:11:41Z</time>
      </trkpt>
      <trkpt lat="45.2246" lon="5.9993">
        <ele>1376.199951172</ele>
        <time>2014-01-12T08:11:46Z</time>
      </trkpt>
      <trkpt lat="45.2246" lon="5.99934">
        <ele>1376.800048828</ele>
        <time>2014-01-12T08:11:51Z</time>
      </trkpt>
      <trkpt lat="45.2246" lon="5.99935">
        <ele>1377</ele>
        <time>2014-01-12T08:11:52Z</time>
      </trkpt>
      <trkpt lat="45.22459" lon="5.9994">
        <ele>1377.400024414</ele>
        <time>2014-01-12T08:11:56Z</time>
      </trkpt>
      <trkpt lat="45.22461" lon="5.99945">
        <ele>1378.199951172</ele>
        <time>2014-01-12T08:12:00Z</time>
      </trkpt>
      <trkpt lat="45.22462" lon="5.99949">
        <ele>1378.800048828</ele>
        <time>2014-01-12T08:12:03Z</time>
      </trkpt>
      <trkpt lat="45.22464" lon="5.99952">
        <ele>1379.400024414</ele>
        <time>2014-01-12T08:12:05Z</time>
      </trkpt>
      <trkpt lat="45.22464" lon="5.99954">
        <ele>1379.599975586</ele>
        <time>2014-01-12T08:12:07Z</time>
      </trkpt>
      <trkpt lat="45.22463" lon="5.99955">
        <ele>1379.800048828</ele>
        <time>2014-01-12T08:12:09Z</time>
      </trkpt>
      <trkpt lat="45.22463" lon="5.99955">
        <ele>1379.800048828</ele>
        <time>2014-01-12T08:12:10Z</time>
      </trkpt>
      <trkpt lat="45.22462" lon="5.99957">
        <ele>1380</ele>
        <time>2014-01-12T08:12:12Z</time>
      </trkpt>
      <trkpt lat="45.22462" lon="5.99959">
        <ele>1380</ele>
        <time>2014-01-12T08:12:14Z</time>
      </trkpt>
      <trkpt lat="45.22461" lon="5.99963">
        <ele>1380.599975586</ele>
        <time>2014-01-12T08:12:19Z</time>
      </trkpt>
      <trkpt lat="45.2246" lon="5.99965">
        <ele>1380.800048828</ele>
        <time>2014-01-12T08:12:22Z</time>
      </trkpt>
      <trkpt lat="45.22459" lon="5.99973">
        <ele>1381.599975586</ele>
        <time>2014-01-12T08:12:26Z</time>
      </trkpt>
      <trkpt lat="45.22459" lon="5.99975">
        <ele>1382</ele>
        <time>2014-01-12T08:12:27Z</time>
      </trkpt>
      <trkpt lat="45.22458" lon="5.9998">
        <ele>1382.400024414</ele>
        <time>2014-01-12T08:12:31Z</time>
      </trkpt>
      <trkpt lat="45.22458" lon="5.99986">
        <ele>1383.199951172</ele>
        <time>2014-01-12T08:12:36Z</time>
      </trkpt>
      <trkpt lat="45.22457" lon="5.99992">
        <ele>1383.800048828</ele>
        <time>2014-01-12T08:12:42Z</time>
      </trkpt>
      <trkpt lat="45.22454" lon="5.99998">
        <ele>1384.199951172</ele>
        <time>2014-01-12T08:12:47Z</time>
      </trkpt>
      <trkpt lat="45.22454" lon="5.99999">
        <ele>1384.400024414</ele>
        <time>2014-01-12T08:12:48Z</time>
      </trkpt>
      <trkpt lat="45.22452" lon="6.00003">
        <ele>1384.199951172</ele>
        <time>2014-01-12T08:12:53Z</time>
      </trkpt>
      <trkpt lat="45.22451" lon="6.00008">
        <ele>1384</ele>
        <time>2014-01-12T08:12:59Z</time>
      </trkpt>
      <trkpt lat="45.22447" lon="6.00012">
        <ele>1383.599975586</ele>
        <time>2014-01-12T08:13:06Z</time>
      </trkpt>
      <trkpt lat="45.22445" lon="6.00015">
        <ele>1383.400024414</ele>
        <time>2014-01-12T08:13:12Z</time>
      </trkpt>
      <trkpt lat="45.22447" lon="6.00021">
        <ele>1383.599975586</ele>
        <time>2014-01-12T08:13:17Z</time>
      </trkpt>
      <trkpt lat="45.22447" lon="6.00023">
        <ele>1383.599975586</ele>
        <time>2014-01-12T08:13:20Z</time>
      </trkpt>
      <trkpt lat="45.22448" lon="6.00025">
        <ele>1383.800048828</ele>
        <time>2014-01-12T08:13:22Z</time>
      </trkpt>
      <trkpt lat="45.2245" lon="6.00034">
        <ele>1384</ele>
        <time>2014-01-12T08:13:27Z</time>
      </trkpt>
      <trkpt lat="45.2245" lon="6.00035">
        <ele>1384</ele>
        <time>2014-01-12T08:13:28Z</time>
      </trkpt>
      <trkpt lat="45.22449" lon="6.00035">
        <ele>1383.800048828</ele>
        <time>2014-01-12T08:13:30Z</time>
      </trkpt>
      <trkpt lat="45.22447" lon="6.00036">
        <ele>1383.599975586</ele>
        <time>2014-01-12T08:13:32Z</time>
      </trkpt>
      <trkpt lat="45.22447" lon="6.00037">
        <ele>1383.599975586</ele>
        <time>2014-01-12T08:13:33Z</time>
      </trkpt>
      <trkpt lat="45.22446" lon="6.00036">
        <ele>1383.400024414</ele>
        <time>2014-01-12T08:13:36Z</time>
      </trkpt>
      <trkpt lat="45.22443" lon="6.00035">
        <ele>1383.199951172</ele>
        <time>2014-01-12T08:13:44Z</time>
      </trkpt>
      <trkpt lat="45.22442" lon="6.00035">
        <ele>1383</ele>
        <time>2014-01-12T08:13:45Z</time>
      </trkpt>
      <trkpt lat="45.22441" lon="6.00038">
        <ele>1383</ele>
        <time>2014-01-12T08:13:52Z</time>
      </trkpt>
      <trkpt lat="45.22438" lon="6.0004">
        <ele>1382.599975586</ele>
        <time>2014-01-12T08:13:59Z</time>
      </trkpt>
      <trkpt lat="45.22437" lon="6.00053">
        <ele>1392.199951172</ele>
        <time>2014-01-12T08:14:16Z</time>
      </trkpt>
      <trkpt lat="45.22435" lon="6.00056">
        <ele>1392.400024414</ele>
        <time>2014-01-12T08:14:22Z</time>
      </trkpt>
      <trkpt lat="45.22434" lon="6.00058">
        <ele>1392.599975586</ele>
        <time>2014-01-12T08:14:28Z</time>
      </trkpt>
      <trkpt lat="45.22435" lon="6.00061">
        <ele>1393.400024414</ele>
        <time>2014-01-12T08:14:30Z</time>
      </trkpt>
      <trkpt lat="45.22435" lon="6.00062">
        <ele>1393.400024414</ele>
        <time>2014-01-12T08:14:33Z</time>
      </trkpt>
      <trkpt lat="45.2243" lon="6.00066">
        <ele>1393.199951172</ele>
        <time>2014-01-12T08:14:45Z</time>
      </trkpt>
      <trkpt lat="45.22427" lon="6.00068">
        <ele>1392.400024414</ele>
        <time>2014-01-12T08:14:51Z</time>
      </trkpt>
      <trkpt lat="45.22426" lon="6.00073">
        <ele>1393</ele>
        <time>2014-01-12T08:14:57Z</time>
      </trkpt>
      <trkpt lat="45.22426" lon="6.00075">
        <ele>1393.400024414</ele>
        <time>2014-01-12T08:15:02Z</time>
      </trkpt>
      <trkpt lat="45.22424" lon="6.00079">
        <ele>1393.400024414</ele>
        <time>2014-01-12T08:15:06Z</time>
      </trkpt>
      <trkpt lat="45.22423" lon="6.00079">
        <ele>1393.199951172</ele>
        <time>2014-01-12T08:15:07Z</time>
      </trkpt>
      <trkpt lat="45.22423" lon="6.00082">
        <ele>1393.599975586</ele>
        <time>2014-01-12T08:15:10Z</time>
      </trkpt>
      <trkpt lat="45.22423" lon="6.00085">
        <ele>1394.400024414</ele>
        <time>2014-01-12T08:15:14Z</time>
      </trkpt>
      <trkpt lat="45.22421" lon="6.00086">
        <ele>1394.199951172</ele>
        <time>2014-01-12T08:15:16Z</time>
      </trkpt>
      <trkpt lat="45.22418" lon="6.0009">
        <ele>1394.400024414</ele>
        <time>2014-01-12T08:15:21Z</time>
      </trkpt>
      <trkpt lat="45.22418" lon="6.00091">
        <ele>1394.400024414</ele>
        <time>2014-01-12T08:15:24Z</time>
      </trkpt>
      <trkpt lat="45.22418" lon="6.00092">
        <ele>1394.599975586</ele>
        <time>2014-01-12T08:15:25Z</time>
      </trkpt>
      <trkpt lat="45.22415" lon="6.00094">
        <ele>1395.400024414</ele>
        <time>2014-01-12T08:15:31Z</time>
      </trkpt>
      <trkpt lat="45.22415" lon="6.00097">
        <ele>1396.400024414</ele>
        <time>2014-01-12T08:15:35Z</time>
      </trkpt>
      <trkpt lat="45.22413" lon="6.00099">
        <ele>1397</ele>
        <time>2014-01-12T08:15:42Z</time>
      </trkpt>
      <trkpt lat="45.22411" lon="6.00103">
        <ele>1398.400024414</ele>
        <time>2014-01-12T08:15:48Z</time>
      </trkpt>
      <trkpt lat="45.2241" lon="6.00105">
        <ele>1399</ele>
        <time>2014-01-12T08:15:50Z</time>
      </trkpt>
      <trkpt lat="45.22409" lon="6.00106">
        <ele>1399.400024414</ele>
        <time>2014-01-12T08:15:51Z</time>
      </trkpt>
      <trkpt lat="45.22408" lon="6.0011">
        <ele>1400.599975586</ele>
        <time>2014-01-12T08:15:55Z</time>
      </trkpt>
      <trkpt lat="45.22407" lon="6.00112">
        <ele>1401.199951172</ele>
        <time>2014-01-12T08:15:57Z</time>
      </trkpt>
      <trkpt lat="45.22407" lon="6.00115">
        <ele>1402</ele>
        <time>2014-01-12T08:15:59Z</time>
      </trkpt>
      <trkpt lat="45.22406" lon="6.00117">
        <ele>1402.400024414</ele>
        <time>2014-01-12T08:16:01Z</time>
      </trkpt>
      <trkpt lat="45.22403" lon="6.00117">
        <ele>1402.599975586</ele>
        <time>2014-01-12T08:16:05Z</time>
      </trkpt>
      <trkpt lat="45.22402" lon="6.0012">
        <ele>1403.599975586</ele>
        <time>2014-01-12T08:16:10Z</time>
      </trkpt>
      <trkpt lat="45.22397" lon="6.00122">
        <ele>1404.199951172</ele>
        <time>2014-01-12T08:16:17Z</time>
      </trkpt>
      <trkpt lat="45.22393" lon="6.00124">
        <ele>1405</ele>
        <time>2014-01-12T08:16:21Z</time>
      </trkpt>
      <trkpt lat="45.22393" lon="6.00126">
        <ele>1405.400024414</ele>
        <time>2014-01-12T08:16:22Z</time>
      </trkpt>
      <trkpt lat="45.22392" lon="6.00129">
        <ele>1406</ele>
        <time>2014-01-12T08:16:26Z</time>
      </trkpt>
      <trkpt lat="45.22392" lon="6.0013">
        <ele>1406.199951172</ele>
        <time>2014-01-12T08:16:27Z</time>
      </trkpt>
      <trkpt lat="45.22391" lon="6.00131">
        <ele>1406.599975586</ele>
        <time>2014-01-12T08:16:29Z</time>
      </trkpt>
      <trkpt lat="45.2239" lon="6.00133">
        <ele>1406.800048828</ele>
        <time>2014-01-12T08:16:31Z</time>
      </trkpt>
      <trkpt lat="45.22387" lon="6.00135">
        <ele>1407.400024414</ele>
        <time>2014-01-12T08:16:35Z</time>
      </trkpt>
      <trkpt lat="45.22384" lon="6.00136">
        <ele>1407.599975586</ele>
        <time>2014-01-12T08:16:39Z</time>
      </trkpt>
      <trkpt lat="45.22383" lon="6.00136">
        <ele>1407.800048828</ele>
        <time>2014-01-12T08:16:40Z</time>
      </trkpt>
      <trkpt lat="45.22382" lon="6.00143">
        <ele>1409</ele>
        <time>2014-01-12T08:16:46Z</time>
      </trkpt>
      <trkpt lat="45.22379" lon="6.00146">
        <ele>1409.599975586</ele>
        <time>2014-01-12T08:16:51Z</time>
      </trkpt>
      <trkpt lat="45.2237" lon="6.00144">
        <ele>1409.199951172</ele>
        <time>2014-01-12T08:16:58Z</time>
      </trkpt>
      <trkpt lat="45.22368" lon="6.00143">
        <ele>1409</ele>
        <time>2014-01-12T08:17:00Z</time>
      </trkpt>
      <trkpt lat="45.22366" lon="6.00145">
        <ele>1409.199951172</ele>
        <time>2014-01-12T08:17:04Z</time>
      </trkpt>
      <trkpt lat="45.22366" lon="6.00148">
        <ele>1409.800048828</ele>
        <time>2014-01-12T08:17:11Z</time>
      </trkpt>
      <trkpt lat="45.22368" lon="6.00154">
        <ele>1410.599975586</ele>
        <time>2014-01-12T08:17:16Z</time>
      </trkpt>
      <trkpt lat="45.22367" lon="6.00155">
        <ele>1410.800048828</ele>
        <time>2014-01-12T08:17:18Z</time>
      </trkpt>
      <trkpt lat="45.22366" lon="6.0016">
        <ele>1411.400024414</ele>
        <time>2014-01-12T08:17:24Z</time>
      </trkpt>
      <trkpt lat="45.22365" lon="6.00162">
        <ele>1411.599975586</ele>
        <time>2014-01-12T08:17:26Z</time>
      </trkpt>
      <trkpt lat="45.22364" lon="6.00162">
        <ele>1411.599975586</ele>
        <time>2014-01-12T08:17:30Z</time>
      </trkpt>
      <trkpt lat="45.22365" lon="6.00163">
        <ele>1411.800048828</ele>
        <time>2014-01-12T08:17:41Z</time>
      </trkpt>
      <trkpt lat="45.22366" lon="6.00165">
        <ele>1412</ele>
        <time>2014-01-12T08:17:46Z</time>
      </trkpt>
      <trkpt lat="45.22367" lon="6.00166">
        <ele>1412.400024414</ele>
        <time>2014-01-12T08:17:48Z</time>
      </trkpt>
      <trkpt lat="45.22368" lon="6.00167">
        <ele>1412.599975586</ele>
        <time>2014-01-12T08:17:53Z</time>
      </trkpt>
      <trkpt lat="45.22368" lon="6.00168">
        <ele>1412.800048828</ele>
        <time>2014-01-12T08:17:54Z</time>
      </trkpt>
      <trkpt lat="45.22367" lon="6.00169">
        <ele>1412.800048828</ele>
        <time>2014-01-12T08:17:56Z</time>
      </trkpt>
      <trkpt lat="45.22368" lon="6.00169">
        <ele>1413</ele>
        <time>2014-01-12T08:17:59Z</time>
      </trkpt>
      <trkpt lat="45.22367" lon="6.00169">
        <ele>1412.800048828</ele>
        <time>2014-01-12T08:18:04Z</time>
      </trkpt>
      <trkpt lat="45.22367" lon="6.00169">
        <ele>1412.800048828</ele>
        <time>2014-01-12T08:18:06Z</time>
      </trkpt>
      <trkpt lat="45.22367" lon="6.00169">
        <ele>1412.800048828</ele>
        <time>2014-01-12T08:18:07Z</time>
      </trkpt>
      <trkpt lat="45.22366" lon="6.00169">
        <ele>1412.800048828</ele>
        <time>2014-01-12T08:18:10Z</time>
      </trkpt>
      <trkpt lat="45.22367" lon="6.00167">
        <ele>1412.400024414</ele>
        <time>2014-01-12T08:18:25Z</time>
      </trkpt>
      <trkpt lat="45.22368" lon="6.00167">
        <ele>1412.400024414</ele>
        <time>2014-01-12T08:18:31Z</time>
      </trkpt>
      <trkpt lat="45.22369" lon="6.00163">
        <ele>1412</ele>
        <time>2014-01-12T08:18:46Z</time>
      </trkpt>
      <trkpt lat="45.2237" lon="6.00163">
        <ele>1412</ele>
        <time>2014-01-12T08:18:49Z</time>
      </trkpt>
      <trkpt lat="45.22369" lon="6.00162">
        <ele>1411.800048828</ele>
        <time>2014-01-12T08:18:56Z</time>
      </trkpt>
      <trkpt lat="45.22367" lon="6.00162">
        <ele>1411.800048828</ele>
        <time>2014-01-12T08:18:58Z</time>
      </trkpt>
      <trkpt lat="45.22367" lon="6.00162">
        <ele>1411.800048828</ele>
        <time>2014-01-12T08:18:59Z</time>
      </trkpt>
      <trkpt lat="45.22366" lon="6.00164">
        <ele>1412</ele>
        <time>2014-01-12T08:19:09Z</time>
      </trkpt>
      <trkpt lat="45.22367" lon="6.00166">
        <ele>1412.400024414</ele>
        <time>2014-01-12T08:19:13Z</time>
      </trkpt>
      <trkpt lat="45.22369" lon="6.00168">
        <ele>1412.800048828</ele>
        <time>2014-01-12T08:19:18Z</time>
      </trkpt>
      <trkpt lat="45.22369" lon="6.00167">
        <ele>1412.599975586</ele>
        <time>2014-01-12T08:19:22Z</time>
      </trkpt>
      <trkpt lat="45.22369" lon="6.00168">
        <ele>1412.800048828</ele>
        <time>2014-01-12T08:19:26Z</time>
      </trkpt>
      <trkpt lat="45.22369" lon="6.00167">
        <ele>1412.599975586</ele>
        <time>2014-01-12T08:19:31Z</time>
      </trkpt>
      <trkpt lat="45.22368" lon="6.00166">
        <ele>1412.400024414</ele>
        <time>2014-01-12T08:19:32Z</time>
      </trkpt>
      <trkpt lat="45.22367" lon="6.00167">
        <ele>1412.400024414</ele>
        <time>2014-01-12T08:19:34Z</time>
      </trkpt>
      <trkpt lat="45.22359" lon="6.00161">
        <ele>1411.199951172</ele>
        <time>2014-01-12T08:19:59Z</time>
      </trkpt>
      <trkpt lat="45.22357" lon="6.00159">
        <ele>1410.800048828</ele>
        <time>2014-01-12T08:20:03Z</time>
      </trkpt>
      <trkpt lat="45.22358" lon="6.0016">
        <ele>1411</ele>
        <time>2014-01-12T08:20:05Z</time>
      </trkpt>
      <trkpt lat="45.22358" lon="6.0016">
        <ele>1411</ele>
        <time>2014-01-12T08:20:07Z</time>
      </trkpt>
      <trkpt lat="45.22359" lon="6.00161">
        <ele>1411.199951172</ele>
        <time>2014-01-12T08:20:09Z</time>
      </trkpt>
      <trkpt lat="45.22359" lon="6.00161">
        <ele>1411.199951172</ele>
        <time>2014-01-12T08:20:11Z</time>
      </trkpt>
      <trkpt lat="45.22359" lon="6.0016">
        <ele>1411</ele>
        <time>2014-01-12T08:20:13Z</time>
      </trkpt>
      <trkpt lat="45.22359" lon="6.00162">
        <ele>1411.400024414</ele>
        <time>2014-01-12T08:20:16Z</time>
      </trkpt>
      <trkpt lat="45.2236" lon="6.00162">
        <ele>1411.400024414</ele>
        <time>2014-01-12T08:20:20Z</time>
      </trkpt>
      <trkpt lat="45.2236" lon="6.00162">
        <ele>1411.199951172</ele>
        <time>2014-01-12T08:20:21Z</time>
      </trkpt>
      <trkpt lat="45.22361" lon="6.00163">
        <ele>1411.599975586</ele>
        <time>2014-01-12T08:20:23Z</time>
      </trkpt>
      <trkpt lat="45.22363" lon="6.00167">
        <ele>1412.199951172</ele>
        <time>2014-01-12T08:20:26Z</time>
      </trkpt>
      <trkpt lat="45.22365" lon="6.00172">
        <ele>1413.199951172</ele>
        <time>2014-01-12T08:20:30Z</time>
      </trkpt>
      <trkpt lat="45.22368" lon="6.00172">
        <ele>1413.599975586</ele>
        <time>2014-01-12T08:20:49Z</time>
      </trkpt>
      <trkpt lat="45.2237" lon="6.00172">
        <ele>1413.599975586</ele>
        <time>2014-01-12T08:20:56Z</time>
      </trkpt>
      <trkpt lat="45.22373" lon="6.00173">
        <ele>1414</ele>
        <time>2014-01-12T08:21:03Z</time>
      </trkpt>
      <trkpt lat="45.22373" lon="6.00173">
        <ele>1414</ele>
        <time>2014-01-12T08:21:06Z</time>
      </trkpt>
      <trkpt lat="45.22373" lon="6.00173">
        <ele>1414</ele>
        <time>2014-01-12T08:21:10Z</time>
      </trkpt>
      <trkpt lat="45.22373" lon="6.00173">
        <ele>1414</ele>
        <time>2014-01-12T08:21:11Z</time>
      </trkpt>
      <trkpt lat="45.22373" lon="6.00173">
        <ele>1414</ele>
        <time>2014-01-12T08:21:12Z</time>
      </trkpt>
      <trkpt lat="45.22369" lon="6.00169">
        <ele>1413</ele>
        <time>2014-01-12T08:21:28Z</time>
      </trkpt>
      <trkpt lat="45.22369" lon="6.0017">
        <ele>1413.199951172</ele>
        <time>2014-01-12T08:21:35Z</time>
      </trkpt>
      <trkpt lat="45.22367" lon="6.00172">
        <ele>1413.400024414</ele>
        <time>2014-01-12T08:21:37Z</time>
      </trkpt>
      <trkpt lat="45.22363" lon="6.00178">
        <ele>1414.199951172</ele>
        <time>2014-01-12T08:21:42Z</time>
      </trkpt>
      <trkpt lat="45.22362" lon="6.00178">
        <ele>1414.199951172</ele>
        <time>2014-01-12T08:21:43Z</time>
      </trkpt>
      <trkpt lat="45.22356" lon="6.00183">
        <ele>1414.599975586</ele>
        <time>2014-01-12T08:21:48Z</time>
      </trkpt>
      <trkpt lat="45.22354" lon="6.00185">
        <ele>1414.800048828</ele>
        <time>2014-01-12T08:21:49Z</time>
      </trkpt>
      <trkpt lat="45.22351" lon="6.0019">
        <ele>1415.400024414</ele>
        <time>2014-01-12T08:21:51Z</time>
      </trkpt>
      <trkpt lat="45.22348" lon="6.00193">
        <ele>1415.599975586</ele>
        <time>2014-01-12T08:21:53Z</time>
      </trkpt>
      <trkpt lat="45.22347" lon="6.00193">
        <ele>1415.599975586</ele>
        <time>2014-01-12T08:21:54Z</time>
      </trkpt>
      <trkpt lat="45.22346" lon="6.00195">
        <ele>1415.800048828</ele>
        <time>2014-01-12T08:21:56Z</time>
      </trkpt>
      <trkpt lat="45.22345" lon="6.00196">
        <ele>1416</ele>
        <time>2014-01-12T08:21:58Z</time>
      </trkpt>
      <trkpt lat="45.22344" lon="6.00197">
        <ele>1416</ele>
        <time>2014-01-12T08:22:00Z</time>
      </trkpt>
      <trkpt lat="45.22342" lon="6.002">
        <ele>1416.400024414</ele>
        <time>2014-01-12T08:22:02Z</time>
      </trkpt>
      <trkpt lat="45.22341" lon="6.002">
        <ele>1416.400024414</ele>
        <time>2014-01-12T08:22:03Z</time>
      </trkpt>
      <trkpt lat="45.22338" lon="6.00205">
        <ele>1416.800048828</ele>
        <time>2014-01-12T08:22:08Z</time>
      </trkpt>
      <trkpt lat="45.22334" lon="6.00207">
        <ele>1416.800048828</ele>
        <time>2014-01-12T08:22:12Z</time>
      </trkpt>
      <trkpt lat="45.22328" lon="6.00208">
        <ele>1418.599975586</ele>
        <time>2014-01-12T08:22:17Z</time>
      </trkpt>
      <trkpt lat="45.22326" lon="6.00209">
        <ele>1419.199951172</ele>
        <time>2014-01-12T08:22:19Z</time>
      </trkpt>
      <trkpt lat="45.22323" lon="6.00211">
        <ele>1420.599975586</ele>
        <time>2014-01-12T08:22:23Z</time>
      </trkpt>
      <trkpt lat="45.22319" lon="6.00213">
        <ele>1422</ele>
        <time>2014-01-12T08:22:27Z</time>
      </trkpt>
      <trkpt lat="45.22313" lon="6.00217">
        <ele>1424.400024414</ele>
        <time>2014-01-12T08:22:35Z</time>
      </trkpt>
      <trkpt lat="45.22309" lon="6.00222">
        <ele>1426</ele>
        <time>2014-01-12T08:22:41Z</time>
      </trkpt>
      <trkpt lat="45.22309" lon="6.00226">
        <ele>1426.199951172</ele>
        <time>2014-01-12T08:22:44Z</time>
      </trkpt>
      <trkpt lat="45.22309" lon="6.00228">
        <ele>1426.599975586</ele>
        <time>2014-01-12T08:22:46Z</time>
      </trkpt>
      <trkpt lat="45.22309" lon="6.00231">
        <ele>1427</ele>
        <time>2014-01-12T08:22:49Z</time>
      </trkpt>
      <trkpt lat="45.22309" lon="6.00232">
        <ele>1427</ele>
        <time>2014-01-12T08:22:50Z</time>
      </trkpt>
      <trkpt lat="45.22309" lon="6.00234">
        <ele>1427.400024414</ele>
        <time>2014-01-12T08:22:51Z</time>
      </trkpt>
      <trkpt lat="45.22309" lon="6.00237">
        <ele>1427.800048828</ele>
        <time>2014-01-12T08:22:54Z</time>
      </trkpt>
      <trkpt lat="45.22308" lon="6.00242">
        <ele>1428.400024414</ele>
        <time>2014-01-12T08:22:59Z</time>
      </trkpt>
      <trkpt lat="45.22308" lon="6.00249">
        <ele>1429.400024414</ele>
        <time>2014-01-12T08:23:04Z</time>
      </trkpt>
      <trkpt lat="45.2231" lon="6.00256">
        <ele>1429.599975586</ele>
        <time>2014-01-12T08:23:09Z</time>
      </trkpt>
      <trkpt lat="45.2231" lon="6.00256">
        <ele>1429.800048828</ele>
        <time>2014-01-12T08:23:10Z</time>
      </trkpt>
      <trkpt lat="45.22312" lon="6.0026">
        <ele>1429.800048828</ele>
        <time>2014-01-12T08:23:14Z</time>
      </trkpt>
      <trkpt lat="45.22313" lon="6.00263">
        <ele>1430</ele>
        <time>2014-01-12T08:23:19Z</time>
      </trkpt>
      <trkpt lat="45.22315" lon="6.00267">
        <ele>1430</ele>
        <time>2014-01-12T08:23:24Z</time>
      </trkpt>
      <trkpt lat="45.22317" lon="6.00274">
        <ele>1430.400024414</ele>
        <time>2014-01-12T08:23:30Z</time>
      </trkpt>
      <trkpt lat="45.22318" lon="6.00281">
        <ele>1431.199951172</ele>
        <time>2014-01-12T08:23:36Z</time>
      </trkpt>
      <trkpt lat="45.22318" lon="6.00289">
        <ele>1432</ele>
        <time>2014-01-12T08:23:42Z</time>
      </trkpt>
      <trkpt lat="45.22319" lon="6.00291">
        <ele>1432.199951172</ele>
        <time>2014-01-12T08:23:43Z</time>
      </trkpt>
      <trkpt lat="45.22319" lon="6.00296">
        <ele>1432.800048828</ele>
        <time>2014-01-12T08:23:47Z</time>
      </trkpt>
      <trkpt lat="45.2232" lon="6.00306">
        <ele>1433.800048828</ele>
        <time>2014-01-12T08:23:54Z</time>
      </trkpt>
      <trkpt lat="45.22323" lon="6.00315">
        <ele>1434.400024414</ele>
        <time>2014-01-12T08:24:01Z</time>
      </trkpt>
      <trkpt lat="45.22329" lon="6.00326">
        <ele>1434.800048828</ele>
        <time>2014-01-12T08:24:10Z</time>
      </trkpt>
      <trkpt lat="45.22332" lon="6.00332">
        <ele>1435</ele>
        <time>2014-01-12T08:24:16Z</time>
      </trkpt>
      <trkpt lat="45.22335" lon="6.0034">
        <ele>1436.800048828</ele>
        <time>2014-01-12T08:24:23Z</time>
      </trkpt>
      <trkpt lat="45.22336" lon="6.00348">
        <ele>1438.800048828</ele>
        <time>2014-01-12T08:24:29Z</time>
      </trkpt>
      <trkpt lat="45.22334" lon="6.00361">
        <ele>1440.800048828</ele>
        <time>2014-01-12T08:24:38Z</time>
      </trkpt>
      <trkpt lat="45.2233" lon="6.00371">
        <ele>1443</ele>
        <time>2014-01-12T08:24:46Z</time>
      </trkpt>
      <trkpt lat="45.22324" lon="6.00378">
        <ele>1445.599975586</ele>
        <time>2014-01-12T08:24:54Z</time>
      </trkpt>
      <trkpt lat="45.22318" lon="6.00386">
        <ele>1448.199951172</ele>
        <time>2014-01-12T08:25:02Z</time>
      </trkpt>
      <trkpt lat="45.22313" lon="6.00394">
        <ele>1450.400024414</ele>
        <time>2014-01-12T08:25:10Z</time>
      </trkpt>
      <trkpt lat="45.22309" lon="6.00398">
        <ele>1451.800048828</ele>
        <time>2014-01-12T08:25:15Z</time>
      </trkpt>
      <trkpt lat="45.22306" lon="6.00402">
        <ele>1453</ele>
        <time>2014-01-12T08:25:20Z</time>
      </trkpt>
      <trkpt lat="45.22302" lon="6.00407">
        <ele>1454.599975586</ele>
        <time>2014-01-12T08:25:26Z</time>
      </trkpt>
      <trkpt lat="45.22299" lon="6.00411">
        <ele>1455.800048828</ele>
        <time>2014-01-12T08:25:31Z</time>
      </trkpt>
      <trkpt lat="45.22298" lon="6.00412">
        <ele>1456</ele>
        <time>2014-01-12T08:25:33Z</time>
      </trkpt>
      <trkpt lat="45.22296" lon="6.00413">
        <ele>1456.599975586</ele>
        <time>2014-01-12T08:25:35Z</time>
      </trkpt>
      <trkpt lat="45.22294" lon="6.00413">
        <ele>1456.800048828</ele>
        <time>2014-01-12T08:25:37Z</time>
      </trkpt>
      <trkpt lat="45.22292" lon="6.00414">
        <ele>1457.599975586</ele>
        <time>2014-01-12T08:25:41Z</time>
      </trkpt>
      <trkpt lat="45.2229" lon="6.00415">
        <ele>1457.800048828</ele>
        <time>2014-01-12T08:25:42Z</time>
      </trkpt>
      <trkpt lat="45.22288" lon="6.00416">
        <ele>1458.199951172</ele>
        <time>2014-01-12T08:25:45Z</time>
      </trkpt>
      <trkpt lat="45.22288" lon="6.00416">
        <ele>1458.400024414</ele>
        <time>2014-01-12T08:25:46Z</time>
      </trkpt>
      <trkpt lat="45.22286" lon="6.00418">
        <ele>1459.199951172</ele>
        <time>2014-01-12T08:25:50Z</time>
      </trkpt>
      <trkpt lat="45.22284" lon="6.00421">
        <ele>1460.199951172</ele>
        <time>2014-01-12T08:25:54Z</time>
      </trkpt>
      <trkpt lat="45.22283" lon="6.00425">
        <ele>1461.400024414</ele>
        <time>2014-01-12T08:25:58Z</time>
      </trkpt>
      <trkpt lat="45.22282" lon="6.00427">
        <ele>1462.199951172</ele>
        <time>2014-01-12T08:26:02Z</time>
      </trkpt>
      <trkpt lat="45.22278" lon="6.00428">
        <ele>1463.199951172</ele>
        <time>2014-01-12T08:26:07Z</time>
      </trkpt>
      <trkpt lat="45.22277" lon="6.00431">
        <ele>1464</ele>
        <time>2014-01-12T08:26:11Z</time>
      </trkpt>
      <trkpt lat="45.22276" lon="6.00435">
        <ele>1465.199951172</ele>
        <time>2014-01-12T08:26:14Z</time>
      </trkpt>
      <trkpt lat="45.22274" lon="6.00439">
        <ele>1466.400024414</ele>
        <time>2014-01-12T08:26:19Z</time>
      </trkpt>
      <trkpt lat="45.22273" lon="6.0044">
        <ele>1467</ele>
        <time>2014-01-12T08:26:25Z</time>
      </trkpt>
      <trkpt lat="45.22271" lon="6.00441">
        <ele>1467.400024414</ele>
        <time>2014-01-12T08:26:28Z</time>
      </trkpt>
      <trkpt lat="45.22266" lon="6.00442">
        <ele>1468</ele>
        <time>2014-01-12T08:26:34Z</time>
      </trkpt>
      <trkpt lat="45.22262" lon="6.00441">
        <ele>1468.400024414</ele>
        <time>2014-01-12T08:26:39Z</time>
      </trkpt>
      <trkpt lat="45.2226" lon="6.00441">
        <ele>1468.599975586</ele>
        <time>2014-01-12T08:26:41Z</time>
      </trkpt>
      <trkpt lat="45.22256" lon="6.0044">
        <ele>1468.599975586</ele>
        <time>2014-01-12T08:26:46Z</time>
      </trkpt>
      <trkpt lat="45.22252" lon="6.00438">
        <ele>1468.800048828</ele>
        <time>2014-01-12T08:26:50Z</time>
      </trkpt>
      <trkpt lat="45.22249" lon="6.00438">
        <ele>1469.400024414</ele>
        <time>2014-01-12T08:26:54Z</time>
      </trkpt>
      <trkpt lat="45.22244" lon="6.00438">
        <ele>1471.400024414</ele>
        <time>2014-01-12T08:27:01Z</time>
      </trkpt>
      <trkpt lat="45.22241" lon="6.00441">
        <ele>1473.400024414</ele>
        <time>2014-01-12T08:27:07Z</time>
      </trkpt>
      <trkpt lat="45.2224" lon="6.00446">
        <ele>1474.800048828</ele>
        <time>2014-01-12T08:27:12Z</time>
      </trkpt>
      <trkpt lat="45.22239" lon="6.00452">
        <ele>1476.400024414</ele>
        <time>2014-01-12T08:27:19Z</time>
      </trkpt>
      <trkpt lat="45.22239" lon="6.00456">
        <ele>1477.599975586</ele>
        <time>2014-01-12T08:27:24Z</time>
      </trkpt>
      <trkpt lat="45.22238" lon="6.00462">
        <ele>1479</ele>
        <time>2014-01-12T08:27:29Z</time>
      </trkpt>
      <trkpt lat="45.22238" lon="6.00468">
        <ele>1480.199951172</ele>
        <time>2014-01-12T08:27:34Z</time>
      </trkpt>
      <trkpt lat="45.22236" lon="6.00473">
        <ele>1482.199951172</ele>
        <time>2014-01-12T08:27:40Z</time>
      </trkpt>
      <trkpt lat="45.22235" lon="6.00475">
        <ele>1483</ele>
        <time>2014-01-12T08:27:42Z</time>
      </trkpt>
      <trkpt lat="45.22234" lon="6.00478">
        <ele>1484.199951172</ele>
        <time>2014-01-12T08:27:46Z</time>
      </trkpt>
      <trkpt lat="45.22233" lon="6.00484">
        <ele>1485.599975586</ele>
        <time>2014-01-12T08:27:51Z</time>
      </trkpt>
      <trkpt lat="45.22235" lon="6.00488">
        <ele>1486.199951172</ele>
        <time>2014-01-12T08:27:55Z</time>
      </trkpt>
      <trkpt lat="45.22236" lon="6.00491">
        <ele>1486</ele>
        <time>2014-01-12T08:27:58Z</time>
      </trkpt>
      <trkpt lat="45.22238" lon="6.00498">
        <ele>1486.800048828</ele>
        <time>2014-01-12T08:28:04Z</time>
      </trkpt>
      <trkpt lat="45.22243" lon="6.00506">
        <ele>1487.400024414</ele>
        <time>2014-01-12T08:28:11Z</time>
      </trkpt>
      <trkpt lat="45.22246" lon="6.00513">
        <ele>1488.400024414</ele>
        <time>2014-01-12T08:28:18Z</time>
      </trkpt>
      <trkpt lat="45.22246" lon="6.00515">
        <ele>1489</ele>
        <time>2014-01-12T08:28:20Z</time>
      </trkpt>
      <trkpt lat="45.22243" lon="6.00517">
        <ele>1490.400024414</ele>
        <time>2014-01-12T08:28:24Z</time>
      </trkpt>
      <trkpt lat="45.22238" lon="6.00517">
        <ele>1492.199951172</ele>
        <time>2014-01-12T08:28:29Z</time>
      </trkpt>
      <trkpt lat="45.22233" lon="6.00516">
        <ele>1494</ele>
        <time>2014-01-12T08:28:36Z</time>
      </trkpt>
      <trkpt lat="45.22229" lon="6.0052">
        <ele>1496</ele>
        <time>2014-01-12T08:28:42Z</time>
      </trkpt>
      <trkpt lat="45.22228" lon="6.00525">
        <ele>1497.599975586</ele>
        <time>2014-01-12T08:28:47Z</time>
      </trkpt>
      <trkpt lat="45.22229" lon="6.00529">
        <ele>1498.800048828</ele>
        <time>2014-01-12T08:28:53Z</time>
      </trkpt>
      <trkpt lat="45.22229" lon="6.00538">
        <ele>1501</ele>
        <time>2014-01-12T08:29:01Z</time>
      </trkpt>
      <trkpt lat="45.22229" lon="6.00542">
        <ele>1502</ele>
        <time>2014-01-12T08:29:05Z</time>
      </trkpt>
      <trkpt lat="45.22232" lon="6.00547">
        <ele>1502.800048828</ele>
        <time>2014-01-12T08:29:11Z</time>
      </trkpt>
      <trkpt lat="45.22232" lon="6.00552">
        <ele>1504</ele>
        <time>2014-01-12T08:29:16Z</time>
      </trkpt>
      <trkpt lat="45.22232" lon="6.00561">
        <ele>1506.400024414</ele>
        <time>2014-01-12T08:29:24Z</time>
      </trkpt>
      <trkpt lat="45.22232" lon="6.00568">
        <ele>1508.199951172</ele>
        <time>2014-01-12T08:29:30Z</time>
      </trkpt>
      <trkpt lat="45.22233" lon="6.00574">
        <ele>1509.599975586</ele>
        <time>2014-01-12T08:29:36Z</time>
      </trkpt>
      <trkpt lat="45.22232" lon="6.00579">
        <ele>1511</ele>
        <time>2014-01-12T08:29:42Z</time>
      </trkpt>
      <trkpt lat="45.22233" lon="6.00585">
        <ele>1512.599975586</ele>
        <time>2014-01-12T08:29:48Z</time>
      </trkpt>
      <trkpt lat="45.22232" lon="6.00591">
        <ele>1514</ele>
        <time>2014-01-12T08:29:54Z</time>
      </trkpt>
      <trkpt lat="45.22233" lon="6.00596">
        <ele>1515.199951172</ele>
        <time>2014-01-12T08:29:59Z</time>
      </trkpt>
      <trkpt lat="45.22234" lon="6.00602">
        <ele>1516.400024414</ele>
        <time>2014-01-12T08:30:06Z</time>
      </trkpt>
      <trkpt lat="45.22235" lon="6.00609">
        <ele>1517.599975586</ele>
        <time>2014-01-12T08:30:12Z</time>
      </trkpt>
      <trkpt lat="45.22237" lon="6.00615">
        <ele>1518.599975586</ele>
        <time>2014-01-12T08:30:18Z</time>
      </trkpt>
      <trkpt lat="45.22238" lon="6.00619">
        <ele>1519.199951172</ele>
        <time>2014-01-12T08:30:22Z</time>
      </trkpt>
      <trkpt lat="45.22238" lon="6.00621">
        <ele>1519.800048828</ele>
        <time>2014-01-12T08:30:24Z</time>
      </trkpt>
      <trkpt lat="45.22239" lon="6.00623">
        <ele>1520.199951172</ele>
        <time>2014-01-12T08:30:26Z</time>
      </trkpt>
      <trkpt lat="45.2224" lon="6.00628">
        <ele>1521</ele>
        <time>2014-01-12T08:30:30Z</time>
      </trkpt>
      <trkpt lat="45.2224" lon="6.00628">
        <ele>1521.199951172</ele>
        <time>2014-01-12T08:30:31Z</time>
      </trkpt>
      <trkpt lat="45.22241" lon="6.00632">
        <ele>1521.800048828</ele>
        <time>2014-01-12T08:30:35Z</time>
      </trkpt>
      <trkpt lat="45.22242" lon="6.00636">
        <ele>1522.599975586</ele>
        <time>2014-01-12T08:30:39Z</time>
      </trkpt>
      <trkpt lat="45.22243" lon="6.0064">
        <ele>1523</ele>
        <time>2014-01-12T08:30:43Z</time>
      </trkpt>
      <trkpt lat="45.22246" lon="6.00645">
        <ele>1523.800048828</ele>
        <time>2014-01-12T08:30:47Z</time>
      </trkpt>
      <trkpt lat="45.22248" lon="6.00649">
        <ele>1524.400024414</ele>
        <time>2014-01-12T08:30:53Z</time>
      </trkpt>
      <trkpt lat="45.22248" lon="6.00652">
        <ele>1525</ele>
        <time>2014-01-12T08:30:57Z</time>
      </trkpt>
      <trkpt lat="45.22248" lon="6.00654">
        <ele>1525.599975586</ele>
        <time>2014-01-12T08:31:00Z</time>
      </trkpt>
      <trkpt lat="45.22249" lon="6.00661">
        <ele>1526.800048828</ele>
        <time>2014-01-12T08:31:06Z</time>
      </trkpt>
      <trkpt lat="45.2225" lon="6.00668">
        <ele>1528.199951172</ele>
        <time>2014-01-12T08:31:12Z</time>
      </trkpt>
      <trkpt lat="45.22248" lon="6.00672">
        <ele>1529.400024414</ele>
        <time>2014-01-12T08:31:15Z</time>
      </trkpt>
      <trkpt lat="45.22248" lon="6.00675">
        <ele>1530.199951172</ele>
        <time>2014-01-12T08:31:18Z</time>
      </trkpt>
      <trkpt lat="45.22247" lon="6.0068">
        <ele>1531.199951172</ele>
        <time>2014-01-12T08:31:23Z</time>
      </trkpt>
      <trkpt lat="45.22247" lon="6.00681">
        <ele>1531.400024414</ele>
        <time>2014-01-12T08:31:25Z</time>
      </trkpt>
      <trkpt lat="45.22247" lon="6.00688">
        <ele>1532.800048828</ele>
        <time>2014-01-12T08:31:31Z</time>
      </trkpt>
      <trkpt lat="45.22246" lon="6.00703">
        <ele>1536</ele>
        <time>2014-01-12T08:31:41Z</time>
      </trkpt>
      <trkpt lat="45.22246" lon="6.00712">
        <ele>1538</ele>
        <time>2014-01-12T08:31:47Z</time>
      </trkpt>
      <trkpt lat="45.22246" lon="6.00713">
        <ele>1538.199951172</ele>
        <time>2014-01-12T08:31:48Z</time>
      </trkpt>
      <trkpt lat="45.22245" lon="6.0072">
        <ele>1539.599975586</ele>
        <time>2014-01-12T08:31:53Z</time>
      </trkpt>
      <trkpt lat="45.22245" lon="6.00723">
        <ele>1540.199951172</ele>
        <time>2014-01-12T08:31:55Z</time>
      </trkpt>
      <trkpt lat="45.22244" lon="6.00727">
        <ele>1541</ele>
        <time>2014-01-12T08:31:58Z</time>
      </trkpt>
      <trkpt lat="45.22244" lon="6.00733">
        <ele>1542.400024414</ele>
        <time>2014-01-12T08:32:03Z</time>
      </trkpt>
      <trkpt lat="45.22244" lon="6.00734">
        <ele>1542.800048828</ele>
        <time>2014-01-12T08:32:04Z</time>
      </trkpt>
      <trkpt lat="45.22243" lon="6.00741">
        <ele>1544.199951172</ele>
        <time>2014-01-12T08:32:10Z</time>
      </trkpt>
      <trkpt lat="45.22243" lon="6.00746">
        <ele>1545.199951172</ele>
        <time>2014-01-12T08:32:15Z</time>
      </trkpt>
      <trkpt lat="45.22243" lon="6.0075">
        <ele>1546</ele>
        <time>2014-01-12T08:32:18Z</time>
      </trkpt>
      <trkpt lat="45.22243" lon="6.00751">
        <ele>1546.400024414</ele>
        <time>2014-01-12T08:32:19Z</time>
      </trkpt>
      <trkpt lat="45.22241" lon="6.00761">
        <ele>1548.800048828</ele>
        <time>2014-01-12T08:32:26Z</time>
      </trkpt>
      <trkpt lat="45.22239" lon="6.00766">
        <ele>1550.400024414</ele>
        <time>2014-01-12T08:32:31Z</time>
      </trkpt>
      <trkpt lat="45.22237" lon="6.00774">
        <ele>1552.599975586</ele>
        <time>2014-01-12T08:32:39Z</time>
      </trkpt>
      <trkpt lat="45.22236" lon="6.0078">
        <ele>1554</ele>
        <time>2014-01-12T08:32:46Z</time>
      </trkpt>
      <trkpt lat="45.22236" lon="6.00788">
        <ele>1555.599975586</ele>
        <time>2014-01-12T08:32:52Z</time>
      </trkpt>
      <trkpt lat="45.22235" lon="6.00789">
        <ele>1556.199951172</ele>
        <time>2014-01-12T08:32:54Z</time>
      </trkpt>
      <trkpt lat="45.22235" lon="6.00793">
        <ele>1557</ele>
        <time>2014-01-12T08:32:57Z</time>
      </trkpt>
      <trkpt lat="45.22235" lon="6.00799">
        <ele>1558.400024414</ele>
        <time>2014-01-12T08:33:03Z</time>
      </trkpt>
      <trkpt lat="45.22235" lon="6.00804">
        <ele>1559.599975586</ele>
        <time>2014-01-12T08:33:08Z</time>
      </trkpt>
      <trkpt lat="45.22233" lon="6.0081">
        <ele>1561.199951172</ele>
        <time>2014-01-12T08:33:16Z</time>
      </trkpt>
      <trkpt lat="45.22232" lon="6.00814">
        <ele>1562</ele>
        <time>2014-01-12T08:33:21Z</time>
      </trkpt>
      <trkpt lat="45.22231" lon="6.00818">
        <ele>1563</ele>
        <time>2014-01-12T08:33:29Z</time>
      </trkpt>
      <trkpt lat="45.22232" lon="6.00818">
        <ele>1563.199951172</ele>
        <time>2014-01-12T08:33:34Z</time>
      </trkpt>
      <trkpt lat="45.22232" lon="6.00819">
        <ele>1563.199951172</ele>
        <time>2014-01-12T08:33:39Z</time>
      </trkpt>
      <trkpt lat="45.22232" lon="6.00819">
        <ele>1563.400024414</ele>
        <time>2014-01-12T08:33:42Z</time>
      </trkpt>
      <trkpt lat="45.2223" lon="6.00822">
        <ele>1564</ele>
        <time>2014-01-12T08:33:57Z</time>
      </trkpt>
      <trkpt lat="45.2223" lon="6.00822">
        <ele>1564.199951172</ele>
        <time>2014-01-12T08:33:59Z</time>
      </trkpt>
      <trkpt lat="45.2223" lon="6.00823">
        <ele>1564.400024414</ele>
        <time>2014-01-12T08:34:01Z</time>
      </trkpt>
      <trkpt lat="45.2223" lon="6.00825">
        <ele>1564.800048828</ele>
        <time>2014-01-12T08:34:04Z</time>
      </trkpt>
      <trkpt lat="45.2223" lon="6.00825">
        <ele>1564.800048828</ele>
        <time>2014-01-12T08:34:05Z</time>
      </trkpt>
      <trkpt lat="45.2223" lon="6.0083">
        <ele>1565.800048828</ele>
        <time>2014-01-12T08:34:09Z</time>
      </trkpt>
      <trkpt lat="45.22227" lon="6.00833">
        <ele>1566.800048828</ele>
        <time>2014-01-12T08:34:15Z</time>
      </trkpt>
      <trkpt lat="45.22228" lon="6.00835">
        <ele>1567.400024414</ele>
        <time>2014-01-12T08:34:17Z</time>
      </trkpt>
      <trkpt lat="45.22229" lon="6.00838">
        <ele>1567.599975586</ele>
        <time>2014-01-12T08:34:19Z</time>
      </trkpt>
      <trkpt lat="45.22228" lon="6.00837">
        <ele>1567.599975586</ele>
        <time>2014-01-12T08:34:21Z</time>
      </trkpt>
      <trkpt lat="45.22229" lon="6.0084">
        <ele>1568.400024414</ele>
        <time>2014-01-12T08:34:24Z</time>
      </trkpt>
      <trkpt lat="45.2223" lon="6.00842">
        <ele>1568.599975586</ele>
        <time>2014-01-12T08:34:25Z</time>
      </trkpt>
      <trkpt lat="45.22232" lon="6.00847">
        <ele>1569.599975586</ele>
        <time>2014-01-12T08:34:30Z</time>
      </trkpt>
      <trkpt lat="45.22234" lon="6.00852">
        <ele>1570.400024414</ele>
        <time>2014-01-12T08:34:34Z</time>
      </trkpt>
      <trkpt lat="45.22236" lon="6.00857">
        <ele>1571.599975586</ele>
        <time>2014-01-12T08:34:39Z</time>
      </trkpt>
      <trkpt lat="45.22237" lon="6.0086">
        <ele>1572</ele>
        <time>2014-01-12T08:34:42Z</time>
      </trkpt>
      <trkpt lat="45.22239" lon="6.00862">
        <ele>1572.199951172</ele>
        <time>2014-01-12T08:34:44Z</time>
      </trkpt>
      <trkpt lat="45.22239" lon="6.00863">
        <ele>1572.400024414</ele>
        <time>2014-01-12T08:34:45Z</time>
      </trkpt>
      <trkpt lat="45.22243" lon="6.00868">
        <ele>1573.199951172</ele>
        <time>2014-01-12T08:34:50Z</time>
      </trkpt>
      <trkpt lat="45.22244" lon="6.0087">
        <ele>1573.400024414</ele>
        <time>2014-01-12T08:34:52Z</time>
      </trkpt>
      <trkpt lat="45.22246" lon="6.00874">
        <ele>1574.199951172</ele>
        <time>2014-01-12T08:34:56Z</time>
      </trkpt>
      <trkpt lat="45.22247" lon="6.00879">
        <ele>1575.199951172</ele>
        <time>2014-01-12T08:35:00Z</time>
      </trkpt>
      <trkpt lat="45.22247" lon="6.00881">
        <ele>1575.599975586</ele>
        <time>2014-01-12T08:35:02Z</time>
      </trkpt>
      <trkpt lat="45.22248" lon="6.00885">
        <ele>1576.400024414</ele>
        <time>2014-01-12T08:35:05Z</time>
      </trkpt>
      <trkpt lat="45.22248" lon="6.00887">
        <ele>1577</ele>
        <time>2014-01-12T08:35:07Z</time>
      </trkpt>
      <trkpt lat="45.22248" lon="6.00894">
        <ele>1578.199951172</ele>
        <time>2014-01-12T08:35:12Z</time>
      </trkpt>
      <trkpt lat="45.22248" lon="6.00898">
        <ele>1579</ele>
        <time>2014-01-12T08:35:15Z</time>
      </trkpt>
      <trkpt lat="45.22249" lon="6.009">
        <ele>1579.599975586</ele>
        <time>2014-01-12T08:35:18Z</time>
      </trkpt>
      <trkpt lat="45.22247" lon="6.00905">
        <ele>1580.800048828</ele>
        <time>2014-01-12T08:35:23Z</time>
      </trkpt>
      <trkpt lat="45.22247" lon="6.0091">
        <ele>1581.800048828</ele>
        <time>2014-01-12T08:35:30Z</time>
      </trkpt>
      <trkpt lat="45.22248" lon="6.00914">
        <ele>1582.599975586</ele>
        <time>2014-01-12T08:35:35Z</time>
      </trkpt>
      <trkpt lat="45.22248" lon="6.0092">
        <ele>1583.800048828</ele>
        <time>2014-01-12T08:35:40Z</time>
      </trkpt>
      <trkpt lat="45.22248" lon="6.00925">
        <ele>1584.599975586</ele>
        <time>2014-01-12T08:35:45Z</time>
      </trkpt>
      <trkpt lat="45.22249" lon="6.00929">
        <ele>1585.400024414</ele>
        <time>2014-01-12T08:35:49Z</time>
      </trkpt>
      <trkpt lat="45.22246" lon="6.00934">
        <ele>1586.599975586</ele>
        <time>2014-01-12T08:35:54Z</time>
      </trkpt>
      <trkpt lat="45.22244" lon="6.00934">
        <ele>1587</ele>
        <time>2014-01-12T08:35:56Z</time>
      </trkpt>
      <trkpt lat="45.22242" lon="6.00934">
        <ele>1587.199951172</ele>
        <time>2014-01-12T08:35:59Z</time>
      </trkpt>
      <trkpt lat="45.2224" lon="6.00934">
        <ele>1587.400024414</ele>
        <time>2014-01-12T08:36:04Z</time>
      </trkpt>
      <trkpt lat="45.22237" lon="6.00934">
        <ele>1587.800048828</ele>
        <time>2014-01-12T08:36:08Z</time>
      </trkpt>
      <trkpt lat="45.22236" lon="6.00936">
        <ele>1588.199951172</ele>
        <time>2014-01-12T08:36:12Z</time>
      </trkpt>
      <trkpt lat="45.22236" lon="6.00939">
        <ele>1588.800048828</ele>
        <time>2014-01-12T08:36:16Z</time>
      </trkpt>
      <trkpt lat="45.22238" lon="6.00945">
        <ele>1589.599975586</ele>
        <time>2014-01-12T08:36:23Z</time>
      </trkpt>
      <trkpt lat="45.22237" lon="6.0095">
        <ele>1590.599975586</ele>
        <time>2014-01-12T08:36:28Z</time>
      </trkpt>
      <trkpt lat="45.22237" lon="6.00958">
        <ele>1592</ele>
        <time>2014-01-12T08:36:35Z</time>
      </trkpt>
      <trkpt lat="45.22237" lon="6.00967">
        <ele>1593.599975586</ele>
        <time>2014-01-12T08:36:42Z</time>
      </trkpt>
      <trkpt lat="45.22237" lon="6.00973">
        <ele>1594.800048828</ele>
        <time>2014-01-12T08:36:49Z</time>
      </trkpt>
      <trkpt lat="45.22236" lon="6.00982">
        <ele>1596.400024414</ele>
        <time>2014-01-12T08:36:57Z</time>
      </trkpt>
      <trkpt lat="45.22234" lon="6.00991">
        <ele>1598.199951172</ele>
        <time>2014-01-12T08:37:04Z</time>
      </trkpt>
      <trkpt lat="45.22234" lon="6.00996">
        <ele>1599</ele>
        <time>2014-01-12T08:37:08Z</time>
      </trkpt>
      <trkpt lat="45.22235" lon="6.00998">
        <ele>1599.400024414</ele>
        <time>2014-01-12T08:37:10Z</time>
      </trkpt>
      <trkpt lat="45.22236" lon="6.01003">
        <ele>1600.199951172</ele>
        <time>2014-01-12T08:37:14Z</time>
      </trkpt>
      <trkpt lat="45.22237" lon="6.01008">
        <ele>1601</ele>
        <time>2014-01-12T08:37:18Z</time>
      </trkpt>
      <trkpt lat="45.22238" lon="6.01019">
        <ele>1603</ele>
        <time>2014-01-12T08:37:27Z</time>
      </trkpt>
      <trkpt lat="45.22238" lon="6.01028">
        <ele>1604.400024414</ele>
        <time>2014-01-12T08:37:34Z</time>
      </trkpt>
      <trkpt lat="45.22238" lon="6.0103">
        <ele>1604.800048828</ele>
        <time>2014-01-12T08:37:36Z</time>
      </trkpt>
      <trkpt lat="45.22238" lon="6.01033">
        <ele>1605.400024414</ele>
        <time>2014-01-12T08:37:39Z</time>
      </trkpt>
      <trkpt lat="45.22238" lon="6.01034">
        <ele>1605.599975586</ele>
        <time>2014-01-12T08:37:40Z</time>
      </trkpt>
      <trkpt lat="45.22238" lon="6.01036">
        <ele>1606</ele>
        <time>2014-01-12T08:37:42Z</time>
      </trkpt>
      <trkpt lat="45.22237" lon="6.01041">
        <ele>1606.800048828</ele>
        <time>2014-01-12T08:37:46Z</time>
      </trkpt>
      <trkpt lat="45.22237" lon="6.01048">
        <ele>1608.199951172</ele>
        <time>2014-01-12T08:37:52Z</time>
      </trkpt>
      <trkpt lat="45.22237" lon="6.01053">
        <ele>1609</ele>
        <time>2014-01-12T08:37:55Z</time>
      </trkpt>
      <trkpt lat="45.22237" lon="6.01059">
        <ele>1609.800048828</ele>
        <time>2014-01-12T08:37:58Z</time>
      </trkpt>
      <trkpt lat="45.22235" lon="6.01066">
        <ele>1611</ele>
        <time>2014-01-12T08:38:03Z</time>
      </trkpt>
      <trkpt lat="45.22235" lon="6.01073">
        <ele>1612.199951172</ele>
        <time>2014-01-12T08:38:08Z</time>
      </trkpt>
      <trkpt lat="45.22235" lon="6.0108">
        <ele>1613.400024414</ele>
        <time>2014-01-12T08:38:13Z</time>
      </trkpt>
      <trkpt lat="45.22235" lon="6.01081">
        <ele>1613.599975586</ele>
        <time>2014-01-12T08:38:14Z</time>
      </trkpt>
      <trkpt lat="45.22235" lon="6.01091">
        <ele>1615.199951172</ele>
        <time>2014-01-12T08:38:21Z</time>
      </trkpt>
      <trkpt lat="45.22237" lon="6.01098">
        <ele>1616.199951172</ele>
        <time>2014-01-12T08:38:27Z</time>
      </trkpt>
      <trkpt lat="45.22238" lon="6.01106">
        <ele>1617.199951172</ele>
        <time>2014-01-12T08:38:33Z</time>
      </trkpt>
      <trkpt lat="45.22239" lon="6.01111">
        <ele>1618</ele>
        <time>2014-01-12T08:38:37Z</time>
      </trkpt>
      <trkpt lat="45.22239" lon="6.01115">
        <ele>1618.599975586</ele>
        <time>2014-01-12T08:38:40Z</time>
      </trkpt>
      <trkpt lat="45.2224" lon="6.01122">
        <ele>1619.599975586</ele>
        <time>2014-01-12T08:38:46Z</time>
      </trkpt>
      <trkpt lat="45.2224" lon="6.01125">
        <ele>1619.800048828</ele>
        <time>2014-01-12T08:38:48Z</time>
      </trkpt>
      <trkpt lat="45.22242" lon="6.0113">
        <ele>1620.599975586</ele>
        <time>2014-01-12T08:38:52Z</time>
      </trkpt>
      <trkpt lat="45.22242" lon="6.01132">
        <ele>1621</ele>
        <time>2014-01-12T08:38:54Z</time>
      </trkpt>
      <trkpt lat="45.22245" lon="6.01142">
        <ele>1622.400024414</ele>
        <time>2014-01-12T08:39:01Z</time>
      </trkpt>
      <trkpt lat="45.22245" lon="6.01143">
        <ele>1622.599975586</ele>
        <time>2014-01-12T08:39:02Z</time>
      </trkpt>
      <trkpt lat="45.22246" lon="6.01148">
        <ele>1623.199951172</ele>
        <time>2014-01-12T08:39:07Z</time>
      </trkpt>
      <trkpt lat="45.22246" lon="6.01149">
        <ele>1623.400024414</ele>
        <time>2014-01-12T08:39:08Z</time>
      </trkpt>
      <trkpt lat="45.22248" lon="6.01155">
        <ele>1624.400024414</ele>
        <time>2014-01-12T08:39:13Z</time>
      </trkpt>
      <trkpt lat="45.22248" lon="6.01156">
        <ele>1624.599975586</ele>
        <time>2014-01-12T08:39:14Z</time>
      </trkpt>
      <trkpt lat="45.2225" lon="6.01162">
        <ele>1625.400024414</ele>
        <time>2014-01-12T08:39:19Z</time>
      </trkpt>
      <trkpt lat="45.2225" lon="6.01164">
        <ele>1625.599975586</ele>
        <time>2014-01-12T08:39:20Z</time>
      </trkpt>
      <trkpt lat="45.22251" lon="6.01166">
        <ele>1626.400024414</ele>
        <time>2014-01-12T08:39:23Z</time>
      </trkpt>
      <trkpt lat="45.22252" lon="6.0117">
        <ele>1627.400024414</ele>
        <time>2014-01-12T08:39:26Z</time>
      </trkpt>
      <trkpt lat="45.22252" lon="6.01173">
        <ele>1628</ele>
        <time>2014-01-12T08:39:28Z</time>
      </trkpt>
      <trkpt lat="45.2225" lon="6.01179">
        <ele>1628.400024414</ele>
        <time>2014-01-12T08:39:32Z</time>
      </trkpt>
      <trkpt lat="45.22247" lon="6.01189">
        <ele>1630</ele>
        <time>2014-01-12T08:39:38Z</time>
      </trkpt>
      <trkpt lat="45.22247" lon="6.01192">
        <ele>1630.599975586</ele>
        <time>2014-01-12T08:39:40Z</time>
      </trkpt>
      <trkpt lat="45.22246" lon="6.012">
        <ele>1632.199951172</ele>
        <time>2014-01-12T08:39:46Z</time>
      </trkpt>
      <trkpt lat="45.22244" lon="6.01202">
        <ele>1632.400024414</ele>
        <time>2014-01-12T08:39:50Z</time>
      </trkpt>
      <trkpt lat="45.22244" lon="6.01205">
        <ele>1633</ele>
        <time>2014-01-12T08:39:52Z</time>
      </trkpt>
      <trkpt lat="45.22244" lon="6.0121">
        <ele>1634</ele>
        <time>2014-01-12T08:39:57Z</time>
      </trkpt>
      <trkpt lat="45.22244" lon="6.01212">
        <ele>1634.199951172</ele>
        <time>2014-01-12T08:39:59Z</time>
      </trkpt>
      <trkpt lat="45.22244" lon="6.01217">
        <ele>1635.199951172</ele>
        <time>2014-01-12T08:40:03Z</time>
      </trkpt>
      <trkpt lat="45.22243" lon="6.01219">
        <ele>1635.400024414</ele>
        <time>2014-01-12T08:40:05Z</time>
      </trkpt>
      <trkpt lat="45.22242" lon="6.01223">
        <ele>1636.199951172</ele>
        <time>2014-01-12T08:40:09Z</time>
      </trkpt>
      <trkpt lat="45.22241" lon="6.01223">
        <ele>1636</ele>
        <time>2014-01-12T08:40:10Z</time>
      </trkpt>
      <trkpt lat="45.22243" lon="6.01224">
        <ele>1636.400024414</ele>
        <time>2014-01-12T08:40:13Z</time>
      </trkpt>
      <trkpt lat="45.22243" lon="6.01224">
        <ele>1636.599975586</ele>
        <time>2014-01-12T08:40:14Z</time>
      </trkpt>
      <trkpt lat="45.22246" lon="6.01226">
        <ele>1637.199951172</ele>
        <time>2014-01-12T08:40:18Z</time>
      </trkpt>
      <trkpt lat="45.22246" lon="6.01228">
        <ele>1637.400024414</ele>
        <time>2014-01-12T08:40:20Z</time>
      </trkpt>
      <trkpt lat="45.22245" lon="6.01231">
        <ele>1638</ele>
        <time>2014-01-12T08:40:23Z</time>
      </trkpt>
      <trkpt lat="45.22244" lon="6.01235">
        <ele>1638.599975586</ele>
        <time>2014-01-12T08:40:26Z</time>
      </trkpt>
      <trkpt lat="45.22242" lon="6.01239">
        <ele>1639.199951172</ele>
        <time>2014-01-12T08:40:29Z</time>
      </trkpt>
      <trkpt lat="45.22242" lon="6.0124">
        <ele>1639.599975586</ele>
        <time>2014-01-12T08:40:30Z</time>
      </trkpt>
      <trkpt lat="45.22241" lon="6.01245">
        <ele>1640.400024414</ele>
        <time>2014-01-12T08:40:34Z</time>
      </trkpt>
      <trkpt lat="45.22241" lon="6.01246">
        <ele>1640.400024414</ele>
        <time>2014-01-12T08:40:35Z</time>
      </trkpt>
      <trkpt lat="45.2224" lon="6.0125">
        <ele>1641.199951172</ele>
        <time>2014-01-12T08:40:39Z</time>
      </trkpt>
      <trkpt lat="45.22239" lon="6.01252">
        <ele>1641.599975586</ele>
        <time>2014-01-12T08:40:41Z</time>
      </trkpt>
      <trkpt lat="45.22239" lon="6.01254">
        <ele>1642</ele>
        <time>2014-01-12T08:40:43Z</time>
      </trkpt>
      <trkpt lat="45.22237" lon="6.01258">
        <ele>1642.800048828</ele>
        <time>2014-01-12T08:40:47Z</time>
      </trkpt>
      <trkpt lat="45.22237" lon="6.0126">
        <ele>1643.199951172</ele>
        <time>2014-01-12T08:40:49Z</time>
      </trkpt>
      <trkpt lat="45.22236" lon="6.01262">
        <ele>1643.800048828</ele>
        <time>2014-01-12T08:40:51Z</time>
      </trkpt>
      <trkpt lat="45.22236" lon="6.01263">
        <ele>1644</ele>
        <time>2014-01-12T08:40:53Z</time>
      </trkpt>
      <trkpt lat="45.22234" lon="6.0127">
        <ele>1645.400024414</ele>
        <time>2014-01-12T08:41:00Z</time>
      </trkpt>
      <trkpt lat="45.22233" lon="6.01278">
        <ele>1647.199951172</ele>
        <time>2014-01-12T08:41:07Z</time>
      </trkpt>
      <trkpt lat="45.22234" lon="6.01284">
        <ele>1648.599975586</ele>
        <time>2014-01-12T08:41:12Z</time>
      </trkpt>
      <trkpt lat="45.22235" lon="6.01285">
        <ele>1648.800048828</ele>
        <time>2014-01-12T08:41:13Z</time>
      </trkpt>
      <trkpt lat="45.22235" lon="6.0129">
        <ele>1650.199951172</ele>
        <time>2014-01-12T08:41:17Z</time>
      </trkpt>
      <trkpt lat="45.22234" lon="6.01294">
        <ele>1650.800048828</ele>
        <time>2014-01-12T08:41:20Z</time>
      </trkpt>
      <trkpt lat="45.22236" lon="6.01299">
        <ele>1652.199951172</ele>
        <time>2014-01-12T08:41:25Z</time>
      </trkpt>
      <trkpt lat="45.22236" lon="6.013">
        <ele>1652.599975586</ele>
        <time>2014-01-12T08:41:27Z</time>
      </trkpt>
      <trkpt lat="45.22237" lon="6.01303">
        <ele>1653.199951172</ele>
        <time>2014-01-12T08:41:30Z</time>
      </trkpt>
      <trkpt lat="45.2224" lon="6.01305">
        <ele>1654.199951172</ele>
        <time>2014-01-12T08:41:36Z</time>
      </trkpt>
      <trkpt lat="45.22243" lon="6.01308">
        <ele>1655.199951172</ele>
        <time>2014-01-12T08:41:40Z</time>
      </trkpt>
      <trkpt lat="45.22244" lon="6.01309">
        <ele>1655.400024414</ele>
        <time>2014-01-12T08:41:41Z</time>
      </trkpt>
      <trkpt lat="45.22246" lon="6.01307">
        <ele>1655.199951172</ele>
        <time>2014-01-12T08:41:48Z</time>
      </trkpt>
      <trkpt lat="45.22247" lon="6.01307">
        <ele>1655.400024414</ele>
        <time>2014-01-12T08:41:49Z</time>
      </trkpt>
      <trkpt lat="45.22251" lon="6.01308">
        <ele>1656.199951172</ele>
        <time>2014-01-12T08:41:53Z</time>
      </trkpt>
      <trkpt lat="45.22258" lon="6.01308">
        <ele>1658.800048828</ele>
        <time>2014-01-12T08:42:01Z</time>
      </trkpt>
      <trkpt lat="45.22265" lon="6.01308">
        <ele>1661.199951172</ele>
        <time>2014-01-12T08:42:09Z</time>
      </trkpt>
      <trkpt lat="45.2227" lon="6.01308">
        <ele>1662.599975586</ele>
        <time>2014-01-12T08:42:13Z</time>
      </trkpt>
      <trkpt lat="45.22271" lon="6.01309">
        <ele>1663.400024414</ele>
        <time>2014-01-12T08:42:15Z</time>
      </trkpt>
      <trkpt lat="45.22275" lon="6.0131">
        <ele>1665</ele>
        <time>2014-01-12T08:42:19Z</time>
      </trkpt>
      <trkpt lat="45.22278" lon="6.0131">
        <ele>1666</ele>
        <time>2014-01-12T08:42:22Z</time>
      </trkpt>
      <trkpt lat="45.2228" lon="6.0131">
        <ele>1666.400024414</ele>
        <time>2014-01-12T08:42:25Z</time>
      </trkpt>
      <trkpt lat="45.22281" lon="6.01309">
        <ele>1666.800048828</ele>
        <time>2014-01-12T08:42:27Z</time>
      </trkpt>
      <trkpt lat="45.22284" lon="6.01309">
        <ele>1667.800048828</ele>
        <time>2014-01-12T08:42:31Z</time>
      </trkpt>
      <trkpt lat="45.22285" lon="6.01311">
        <ele>1668.599975586</ele>
        <time>2014-01-12T08:42:33Z</time>
      </trkpt>
      <trkpt lat="45.22285" lon="6.01317">
        <ele>1670</ele>
        <time>2014-01-12T08:42:38Z</time>
      </trkpt>
      <trkpt lat="45.22283" lon="6.01321">
        <ele>1670.400024414</ele>
        <time>2014-01-12T08:42:43Z</time>
      </trkpt>
      <trkpt lat="45.22281" lon="6.01326">
        <ele>1671</ele>
        <time>2014-01-12T08:42:49Z</time>
      </trkpt>
      <trkpt lat="45.22281" lon="6.01331">
        <ele>1672.199951172</ele>
        <time>2014-01-12T08:42:54Z</time>
      </trkpt>
      <trkpt lat="45.22281" lon="6.01339">
        <ele>1673.599975586</ele>
        <time>2014-01-12T08:43:00Z</time>
      </trkpt>
      <trkpt lat="45.2228" lon="6.01346">
        <ele>1675</ele>
        <time>2014-01-12T08:43:06Z</time>
      </trkpt>
      <trkpt lat="45.2228" lon="6.01348">
        <ele>1675.599975586</ele>
        <time>2014-01-12T08:43:08Z</time>
      </trkpt>
      <trkpt lat="45.2228" lon="6.01352">
        <ele>1676</ele>
        <time>2014-01-12T08:43:11Z</time>
      </trkpt>
      <trkpt lat="45.2228" lon="6.01357">
        <ele>1677.199951172</ele>
        <time>2014-01-12T08:43:15Z</time>
      </trkpt>
      <trkpt lat="45.2228" lon="6.0136">
        <ele>1677.599975586</ele>
        <time>2014-01-12T08:43:17Z</time>
      </trkpt>
      <trkpt lat="45.22272" lon="6.01365">
        <ele>1676</ele>
        <time>2014-01-12T08:43:23Z</time>
      </trkpt>
      <trkpt lat="45.2227" lon="6.01366">
        <ele>1675.400024414</ele>
        <time>2014-01-12T08:43:25Z</time>
      </trkpt>
      <trkpt lat="45.22269" lon="6.01367">
        <ele>1675</ele>
        <time>2014-01-12T08:43:26Z</time>
      </trkpt>
      <trkpt lat="45.22266" lon="6.01371">
        <ele>1674.800048828</ele>
        <time>2014-01-12T08:43:30Z</time>
      </trkpt>
      <trkpt lat="45.22263" lon="6.01377">
        <ele>1674.800048828</ele>
        <time>2014-01-12T08:43:37Z</time>
      </trkpt>
      <trkpt lat="45.22257" lon="6.01381">
        <ele>1673.599975586</ele>
        <time>2014-01-12T08:43:44Z</time>
      </trkpt>
      <trkpt lat="45.22253" lon="6.01383">
        <ele>1672.599975586</ele>
        <time>2014-01-12T08:43:48Z</time>
      </trkpt>
      <trkpt lat="45.22248" lon="6.01379">
        <ele>1670.400024414</ele>
        <time>2014-01-12T08:43:50Z</time>
      </trkpt>
      <trkpt lat="45.22246" lon="6.01381">
        <ele>1670.599975586</ele>
        <time>2014-01-12T08:43:52Z</time>
      </trkpt>
      <trkpt lat="45.22243" lon="6.01385">
        <ele>1671</ele>
        <time>2014-01-12T08:43:56Z</time>
      </trkpt>
      <trkpt lat="45.22241" lon="6.0139">
        <ele>1671.400024414</ele>
        <time>2014-01-12T08:43:59Z</time>
      </trkpt>
      <trkpt lat="45.2224" lon="6.01393">
        <ele>1671.800048828</ele>
        <time>2014-01-12T08:44:01Z</time>
      </trkpt>
      <trkpt lat="45.2224" lon="6.01396">
        <ele>1672.199951172</ele>
        <time>2014-01-12T08:44:03Z</time>
      </trkpt>
      <trkpt lat="45.22238" lon="6.01399">
        <ele>1672.599975586</ele>
        <time>2014-01-12T08:44:06Z</time>
      </trkpt>
      <trkpt lat="45.22238" lon="6.014">
        <ele>1672.800048828</ele>
        <time>2014-01-12T08:44:07Z</time>
      </trkpt>
      <trkpt lat="45.22237" lon="6.01404">
        <ele>1673.400024414</ele>
        <time>2014-01-12T08:44:10Z</time>
      </trkpt>
      <trkpt lat="45.22236" lon="6.01408">
        <ele>1673.800048828</ele>
        <time>2014-01-12T08:44:12Z</time>
      </trkpt>
      <trkpt lat="45.22234" lon="6.01414">
        <ele>1674.800048828</ele>
        <time>2014-01-12T08:44:18Z</time>
      </trkpt>
      <trkpt lat="45.22233" lon="6.01419">
        <ele>1675.199951172</ele>
        <time>2014-01-12T08:44:22Z</time>
      </trkpt>
      <trkpt lat="45.22232" lon="6.01422">
        <ele>1675.199951172</ele>
        <time>2014-01-12T08:44:25Z</time>
      </trkpt>
      <trkpt lat="45.22231" lon="6.0143">
        <ele>1676</ele>
        <time>2014-01-12T08:44:32Z</time>
      </trkpt>
      <trkpt lat="45.22231" lon="6.01431">
        <ele>1676</ele>
        <time>2014-01-12T08:44:33Z</time>
      </trkpt>
      <trkpt lat="45.22233" lon="6.01441">
        <ele>1677.400024414</ele>
        <time>2014-01-12T08:44:39Z</time>
      </trkpt>
      <trkpt lat="45.22237" lon="6.01453">
        <ele>1679.199951172</ele>
        <time>2014-01-12T08:44:46Z</time>
      </trkpt>
      <trkpt lat="45.22239" lon="6.01464">
        <ele>1680.800048828</ele>
        <time>2014-01-12T08:44:53Z</time>
      </trkpt>
      <trkpt lat="45.22241" lon="6.01477">
        <ele>1682.400024414</ele>
        <time>2014-01-12T08:45:00Z</time>
      </trkpt>
      <trkpt lat="45.22242" lon="6.01486">
        <ele>1683.599975586</ele>
        <time>2014-01-12T08:45:05Z</time>
      </trkpt>
      <trkpt lat="45.22242" lon="6.01499">
        <ele>1685</ele>
        <time>2014-01-12T08:45:11Z</time>
      </trkpt>
      <trkpt lat="45.22244" lon="6.0151">
        <ele>1685</ele>
        <time>2014-01-12T08:45:17Z</time>
      </trkpt>
      <trkpt lat="45.22246" lon="6.01524">
        <ele>1684.599975586</ele>
        <time>2014-01-12T08:45:23Z</time>
      </trkpt>
      <trkpt lat="45.22246" lon="6.01527">
        <ele>1684.599975586</ele>
        <time>2014-01-12T08:45:24Z</time>
      </trkpt>
      <trkpt lat="45.22248" lon="6.01532">
        <ele>1684.599975586</ele>
        <time>2014-01-12T08:45:27Z</time>
      </trkpt>
      <trkpt lat="45.22251" lon="6.01545">
        <ele>1684.800048828</ele>
        <time>2014-01-12T08:45:34Z</time>
      </trkpt>
      <trkpt lat="45.22252" lon="6.01545">
        <ele>1685.199951172</ele>
        <time>2014-01-12T08:45:35Z</time>
      </trkpt>
      <trkpt lat="45.22252" lon="6.01547">
        <ele>1685</ele>
        <time>2014-01-12T08:45:38Z</time>
      </trkpt>
      <trkpt lat="45.22253" lon="6.01552">
        <ele>1685.199951172</ele>
        <time>2014-01-12T08:45:43Z</time>
      </trkpt>
      <trkpt lat="45.22253" lon="6.01553">
        <ele>1685.400024414</ele>
        <time>2014-01-12T08:45:44Z</time>
      </trkpt>
      <trkpt lat="45.22254" lon="6.01558">
        <ele>1685.400024414</ele>
        <time>2014-01-12T08:45:48Z</time>
      </trkpt>
      <trkpt lat="45.22253" lon="6.01566">
        <ele>1684.400024414</ele>
        <time>2014-01-12T08:45:52Z</time>
      </trkpt>
      <trkpt lat="45.22253" lon="6.01568">
        <ele>1684.599975586</ele>
        <time>2014-01-12T08:45:54Z</time>
      </trkpt>
      <trkpt lat="45.22256" lon="6.01581">
        <ele>1685.400024414</ele>
        <time>2014-01-12T08:46:01Z</time>
      </trkpt>
      <trkpt lat="45.22259" lon="6.01598">
        <ele>1685.599975586</ele>
        <time>2014-01-12T08:46:09Z</time>
      </trkpt>
      <trkpt lat="45.22261" lon="6.01615">
        <ele>1685.599975586</ele>
        <time>2014-01-12T08:46:17Z</time>
      </trkpt>
      <trkpt lat="45.22261" lon="6.01617">
        <ele>1685.400024414</ele>
        <time>2014-01-12T08:46:18Z</time>
      </trkpt>
      <trkpt lat="45.22262" lon="6.01631">
        <ele>1684.800048828</ele>
        <time>2014-01-12T08:46:24Z</time>
      </trkpt>
      <trkpt lat="45.22264" lon="6.01644">
        <ele>1684.800048828</ele>
        <time>2014-01-12T08:46:29Z</time>
      </trkpt>
      <trkpt lat="45.22265" lon="6.01655">
        <ele>1684.199951172</ele>
        <time>2014-01-12T08:46:34Z</time>
      </trkpt>
      <trkpt lat="45.22266" lon="6.01669">
        <ele>1684</ele>
        <time>2014-01-12T08:46:39Z</time>
      </trkpt>
      <trkpt lat="45.22266" lon="6.01675">
        <ele>1684.400024414</ele>
        <time>2014-01-12T08:46:41Z</time>
      </trkpt>
      <trkpt lat="45.22266" lon="6.0169">
        <ele>1684.800048828</ele>
        <time>2014-01-12T08:46:47Z</time>
      </trkpt>
      <trkpt lat="45.22267" lon="6.01706">
        <ele>1685.599975586</ele>
        <time>2014-01-12T08:46:54Z</time>
      </trkpt>
      <trkpt lat="45.22266" lon="6.01718">
        <ele>1685.599975586</ele>
        <time>2014-01-12T08:46:59Z</time>
      </trkpt>
      <trkpt lat="45.22265" lon="6.01732">
        <ele>1685.800048828</ele>
        <time>2014-01-12T08:47:05Z</time>
      </trkpt>
      <trkpt lat="45.22265" lon="6.01733">
        <ele>1685.800048828</ele>
        <time>2014-01-12T08:47:06Z</time>
      </trkpt>
      <trkpt lat="45.22265" lon="6.01735">
        <ele>1686</ele>
        <time>2014-01-12T08:47:09Z</time>
      </trkpt>
      <trkpt lat="45.22265" lon="6.01737">
        <ele>1686</ele>
        <time>2014-01-12T08:47:11Z</time>
      </trkpt>
      <trkpt lat="45.22265" lon="6.01742">
        <ele>1686</ele>
        <time>2014-01-12T08:47:15Z</time>
      </trkpt>
      <trkpt lat="45.22266" lon="6.01747">
        <ele>1686.800048828</ele>
        <time>2014-01-12T08:47:21Z</time>
      </trkpt>
      <trkpt lat="45.22268" lon="6.01754">
        <ele>1688.400024414</ele>
        <time>2014-01-12T08:47:28Z</time>
      </trkpt>
      <trkpt lat="45.2227" lon="6.01764">
        <ele>1690.400024414</ele>
        <time>2014-01-12T08:47:36Z</time>
      </trkpt>
      <trkpt lat="45.2227" lon="6.01775">
        <ele>1691.800048828</ele>
        <time>2014-01-12T08:47:43Z</time>
      </trkpt>
      <trkpt lat="45.22271" lon="6.0178">
        <ele>1692.599975586</ele>
        <time>2014-01-12T08:47:48Z</time>
      </trkpt>
      <trkpt lat="45.2227" lon="6.01787">
        <ele>1693.400024414</ele>
        <time>2014-01-12T08:47:53Z</time>
      </trkpt>
      <trkpt lat="45.22271" lon="6.01788">
        <ele>1693.599975586</ele>
        <time>2014-01-12T08:47:54Z</time>
      </trkpt>
      <trkpt lat="45.2227" lon="6.01793">
        <ele>1694</ele>
        <time>2014-01-12T08:47:58Z</time>
      </trkpt>
      <trkpt lat="45.2227" lon="6.01794">
        <ele>1694.199951172</ele>
        <time>2014-01-12T08:47:59Z</time>
      </trkpt>
      <trkpt lat="45.2227" lon="6.01799">
        <ele>1694.800048828</ele>
        <time>2014-01-12T08:48:03Z</time>
      </trkpt>
      <trkpt lat="45.2227" lon="6.01807">
        <ele>1695.599975586</ele>
        <time>2014-01-12T08:48:09Z</time>
      </trkpt>
      <trkpt lat="45.2227" lon="6.01813">
        <ele>1696.400024414</ele>
        <time>2014-01-12T08:48:14Z</time>
      </trkpt>
      <trkpt lat="45.22269" lon="6.01817">
        <ele>1696.599975586</ele>
        <time>2014-01-12T08:48:19Z</time>
      </trkpt>
      <trkpt lat="45.22269" lon="6.0182">
        <ele>1697</ele>
        <time>2014-01-12T08:48:23Z</time>
      </trkpt>
      <trkpt lat="45.22268" lon="6.01821">
        <ele>1696.599975586</ele>
        <time>2014-01-12T08:48:25Z</time>
      </trkpt>
      <trkpt lat="45.22263" lon="6.01825">
        <ele>1694.800048828</ele>
        <time>2014-01-12T08:48:33Z</time>
      </trkpt>
      <trkpt lat="45.22259" lon="6.0183">
        <ele>1693.599975586</ele>
        <time>2014-01-12T08:48:39Z</time>
      </trkpt>
      <trkpt lat="45.22258" lon="6.01838">
        <ele>1693.800048828</ele>
        <time>2014-01-12T08:48:46Z</time>
      </trkpt>
      <trkpt lat="45.22257" lon="6.01846">
        <ele>1694.199951172</ele>
        <time>2014-01-12T08:48:52Z</time>
      </trkpt>
      <trkpt lat="45.22255" lon="6.01857">
        <ele>1694.400024414</ele>
        <time>2014-01-12T08:48:59Z</time>
      </trkpt>
      <trkpt lat="45.22253" lon="6.01868">
        <ele>1694.199951172</ele>
        <time>2014-01-12T08:49:06Z</time>
      </trkpt>
      <trkpt lat="45.22252" lon="6.0188">
        <ele>1695</ele>
        <time>2014-01-12T08:49:13Z</time>
      </trkpt>
      <trkpt lat="45.22252" lon="6.01891">
        <ele>1696</ele>
        <time>2014-01-12T08:49:20Z</time>
      </trkpt>
      <trkpt lat="45.22254" lon="6.01902">
        <ele>1697.599975586</ele>
        <time>2014-01-12T08:49:27Z</time>
      </trkpt>
      <trkpt lat="45.22255" lon="6.01913">
        <ele>1699.400024414</ele>
        <time>2014-01-12T08:49:34Z</time>
      </trkpt>
      <trkpt lat="45.22257" lon="6.01926">
        <ele>1701.800048828</ele>
        <time>2014-01-12T08:49:42Z</time>
      </trkpt>
      <trkpt lat="45.22258" lon="6.01935">
        <ele>1703.199951172</ele>
        <time>2014-01-12T08:49:48Z</time>
      </trkpt>
      <trkpt lat="45.22259" lon="6.01947">
        <ele>1705.199951172</ele>
        <time>2014-01-12T08:49:55Z</time>
      </trkpt>
      <trkpt lat="45.22258" lon="6.01958">
        <ele>1706.400024414</ele>
        <time>2014-01-12T08:50:01Z</time>
      </trkpt>
      <trkpt lat="45.22256" lon="6.01971">
        <ele>1707.400024414</ele>
        <time>2014-01-12T08:50:08Z</time>
      </trkpt>
      <trkpt lat="45.22253" lon="6.01982">
        <ele>1707.599975586</ele>
        <time>2014-01-12T08:50:12Z</time>
      </trkpt>
      <trkpt lat="45.2225" lon="6.01993">
        <ele>1708</ele>
        <time>2014-01-12T08:50:19Z</time>
      </trkpt>
      <trkpt lat="45.2225" lon="6.01994">
        <ele>1708.199951172</ele>
        <time>2014-01-12T08:50:20Z</time>
      </trkpt>
      <trkpt lat="45.2225" lon="6.02001">
        <ele>1709.199951172</ele>
        <time>2014-01-12T08:50:25Z</time>
      </trkpt>
      <trkpt lat="45.22251" lon="6.02011">
        <ele>1710.800048828</ele>
        <time>2014-01-12T08:50:32Z</time>
      </trkpt>
      <trkpt lat="45.22249" lon="6.02021">
        <ele>1711.800048828</ele>
        <time>2014-01-12T08:50:39Z</time>
      </trkpt>
      <trkpt lat="45.22249" lon="6.0203">
        <ele>1713</ele>
        <time>2014-01-12T08:50:46Z</time>
      </trkpt>
      <trkpt lat="45.22249" lon="6.02031">
        <ele>1713</ele>
        <time>2014-01-12T08:50:47Z</time>
      </trkpt>
      <trkpt lat="45.2225" lon="6.02037">
        <ele>1713.800048828</ele>
        <time>2014-01-12T08:50:51Z</time>
      </trkpt>
      <trkpt lat="45.2225" lon="6.02041">
        <ele>1714.400024414</ele>
        <time>2014-01-12T08:50:55Z</time>
      </trkpt>
      <trkpt lat="45.2225" lon="6.02044">
        <ele>1714.800048828</ele>
        <time>2014-01-12T08:50:57Z</time>
      </trkpt>
      <trkpt lat="45.22251" lon="6.02053">
        <ele>1716.400024414</ele>
        <time>2014-01-12T08:51:04Z</time>
      </trkpt>
      <trkpt lat="45.22253" lon="6.02062">
        <ele>1718</ele>
        <time>2014-01-12T08:51:12Z</time>
      </trkpt>
      <trkpt lat="45.22254" lon="6.02068">
        <ele>1719.199951172</ele>
        <time>2014-01-12T08:51:18Z</time>
      </trkpt>
      <trkpt lat="45.22253" lon="6.0207">
        <ele>1719</ele>
        <time>2014-01-12T08:51:23Z</time>
      </trkpt>
      <trkpt lat="45.22254" lon="6.02071">
        <ele>1719.199951172</ele>
        <time>2014-01-12T08:51:24Z</time>
      </trkpt>
      <trkpt lat="45.22255" lon="6.02077">
        <ele>1720.400024414</ele>
        <time>2014-01-12T08:51:29Z</time>
      </trkpt>
      <trkpt lat="45.22254" lon="6.0208">
        <ele>1720.400024414</ele>
        <time>2014-01-12T08:51:34Z</time>
      </trkpt>
      <trkpt lat="45.22255" lon="6.02086">
        <ele>1721.599975586</ele>
        <time>2014-01-12T08:51:38Z</time>
      </trkpt>
      <trkpt lat="45.22256" lon="6.02089">
        <ele>1722</ele>
        <time>2014-01-12T08:51:40Z</time>
      </trkpt>
      <trkpt lat="45.22258" lon="6.02096">
        <ele>1723.199951172</ele>
        <time>2014-01-12T08:51:45Z</time>
      </trkpt>
      <trkpt lat="45.22259" lon="6.02097">
        <ele>1723.599975586</ele>
        <time>2014-01-12T08:51:47Z</time>
      </trkpt>
      <trkpt lat="45.22264" lon="6.02102">
        <ele>1725</ele>
        <time>2014-01-12T08:51:53Z</time>
      </trkpt>
      <trkpt lat="45.22267" lon="6.02108">
        <ele>1726.400024414</ele>
        <time>2014-01-12T08:51:58Z</time>
      </trkpt>
      <trkpt lat="45.22269" lon="6.02113">
        <ele>1727.199951172</ele>
        <time>2014-01-12T08:52:02Z</time>
      </trkpt>
      <trkpt lat="45.2227" lon="6.02115">
        <ele>1727.599975586</ele>
        <time>2014-01-12T08:52:04Z</time>
      </trkpt>
      <trkpt lat="45.22273" lon="6.0212">
        <ele>1728.599975586</ele>
        <time>2014-01-12T08:52:09Z</time>
      </trkpt>
      <trkpt lat="45.22274" lon="6.02122">
        <ele>1729</ele>
        <time>2014-01-12T08:52:11Z</time>
      </trkpt>
      <trkpt lat="45.22275" lon="6.02125">
        <ele>1729.599975586</ele>
        <time>2014-01-12T08:52:14Z</time>
      </trkpt>
      <trkpt lat="45.22277" lon="6.02126">
        <ele>1730</ele>
        <time>2014-01-12T08:52:16Z</time>
      </trkpt>
      <trkpt lat="45.2228" lon="6.02132">
        <ele>1731</ele>
        <time>2014-01-12T08:52:22Z</time>
      </trkpt>
      <trkpt lat="45.22282" lon="6.02133">
        <ele>1731.400024414</ele>
        <time>2014-01-12T08:52:24Z</time>
      </trkpt>
      <trkpt lat="45.22284" lon="6.02136">
        <ele>1732</ele>
        <time>2014-01-12T08:52:27Z</time>
      </trkpt>
      <trkpt lat="45.22287" lon="6.0214">
        <ele>1732.800048828</ele>
        <time>2014-01-12T08:52:32Z</time>
      </trkpt>
      <trkpt lat="45.22288" lon="6.02141">
        <ele>1733</ele>
        <time>2014-01-12T08:52:34Z</time>
      </trkpt>
      <trkpt lat="45.2229" lon="6.02144">
        <ele>1733.599975586</ele>
        <time>2014-01-12T08:52:37Z</time>
      </trkpt>
      <trkpt lat="45.22291" lon="6.02146">
        <ele>1734</ele>
        <time>2014-01-12T08:52:40Z</time>
      </trkpt>
      <trkpt lat="45.22294" lon="6.02153">
        <ele>1734.800048828</ele>
        <time>2014-01-12T08:52:47Z</time>
      </trkpt>
      <trkpt lat="45.22296" lon="6.02158">
        <ele>1735.400024414</ele>
        <time>2014-01-12T08:52:51Z</time>
      </trkpt>
      <trkpt lat="45.22298" lon="6.0216">
        <ele>1736</ele>
        <time>2014-01-12T08:52:54Z</time>
      </trkpt>
      <trkpt lat="45.22299" lon="6.0216">
        <ele>1736</ele>
        <time>2014-01-12T08:52:55Z</time>
      </trkpt>
      <trkpt lat="45.22306" lon="6.02163">
        <ele>1737.199951172</ele>
        <time>2014-01-12T08:53:02Z</time>
      </trkpt>
      <trkpt lat="45.22308" lon="6.02168">
        <ele>1737.800048828</ele>
        <time>2014-01-12T08:53:06Z</time>
      </trkpt>
      <trkpt lat="45.22309" lon="6.02171">
        <ele>1738.400024414</ele>
        <time>2014-01-12T08:53:09Z</time>
      </trkpt>
      <trkpt lat="45.22311" lon="6.02176">
        <ele>1739.400024414</ele>
        <time>2014-01-12T08:53:14Z</time>
      </trkpt>
      <trkpt lat="45.22312" lon="6.02177">
        <ele>1739.599975586</ele>
        <time>2014-01-12T08:53:15Z</time>
      </trkpt>
      <trkpt lat="45.22315" lon="6.02182">
        <ele>1740.599975586</ele>
        <time>2014-01-12T08:53:20Z</time>
      </trkpt>
      <trkpt lat="45.22317" lon="6.02183">
        <ele>1741.199951172</ele>
        <time>2014-01-12T08:53:22Z</time>
      </trkpt>
      <trkpt lat="45.22319" lon="6.02189">
        <ele>1742.199951172</ele>
        <time>2014-01-12T08:53:27Z</time>
      </trkpt>
      <trkpt lat="45.22321" lon="6.02194">
        <ele>1743.199951172</ele>
        <time>2014-01-12T08:53:31Z</time>
      </trkpt>
      <trkpt lat="45.22323" lon="6.02196">
        <ele>1743.800048828</ele>
        <time>2014-01-12T08:53:33Z</time>
      </trkpt>
      <trkpt lat="45.22326" lon="6.02202">
        <ele>1745</ele>
        <time>2014-01-12T08:53:39Z</time>
      </trkpt>
      <trkpt lat="45.22329" lon="6.02208">
        <ele>1746.400024414</ele>
        <time>2014-01-12T08:53:45Z</time>
      </trkpt>
      <trkpt lat="45.22334" lon="6.02214">
        <ele>1748.199951172</ele>
        <time>2014-01-12T08:53:52Z</time>
      </trkpt>
      <trkpt lat="45.2234" lon="6.02223">
        <ele>1752</ele>
        <time>2014-01-12T08:54:01Z</time>
      </trkpt>
      <trkpt lat="45.22341" lon="6.02224">
        <ele>1752.599975586</ele>
        <time>2014-01-12T08:54:03Z</time>
      </trkpt>
      <trkpt lat="45.22343" lon="6.02228">
        <ele>1754</ele>
        <time>2014-01-12T08:54:07Z</time>
      </trkpt>
      <trkpt lat="45.22344" lon="6.02228">
        <ele>1754.400024414</ele>
        <time>2014-01-12T08:54:08Z</time>
      </trkpt>
      <trkpt lat="45.22348" lon="6.02234">
        <ele>1756.800048828</ele>
        <time>2014-01-12T08:54:13Z</time>
      </trkpt>
      <trkpt lat="45.22352" lon="6.02239">
        <ele>1759.199951172</ele>
        <time>2014-01-12T08:54:19Z</time>
      </trkpt>
      <trkpt lat="45.22354" lon="6.02241">
        <ele>1760.199951172</ele>
        <time>2014-01-12T08:54:22Z</time>
      </trkpt>
      <trkpt lat="45.22356" lon="6.02244">
        <ele>1761.599975586</ele>
        <time>2014-01-12T08:54:26Z</time>
      </trkpt>
      <trkpt lat="45.22361" lon="6.02248">
        <ele>1764</ele>
        <time>2014-01-12T08:54:33Z</time>
      </trkpt>
      <trkpt lat="45.22363" lon="6.02249">
        <ele>1765</ele>
        <time>2014-01-12T08:54:37Z</time>
      </trkpt>
      <trkpt lat="45.22366" lon="6.02252">
        <ele>1766.599975586</ele>
        <time>2014-01-12T08:54:42Z</time>
      </trkpt>
      <trkpt lat="45.22367" lon="6.02255">
        <ele>1767.599975586</ele>
        <time>2014-01-12T08:54:47Z</time>
      </trkpt>
      <trkpt lat="45.22369" lon="6.02258">
        <ele>1768.800048828</ele>
        <time>2014-01-12T08:54:51Z</time>
      </trkpt>
      <trkpt lat="45.22369" lon="6.02262">
        <ele>1769.599975586</ele>
        <time>2014-01-12T08:54:55Z</time>
      </trkpt>
      <trkpt lat="45.2237" lon="6.02267">
        <ele>1770.599975586</ele>
        <time>2014-01-12T08:55:01Z</time>
      </trkpt>
      <trkpt lat="45.22371" lon="6.0227">
        <ele>1771.400024414</ele>
        <time>2014-01-12T08:55:06Z</time>
      </trkpt>
      <trkpt lat="45.22375" lon="6.0227">
        <ele>1773</ele>
        <time>2014-01-12T08:55:12Z</time>
      </trkpt>
      <trkpt lat="45.22378" lon="6.02269">
        <ele>1773.800048828</ele>
        <time>2014-01-12T08:55:16Z</time>
      </trkpt>
      <trkpt lat="45.22382" lon="6.02268">
        <ele>1775.199951172</ele>
        <time>2014-01-12T08:55:22Z</time>
      </trkpt>
      <trkpt lat="45.22386" lon="6.02266">
        <ele>1776.599975586</ele>
        <time>2014-01-12T08:55:28Z</time>
      </trkpt>
      <trkpt lat="45.22387" lon="6.02269">
        <ele>1777.400024414</ele>
        <time>2014-01-12T08:55:32Z</time>
      </trkpt>
      <trkpt lat="45.22387" lon="6.02274">
        <ele>1778</ele>
        <time>2014-01-12T08:55:38Z</time>
      </trkpt>
      <trkpt lat="45.22387" lon="6.02279">
        <ele>1778.800048828</ele>
        <time>2014-01-12T08:55:44Z</time>
      </trkpt>
      <trkpt lat="45.22389" lon="6.02284">
        <ele>1780</ele>
        <time>2014-01-12T08:55:50Z</time>
      </trkpt>
      <trkpt lat="45.2239" lon="6.02289">
        <ele>1781</ele>
        <time>2014-01-12T08:55:54Z</time>
      </trkpt>
      <trkpt lat="45.22391" lon="6.02294">
        <ele>1782</ele>
        <time>2014-01-12T08:55:59Z</time>
      </trkpt>
      <trkpt lat="45.22391" lon="6.02297">
        <ele>1782.400024414</ele>
        <time>2014-01-12T08:56:01Z</time>
      </trkpt>
      <trkpt lat="45.22391" lon="6.02301">
        <ele>1783</ele>
        <time>2014-01-12T08:56:05Z</time>
      </trkpt>
      <trkpt lat="45.22392" lon="6.02305">
        <ele>1783.599975586</ele>
        <time>2014-01-12T08:56:10Z</time>
      </trkpt>
      <trkpt lat="45.22393" lon="6.0231">
        <ele>1784.599975586</ele>
        <time>2014-01-12T08:56:16Z</time>
      </trkpt>
      <trkpt lat="45.22394" lon="6.02315">
        <ele>1785.800048828</ele>
        <time>2014-01-12T08:56:22Z</time>
      </trkpt>
      <trkpt lat="45.22396" lon="6.0232">
        <ele>1786.599975586</ele>
        <time>2014-01-12T08:56:28Z</time>
      </trkpt>
      <trkpt lat="45.22397" lon="6.02325">
        <ele>1787.400024414</ele>
        <time>2014-01-12T08:56:33Z</time>
      </trkpt>
      <trkpt lat="45.22396" lon="6.0233">
        <ele>1787.800048828</ele>
        <time>2014-01-12T08:56:38Z</time>
      </trkpt>
      <trkpt lat="45.22395" lon="6.02334">
        <ele>1788</ele>
        <time>2014-01-12T08:56:44Z</time>
      </trkpt>
      <trkpt lat="45.22395" lon="6.0234">
        <ele>1788.800048828</ele>
        <time>2014-01-12T08:56:49Z</time>
      </trkpt>
      <trkpt lat="45.22396" lon="6.02345">
        <ele>1789.400024414</ele>
        <time>2014-01-12T08:56:54Z</time>
      </trkpt>
      <trkpt lat="45.22396" lon="6.0235">
        <ele>1790</ele>
        <time>2014-01-12T08:56:59Z</time>
      </trkpt>
      <trkpt lat="45.22396" lon="6.02355">
        <ele>1790.599975586</ele>
        <time>2014-01-12T08:57:04Z</time>
      </trkpt>
      <trkpt lat="45.22398" lon="6.0236">
        <ele>1791.599975586</ele>
        <time>2014-01-12T08:57:10Z</time>
      </trkpt>
      <trkpt lat="45.224" lon="6.02364">
        <ele>1792.599975586</ele>
        <time>2014-01-12T08:57:16Z</time>
      </trkpt>
      <trkpt lat="45.224" lon="6.02366">
        <ele>1793</ele>
        <time>2014-01-12T08:57:19Z</time>
      </trkpt>
      <trkpt lat="45.22403" lon="6.02372">
        <ele>1794.199951172</ele>
        <time>2014-01-12T08:57:26Z</time>
      </trkpt>
      <trkpt lat="45.22403" lon="6.02375">
        <ele>1794.800048828</ele>
        <time>2014-01-12T08:57:30Z</time>
      </trkpt>
      <trkpt lat="45.22406" lon="6.0238">
        <ele>1796</ele>
        <time>2014-01-12T08:57:36Z</time>
      </trkpt>
      <trkpt lat="45.2241" lon="6.02383">
        <ele>1797.400024414</ele>
        <time>2014-01-12T08:57:43Z</time>
      </trkpt>
      <trkpt lat="45.22413" lon="6.02383">
        <ele>1798.400024414</ele>
        <time>2014-01-12T08:57:47Z</time>
      </trkpt>
      <trkpt lat="45.22417" lon="6.02383">
        <ele>1799.400024414</ele>
        <time>2014-01-12T08:57:53Z</time>
      </trkpt>
      <trkpt lat="45.22421" lon="6.02385">
        <ele>1801.400024414</ele>
        <time>2014-01-12T08:57:59Z</time>
      </trkpt>
      <trkpt lat="45.22422" lon="6.02388">
        <ele>1802.199951172</ele>
        <time>2014-01-12T08:58:03Z</time>
      </trkpt>
      <trkpt lat="45.22423" lon="6.02392">
        <ele>1803</ele>
        <time>2014-01-12T08:58:07Z</time>
      </trkpt>
      <trkpt lat="45.22423" lon="6.02397">
        <ele>1803.599975586</ele>
        <time>2014-01-12T08:58:12Z</time>
      </trkpt>
      <trkpt lat="45.22426" lon="6.02398">
        <ele>1804.800048828</ele>
        <time>2014-01-12T08:58:17Z</time>
      </trkpt>
      <trkpt lat="45.2243" lon="6.02399">
        <ele>1806.400024414</ele>
        <time>2014-01-12T08:58:23Z</time>
      </trkpt>
      <trkpt lat="45.22433" lon="6.02404">
        <ele>1808.199951172</ele>
        <time>2014-01-12T08:58:30Z</time>
      </trkpt>
      <trkpt lat="45.22436" lon="6.02405">
        <ele>1809.400024414</ele>
        <time>2014-01-12T08:58:35Z</time>
      </trkpt>
      <trkpt lat="45.22439" lon="6.02406">
        <ele>1810.800048828</ele>
        <time>2014-01-12T08:58:39Z</time>
      </trkpt>
      <trkpt lat="45.2244" lon="6.02406">
        <ele>1811</ele>
        <time>2014-01-12T08:58:40Z</time>
      </trkpt>
      <trkpt lat="45.22443" lon="6.02406">
        <ele>1812</ele>
        <time>2014-01-12T08:58:43Z</time>
      </trkpt>
      <trkpt lat="45.22443" lon="6.02406">
        <ele>1812.199951172</ele>
        <time>2014-01-12T08:58:44Z</time>
      </trkpt>
      <trkpt lat="45.22445" lon="6.02407">
        <ele>1813.199951172</ele>
        <time>2014-01-12T08:58:48Z</time>
      </trkpt>
      <trkpt lat="45.22448" lon="6.02407">
        <ele>1814.199951172</ele>
        <time>2014-01-12T08:58:52Z</time>
      </trkpt>
      <trkpt lat="45.2245" lon="6.02411">
        <ele>1815.599975586</ele>
        <time>2014-01-12T08:58:57Z</time>
      </trkpt>
      <trkpt lat="45.22452" lon="6.02413">
        <ele>1816.400024414</ele>
        <time>2014-01-12T08:59:02Z</time>
      </trkpt>
      <trkpt lat="45.22454" lon="6.02413">
        <ele>1817.199951172</ele>
        <time>2014-01-12T08:59:06Z</time>
      </trkpt>
      <trkpt lat="45.22456" lon="6.02417">
        <ele>1818.199951172</ele>
        <time>2014-01-12T08:59:11Z</time>
      </trkpt>
      <trkpt lat="45.22458" lon="6.02421">
        <ele>1819.199951172</ele>
        <time>2014-01-12T08:59:16Z</time>
      </trkpt>
      <trkpt lat="45.22459" lon="6.02425">
        <ele>1819.800048828</ele>
        <time>2014-01-12T08:59:21Z</time>
      </trkpt>
      <trkpt lat="45.2246" lon="6.02432">
        <ele>1821</ele>
        <time>2014-01-12T08:59:28Z</time>
      </trkpt>
      <trkpt lat="45.22461" lon="6.02437">
        <ele>1821.800048828</ele>
        <time>2014-01-12T08:59:34Z</time>
      </trkpt>
      <trkpt lat="45.2246" lon="6.02444">
        <ele>1821.800048828</ele>
        <time>2014-01-12T08:59:41Z</time>
      </trkpt>
      <trkpt lat="45.22459" lon="6.02449">
        <ele>1822</ele>
        <time>2014-01-12T08:59:47Z</time>
      </trkpt>
      <trkpt lat="45.22458" lon="6.02455">
        <ele>1822.199951172</ele>
        <time>2014-01-12T08:59:53Z</time>
      </trkpt>
      <trkpt lat="45.22458" lon="6.0246">
        <ele>1822.599975586</ele>
        <time>2014-01-12T08:59:58Z</time>
      </trkpt>
      <trkpt lat="45.2246" lon="6.02466">
        <ele>1823.800048828</ele>
        <time>2014-01-12T09:00:04Z</time>
      </trkpt>
      <trkpt lat="45.22461" lon="6.02472">
        <ele>1824.400024414</ele>
        <time>2014-01-12T09:00:09Z</time>
      </trkpt>
      <trkpt lat="45.22462" lon="6.02476">
        <ele>1825</ele>
        <time>2014-01-12T09:00:14Z</time>
      </trkpt>
      <trkpt lat="45.22465" lon="6.02482">
        <ele>1826.400024414</ele>
        <time>2014-01-12T09:00:22Z</time>
      </trkpt>
      <trkpt lat="45.22468" lon="6.0249">
        <ele>1827.800048828</ele>
        <time>2014-01-12T09:00:29Z</time>
      </trkpt>
      <trkpt lat="45.22469" lon="6.02499">
        <ele>1828.800048828</ele>
        <time>2014-01-12T09:00:36Z</time>
      </trkpt>
      <trkpt lat="45.2247" lon="6.02508">
        <ele>1831</ele>
        <time>2014-01-12T09:00:44Z</time>
      </trkpt>
      <trkpt lat="45.22471" lon="6.02509">
        <ele>1831.400024414</ele>
        <time>2014-01-12T09:00:45Z</time>
      </trkpt>
      <trkpt lat="45.22473" lon="6.02515">
        <ele>1833</ele>
        <time>2014-01-12T09:00:50Z</time>
      </trkpt>
      <trkpt lat="45.22475" lon="6.02522">
        <ele>1835.199951172</ele>
        <time>2014-01-12T09:00:56Z</time>
      </trkpt>
      <trkpt lat="45.22476" lon="6.02527">
        <ele>1836.599975586</ele>
        <time>2014-01-12T09:01:01Z</time>
      </trkpt>
      <trkpt lat="45.22478" lon="6.02537">
        <ele>1839</ele>
        <time>2014-01-12T09:01:09Z</time>
      </trkpt>
      <trkpt lat="45.22478" lon="6.0254">
        <ele>1839.599975586</ele>
        <time>2014-01-12T09:01:13Z</time>
      </trkpt>
      <trkpt lat="45.22478" lon="6.02541">
        <ele>1839.800048828</ele>
        <time>2014-01-12T09:01:14Z</time>
      </trkpt>
      <trkpt lat="45.22478" lon="6.02546">
        <ele>1840.800048828</ele>
        <time>2014-01-12T09:01:18Z</time>
      </trkpt>
      <trkpt lat="45.22481" lon="6.02552">
        <ele>1842.599975586</ele>
        <time>2014-01-12T09:01:24Z</time>
      </trkpt>
      <trkpt lat="45.22485" lon="6.02554">
        <ele>1843.599975586</ele>
        <time>2014-01-12T09:01:30Z</time>
      </trkpt>
      <trkpt lat="45.22489" lon="6.02553">
        <ele>1844.400024414</ele>
        <time>2014-01-12T09:01:37Z</time>
      </trkpt>
      <trkpt lat="45.22492" lon="6.02552">
        <ele>1844.599975586</ele>
        <time>2014-01-12T09:01:41Z</time>
      </trkpt>
      <trkpt lat="45.22495" lon="6.02552">
        <ele>1845.599975586</ele>
        <time>2014-01-12T09:01:46Z</time>
      </trkpt>
      <trkpt lat="45.22499" lon="6.02555">
        <ele>1846.599975586</ele>
        <time>2014-01-12T09:01:51Z</time>
      </trkpt>
      <trkpt lat="45.22502" lon="6.02558">
        <ele>1847.800048828</ele>
        <time>2014-01-12T09:01:57Z</time>
      </trkpt>
      <trkpt lat="45.22504" lon="6.02565">
        <ele>1849.400024414</ele>
        <time>2014-01-12T09:02:04Z</time>
      </trkpt>
      <trkpt lat="45.22506" lon="6.02569">
        <ele>1850.400024414</ele>
        <time>2014-01-12T09:02:09Z</time>
      </trkpt>
      <trkpt lat="45.22508" lon="6.02574">
        <ele>1851.599975586</ele>
        <time>2014-01-12T09:02:15Z</time>
      </trkpt>
      <trkpt lat="45.22511" lon="6.02577">
        <ele>1852.400024414</ele>
        <time>2014-01-12T09:02:20Z</time>
      </trkpt>
      <trkpt lat="45.22513" lon="6.0258">
        <ele>1853.400024414</ele>
        <time>2014-01-12T09:02:25Z</time>
      </trkpt>
      <trkpt lat="45.22515" lon="6.02583">
        <ele>1854.199951172</ele>
        <time>2014-01-12T09:02:29Z</time>
      </trkpt>
      <trkpt lat="45.22517" lon="6.02587">
        <ele>1855.199951172</ele>
        <time>2014-01-12T09:02:34Z</time>
      </trkpt>
      <trkpt lat="45.22519" lon="6.02592">
        <ele>1856.400024414</ele>
        <time>2014-01-12T09:02:40Z</time>
      </trkpt>
      <trkpt lat="45.22522" lon="6.02595">
        <ele>1857.599975586</ele>
        <time>2014-01-12T09:02:46Z</time>
      </trkpt>
      <trkpt lat="45.22526" lon="6.02599">
        <ele>1858.599975586</ele>
        <time>2014-01-12T09:02:52Z</time>
      </trkpt>
      <trkpt lat="45.22528" lon="6.02603">
        <ele>1859.599975586</ele>
        <time>2014-01-12T09:02:58Z</time>
      </trkpt>
      <trkpt lat="45.22531" lon="6.02609">
        <ele>1861</ele>
        <time>2014-01-12T09:03:04Z</time>
      </trkpt>
      <trkpt lat="45.22531" lon="6.02616">
        <ele>1862.599975586</ele>
        <time>2014-01-12T09:03:10Z</time>
      </trkpt>
      <trkpt lat="45.22531" lon="6.02618">
        <ele>1862.800048828</ele>
        <time>2014-01-12T09:03:12Z</time>
      </trkpt>
      <trkpt lat="45.22531" lon="6.0262">
        <ele>1863.199951172</ele>
        <time>2014-01-12T09:03:14Z</time>
      </trkpt>
      <trkpt lat="45.22531" lon="6.02624">
        <ele>1864</ele>
        <time>2014-01-12T09:03:18Z</time>
      </trkpt>
      <trkpt lat="45.22532" lon="6.02628">
        <ele>1864.800048828</ele>
        <time>2014-01-12T09:03:23Z</time>
      </trkpt>
      <trkpt lat="45.22533" lon="6.02633">
        <ele>1865.800048828</ele>
        <time>2014-01-12T09:03:28Z</time>
      </trkpt>
      <trkpt lat="45.22537" lon="6.02637">
        <ele>1867.199951172</ele>
        <time>2014-01-12T09:03:35Z</time>
      </trkpt>
      <trkpt lat="45.22539" lon="6.0264">
        <ele>1868</ele>
        <time>2014-01-12T09:03:40Z</time>
      </trkpt>
      <trkpt lat="45.22542" lon="6.02643">
        <ele>1868.800048828</ele>
        <time>2014-01-12T09:03:45Z</time>
      </trkpt>
      <trkpt lat="45.22543" lon="6.02646">
        <ele>1869.400024414</ele>
        <time>2014-01-12T09:03:51Z</time>
      </trkpt>
      <trkpt lat="45.22544" lon="6.02646">
        <ele>1869.599975586</ele>
        <time>2014-01-12T09:03:59Z</time>
      </trkpt>
      <trkpt lat="45.22544" lon="6.02647">
        <ele>1869.599975586</ele>
        <time>2014-01-12T09:04:07Z</time>
      </trkpt>
      <trkpt lat="45.22544" lon="6.02647">
        <ele>1869.800048828</ele>
        <time>2014-01-12T09:04:11Z</time>
      </trkpt>
      <trkpt lat="45.22545" lon="6.02649">
        <ele>1870.199951172</ele>
        <time>2014-01-12T09:04:15Z</time>
      </trkpt>
      <trkpt lat="45.22545" lon="6.02649">
        <ele>1870.199951172</ele>
        <time>2014-01-12T09:04:16Z</time>
      </trkpt>
      <trkpt lat="45.22545" lon="6.02649">
        <ele>1870.199951172</ele>
        <time>2014-01-12T09:04:17Z</time>
      </trkpt>
      <trkpt lat="45.22545" lon="6.02649">
        <ele>1870.199951172</ele>
        <time>2014-01-12T09:04:20Z</time>
      </trkpt>
      <trkpt lat="45.22545" lon="6.02649">
        <ele>1870</ele>
        <time>2014-01-12T09:04:22Z</time>
      </trkpt>
      <trkpt lat="45.22547" lon="6.02652">
        <ele>1870.800048828</ele>
        <time>2014-01-12T09:04:27Z</time>
      </trkpt>
      <trkpt lat="45.22549" lon="6.02654">
        <ele>1871.400024414</ele>
        <time>2014-01-12T09:04:30Z</time>
      </trkpt>
      <trkpt lat="45.22552" lon="6.02654">
        <ele>1871.800048828</ele>
        <time>2014-01-12T09:04:33Z</time>
      </trkpt>
      <trkpt lat="45.22552" lon="6.02655">
        <ele>1872</ele>
        <time>2014-01-12T09:04:38Z</time>
      </trkpt>
      <trkpt lat="45.22552" lon="6.02656">
        <ele>1872.199951172</ele>
        <time>2014-01-12T09:04:45Z</time>
      </trkpt>
      <trkpt lat="45.22552" lon="6.02656">
        <ele>1872.199951172</ele>
        <time>2014-01-12T09:04:52Z</time>
      </trkpt>
      <trkpt lat="45.22554" lon="6.02658">
        <ele>1872.599975586</ele>
        <time>2014-01-12T09:05:01Z</time>
      </trkpt>
      <trkpt lat="45.22554" lon="6.02659">
        <ele>1872.800048828</ele>
        <time>2014-01-12T09:05:03Z</time>
      </trkpt>
      <trkpt lat="45.22555" lon="6.0266">
        <ele>1873</ele>
        <time>2014-01-12T09:05:04Z</time>
      </trkpt>
      <trkpt lat="45.22555" lon="6.0266">
        <ele>1873</ele>
        <time>2014-01-12T09:05:05Z</time>
      </trkpt>
      <trkpt lat="45.22555" lon="6.02659">
        <ele>1873</ele>
        <time>2014-01-12T09:05:13Z</time>
      </trkpt>
      <trkpt lat="45.22556" lon="6.02659">
        <ele>1873</ele>
        <time>2014-01-12T09:05:16Z</time>
      </trkpt>
      <trkpt lat="45.22556" lon="6.02658">
        <ele>1872.800048828</ele>
        <time>2014-01-12T09:05:18Z</time>
      </trkpt>
      <trkpt lat="45.22556" lon="6.02658">
        <ele>1873</ele>
        <time>2014-01-12T09:05:26Z</time>
      </trkpt>
      <trkpt lat="45.22557" lon="6.0266">
        <ele>1873.199951172</ele>
        <time>2014-01-12T09:05:37Z</time>
      </trkpt>
      <trkpt lat="45.22556" lon="6.02658">
        <ele>1873</ele>
        <time>2014-01-12T09:05:39Z</time>
      </trkpt>
      <trkpt lat="45.22555" lon="6.02658">
        <ele>1872.800048828</ele>
        <time>2014-01-12T09:05:45Z</time>
      </trkpt>
      <trkpt lat="45.22553" lon="6.02656">
        <ele>1872.199951172</ele>
        <time>2014-01-12T09:05:49Z</time>
      </trkpt>
      <trkpt lat="45.22551" lon="6.02656">
        <ele>1872</ele>
        <time>2014-01-12T09:05:54Z</time>
      </trkpt>
      <trkpt lat="45.22551" lon="6.02656">
        <ele>1872</ele>
        <time>2014-01-12T09:05:56Z</time>
      </trkpt>
      <trkpt lat="45.2255" lon="6.02658">
        <ele>1872.199951172</ele>
        <time>2014-01-12T09:06:04Z</time>
      </trkpt>
      <trkpt lat="45.2255" lon="6.02658">
        <ele>1872.199951172</ele>
        <time>2014-01-12T09:06:05Z</time>
      </trkpt>
      <trkpt lat="45.2255" lon="6.02662">
        <ele>1873</ele>
        <time>2014-01-12T09:06:12Z</time>
      </trkpt>
      <trkpt lat="45.22551" lon="6.0267">
        <ele>1874.800048828</ele>
        <time>2014-01-12T09:06:19Z</time>
      </trkpt>
      <trkpt lat="45.22553" lon="6.02676">
        <ele>1877</ele>
        <time>2014-01-12T09:06:25Z</time>
      </trkpt>
      <trkpt lat="45.22554" lon="6.02679">
        <ele>1878.199951172</ele>
        <time>2014-01-12T09:06:28Z</time>
      </trkpt>
      <trkpt lat="45.22554" lon="6.02681">
        <ele>1878.800048828</ele>
        <time>2014-01-12T09:06:30Z</time>
      </trkpt>
      <trkpt lat="45.22555" lon="6.02684">
        <ele>1880</ele>
        <time>2014-01-12T09:06:33Z</time>
      </trkpt>
      <trkpt lat="45.22556" lon="6.02687">
        <ele>1881</ele>
        <time>2014-01-12T09:06:36Z</time>
      </trkpt>
      <trkpt lat="45.22557" lon="6.02688">
        <ele>1881.400024414</ele>
        <time>2014-01-12T09:06:37Z</time>
      </trkpt>
      <trkpt lat="45.22558" lon="6.02692">
        <ele>1882.800048828</ele>
        <time>2014-01-12T09:06:41Z</time>
      </trkpt>
      <trkpt lat="45.22558" lon="6.02694">
        <ele>1883.199951172</ele>
        <time>2014-01-12T09:06:42Z</time>
      </trkpt>
      <trkpt lat="45.22558" lon="6.02696">
        <ele>1884</ele>
        <time>2014-01-12T09:06:45Z</time>
      </trkpt>
      <trkpt lat="45.22558" lon="6.02699">
        <ele>1885</ele>
        <time>2014-01-12T09:06:48Z</time>
      </trkpt>
      <trkpt lat="45.22557" lon="6.02701">
        <ele>1885.599975586</ele>
        <time>2014-01-12T09:06:51Z</time>
      </trkpt>
      <trkpt lat="45.22558" lon="6.02703">
        <ele>1886.199951172</ele>
        <time>2014-01-12T09:06:53Z</time>
      </trkpt>
      <trkpt lat="45.2256" lon="6.02705">
        <ele>1887</ele>
        <time>2014-01-12T09:06:57Z</time>
      </trkpt>
      <trkpt lat="45.22561" lon="6.02707">
        <ele>1887.599975586</ele>
        <time>2014-01-12T09:07:01Z</time>
      </trkpt>
      <trkpt lat="45.22563" lon="6.02707">
        <ele>1887.800048828</ele>
        <time>2014-01-12T09:07:05Z</time>
      </trkpt>
      <trkpt lat="45.22566" lon="6.02708">
        <ele>1888</ele>
        <time>2014-01-12T09:07:09Z</time>
      </trkpt>
      <trkpt lat="45.22574" lon="6.0271">
        <ele>1889.199951172</ele>
        <time>2014-01-12T09:07:16Z</time>
      </trkpt>
      <trkpt lat="45.2258" lon="6.02711">
        <ele>1889.599975586</ele>
        <time>2014-01-12T09:07:21Z</time>
      </trkpt>
      <trkpt lat="45.22585" lon="6.02714">
        <ele>1890.400024414</ele>
        <time>2014-01-12T09:07:27Z</time>
      </trkpt>
      <trkpt lat="45.22587" lon="6.02715">
        <ele>1890.800048828</ele>
        <time>2014-01-12T09:07:29Z</time>
      </trkpt>
      <trkpt lat="45.2259" lon="6.02716">
        <ele>1891.199951172</ele>
        <time>2014-01-12T09:07:32Z</time>
      </trkpt>
      <trkpt lat="45.22593" lon="6.02718">
        <ele>1891.599975586</ele>
        <time>2014-01-12T09:07:35Z</time>
      </trkpt>
      <trkpt lat="45.22594" lon="6.02719">
        <ele>1891.800048828</ele>
        <time>2014-01-12T09:07:37Z</time>
      </trkpt>
      <trkpt lat="45.22598" lon="6.0272">
        <ele>1892</ele>
        <time>2014-01-12T09:07:42Z</time>
      </trkpt>
      <trkpt lat="45.22607" lon="6.02723">
        <ele>1892.400024414</ele>
        <time>2014-01-12T09:07:49Z</time>
      </trkpt>
      <trkpt lat="45.22612" lon="6.02724">
        <ele>1892.800048828</ele>
        <time>2014-01-12T09:07:55Z</time>
      </trkpt>
      <trkpt lat="45.22618" lon="6.02726">
        <ele>1893</ele>
        <time>2014-01-12T09:08:02Z</time>
      </trkpt>
      <trkpt lat="45.22623" lon="6.02728">
        <ele>1893.400024414</ele>
        <time>2014-01-12T09:08:08Z</time>
      </trkpt>
      <trkpt lat="45.22628" lon="6.0273">
        <ele>1893.599975586</ele>
        <time>2014-01-12T09:08:13Z</time>
      </trkpt>
      <trkpt lat="45.22632" lon="6.02732">
        <ele>1893.800048828</ele>
        <time>2014-01-12T09:08:18Z</time>
      </trkpt>
      <trkpt lat="45.22636" lon="6.02734">
        <ele>1894.199951172</ele>
        <time>2014-01-12T09:08:24Z</time>
      </trkpt>
      <trkpt lat="45.22641" lon="6.02737">
        <ele>1894.800048828</ele>
        <time>2014-01-12T09:08:30Z</time>
      </trkpt>
      <trkpt lat="45.22643" lon="6.02739">
        <ele>1895.199951172</ele>
        <time>2014-01-12T09:08:34Z</time>
      </trkpt>
      <trkpt lat="45.22646" lon="6.02742">
        <ele>1895.400024414</ele>
        <time>2014-01-12T09:08:39Z</time>
      </trkpt>
      <trkpt lat="45.22651" lon="6.02745">
        <ele>1896</ele>
        <time>2014-01-12T09:08:45Z</time>
      </trkpt>
      <trkpt lat="45.22655" lon="6.02748">
        <ele>1896.400024414</ele>
        <time>2014-01-12T09:08:50Z</time>
      </trkpt>
      <trkpt lat="45.22657" lon="6.02751">
        <ele>1896.800048828</ele>
        <time>2014-01-12T09:08:54Z</time>
      </trkpt>
      <trkpt lat="45.22662" lon="6.02757">
        <ele>1898.800048828</ele>
        <time>2014-01-12T09:09:01Z</time>
      </trkpt>
      <trkpt lat="45.22664" lon="6.0276">
        <ele>1899.800048828</ele>
        <time>2014-01-12T09:09:05Z</time>
      </trkpt>
      <trkpt lat="45.22669" lon="6.02766">
        <ele>1902</ele>
        <time>2014-01-12T09:09:11Z</time>
      </trkpt>
      <trkpt lat="45.22674" lon="6.02772">
        <ele>1905.199951172</ele>
        <time>2014-01-12T09:09:17Z</time>
      </trkpt>
      <trkpt lat="45.22679" lon="6.02777">
        <ele>1907.800048828</ele>
        <time>2014-01-12T09:09:23Z</time>
      </trkpt>
      <trkpt lat="45.22682" lon="6.02782">
        <ele>1910</ele>
        <time>2014-01-12T09:09:29Z</time>
      </trkpt>
      <trkpt lat="45.22683" lon="6.02784">
        <ele>1911.199951172</ele>
        <time>2014-01-12T09:09:33Z</time>
      </trkpt>
      <trkpt lat="45.22686" lon="6.02787">
        <ele>1912.599975586</ele>
        <time>2014-01-12T09:09:38Z</time>
      </trkpt>
      <trkpt lat="45.22687" lon="6.0279">
        <ele>1913.800048828</ele>
        <time>2014-01-12T09:09:42Z</time>
      </trkpt>
      <trkpt lat="45.22688" lon="6.02792">
        <ele>1914.599975586</ele>
        <time>2014-01-12T09:09:46Z</time>
      </trkpt>
      <trkpt lat="45.2269" lon="6.02795">
        <ele>1916.199951172</ele>
        <time>2014-01-12T09:09:51Z</time>
      </trkpt>
      <trkpt lat="45.2269" lon="6.02798">
        <ele>1917</ele>
        <time>2014-01-12T09:09:55Z</time>
      </trkpt>
      <trkpt lat="45.22692" lon="6.02801">
        <ele>1918.400024414</ele>
        <time>2014-01-12T09:09:59Z</time>
      </trkpt>
      <trkpt lat="45.22693" lon="6.02805">
        <ele>1919.800048828</ele>
        <time>2014-01-12T09:10:04Z</time>
      </trkpt>
      <trkpt lat="45.22694" lon="6.02806">
        <ele>1920.199951172</ele>
        <time>2014-01-12T09:10:08Z</time>
      </trkpt>
      <trkpt lat="45.22693" lon="6.02808">
        <ele>1921</ele>
        <time>2014-01-12T09:10:17Z</time>
      </trkpt>
      <trkpt lat="45.22692" lon="6.02811">
        <ele>1922</ele>
        <time>2014-01-12T09:10:23Z</time>
      </trkpt>
      <trkpt lat="45.22694" lon="6.02813">
        <ele>1923</ele>
        <time>2014-01-12T09:10:29Z</time>
      </trkpt>
      <trkpt lat="45.22696" lon="6.02814">
        <ele>1923.400024414</ele>
        <time>2014-01-12T09:10:34Z</time>
      </trkpt>
      <trkpt lat="45.22698" lon="6.02815">
        <ele>1924.199951172</ele>
        <time>2014-01-12T09:10:38Z</time>
      </trkpt>
      <trkpt lat="45.22701" lon="6.02817">
        <ele>1925.400024414</ele>
        <time>2014-01-12T09:10:43Z</time>
      </trkpt>
      <trkpt lat="45.22702" lon="6.02819">
        <ele>1926.199951172</ele>
        <time>2014-01-12T09:10:47Z</time>
      </trkpt>
      <trkpt lat="45.22706" lon="6.02823">
        <ele>1928</ele>
        <time>2014-01-12T09:10:53Z</time>
      </trkpt>
      <trkpt lat="45.22706" lon="6.02826">
        <ele>1929.199951172</ele>
        <time>2014-01-12T09:10:57Z</time>
      </trkpt>
      <trkpt lat="45.22706" lon="6.02829">
        <ele>1930.400024414</ele>
        <time>2014-01-12T09:11:01Z</time>
      </trkpt>
      <trkpt lat="45.22705" lon="6.02833">
        <ele>1931.199951172</ele>
        <time>2014-01-12T09:11:05Z</time>
      </trkpt>
      <trkpt lat="45.22702" lon="6.02838">
        <ele>1932.800048828</ele>
        <time>2014-01-12T09:11:12Z</time>
      </trkpt>
      <trkpt lat="45.22701" lon="6.02843">
        <ele>1934.400024414</ele>
        <time>2014-01-12T09:11:18Z</time>
      </trkpt>
      <trkpt lat="45.227" lon="6.02846">
        <ele>1935.599975586</ele>
        <time>2014-01-12T09:11:22Z</time>
      </trkpt>
      <trkpt lat="45.22697" lon="6.02852">
        <ele>1937.199951172</ele>
        <time>2014-01-12T09:11:27Z</time>
      </trkpt>
      <trkpt lat="45.22695" lon="6.02855">
        <ele>1938</ele>
        <time>2014-01-12T09:11:32Z</time>
      </trkpt>
      <trkpt lat="45.22694" lon="6.02855">
        <ele>1938.199951172</ele>
        <time>2014-01-12T09:11:33Z</time>
      </trkpt>
      <trkpt lat="45.22691" lon="6.02858">
        <ele>1938.800048828</ele>
        <time>2014-01-12T09:11:38Z</time>
      </trkpt>
      <trkpt lat="45.22688" lon="6.02861">
        <ele>1939.400024414</ele>
        <time>2014-01-12T09:11:43Z</time>
      </trkpt>
      <trkpt lat="45.22681" lon="6.02862">
        <ele>1938.800048828</ele>
        <time>2014-01-12T09:11:50Z</time>
      </trkpt>
      <trkpt lat="45.22677" lon="6.02861">
        <ele>1937.599975586</ele>
        <time>2014-01-12T09:11:56Z</time>
      </trkpt>
      <trkpt lat="45.22675" lon="6.0286">
        <ele>1937.199951172</ele>
        <time>2014-01-12T09:11:58Z</time>
      </trkpt>
      <trkpt lat="45.22673" lon="6.02859">
        <ele>1936.400024414</ele>
        <time>2014-01-12T09:12:01Z</time>
      </trkpt>
      <trkpt lat="45.2267" lon="6.02856">
        <ele>1935</ele>
        <time>2014-01-12T09:12:07Z</time>
      </trkpt>
      <trkpt lat="45.22668" lon="6.02854">
        <ele>1934</ele>
        <time>2014-01-12T09:12:12Z</time>
      </trkpt>
      <trkpt lat="45.22667" lon="6.02853">
        <ele>1933.599975586</ele>
        <time>2014-01-12T09:12:18Z</time>
      </trkpt>
      <trkpt lat="45.22665" lon="6.02853">
        <ele>1933.400024414</ele>
        <time>2014-01-12T09:12:25Z</time>
      </trkpt>
      <trkpt lat="45.22664" lon="6.02852">
        <ele>1933.199951172</ele>
        <time>2014-01-12T09:12:29Z</time>
      </trkpt>
      <trkpt lat="45.22663" lon="6.02852">
        <ele>1933.199951172</ele>
        <time>2014-01-12T09:12:33Z</time>
      </trkpt>
      <trkpt lat="45.22661" lon="6.0285">
        <ele>1932.800048828</ele>
        <time>2014-01-12T09:12:38Z</time>
      </trkpt>
      <trkpt lat="45.2266" lon="6.0285">
        <ele>1932.800048828</ele>
        <time>2014-01-12T09:12:44Z</time>
      </trkpt>
      <trkpt lat="45.22657" lon="6.02847">
        <ele>1932.199951172</ele>
        <time>2014-01-12T09:12:49Z</time>
      </trkpt>
      <trkpt lat="45.22655" lon="6.02847">
        <ele>1932.199951172</ele>
        <time>2014-01-12T09:12:53Z</time>
      </trkpt>
      <trkpt lat="45.22654" lon="6.02847">
        <ele>1932.400024414</ele>
        <time>2014-01-12T09:12:57Z</time>
      </trkpt>
      <trkpt lat="45.22651" lon="6.02848">
        <ele>1933.199951172</ele>
        <time>2014-01-12T09:13:03Z</time>
      </trkpt>
      <trkpt lat="45.22645" lon="6.02848">
        <ele>1933.800048828</ele>
        <time>2014-01-12T09:13:10Z</time>
      </trkpt>
      <trkpt lat="45.22641" lon="6.02849">
        <ele>1934.599975586</ele>
        <time>2014-01-12T09:13:15Z</time>
      </trkpt>
      <trkpt lat="45.22637" lon="6.02855">
        <ele>1936.800048828</ele>
        <time>2014-01-12T09:13:21Z</time>
      </trkpt>
      <trkpt lat="45.22635" lon="6.02858">
        <ele>1938.199951172</ele>
        <time>2014-01-12T09:13:24Z</time>
      </trkpt>
      <trkpt lat="45.22634" lon="6.02861">
        <ele>1939</ele>
        <time>2014-01-12T09:13:27Z</time>
      </trkpt>
      <trkpt lat="45.22633" lon="6.02862">
        <ele>1939.599975586</ele>
        <time>2014-01-12T09:13:29Z</time>
      </trkpt>
      <trkpt lat="45.22633" lon="6.02864">
        <ele>1940.400024414</ele>
        <time>2014-01-12T09:13:32Z</time>
      </trkpt>
      <trkpt lat="45.22632" lon="6.02867">
        <ele>1941.599975586</ele>
        <time>2014-01-12T09:13:36Z</time>
      </trkpt>
      <trkpt lat="45.22631" lon="6.02871">
        <ele>1943</ele>
        <time>2014-01-12T09:13:41Z</time>
      </trkpt>
      <trkpt lat="45.22629" lon="6.02876">
        <ele>1944.599975586</ele>
        <time>2014-01-12T09:13:46Z</time>
      </trkpt>
      <trkpt lat="45.22627" lon="6.0288">
        <ele>1946.199951172</ele>
        <time>2014-01-12T09:13:50Z</time>
      </trkpt>
      <trkpt lat="45.22625" lon="6.02885">
        <ele>1948.199951172</ele>
        <time>2014-01-12T09:13:56Z</time>
      </trkpt>
      <trkpt lat="45.22624" lon="6.02888">
        <ele>1949.400024414</ele>
        <time>2014-01-12T09:14:00Z</time>
      </trkpt>
      <trkpt lat="45.22622" lon="6.02891">
        <ele>1950.400024414</ele>
        <time>2014-01-12T09:14:04Z</time>
      </trkpt>
      <trkpt lat="45.22621" lon="6.02893">
        <ele>1951.199951172</ele>
        <time>2014-01-12T09:14:08Z</time>
      </trkpt>
      <trkpt lat="45.2262" lon="6.02896">
        <ele>1952.199951172</ele>
        <time>2014-01-12T09:14:12Z</time>
      </trkpt>
      <trkpt lat="45.22619" lon="6.029">
        <ele>1953.599975586</ele>
        <time>2014-01-12T09:14:17Z</time>
      </trkpt>
      <trkpt lat="45.22617" lon="6.02904">
        <ele>1955.199951172</ele>
        <time>2014-01-12T09:14:22Z</time>
      </trkpt>
      <trkpt lat="45.22614" lon="6.02911">
        <ele>1957.599975586</ele>
        <time>2014-01-12T09:14:29Z</time>
      </trkpt>
      <trkpt lat="45.22611" lon="6.02913">
        <ele>1958.599975586</ele>
        <time>2014-01-12T09:14:33Z</time>
      </trkpt>
      <trkpt lat="45.22611" lon="6.02914">
        <ele>1958.599975586</ele>
        <time>2014-01-12T09:14:34Z</time>
      </trkpt>
      <trkpt lat="45.22608" lon="6.02917">
        <ele>1960</ele>
        <time>2014-01-12T09:14:38Z</time>
      </trkpt>
      <trkpt lat="45.22606" lon="6.02921">
        <ele>1961.400024414</ele>
        <time>2014-01-12T09:14:43Z</time>
      </trkpt>
      <trkpt lat="45.22604" lon="6.02924">
        <ele>1962.400024414</ele>
        <time>2014-01-12T09:14:47Z</time>
      </trkpt>
      <trkpt lat="45.22602" lon="6.02926">
        <ele>1963.199951172</ele>
        <time>2014-01-12T09:14:51Z</time>
      </trkpt>
      <trkpt lat="45.22601" lon="6.02927">
        <ele>1963.400024414</ele>
        <time>2014-01-12T09:14:53Z</time>
      </trkpt>
      <trkpt lat="45.22599" lon="6.02928">
        <ele>1963.800048828</ele>
        <time>2014-01-12T09:14:56Z</time>
      </trkpt>
      <trkpt lat="45.22596" lon="6.02931">
        <ele>1964.599975586</ele>
        <time>2014-01-12T09:15:02Z</time>
      </trkpt>
      <trkpt lat="45.22593" lon="6.02934">
        <ele>1965.599975586</ele>
        <time>2014-01-12T09:15:07Z</time>
      </trkpt>
      <trkpt lat="45.22591" lon="6.02939">
        <ele>1967</ele>
        <time>2014-01-12T09:15:12Z</time>
      </trkpt>
      <trkpt lat="45.22589" lon="6.02942">
        <ele>1968</ele>
        <time>2014-01-12T09:15:17Z</time>
      </trkpt>
      <trkpt lat="45.22587" lon="6.02944">
        <ele>1968.599975586</ele>
        <time>2014-01-12T09:15:21Z</time>
      </trkpt>
      <trkpt lat="45.22584" lon="6.02944">
        <ele>1968.400024414</ele>
        <time>2014-01-12T09:15:25Z</time>
      </trkpt>
      <trkpt lat="45.22582" lon="6.02947">
        <ele>1969.400024414</ele>
        <time>2014-01-12T09:15:29Z</time>
      </trkpt>
      <trkpt lat="45.22582" lon="6.02947">
        <ele>1969.599975586</ele>
        <time>2014-01-12T09:15:30Z</time>
      </trkpt>
      <trkpt lat="45.2258" lon="6.02949">
        <ele>1970.199951172</ele>
        <time>2014-01-12T09:15:34Z</time>
      </trkpt>
      <trkpt lat="45.2258" lon="6.0295">
        <ele>1970.599975586</ele>
        <time>2014-01-12T09:15:35Z</time>
      </trkpt>
      <trkpt lat="45.22578" lon="6.02953">
        <ele>1971.599975586</ele>
        <time>2014-01-12T09:15:39Z</time>
      </trkpt>
      <trkpt lat="45.22577" lon="6.02956">
        <ele>1972.400024414</ele>
        <time>2014-01-12T09:15:43Z</time>
      </trkpt>
      <trkpt lat="45.22576" lon="6.02962">
        <ele>1973.800048828</ele>
        <time>2014-01-12T09:15:49Z</time>
      </trkpt>
      <trkpt lat="45.22576" lon="6.02966">
        <ele>1975.199951172</ele>
        <time>2014-01-12T09:15:54Z</time>
      </trkpt>
      <trkpt lat="45.22577" lon="6.02973">
        <ele>1976.800048828</ele>
        <time>2014-01-12T09:16:01Z</time>
      </trkpt>
      <trkpt lat="45.22579" lon="6.02975">
        <ele>1977.199951172</ele>
        <time>2014-01-12T09:16:05Z</time>
      </trkpt>
      <trkpt lat="45.22582" lon="6.02976">
        <ele>1977.599975586</ele>
        <time>2014-01-12T09:16:10Z</time>
      </trkpt>
      <trkpt lat="45.22583" lon="6.02977">
        <ele>1977.800048828</ele>
        <time>2014-01-12T09:16:11Z</time>
      </trkpt>
      <trkpt lat="45.22584" lon="6.0298">
        <ele>1978.599975586</ele>
        <time>2014-01-12T09:16:14Z</time>
      </trkpt>
      <trkpt lat="45.22585" lon="6.0298">
        <ele>1978.800048828</ele>
        <time>2014-01-12T09:16:15Z</time>
      </trkpt>
      <trkpt lat="45.22587" lon="6.02983">
        <ele>1979.599975586</ele>
        <time>2014-01-12T09:16:20Z</time>
      </trkpt>
      <trkpt lat="45.2259" lon="6.02986">
        <ele>1980.800048828</ele>
        <time>2014-01-12T09:16:26Z</time>
      </trkpt>
      <trkpt lat="45.22591" lon="6.02989">
        <ele>1982</ele>
        <time>2014-01-12T09:16:30Z</time>
      </trkpt>
      <trkpt lat="45.22592" lon="6.02991">
        <ele>1982.800048828</ele>
        <time>2014-01-12T09:16:34Z</time>
      </trkpt>
      <trkpt lat="45.2259" lon="6.02996">
        <ele>1984</ele>
        <time>2014-01-12T09:16:40Z</time>
      </trkpt>
      <trkpt lat="45.22588" lon="6.03">
        <ele>1984.800048828</ele>
        <time>2014-01-12T09:16:44Z</time>
      </trkpt>
      <trkpt lat="45.22588" lon="6.03003">
        <ele>1985.599975586</ele>
        <time>2014-01-12T09:16:49Z</time>
      </trkpt>
      <trkpt lat="45.22588" lon="6.03006">
        <ele>1986.400024414</ele>
        <time>2014-01-12T09:16:53Z</time>
      </trkpt>
      <trkpt lat="45.22589" lon="6.03008">
        <ele>1987.400024414</ele>
        <time>2014-01-12T09:16:57Z</time>
      </trkpt>
      <trkpt lat="45.22592" lon="6.03011">
        <ele>1988.599975586</ele>
        <time>2014-01-12T09:17:02Z</time>
      </trkpt>
      <trkpt lat="45.22596" lon="6.03014">
        <ele>1990.199951172</ele>
        <time>2014-01-12T09:17:07Z</time>
      </trkpt>
      <trkpt lat="45.22601" lon="6.03019">
        <ele>1992</ele>
        <time>2014-01-12T09:17:13Z</time>
      </trkpt>
      <trkpt lat="45.22604" lon="6.03022">
        <ele>1993.599975586</ele>
        <time>2014-01-12T09:17:18Z</time>
      </trkpt>
      <trkpt lat="45.22605" lon="6.03022">
        <ele>1993.800048828</ele>
        <time>2014-01-12T09:17:19Z</time>
      </trkpt>
      <trkpt lat="45.22607" lon="6.03024">
        <ele>1994.599975586</ele>
        <time>2014-01-12T09:17:22Z</time>
      </trkpt>
      <trkpt lat="45.2261" lon="6.03025">
        <ele>1995.599975586</ele>
        <time>2014-01-12T09:17:25Z</time>
      </trkpt>
      <trkpt lat="45.22611" lon="6.03026">
        <ele>1995.800048828</ele>
        <time>2014-01-12T09:17:26Z</time>
      </trkpt>
      <trkpt lat="45.22614" lon="6.03027">
        <ele>1996.800048828</ele>
        <time>2014-01-12T09:17:31Z</time>
      </trkpt>
      <trkpt lat="45.22616" lon="6.03029">
        <ele>1997.599975586</ele>
        <time>2014-01-12T09:17:34Z</time>
      </trkpt>
      <trkpt lat="45.22617" lon="6.03029">
        <ele>1997.800048828</ele>
        <time>2014-01-12T09:17:35Z</time>
      </trkpt>
      <trkpt lat="45.2262" lon="6.0303">
        <ele>1998.599975586</ele>
        <time>2014-01-12T09:17:40Z</time>
      </trkpt>
      <trkpt lat="45.22622" lon="6.03032">
        <ele>1999.599975586</ele>
        <time>2014-01-12T09:17:44Z</time>
      </trkpt>
      <trkpt lat="45.22624" lon="6.03034">
        <ele>2000.400024414</ele>
        <time>2014-01-12T09:17:48Z</time>
      </trkpt>
      <trkpt lat="45.22626" lon="6.03034">
        <ele>2000.800048828</ele>
        <time>2014-01-12T09:17:52Z</time>
      </trkpt>
      <trkpt lat="45.2263" lon="6.03037">
        <ele>2002</ele>
        <time>2014-01-12T09:17:59Z</time>
      </trkpt>
      <trkpt lat="45.22632" lon="6.03039">
        <ele>2003</ele>
        <time>2014-01-12T09:18:04Z</time>
      </trkpt>
      <trkpt lat="45.22633" lon="6.03041">
        <ele>2004</ele>
        <time>2014-01-12T09:18:08Z</time>
      </trkpt>
      <trkpt lat="45.22635" lon="6.03041">
        <ele>2004.199951172</ele>
        <time>2014-01-12T09:18:12Z</time>
      </trkpt>
      <trkpt lat="45.22637" lon="6.03042">
        <ele>2004.800048828</ele>
        <time>2014-01-12T09:18:16Z</time>
      </trkpt>
      <trkpt lat="45.22639" lon="6.03044">
        <ele>2005.599975586</ele>
        <time>2014-01-12T09:18:20Z</time>
      </trkpt>
      <trkpt lat="45.22642" lon="6.03046">
        <ele>2006.800048828</ele>
        <time>2014-01-12T09:18:26Z</time>
      </trkpt>
      <trkpt lat="45.22644" lon="6.03048">
        <ele>2007.800048828</ele>
        <time>2014-01-12T09:18:31Z</time>
      </trkpt>
      <trkpt lat="45.22647" lon="6.0305">
        <ele>2009</ele>
        <time>2014-01-12T09:18:36Z</time>
      </trkpt>
      <trkpt lat="45.22649" lon="6.03053">
        <ele>2010</ele>
        <time>2014-01-12T09:18:40Z</time>
      </trkpt>
      <trkpt lat="45.22651" lon="6.03056">
        <ele>2011.199951172</ele>
        <time>2014-01-12T09:18:45Z</time>
      </trkpt>
      <trkpt lat="45.22652" lon="6.0306">
        <ele>2012.599975586</ele>
        <time>2014-01-12T09:18:50Z</time>
      </trkpt>
      <trkpt lat="45.22654" lon="6.03063">
        <ele>2013.800048828</ele>
        <time>2014-01-12T09:18:54Z</time>
      </trkpt>
      <trkpt lat="45.22654" lon="6.03064">
        <ele>2014.199951172</ele>
        <time>2014-01-12T09:18:55Z</time>
      </trkpt>
      <trkpt lat="45.22655" lon="6.03067">
        <ele>2015.400024414</ele>
        <time>2014-01-12T09:18:59Z</time>
      </trkpt>
      <trkpt lat="45.22657" lon="6.03071">
        <ele>2016.599975586</ele>
        <time>2014-01-12T09:19:04Z</time>
      </trkpt>
      <trkpt lat="45.22658" lon="6.03075">
        <ele>2018</ele>
        <time>2014-01-12T09:19:09Z</time>
      </trkpt>
      <trkpt lat="45.22657" lon="6.03072">
        <ele>2017.199951172</ele>
        <time>2014-01-12T09:19:15Z</time>
      </trkpt>
      <trkpt lat="45.2266" lon="6.03072">
        <ele>2017.599975586</ele>
        <time>2014-01-12T09:19:23Z</time>
      </trkpt>
      <trkpt lat="45.22662" lon="6.03072">
        <ele>2017.599975586</ele>
        <time>2014-01-12T09:19:26Z</time>
      </trkpt>
      <trkpt lat="45.22663" lon="6.03071">
        <ele>2017.800048828</ele>
        <time>2014-01-12T09:19:30Z</time>
      </trkpt>
      <trkpt lat="45.22663" lon="6.03068">
        <ele>2016.800048828</ele>
        <time>2014-01-12T09:19:31Z</time>
      </trkpt>
      <trkpt lat="45.22665" lon="6.03066">
        <ele>2016.400024414</ele>
        <time>2014-01-12T09:19:35Z</time>
      </trkpt>
      <trkpt lat="45.22665" lon="6.03065">
        <ele>2016.199951172</ele>
        <time>2014-01-12T09:19:36Z</time>
      </trkpt>
      <trkpt lat="45.22667" lon="6.03063">
        <ele>2016</ele>
        <time>2014-01-12T09:19:40Z</time>
      </trkpt>
      <trkpt lat="45.22669" lon="6.03061">
        <ele>2015.800048828</ele>
        <time>2014-01-12T09:19:44Z</time>
      </trkpt>
      <trkpt lat="45.22671" lon="6.0306">
        <ele>2015.800048828</ele>
        <time>2014-01-12T09:19:49Z</time>
      </trkpt>
      <trkpt lat="45.22672" lon="6.03059">
        <ele>2015.800048828</ele>
        <time>2014-01-12T09:19:50Z</time>
      </trkpt>
      <trkpt lat="45.22675" lon="6.03059">
        <ele>2016.199951172</ele>
        <time>2014-01-12T09:19:54Z</time>
      </trkpt>
      <trkpt lat="45.22677" lon="6.03059">
        <ele>2016.400024414</ele>
        <time>2014-01-12T09:19:58Z</time>
      </trkpt>
      <trkpt lat="45.22679" lon="6.03059">
        <ele>2017</ele>
        <time>2014-01-12T09:20:03Z</time>
      </trkpt>
      <trkpt lat="45.22682" lon="6.03059">
        <ele>2017.599975586</ele>
        <time>2014-01-12T09:20:07Z</time>
      </trkpt>
      <trkpt lat="45.22686" lon="6.03059">
        <ele>2018.599975586</ele>
        <time>2014-01-12T09:20:14Z</time>
      </trkpt>
      <trkpt lat="45.22686" lon="6.03063">
        <ele>2019.400024414</ele>
        <time>2014-01-12T09:20:19Z</time>
      </trkpt>
      <trkpt lat="45.22685" lon="6.03066">
        <ele>2020.400024414</ele>
        <time>2014-01-12T09:20:25Z</time>
      </trkpt>
      <trkpt lat="45.22685" lon="6.0307">
        <ele>2021.800048828</ele>
        <time>2014-01-12T09:20:31Z</time>
      </trkpt>
      <trkpt lat="45.22686" lon="6.03073">
        <ele>2022.599975586</ele>
        <time>2014-01-12T09:20:35Z</time>
      </trkpt>
      <trkpt lat="45.22688" lon="6.03077">
        <ele>2024.199951172</ele>
        <time>2014-01-12T09:20:40Z</time>
      </trkpt>
      <trkpt lat="45.22689" lon="6.03081">
        <ele>2025.599975586</ele>
        <time>2014-01-12T09:20:45Z</time>
      </trkpt>
      <trkpt lat="45.22692" lon="6.03087">
        <ele>2028</ele>
        <time>2014-01-12T09:20:52Z</time>
      </trkpt>
      <trkpt lat="45.22693" lon="6.03091">
        <ele>2029.599975586</ele>
        <time>2014-01-12T09:20:57Z</time>
      </trkpt>
      <trkpt lat="45.22696" lon="6.03095">
        <ele>2031.400024414</ele>
        <time>2014-01-12T09:21:03Z</time>
      </trkpt>
      <trkpt lat="45.22698" lon="6.03099">
        <ele>2033</ele>
        <time>2014-01-12T09:21:08Z</time>
      </trkpt>
      <trkpt lat="45.22701" lon="6.03103">
        <ele>2034.599975586</ele>
        <time>2014-01-12T09:21:14Z</time>
      </trkpt>
      <trkpt lat="45.22703" lon="6.03106">
        <ele>2036</ele>
        <time>2014-01-12T09:21:19Z</time>
      </trkpt>
      <trkpt lat="45.22705" lon="6.0311">
        <ele>2037.800048828</ele>
        <time>2014-01-12T09:21:25Z</time>
      </trkpt>
      <trkpt lat="45.22707" lon="6.03114">
        <ele>2039.199951172</ele>
        <time>2014-01-12T09:21:29Z</time>
      </trkpt>
      <trkpt lat="45.22709" lon="6.03118">
        <ele>2040.800048828</ele>
        <time>2014-01-12T09:21:34Z</time>
      </trkpt>
      <trkpt lat="45.2271" lon="6.03122">
        <ele>2042</ele>
        <time>2014-01-12T09:21:38Z</time>
      </trkpt>
      <trkpt lat="45.22711" lon="6.03127">
        <ele>2044</ele>
        <time>2014-01-12T09:21:44Z</time>
      </trkpt>
      <trkpt lat="45.22713" lon="6.03134">
        <ele>2046.400024414</ele>
        <time>2014-01-12T09:21:51Z</time>
      </trkpt>
      <trkpt lat="45.22715" lon="6.03139">
        <ele>2048.199951172</ele>
        <time>2014-01-12T09:21:57Z</time>
      </trkpt>
      <trkpt lat="45.22716" lon="6.03145">
        <ele>2050.199951172</ele>
        <time>2014-01-12T09:22:03Z</time>
      </trkpt>
      <trkpt lat="45.22717" lon="6.03149">
        <ele>2051.800048828</ele>
        <time>2014-01-12T09:22:08Z</time>
      </trkpt>
      <trkpt lat="45.22718" lon="6.03152">
        <ele>2053</ele>
        <time>2014-01-12T09:22:12Z</time>
      </trkpt>
      <trkpt lat="45.2272" lon="6.03156">
        <ele>2054.399902344</ele>
        <time>2014-01-12T09:22:16Z</time>
      </trkpt>
      <trkpt lat="45.22722" lon="6.0316">
        <ele>2056</ele>
        <time>2014-01-12T09:22:21Z</time>
      </trkpt>
      <trkpt lat="45.22724" lon="6.03164">
        <ele>2057.800048828</ele>
        <time>2014-01-12T09:22:27Z</time>
      </trkpt>
      <trkpt lat="45.22727" lon="6.03168">
        <ele>2059.399902344</ele>
        <time>2014-01-12T09:22:33Z</time>
      </trkpt>
      <trkpt lat="45.2273" lon="6.0317">
        <ele>2060.800048828</ele>
        <time>2014-01-12T09:22:38Z</time>
      </trkpt>
      <trkpt lat="45.22733" lon="6.03173">
        <ele>2062.600097656</ele>
        <time>2014-01-12T09:22:44Z</time>
      </trkpt>
      <trkpt lat="45.22736" lon="6.03175">
        <ele>2063.600097656</ele>
        <time>2014-01-12T09:22:49Z</time>
      </trkpt>
      <trkpt lat="45.22738" lon="6.03175">
        <ele>2064.199951172</ele>
        <time>2014-01-12T09:22:53Z</time>
      </trkpt>
      <trkpt lat="45.2274" lon="6.03176">
        <ele>2065</ele>
        <time>2014-01-12T09:22:58Z</time>
      </trkpt>
      <trkpt lat="45.22744" lon="6.03177">
        <ele>2066</ele>
        <time>2014-01-12T09:23:04Z</time>
      </trkpt>
      <trkpt lat="45.22748" lon="6.0318">
        <ele>2067.600097656</ele>
        <time>2014-01-12T09:23:11Z</time>
      </trkpt>
      <trkpt lat="45.2275" lon="6.03182">
        <ele>2068.600097656</ele>
        <time>2014-01-12T09:23:16Z</time>
      </trkpt>
      <trkpt lat="45.22751" lon="6.03188">
        <ele>2070.800048828</ele>
        <time>2014-01-12T09:23:23Z</time>
      </trkpt>
      <trkpt lat="45.22752" lon="6.0319">
        <ele>2071.600097656</ele>
        <time>2014-01-12T09:23:27Z</time>
      </trkpt>
      <trkpt lat="45.22753" lon="6.03193">
        <ele>2072.800048828</ele>
        <time>2014-01-12T09:23:31Z</time>
      </trkpt>
      <trkpt lat="45.22754" lon="6.03195">
        <ele>2073.800048828</ele>
        <time>2014-01-12T09:23:35Z</time>
      </trkpt>
      <trkpt lat="45.22754" lon="6.032">
        <ele>2075.399902344</ele>
        <time>2014-01-12T09:23:40Z</time>
      </trkpt>
      <trkpt lat="45.22754" lon="6.03204">
        <ele>2076.800048828</ele>
        <time>2014-01-12T09:23:45Z</time>
      </trkpt>
      <trkpt lat="45.22754" lon="6.03209">
        <ele>2078</ele>
        <time>2014-01-12T09:23:51Z</time>
      </trkpt>
      <trkpt lat="45.22754" lon="6.03215">
        <ele>2079.800048828</ele>
        <time>2014-01-12T09:23:58Z</time>
      </trkpt>
      <trkpt lat="45.22754" lon="6.0322">
        <ele>2081.399902344</ele>
        <time>2014-01-12T09:24:04Z</time>
      </trkpt>
      <trkpt lat="45.22754" lon="6.03225">
        <ele>2083</ele>
        <time>2014-01-12T09:24:11Z</time>
      </trkpt>
      <trkpt lat="45.22754" lon="6.03228">
        <ele>2083.600097656</ele>
        <time>2014-01-12T09:24:15Z</time>
      </trkpt>
      <trkpt lat="45.22753" lon="6.03231">
        <ele>2084.800048828</ele>
        <time>2014-01-12T09:24:19Z</time>
      </trkpt>
      <trkpt lat="45.22753" lon="6.03234">
        <ele>2085.399902344</ele>
        <time>2014-01-12T09:24:24Z</time>
      </trkpt>
      <trkpt lat="45.22752" lon="6.03242">
        <ele>2087.399902344</ele>
        <time>2014-01-12T09:24:32Z</time>
      </trkpt>
      <trkpt lat="45.22752" lon="6.03246">
        <ele>2088.800048828</ele>
        <time>2014-01-12T09:24:37Z</time>
      </trkpt>
      <trkpt lat="45.22753" lon="6.03252">
        <ele>2091.199951172</ele>
        <time>2014-01-12T09:24:43Z</time>
      </trkpt>
      <trkpt lat="45.22752" lon="6.03252">
        <ele>2090.600097656</ele>
        <time>2014-01-12T09:24:46Z</time>
      </trkpt>
      <trkpt lat="45.22751" lon="6.03256">
        <ele>2092.199951172</ele>
        <time>2014-01-12T09:24:51Z</time>
      </trkpt>
      <trkpt lat="45.2275" lon="6.03258">
        <ele>2092.399902344</ele>
        <time>2014-01-12T09:24:58Z</time>
      </trkpt>
      <trkpt lat="45.22753" lon="6.03259">
        <ele>2093.800048828</ele>
        <time>2014-01-12T09:25:03Z</time>
      </trkpt>
      <trkpt lat="45.22755" lon="6.03261">
        <ele>2095.399902344</ele>
        <time>2014-01-12T09:25:07Z</time>
      </trkpt>
      <trkpt lat="45.22757" lon="6.03262">
        <ele>2096.399902344</ele>
        <time>2014-01-12T09:25:11Z</time>
      </trkpt>
      <trkpt lat="45.22758" lon="6.03264">
        <ele>2098</ele>
        <time>2014-01-12T09:25:16Z</time>
      </trkpt>
      <trkpt lat="45.22762" lon="6.03267">
        <ele>2100.399902344</ele>
        <time>2014-01-12T09:25:22Z</time>
      </trkpt>
      <trkpt lat="45.22765" lon="6.03266">
        <ele>2101.199951172</ele>
        <time>2014-01-12T09:25:27Z</time>
      </trkpt>
      <trkpt lat="45.22767" lon="6.03267">
        <ele>2102.399902344</ele>
        <time>2014-01-12T09:25:34Z</time>
      </trkpt>
      <trkpt lat="45.22767" lon="6.03267">
        <ele>2102.600097656</ele>
        <time>2014-01-12T09:25:42Z</time>
      </trkpt>
      <trkpt lat="45.22767" lon="6.0327">
        <ele>2103.600097656</ele>
        <time>2014-01-12T09:25:47Z</time>
      </trkpt>
      <trkpt lat="45.22768" lon="6.03273">
        <ele>2104.800048828</ele>
        <time>2014-01-12T09:25:50Z</time>
      </trkpt>
      <trkpt lat="45.22769" lon="6.03274">
        <ele>2105.600097656</ele>
        <time>2014-01-12T09:25:53Z</time>
      </trkpt>
      <trkpt lat="45.22768" lon="6.03274">
        <ele>2105.399902344</ele>
        <time>2014-01-12T09:25:56Z</time>
      </trkpt>
      <trkpt lat="45.22768" lon="6.03272">
        <ele>2104.800048828</ele>
        <time>2014-01-12T09:25:58Z</time>
      </trkpt>
      <trkpt lat="45.22768" lon="6.03269">
        <ele>2103.600097656</ele>
        <time>2014-01-12T09:26:07Z</time>
      </trkpt>
      <trkpt lat="45.22766" lon="6.03268">
        <ele>2102.600097656</ele>
        <time>2014-01-12T09:26:17Z</time>
      </trkpt>
      <trkpt lat="45.22766" lon="6.03268">
        <ele>2102.399902344</ele>
        <time>2014-01-12T09:26:18Z</time>
      </trkpt>
      <trkpt lat="45.22766" lon="6.03268">
        <ele>2102.199951172</ele>
        <time>2014-01-12T09:26:19Z</time>
      </trkpt>
      <trkpt lat="45.22766" lon="6.03267">
        <ele>2102</ele>
        <time>2014-01-12T09:26:20Z</time>
      </trkpt>
      <trkpt lat="45.22765" lon="6.03266">
        <ele>2101.199951172</ele>
        <time>2014-01-12T09:26:25Z</time>
      </trkpt>
      <trkpt lat="45.22765" lon="6.03262">
        <ele>2099.800048828</ele>
        <time>2014-01-12T09:26:45Z</time>
      </trkpt>
      <trkpt lat="45.22764" lon="6.03262">
        <ele>2099.399902344</ele>
        <time>2014-01-12T09:26:46Z</time>
      </trkpt>
      <trkpt lat="45.22764" lon="6.03263">
        <ele>2099.800048828</ele>
        <time>2014-01-12T09:26:51Z</time>
      </trkpt>
      <trkpt lat="45.22763" lon="6.03266">
        <ele>2100.600097656</ele>
        <time>2014-01-12T09:26:52Z</time>
      </trkpt>
      <trkpt lat="45.22764" lon="6.03267">
        <ele>2101.199951172</ele>
        <time>2014-01-12T09:26:56Z</time>
      </trkpt>
      <trkpt lat="45.22765" lon="6.03267">
        <ele>2101.600097656</ele>
        <time>2014-01-12T09:27:02Z</time>
      </trkpt>
      <trkpt lat="45.22769" lon="6.0327">
        <ele>2104.399902344</ele>
        <time>2014-01-12T09:27:10Z</time>
      </trkpt>
      <trkpt lat="45.22768" lon="6.03273">
        <ele>2105.399902344</ele>
        <time>2014-01-12T09:27:20Z</time>
      </trkpt>
      <trkpt lat="45.22769" lon="6.03271">
        <ele>2104.600097656</ele>
        <time>2014-01-12T09:27:21Z</time>
      </trkpt>
      <trkpt lat="45.22769" lon="6.03269">
        <ele>2104</ele>
        <time>2014-01-12T09:27:23Z</time>
      </trkpt>
      <trkpt lat="45.22767" lon="6.03269">
        <ele>2103</ele>
        <time>2014-01-12T09:27:34Z</time>
      </trkpt>
      <trkpt lat="45.22764" lon="6.03274">
        <ele>2104.199951172</ele>
        <time>2014-01-12T09:27:49Z</time>
      </trkpt>
      <trkpt lat="45.22766" lon="6.03276">
        <ele>2105.399902344</ele>
        <time>2014-01-12T09:27:51Z</time>
      </trkpt>
      <trkpt lat="45.22765" lon="6.03274">
        <ele>2104.399902344</ele>
        <time>2014-01-12T09:27:53Z</time>
      </trkpt>
      <trkpt lat="45.22765" lon="6.03272">
        <ele>2103.800048828</ele>
        <time>2014-01-12T09:27:58Z</time>
      </trkpt>
      <trkpt lat="45.22766" lon="6.03269">
        <ele>2102.800048828</ele>
        <time>2014-01-12T09:28:01Z</time>
      </trkpt>
      <trkpt lat="45.22766" lon="6.03269">
        <ele>2102.600097656</ele>
        <time>2014-01-12T09:28:02Z</time>
      </trkpt>
      <trkpt lat="45.22766" lon="6.03266">
        <ele>2102</ele>
        <time>2014-01-12T09:28:04Z</time>
      </trkpt>
      <trkpt lat="45.22766" lon="6.03266">
        <ele>2101.800048828</ele>
        <time>2014-01-12T09:28:05Z</time>
      </trkpt>
      <trkpt lat="45.22767" lon="6.03266">
        <ele>2102</ele>
        <time>2014-01-12T09:28:07Z</time>
      </trkpt>
      <trkpt lat="45.22768" lon="6.03267">
        <ele>2102.600097656</ele>
        <time>2014-01-12T09:28:09Z</time>
      </trkpt>
      <trkpt lat="45.22768" lon="6.03267">
        <ele>2103</ele>
        <time>2014-01-12T09:28:10Z</time>
      </trkpt>
      <trkpt lat="45.22772" lon="6.0327">
        <ele>2105.399902344</ele>
        <time>2014-01-12T09:28:15Z</time>
      </trkpt>
      <trkpt lat="45.22775" lon="6.03271">
        <ele>2106.800048828</ele>
        <time>2014-01-12T09:28:21Z</time>
      </trkpt>
      <trkpt lat="45.22777" lon="6.03272">
        <ele>2108</ele>
        <time>2014-01-12T09:28:28Z</time>
      </trkpt>
      <trkpt lat="45.22776" lon="6.03273">
        <ele>2108.199951172</ele>
        <time>2014-01-12T09:28:30Z</time>
      </trkpt>
      <trkpt lat="45.22775" lon="6.03274">
        <ele>2108</ele>
        <time>2014-01-12T09:28:32Z</time>
      </trkpt>
      <trkpt lat="45.22775" lon="6.03276">
        <ele>2108.800048828</ele>
        <time>2014-01-12T09:28:37Z</time>
      </trkpt>
      <trkpt lat="45.22777" lon="6.03277">
        <ele>2110</ele>
        <time>2014-01-12T09:28:42Z</time>
      </trkpt>
      <trkpt lat="45.2278" lon="6.03277">
        <ele>2111</ele>
        <time>2014-01-12T09:28:46Z</time>
      </trkpt>
      <trkpt lat="45.22784" lon="6.03277">
        <ele>2112.399902344</ele>
        <time>2014-01-12T09:28:51Z</time>
      </trkpt>
      <trkpt lat="45.22786" lon="6.03277">
        <ele>2113.399902344</ele>
        <time>2014-01-12T09:28:55Z</time>
      </trkpt>
      <trkpt lat="45.22788" lon="6.03277">
        <ele>2113.800048828</ele>
        <time>2014-01-12T09:28:57Z</time>
      </trkpt>
      <trkpt lat="45.22791" lon="6.03276">
        <ele>2114.800048828</ele>
        <time>2014-01-12T09:29:03Z</time>
      </trkpt>
      <trkpt lat="45.22796" lon="6.03273">
        <ele>2115.399902344</ele>
        <time>2014-01-12T09:29:09Z</time>
      </trkpt>
      <trkpt lat="45.22798" lon="6.03275">
        <ele>2117</ele>
        <time>2014-01-12T09:29:15Z</time>
      </trkpt>
      <trkpt lat="45.22797" lon="6.03279">
        <ele>2117.800048828</ele>
        <time>2014-01-12T09:29:20Z</time>
      </trkpt>
      <trkpt lat="45.22797" lon="6.03282">
        <ele>2118.800048828</ele>
        <time>2014-01-12T09:29:25Z</time>
      </trkpt>
      <trkpt lat="45.22796" lon="6.03285">
        <ele>2119.199951172</ele>
        <time>2014-01-12T09:29:30Z</time>
      </trkpt>
      <trkpt lat="45.22795" lon="6.03287">
        <ele>2119.600097656</ele>
        <time>2014-01-12T09:29:36Z</time>
      </trkpt>
      <trkpt lat="45.22793" lon="6.03287">
        <ele>2119.199951172</ele>
        <time>2014-01-12T09:29:41Z</time>
      </trkpt>
      <trkpt lat="45.22793" lon="6.0329">
        <ele>2120.199951172</ele>
        <time>2014-01-12T09:29:45Z</time>
      </trkpt>
      <trkpt lat="45.22792" lon="6.03291">
        <ele>2120.199951172</ele>
        <time>2014-01-12T09:29:50Z</time>
      </trkpt>
      <trkpt lat="45.22796" lon="6.03289">
        <ele>2121</ele>
        <time>2014-01-12T09:29:58Z</time>
      </trkpt>
      <trkpt lat="45.22799" lon="6.0329">
        <ele>2122.199951172</ele>
        <time>2014-01-12T09:30:03Z</time>
      </trkpt>
      <trkpt lat="45.22802" lon="6.0329">
        <ele>2123</ele>
        <time>2014-01-12T09:30:07Z</time>
      </trkpt>
      <trkpt lat="45.22804" lon="6.0329">
        <ele>2123.800048828</ele>
        <time>2014-01-12T09:30:12Z</time>
      </trkpt>
      <trkpt lat="45.22804" lon="6.03291">
        <ele>2124.199951172</ele>
        <time>2014-01-12T09:30:17Z</time>
      </trkpt>
      <trkpt lat="45.22804" lon="6.03294">
        <ele>2125</ele>
        <time>2014-01-12T09:30:21Z</time>
      </trkpt>
      <trkpt lat="45.22803" lon="6.03296">
        <ele>2125.600097656</ele>
        <time>2014-01-12T09:30:25Z</time>
      </trkpt>
      <trkpt lat="45.22802" lon="6.03299">
        <ele>2126.199951172</ele>
        <time>2014-01-12T09:30:30Z</time>
      </trkpt>
      <trkpt lat="45.22803" lon="6.03298">
        <ele>2126.199951172</ele>
        <time>2014-01-12T09:30:36Z</time>
      </trkpt>
      <trkpt lat="45.22808" lon="6.03294">
        <ele>2126.600097656</ele>
        <time>2014-01-12T09:30:42Z</time>
      </trkpt>
      <trkpt lat="45.22811" lon="6.0329">
        <ele>2126.399902344</ele>
        <time>2014-01-12T09:30:47Z</time>
      </trkpt>
      <trkpt lat="45.22813" lon="6.03287">
        <ele>2126.199951172</ele>
        <time>2014-01-12T09:30:52Z</time>
      </trkpt>
      <trkpt lat="45.22816" lon="6.03285">
        <ele>2126.399902344</ele>
        <time>2014-01-12T09:30:57Z</time>
      </trkpt>
      <trkpt lat="45.22817" lon="6.03281">
        <ele>2125.399902344</ele>
        <time>2014-01-12T09:31:01Z</time>
      </trkpt>
      <trkpt lat="45.22817" lon="6.03278">
        <ele>2125</ele>
        <time>2014-01-12T09:31:04Z</time>
      </trkpt>
      <trkpt lat="45.22819" lon="6.03276">
        <ele>2125</ele>
        <time>2014-01-12T09:31:08Z</time>
      </trkpt>
      <trkpt lat="45.22821" lon="6.03274">
        <ele>2124.800048828</ele>
        <time>2014-01-12T09:31:12Z</time>
      </trkpt>
      <trkpt lat="45.22824" lon="6.03273">
        <ele>2125.800048828</ele>
        <time>2014-01-12T09:31:18Z</time>
      </trkpt>
      <trkpt lat="45.22825" lon="6.0328">
        <ele>2128.399902344</ele>
        <time>2014-01-12T09:31:25Z</time>
      </trkpt>
      <trkpt lat="45.22825" lon="6.03283">
        <ele>2129.399902344</ele>
        <time>2014-01-12T09:31:31Z</time>
      </trkpt>
      <trkpt lat="45.22825" lon="6.03288">
        <ele>2130.600097656</ele>
        <time>2014-01-12T09:31:36Z</time>
      </trkpt>
      <trkpt lat="45.22825" lon="6.03291">
        <ele>2131.600097656</ele>
        <time>2014-01-12T09:31:41Z</time>
      </trkpt>
      <trkpt lat="45.22825" lon="6.03294">
        <ele>2132.399902344</ele>
        <time>2014-01-12T09:31:45Z</time>
      </trkpt>
      <trkpt lat="45.22825" lon="6.03297">
        <ele>2133.199951172</ele>
        <time>2014-01-12T09:31:50Z</time>
      </trkpt>
      <trkpt lat="45.22825" lon="6.03301">
        <ele>2134.399902344</ele>
        <time>2014-01-12T09:31:55Z</time>
      </trkpt>
      <trkpt lat="45.22826" lon="6.03302">
        <ele>2135.199951172</ele>
        <time>2014-01-12T09:31:59Z</time>
      </trkpt>
      <trkpt lat="45.22828" lon="6.03302">
        <ele>2135.800048828</ele>
        <time>2014-01-12T09:32:04Z</time>
      </trkpt>
      <trkpt lat="45.22831" lon="6.03302">
        <ele>2136.600097656</ele>
        <time>2014-01-12T09:32:08Z</time>
      </trkpt>
      <trkpt lat="45.22834" lon="6.03303">
        <ele>2137.600097656</ele>
        <time>2014-01-12T09:32:13Z</time>
      </trkpt>
      <trkpt lat="45.22838" lon="6.03303">
        <ele>2139</ele>
        <time>2014-01-12T09:32:21Z</time>
      </trkpt>
      <trkpt lat="45.22844" lon="6.03303">
        <ele>2140.399902344</ele>
        <time>2014-01-12T09:32:28Z</time>
      </trkpt>
      <trkpt lat="45.22848" lon="6.03302">
        <ele>2141.399902344</ele>
        <time>2014-01-12T09:32:34Z</time>
      </trkpt>
      <trkpt lat="45.22853" lon="6.03303">
        <ele>2143.199951172</ele>
        <time>2014-01-12T09:32:41Z</time>
      </trkpt>
      <trkpt lat="45.22856" lon="6.03304">
        <ele>2144</ele>
        <time>2014-01-12T09:32:44Z</time>
      </trkpt>
      <trkpt lat="45.22859" lon="6.03305">
        <ele>2145</ele>
        <time>2014-01-12T09:32:48Z</time>
      </trkpt>
      <trkpt lat="45.22863" lon="6.03306">
        <ele>2146.199951172</ele>
        <time>2014-01-12T09:32:54Z</time>
      </trkpt>
      <trkpt lat="45.22868" lon="6.03307">
        <ele>2147.800048828</ele>
        <time>2014-01-12T09:33:01Z</time>
      </trkpt>
      <trkpt lat="45.22871" lon="6.03309">
        <ele>2149</ele>
        <time>2014-01-12T09:33:06Z</time>
      </trkpt>
      <trkpt lat="45.22875" lon="6.03311">
        <ele>2150.600097656</ele>
        <time>2014-01-12T09:33:12Z</time>
      </trkpt>
      <trkpt lat="45.22878" lon="6.03314">
        <ele>2152</ele>
        <time>2014-01-12T09:33:18Z</time>
      </trkpt>
      <trkpt lat="45.22883" lon="6.03317">
        <ele>2153.399902344</ele>
        <time>2014-01-12T09:33:24Z</time>
      </trkpt>
      <trkpt lat="45.22888" lon="6.03319">
        <ele>2155</ele>
        <time>2014-01-12T09:33:31Z</time>
      </trkpt>
      <trkpt lat="45.22891" lon="6.03319">
        <ele>2156</ele>
        <time>2014-01-12T09:33:36Z</time>
      </trkpt>
      <trkpt lat="45.22895" lon="6.03319">
        <ele>2156.800048828</ele>
        <time>2014-01-12T09:33:41Z</time>
      </trkpt>
      <trkpt lat="45.22897" lon="6.03319">
        <ele>2157.600097656</ele>
        <time>2014-01-12T09:33:45Z</time>
      </trkpt>
      <trkpt lat="45.229" lon="6.03321">
        <ele>2158.399902344</ele>
        <time>2014-01-12T09:33:50Z</time>
      </trkpt>
      <trkpt lat="45.22903" lon="6.03321">
        <ele>2159.199951172</ele>
        <time>2014-01-12T09:33:56Z</time>
      </trkpt>
      <trkpt lat="45.22903" lon="6.03321">
        <ele>2159.199951172</ele>
        <time>2014-01-12T09:33:57Z</time>
      </trkpt>
      <trkpt lat="45.22905" lon="6.03321">
        <ele>2159.600097656</ele>
        <time>2014-01-12T09:34:01Z</time>
      </trkpt>
      <trkpt lat="45.22908" lon="6.03321">
        <ele>2160.399902344</ele>
        <time>2014-01-12T09:34:07Z</time>
      </trkpt>
      <trkpt lat="45.22909" lon="6.03321">
        <ele>2160.800048828</ele>
        <time>2014-01-12T09:34:10Z</time>
      </trkpt>
      <trkpt lat="45.22911" lon="6.03324">
        <ele>2161.399902344</ele>
        <time>2014-01-12T09:34:14Z</time>
      </trkpt>
      <trkpt lat="45.22912" lon="6.03326">
        <ele>2162</ele>
        <time>2014-01-12T09:34:19Z</time>
      </trkpt>
      <trkpt lat="45.22914" lon="6.0333">
        <ele>2163</ele>
        <time>2014-01-12T09:34:26Z</time>
      </trkpt>
      <trkpt lat="45.22914" lon="6.03334">
        <ele>2163.600097656</ele>
        <time>2014-01-12T09:34:32Z</time>
      </trkpt>
      <trkpt lat="45.22915" lon="6.03338">
        <ele>2164.600097656</ele>
        <time>2014-01-12T09:34:37Z</time>
      </trkpt>
      <trkpt lat="45.22918" lon="6.03341">
        <ele>2166</ele>
        <time>2014-01-12T09:34:42Z</time>
      </trkpt>
      <trkpt lat="45.22919" lon="6.03345">
        <ele>2167.600097656</ele>
        <time>2014-01-12T09:34:47Z</time>
      </trkpt>
      <trkpt lat="45.22921" lon="6.03348">
        <ele>2169</ele>
        <time>2014-01-12T09:34:52Z</time>
      </trkpt>
      <trkpt lat="45.22922" lon="6.03351">
        <ele>2170.199951172</ele>
        <time>2014-01-12T09:34:56Z</time>
      </trkpt>
      <trkpt lat="45.22922" lon="6.03355">
        <ele>2171</ele>
        <time>2014-01-12T09:35:02Z</time>
      </trkpt>
      <trkpt lat="45.22921" lon="6.03359">
        <ele>2171.199951172</ele>
        <time>2014-01-12T09:35:08Z</time>
      </trkpt>
      <trkpt lat="45.22921" lon="6.03361">
        <ele>2171.399902344</ele>
        <time>2014-01-12T09:35:13Z</time>
      </trkpt>
      <trkpt lat="45.22922" lon="6.03363">
        <ele>2172.199951172</ele>
        <time>2014-01-12T09:35:20Z</time>
      </trkpt>
      <trkpt lat="45.22922" lon="6.03365">
        <ele>2172.399902344</ele>
        <time>2014-01-12T09:35:24Z</time>
      </trkpt>
      <trkpt lat="45.22922" lon="6.03368">
        <ele>2173</ele>
        <time>2014-01-12T09:35:28Z</time>
      </trkpt>
      <trkpt lat="45.22923" lon="6.03373">
        <ele>2174.199951172</ele>
        <time>2014-01-12T09:35:33Z</time>
      </trkpt>
      <trkpt lat="45.22922" lon="6.03376">
        <ele>2174.399902344</ele>
        <time>2014-01-12T09:35:38Z</time>
      </trkpt>
      <trkpt lat="45.22922" lon="6.03379">
        <ele>2175</ele>
        <time>2014-01-12T09:35:42Z</time>
      </trkpt>
      <trkpt lat="45.22922" lon="6.03382">
        <ele>2175.600097656</ele>
        <time>2014-01-12T09:35:47Z</time>
      </trkpt>
      <trkpt lat="45.22923" lon="6.03384">
        <ele>2176.399902344</ele>
        <time>2014-01-12T09:35:51Z</time>
      </trkpt>
      <trkpt lat="45.22924" lon="6.03386">
        <ele>2176.800048828</ele>
        <time>2014-01-12T09:35:55Z</time>
      </trkpt>
      <trkpt lat="45.22926" lon="6.0339">
        <ele>2178.199951172</ele>
        <time>2014-01-12T09:36:00Z</time>
      </trkpt>
      <trkpt lat="45.22927" lon="6.03392">
        <ele>2179</ele>
        <time>2014-01-12T09:36:05Z</time>
      </trkpt>
      <trkpt lat="45.22929" lon="6.03393">
        <ele>2179.800048828</ele>
        <time>2014-01-12T09:36:09Z</time>
      </trkpt>
      <trkpt lat="45.22932" lon="6.03397">
        <ele>2181.199951172</ele>
        <time>2014-01-12T09:36:15Z</time>
      </trkpt>
      <trkpt lat="45.22934" lon="6.03401">
        <ele>2182.399902344</ele>
        <time>2014-01-12T09:36:20Z</time>
      </trkpt>
      <trkpt lat="45.22937" lon="6.03403">
        <ele>2183.600097656</ele>
        <time>2014-01-12T09:36:25Z</time>
      </trkpt>
      <trkpt lat="45.22941" lon="6.03404">
        <ele>2185</ele>
        <time>2014-01-12T09:36:31Z</time>
      </trkpt>
      <trkpt lat="45.22948" lon="6.03408">
        <ele>2187.399902344</ele>
        <time>2014-01-12T09:36:38Z</time>
      </trkpt>
      <trkpt lat="45.22951" lon="6.03415">
        <ele>2188.600097656</ele>
        <time>2014-01-12T09:36:45Z</time>
      </trkpt>
      <trkpt lat="45.22953" lon="6.03417">
        <ele>2189.399902344</ele>
        <time>2014-01-12T09:36:50Z</time>
      </trkpt>
      <trkpt lat="45.22956" lon="6.03419">
        <ele>2190.600097656</ele>
        <time>2014-01-12T09:36:56Z</time>
      </trkpt>
      <trkpt lat="45.22958" lon="6.0342">
        <ele>2191.199951172</ele>
        <time>2014-01-12T09:37:00Z</time>
      </trkpt>
      <trkpt lat="45.22961" lon="6.03421">
        <ele>2192.199951172</ele>
        <time>2014-01-12T09:37:05Z</time>
      </trkpt>
      <trkpt lat="45.22963" lon="6.03422">
        <ele>2192.800048828</ele>
        <time>2014-01-12T09:37:09Z</time>
      </trkpt>
      <trkpt lat="45.22966" lon="6.03423">
        <ele>2193.600097656</ele>
        <time>2014-01-12T09:37:15Z</time>
      </trkpt>
      <trkpt lat="45.22969" lon="6.03424">
        <ele>2194.399902344</ele>
        <time>2014-01-12T09:37:19Z</time>
      </trkpt>
      <trkpt lat="45.22972" lon="6.03424">
        <ele>2195.199951172</ele>
        <time>2014-01-12T09:37:24Z</time>
      </trkpt>
      <trkpt lat="45.22975" lon="6.03425">
        <ele>2196</ele>
        <time>2014-01-12T09:37:29Z</time>
      </trkpt>
      <trkpt lat="45.22978" lon="6.03429">
        <ele>2197</ele>
        <time>2014-01-12T09:37:34Z</time>
      </trkpt>
      <trkpt lat="45.22979" lon="6.03433">
        <ele>2197.800048828</ele>
        <time>2014-01-12T09:37:39Z</time>
      </trkpt>
      <trkpt lat="45.22983" lon="6.03435">
        <ele>2198.800048828</ele>
        <time>2014-01-12T09:37:44Z</time>
      </trkpt>
      <trkpt lat="45.22988" lon="6.03441">
        <ele>2200.199951172</ele>
        <time>2014-01-12T09:37:51Z</time>
      </trkpt>
      <trkpt lat="45.22989" lon="6.03447">
        <ele>2201</ele>
        <time>2014-01-12T09:37:55Z</time>
      </trkpt>
      <trkpt lat="45.22991" lon="6.0345">
        <ele>2201.399902344</ele>
        <time>2014-01-12T09:37:58Z</time>
      </trkpt>
      <trkpt lat="45.22992" lon="6.03454">
        <ele>2202</ele>
        <time>2014-01-12T09:38:02Z</time>
      </trkpt>
      <trkpt lat="45.22994" lon="6.03458">
        <ele>2202.399902344</ele>
        <time>2014-01-12T09:38:06Z</time>
      </trkpt>
      <trkpt lat="45.22994" lon="6.03459">
        <ele>2202.600097656</ele>
        <time>2014-01-12T09:38:07Z</time>
      </trkpt>
      <trkpt lat="45.22996" lon="6.03463">
        <ele>2203</ele>
        <time>2014-01-12T09:38:11Z</time>
      </trkpt>
      <trkpt lat="45.22997" lon="6.03466">
        <ele>2203.199951172</ele>
        <time>2014-01-12T09:38:14Z</time>
      </trkpt>
      <trkpt lat="45.22998" lon="6.03468">
        <ele>2203.399902344</ele>
        <time>2014-01-12T09:38:19Z</time>
      </trkpt>
      <trkpt lat="45.22997" lon="6.03472">
        <ele>2203.600097656</ele>
        <time>2014-01-12T09:38:23Z</time>
      </trkpt>
      <trkpt lat="45.22999" lon="6.03476">
        <ele>2203.800048828</ele>
        <time>2014-01-12T09:38:29Z</time>
      </trkpt>
      <trkpt lat="45.23001" lon="6.0348">
        <ele>2204.800048828</ele>
        <time>2014-01-12T09:38:35Z</time>
      </trkpt>
      <trkpt lat="45.23003" lon="6.03484">
        <ele>2206.399902344</ele>
        <time>2014-01-12T09:38:39Z</time>
      </trkpt>
      <trkpt lat="45.23006" lon="6.03488">
        <ele>2208.199951172</ele>
        <time>2014-01-12T09:38:45Z</time>
      </trkpt>
      <trkpt lat="45.23008" lon="6.03489">
        <ele>2209.399902344</ele>
        <time>2014-01-12T09:38:47Z</time>
      </trkpt>
      <trkpt lat="45.2301" lon="6.03493">
        <ele>2210.399902344</ele>
        <time>2014-01-12T09:38:50Z</time>
      </trkpt>
      <trkpt lat="45.23012" lon="6.03495">
        <ele>2211.800048828</ele>
        <time>2014-01-12T09:38:53Z</time>
      </trkpt>
      <trkpt lat="45.23013" lon="6.03498">
        <ele>2212.600097656</ele>
        <time>2014-01-12T09:38:56Z</time>
      </trkpt>
      <trkpt lat="45.23014" lon="6.035">
        <ele>2213</ele>
        <time>2014-01-12T09:39:06Z</time>
      </trkpt>
      <trkpt lat="45.23016" lon="6.03506">
        <ele>2216.800048828</ele>
        <time>2014-01-12T09:39:16Z</time>
      </trkpt>
      <trkpt lat="45.23016" lon="6.03508">
        <ele>2217.800048828</ele>
        <time>2014-01-12T09:39:18Z</time>
      </trkpt>
      <trkpt lat="45.23018" lon="6.03508">
        <ele>2218.800048828</ele>
        <time>2014-01-12T09:39:21Z</time>
      </trkpt>
      <trkpt lat="45.23021" lon="6.03503">
        <ele>2218.199951172</ele>
        <time>2014-01-12T09:39:25Z</time>
      </trkpt>
      <trkpt lat="45.23021" lon="6.03499">
        <ele>2217.399902344</ele>
        <time>2014-01-12T09:39:29Z</time>
      </trkpt>
      <trkpt lat="45.23021" lon="6.03498">
        <ele>2217.199951172</ele>
        <time>2014-01-12T09:39:30Z</time>
      </trkpt>
      <trkpt lat="45.23021" lon="6.03496">
        <ele>2217.199951172</ele>
        <time>2014-01-12T09:39:33Z</time>
      </trkpt>
      <trkpt lat="45.23022" lon="6.03496">
        <ele>2218.199951172</ele>
        <time>2014-01-12T09:39:37Z</time>
      </trkpt>
      <trkpt lat="45.23023" lon="6.03499">
        <ele>2218.600097656</ele>
        <time>2014-01-12T09:39:42Z</time>
      </trkpt>
      <trkpt lat="45.23023" lon="6.03499">
        <ele>2218.600097656</ele>
        <time>2014-01-12T09:39:43Z</time>
      </trkpt>
      <trkpt lat="45.23023" lon="6.03495">
        <ele>2218.800048828</ele>
        <time>2014-01-12T09:39:53Z</time>
      </trkpt>
      <trkpt lat="45.23023" lon="6.03495">
        <ele>2218.600097656</ele>
        <time>2014-01-12T09:39:54Z</time>
      </trkpt>
      <trkpt lat="45.23024" lon="6.03499">
        <ele>2219.199951172</ele>
        <time>2014-01-12T09:39:57Z</time>
      </trkpt>
      <trkpt lat="45.23025" lon="6.03502">
        <ele>2220.199951172</ele>
        <time>2014-01-12T09:39:59Z</time>
      </trkpt>
      <trkpt lat="45.23026" lon="6.03505">
        <ele>2221.600097656</ele>
        <time>2014-01-12T09:40:01Z</time>
      </trkpt>
      <trkpt lat="45.23027" lon="6.0351">
        <ele>2224.800048828</ele>
        <time>2014-01-12T09:40:06Z</time>
      </trkpt>
      <trkpt lat="45.23028" lon="6.03513">
        <ele>2225.800048828</ele>
        <time>2014-01-12T09:40:08Z</time>
      </trkpt>
      <trkpt lat="45.23028" lon="6.03515">
        <ele>2226.800048828</ele>
        <time>2014-01-12T09:40:10Z</time>
      </trkpt>
      <trkpt lat="45.23028" lon="6.03516">
        <ele>2227.199951172</ele>
        <time>2014-01-12T09:40:11Z</time>
      </trkpt>
      <trkpt lat="45.23028" lon="6.03518">
        <ele>2227.800048828</ele>
        <time>2014-01-12T09:40:12Z</time>
      </trkpt>
      <trkpt lat="45.23028" lon="6.03519">
        <ele>2228.199951172</ele>
        <time>2014-01-12T09:40:13Z</time>
      </trkpt>
      <trkpt lat="45.23029" lon="6.03521">
        <ele>2229.199951172</ele>
        <time>2014-01-12T09:40:16Z</time>
      </trkpt>
      <trkpt lat="45.23029" lon="6.03524">
        <ele>2230</ele>
        <time>2014-01-12T09:40:18Z</time>
      </trkpt>
      <trkpt lat="45.23029" lon="6.03527">
        <ele>2231.199951172</ele>
        <time>2014-01-12T09:40:22Z</time>
      </trkpt>
      <trkpt lat="45.23028" lon="6.03528">
        <ele>2231.199951172</ele>
        <time>2014-01-12T09:40:23Z</time>
      </trkpt>
      <trkpt lat="45.23028" lon="6.0353">
        <ele>2232</ele>
        <time>2014-01-12T09:40:26Z</time>
      </trkpt>
      <trkpt lat="45.23028" lon="6.0353">
        <ele>2232</ele>
        <time>2014-01-12T09:40:27Z</time>
      </trkpt>
      <trkpt lat="45.23028" lon="6.03532">
        <ele>2232.199951172</ele>
        <time>2014-01-12T09:40:30Z</time>
      </trkpt>
      <trkpt lat="45.23027" lon="6.03533">
        <ele>2232.800048828</ele>
        <time>2014-01-12T09:40:34Z</time>
      </trkpt>
      <trkpt lat="45.23028" lon="6.03534">
        <ele>2233.199951172</ele>
        <time>2014-01-12T09:40:36Z</time>
      </trkpt>
      <trkpt lat="45.23028" lon="6.03537">
        <ele>2234.399902344</ele>
        <time>2014-01-12T09:40:40Z</time>
      </trkpt>
      <trkpt lat="45.23028" lon="6.03541">
        <ele>2235.600097656</ele>
        <time>2014-01-12T09:40:45Z</time>
      </trkpt>
      <trkpt lat="45.23027" lon="6.03545">
        <ele>2236.600097656</ele>
        <time>2014-01-12T09:40:50Z</time>
      </trkpt>
      <trkpt lat="45.23027" lon="6.03549">
        <ele>2238.399902344</ele>
        <time>2014-01-12T09:40:54Z</time>
      </trkpt>
      <trkpt lat="45.23028" lon="6.03552">
        <ele>2239.600097656</ele>
        <time>2014-01-12T09:40:58Z</time>
      </trkpt>
      <trkpt lat="45.2303" lon="6.03552">
        <ele>2240.199951172</ele>
        <time>2014-01-12T09:41:03Z</time>
      </trkpt>
      <trkpt lat="45.23032" lon="6.03552">
        <ele>2241</ele>
        <time>2014-01-12T09:41:07Z</time>
      </trkpt>
      <trkpt lat="45.23035" lon="6.03552">
        <ele>2241.800048828</ele>
        <time>2014-01-12T09:41:11Z</time>
      </trkpt>
      <trkpt lat="45.2304" lon="6.03552">
        <ele>2243.600097656</ele>
        <time>2014-01-12T09:41:16Z</time>
      </trkpt>
      <trkpt lat="45.23042" lon="6.03551">
        <ele>2244.199951172</ele>
        <time>2014-01-12T09:41:21Z</time>
      </trkpt>
      <trkpt lat="45.23045" lon="6.0355">
        <ele>2244.800048828</ele>
        <time>2014-01-12T09:41:26Z</time>
      </trkpt>
      <trkpt lat="45.23046" lon="6.03549">
        <ele>2245</ele>
        <time>2014-01-12T09:41:31Z</time>
      </trkpt>
      <trkpt lat="45.23048" lon="6.03547">
        <ele>2245.399902344</ele>
        <time>2014-01-12T09:41:36Z</time>
      </trkpt>
      <trkpt lat="45.23051" lon="6.03545">
        <ele>2245.600097656</ele>
        <time>2014-01-12T09:41:41Z</time>
      </trkpt>
      <trkpt lat="45.23052" lon="6.03544">
        <ele>2245.800048828</ele>
        <time>2014-01-12T09:41:45Z</time>
      </trkpt>
      <trkpt lat="45.23054" lon="6.03541">
        <ele>2245.800048828</ele>
        <time>2014-01-12T09:41:50Z</time>
      </trkpt>
      <trkpt lat="45.23055" lon="6.03539">
        <ele>2245.800048828</ele>
        <time>2014-01-12T09:41:55Z</time>
      </trkpt>
      <trkpt lat="45.23056" lon="6.0354">
        <ele>2246.399902344</ele>
        <time>2014-01-12T09:42:00Z</time>
      </trkpt>
      <trkpt lat="45.23056" lon="6.03541">
        <ele>2246.600097656</ele>
        <time>2014-01-12T09:42:01Z</time>
      </trkpt>
      <trkpt lat="45.23056" lon="6.03544">
        <ele>2247.399902344</ele>
        <time>2014-01-12T09:42:04Z</time>
      </trkpt>
      <trkpt lat="45.23055" lon="6.03549">
        <ele>2248</ele>
        <time>2014-01-12T09:42:11Z</time>
      </trkpt>
      <trkpt lat="45.23055" lon="6.03556">
        <ele>2249.399902344</ele>
        <time>2014-01-12T09:42:18Z</time>
      </trkpt>
      <trkpt lat="45.23055" lon="6.0356">
        <ele>2250.399902344</ele>
        <time>2014-01-12T09:42:23Z</time>
      </trkpt>
      <trkpt lat="45.23054" lon="6.03563">
        <ele>2251</ele>
        <time>2014-01-12T09:42:26Z</time>
      </trkpt>
      <trkpt lat="45.23055" lon="6.03567">
        <ele>2251.800048828</ele>
        <time>2014-01-12T09:42:31Z</time>
      </trkpt>
      <trkpt lat="45.23055" lon="6.03567">
        <ele>2252</ele>
        <time>2014-01-12T09:42:36Z</time>
      </trkpt>
      <trkpt lat="45.23057" lon="6.03564">
        <ele>2251.800048828</ele>
        <time>2014-01-12T09:42:40Z</time>
      </trkpt>
      <trkpt lat="45.2306" lon="6.0356">
        <ele>2252</ele>
        <time>2014-01-12T09:42:45Z</time>
      </trkpt>
      <trkpt lat="45.23062" lon="6.03557">
        <ele>2252.199951172</ele>
        <time>2014-01-12T09:42:51Z</time>
      </trkpt>
      <trkpt lat="45.23065" lon="6.03554">
        <ele>2252.600097656</ele>
        <time>2014-01-12T09:42:56Z</time>
      </trkpt>
      <trkpt lat="45.23067" lon="6.03551">
        <ele>2252.600097656</ele>
        <time>2014-01-12T09:43:00Z</time>
      </trkpt>
      <trkpt lat="45.23068" lon="6.03547">
        <ele>2252.199951172</ele>
        <time>2014-01-12T09:43:04Z</time>
      </trkpt>
      <trkpt lat="45.23071" lon="6.03544">
        <ele>2252.800048828</ele>
        <time>2014-01-12T09:43:09Z</time>
      </trkpt>
      <trkpt lat="45.23071" lon="6.0354">
        <ele>2252.600097656</ele>
        <time>2014-01-12T09:43:15Z</time>
      </trkpt>
      <trkpt lat="45.23072" lon="6.03537">
        <ele>2252.199951172</ele>
        <time>2014-01-12T09:43:19Z</time>
      </trkpt>
      <trkpt lat="45.23074" lon="6.03535">
        <ele>2253</ele>
        <time>2014-01-12T09:43:26Z</time>
      </trkpt>
      <trkpt lat="45.23069" lon="6.03535">
        <ele>2251</ele>
        <time>2014-01-12T09:43:35Z</time>
      </trkpt>
      <trkpt lat="45.23072" lon="6.03539">
        <ele>2252.600097656</ele>
        <time>2014-01-12T09:43:41Z</time>
      </trkpt>
      <trkpt lat="45.23074" lon="6.03542">
        <ele>2254</ele>
        <time>2014-01-12T09:43:46Z</time>
      </trkpt>
      <trkpt lat="45.23076" lon="6.03548">
        <ele>2255.399902344</ele>
        <time>2014-01-12T09:43:52Z</time>
      </trkpt>
      <trkpt lat="45.23078" lon="6.03552">
        <ele>2256.600097656</ele>
        <time>2014-01-12T09:43:56Z</time>
      </trkpt>
      <trkpt lat="45.23079" lon="6.03553">
        <ele>2257</ele>
        <time>2014-01-12T09:44:01Z</time>
      </trkpt>
      <trkpt lat="45.23082" lon="6.03553">
        <ele>2258</ele>
        <time>2014-01-12T09:44:06Z</time>
      </trkpt>
      <trkpt lat="45.23085" lon="6.0355">
        <ele>2259.199951172</ele>
        <time>2014-01-12T09:44:11Z</time>
      </trkpt>
      <trkpt lat="45.23087" lon="6.03548">
        <ele>2260</ele>
        <time>2014-01-12T09:44:15Z</time>
      </trkpt>
      <trkpt lat="45.23087" lon="6.03543">
        <ele>2259.800048828</ele>
        <time>2014-01-12T09:44:20Z</time>
      </trkpt>
      <trkpt lat="45.23088" lon="6.03539">
        <ele>2260.199951172</ele>
        <time>2014-01-12T09:44:27Z</time>
      </trkpt>
      <trkpt lat="45.23088" lon="6.03535">
        <ele>2260.199951172</ele>
        <time>2014-01-12T09:44:31Z</time>
      </trkpt>
      <trkpt lat="45.23088" lon="6.03532">
        <ele>2260.199951172</ele>
        <time>2014-01-12T09:44:35Z</time>
      </trkpt>
      <trkpt lat="45.2309" lon="6.03533">
        <ele>2261</ele>
        <time>2014-01-12T09:44:39Z</time>
      </trkpt>
      <trkpt lat="45.23093" lon="6.03538">
        <ele>2263.199951172</ele>
        <time>2014-01-12T09:44:46Z</time>
      </trkpt>
      <trkpt lat="45.23094" lon="6.0354">
        <ele>2264.399902344</ele>
        <time>2014-01-12T09:44:50Z</time>
      </trkpt>
      <trkpt lat="45.23096" lon="6.03544">
        <ele>2266</ele>
        <time>2014-01-12T09:44:56Z</time>
      </trkpt>
      <trkpt lat="45.23098" lon="6.03548">
        <ele>2266.600097656</ele>
        <time>2014-01-12T09:45:01Z</time>
      </trkpt>
      <trkpt lat="45.23099" lon="6.03552">
        <ele>2267.600097656</ele>
        <time>2014-01-12T09:45:06Z</time>
      </trkpt>
      <trkpt lat="45.23099" lon="6.03556">
        <ele>2268</ele>
        <time>2014-01-12T09:45:10Z</time>
      </trkpt>
      <trkpt lat="45.23099" lon="6.03559">
        <ele>2267.800048828</ele>
        <time>2014-01-12T09:45:16Z</time>
      </trkpt>
      <trkpt lat="45.23102" lon="6.03559">
        <ele>2269.399902344</ele>
        <time>2014-01-12T09:45:21Z</time>
      </trkpt>
      <trkpt lat="45.23106" lon="6.03555">
        <ele>2271.600097656</ele>
        <time>2014-01-12T09:45:27Z</time>
      </trkpt>
      <trkpt lat="45.23108" lon="6.03553">
        <ele>2272.800048828</ele>
        <time>2014-01-12T09:45:31Z</time>
      </trkpt>
      <trkpt lat="45.23111" lon="6.03551">
        <ele>2274.600097656</ele>
        <time>2014-01-12T09:45:38Z</time>
      </trkpt>
      <trkpt lat="45.23111" lon="6.03549">
        <ele>2275</ele>
        <time>2014-01-12T09:45:42Z</time>
      </trkpt>
      <trkpt lat="45.23113" lon="6.03546">
        <ele>2276</ele>
        <time>2014-01-12T09:45:48Z</time>
      </trkpt>
      <trkpt lat="45.23114" lon="6.03544">
        <ele>2277</ele>
        <time>2014-01-12T09:45:53Z</time>
      </trkpt>
      <trkpt lat="45.23115" lon="6.03546">
        <ele>2277.199951172</ele>
        <time>2014-01-12T09:45:58Z</time>
      </trkpt>
      <trkpt lat="45.23116" lon="6.03552">
        <ele>2277.399902344</ele>
        <time>2014-01-12T09:46:04Z</time>
      </trkpt>
      <trkpt lat="45.23116" lon="6.03557">
        <ele>2277.399902344</ele>
        <time>2014-01-12T09:46:10Z</time>
      </trkpt>
      <trkpt lat="45.23116" lon="6.03565">
        <ele>2276.800048828</ele>
        <time>2014-01-12T09:46:18Z</time>
      </trkpt>
      <trkpt lat="45.23116" lon="6.0357">
        <ele>2276.399902344</ele>
        <time>2014-01-12T09:46:24Z</time>
      </trkpt>
      <trkpt lat="45.23116" lon="6.03574">
        <ele>2276</ele>
        <time>2014-01-12T09:46:29Z</time>
      </trkpt>
      <trkpt lat="45.23115" lon="6.03577">
        <ele>2275.600097656</ele>
        <time>2014-01-12T09:46:33Z</time>
      </trkpt>
      <trkpt lat="45.23115" lon="6.0358">
        <ele>2275.399902344</ele>
        <time>2014-01-12T09:46:38Z</time>
      </trkpt>
      <trkpt lat="45.23116" lon="6.03584">
        <ele>2275.399902344</ele>
        <time>2014-01-12T09:46:43Z</time>
      </trkpt>
      <trkpt lat="45.23118" lon="6.03586">
        <ele>2276.199951172</ele>
        <time>2014-01-12T09:46:49Z</time>
      </trkpt>
      <trkpt lat="45.2312" lon="6.03586">
        <ele>2277.399902344</ele>
        <time>2014-01-12T09:46:55Z</time>
      </trkpt>
      <trkpt lat="45.23124" lon="6.03587">
        <ele>2279</ele>
        <time>2014-01-12T09:47:02Z</time>
      </trkpt>
      <trkpt lat="45.23127" lon="6.0359">
        <ele>2279.800048828</ele>
        <time>2014-01-12T09:47:08Z</time>
      </trkpt>
      <trkpt lat="45.2313" lon="6.03593">
        <ele>2280.600097656</ele>
        <time>2014-01-12T09:47:13Z</time>
      </trkpt>
      <trkpt lat="45.23134" lon="6.03594">
        <ele>2282</ele>
        <time>2014-01-12T09:47:18Z</time>
      </trkpt>
      <trkpt lat="45.23137" lon="6.03597">
        <ele>2282.800048828</ele>
        <time>2014-01-12T09:47:25Z</time>
      </trkpt>
      <trkpt lat="45.2314" lon="6.036">
        <ele>2283.399902344</ele>
        <time>2014-01-12T09:47:31Z</time>
      </trkpt>
      <trkpt lat="45.23142" lon="6.03605">
        <ele>2283.399902344</ele>
        <time>2014-01-12T09:47:38Z</time>
      </trkpt>
      <trkpt lat="45.23143" lon="6.03609">
        <ele>2283</ele>
        <time>2014-01-12T09:47:47Z</time>
      </trkpt>
      <trkpt lat="45.23144" lon="6.03609">
        <ele>2283.399902344</ele>
        <time>2014-01-12T09:47:55Z</time>
      </trkpt>
      <trkpt lat="45.23146" lon="6.03608">
        <ele>2284</ele>
        <time>2014-01-12T09:48:01Z</time>
      </trkpt>
      <trkpt lat="45.23146" lon="6.03609">
        <ele>2284</ele>
        <time>2014-01-12T09:48:03Z</time>
      </trkpt>
      <trkpt lat="45.23146" lon="6.03609">
        <ele>2284</ele>
        <time>2014-01-12T09:48:05Z</time>
      </trkpt>
      <trkpt lat="45.23147" lon="6.03612">
        <ele>2283.800048828</ele>
        <time>2014-01-12T09:48:10Z</time>
      </trkpt>
      <trkpt lat="45.23148" lon="6.03613">
        <ele>2283.800048828</ele>
        <time>2014-01-12T09:48:11Z</time>
      </trkpt>
      <trkpt lat="45.23148" lon="6.03618">
        <ele>2283</ele>
        <time>2014-01-12T09:48:19Z</time>
      </trkpt>
      <trkpt lat="45.23149" lon="6.03619">
        <ele>2282.800048828</ele>
        <time>2014-01-12T09:48:27Z</time>
      </trkpt>
      <trkpt lat="45.23149" lon="6.03619">
        <ele>2283</ele>
        <time>2014-01-12T09:48:34Z</time>
      </trkpt>
      <trkpt lat="45.23148" lon="6.0362">
        <ele>2282.600097656</ele>
        <time>2014-01-12T09:48:37Z</time>
      </trkpt>
      <trkpt lat="45.23148" lon="6.0362">
        <ele>2282.399902344</ele>
        <time>2014-01-12T09:48:40Z</time>
      </trkpt>
      <trkpt lat="45.23147" lon="6.0362">
        <ele>2282.399902344</ele>
        <time>2014-01-12T09:48:44Z</time>
      </trkpt>
      <trkpt lat="45.23147" lon="6.0362">
        <ele>2282.199951172</ele>
        <time>2014-01-12T09:48:48Z</time>
      </trkpt>
      <trkpt lat="45.23145" lon="6.03622">
        <ele>2281.600097656</ele>
        <time>2014-01-12T09:48:57Z</time>
      </trkpt>
      <trkpt lat="45.23145" lon="6.03622">
        <ele>2281.600097656</ele>
        <time>2014-01-12T09:48:58Z</time>
      </trkpt>
      <trkpt lat="45.23146" lon="6.03622">
        <ele>2281.399902344</ele>
        <time>2014-01-12T09:49:03Z</time>
      </trkpt>
      <trkpt lat="45.23146" lon="6.03622">
        <ele>2281.399902344</ele>
        <time>2014-01-12T09:49:05Z</time>
      </trkpt>
      <trkpt lat="45.23145" lon="6.03622">
        <ele>2281.600097656</ele>
        <time>2014-01-12T09:49:11Z</time>
      </trkpt>
      <trkpt lat="45.23145" lon="6.03622">
        <ele>2281.399902344</ele>
        <time>2014-01-12T09:49:15Z</time>
      </trkpt>
      <trkpt lat="45.23145" lon="6.03622">
        <ele>2281.399902344</ele>
        <time>2014-01-12T09:49:24Z</time>
      </trkpt>
      <trkpt lat="45.23143" lon="6.03622">
        <ele>2280.800048828</ele>
        <time>2014-01-12T09:49:30Z</time>
      </trkpt>
      <trkpt lat="45.23144" lon="6.03621">
        <ele>2281.399902344</ele>
        <time>2014-01-12T09:49:37Z</time>
      </trkpt>
      <trkpt lat="45.23143" lon="6.03621">
        <ele>2281.199951172</ele>
        <time>2014-01-12T09:50:02Z</time>
      </trkpt>
      <trkpt lat="45.23144" lon="6.03621">
        <ele>2281.199951172</ele>
        <time>2014-01-12T09:50:07Z</time>
      </trkpt>
      <trkpt lat="45.23143" lon="6.03622">
        <ele>2280.800048828</ele>
        <time>2014-01-12T09:50:31Z</time>
      </trkpt>
      <trkpt lat="45.23143" lon="6.03623">
        <ele>2280.800048828</ele>
        <time>2014-01-12T09:50:35Z</time>
      </trkpt>
      <trkpt lat="45.23144" lon="6.03622">
        <ele>2281</ele>
        <time>2014-01-12T09:50:36Z</time>
      </trkpt>
      <trkpt lat="45.23144" lon="6.03622">
        <ele>2281</ele>
        <time>2014-01-12T09:50:37Z</time>
      </trkpt>
      <trkpt lat="45.23144" lon="6.03623">
        <ele>2281</ele>
        <time>2014-01-12T09:50:43Z</time>
      </trkpt>
      <trkpt lat="45.23145" lon="6.03624">
        <ele>2280.800048828</ele>
        <time>2014-01-12T09:50:46Z</time>
      </trkpt>
      <trkpt lat="45.23145" lon="6.03625">
        <ele>2280.800048828</ele>
        <time>2014-01-12T09:50:54Z</time>
      </trkpt>
      <trkpt lat="45.23146" lon="6.03625">
        <ele>2281</ele>
        <time>2014-01-12T09:50:57Z</time>
      </trkpt>
      <trkpt lat="45.23146" lon="6.03625">
        <ele>2281</ele>
        <time>2014-01-12T09:51:01Z</time>
      </trkpt>
      <trkpt lat="45.23146" lon="6.03625">
        <ele>2281</ele>
        <time>2014-01-12T09:51:04Z</time>
      </trkpt>
      <trkpt lat="45.23146" lon="6.03625">
        <ele>2280.800048828</ele>
        <time>2014-01-12T09:51:07Z</time>
      </trkpt>
      <trkpt lat="45.23145" lon="6.03626">
        <ele>2280.600097656</ele>
        <time>2014-01-12T09:51:17Z</time>
      </trkpt>
      <trkpt lat="45.23145" lon="6.03626">
        <ele>2280.600097656</ele>
        <time>2014-01-12T09:51:21Z</time>
      </trkpt>
      <trkpt lat="45.23144" lon="6.03626">
        <ele>2280.399902344</ele>
        <time>2014-01-12T09:51:24Z</time>
      </trkpt>
      <trkpt lat="45.23143" lon="6.03622">
        <ele>2280.800048828</ele>
        <time>2014-01-12T09:51:34Z</time>
      </trkpt>
      <trkpt lat="45.23142" lon="6.0362">
        <ele>2281</ele>
        <time>2014-01-12T09:51:44Z</time>
      </trkpt>
      <trkpt lat="45.23139" lon="6.03619">
        <ele>2280.199951172</ele>
        <time>2014-01-12T09:52:08Z</time>
      </trkpt>
      <trkpt lat="45.23139" lon="6.0362">
        <ele>2280</ele>
        <time>2014-01-12T09:52:20Z</time>
      </trkpt>
      <trkpt lat="45.23139" lon="6.0362">
        <ele>2280</ele>
        <time>2014-01-12T09:52:21Z</time>
      </trkpt>
      <trkpt lat="45.2314" lon="6.0362">
        <ele>2280.399902344</ele>
        <time>2014-01-12T09:52:27Z</time>
      </trkpt>
      <trkpt lat="45.23141" lon="6.0362">
        <ele>2280.600097656</ele>
        <time>2014-01-12T09:52:31Z</time>
      </trkpt>
      <trkpt lat="45.23141" lon="6.0362">
        <ele>2280.600097656</ele>
        <time>2014-01-12T09:52:32Z</time>
      </trkpt>
      <trkpt lat="45.23142" lon="6.03621">
        <ele>2280.800048828</ele>
        <time>2014-01-12T09:52:36Z</time>
      </trkpt>
      <trkpt lat="45.23142" lon="6.03621">
        <ele>2280.800048828</ele>
        <time>2014-01-12T09:52:38Z</time>
      </trkpt>
      <trkpt lat="45.23143" lon="6.03621">
        <ele>2281</ele>
        <time>2014-01-12T09:52:44Z</time>
      </trkpt>
      <trkpt lat="45.23143" lon="6.03621">
        <ele>2281</ele>
        <time>2014-01-12T09:52:48Z</time>
      </trkpt>
      <trkpt lat="45.23143" lon="6.0362">
        <ele>2281.199951172</ele>
        <time>2014-01-12T09:52:51Z</time>
      </trkpt>
      <trkpt lat="45.23143" lon="6.03617">
        <ele>2281.800048828</ele>
        <time>2014-01-12T09:52:57Z</time>
      </trkpt>
      <trkpt lat="45.23144" lon="6.03617">
        <ele>2282</ele>
        <time>2014-01-12T09:52:58Z</time>
      </trkpt>
      <trkpt lat="45.23148" lon="6.03616">
        <ele>2283.199951172</ele>
        <time>2014-01-12T09:53:03Z</time>
      </trkpt>
      <trkpt lat="45.23151" lon="6.03617">
        <ele>2284</ele>
        <time>2014-01-12T09:53:07Z</time>
      </trkpt>
      <trkpt lat="45.23156" lon="6.03618">
        <ele>2285</ele>
        <time>2014-01-12T09:53:12Z</time>
      </trkpt>
      <trkpt lat="45.23156" lon="6.03619">
        <ele>2285</ele>
        <time>2014-01-12T09:53:13Z</time>
      </trkpt>
      <trkpt lat="45.23161" lon="6.03619">
        <ele>2286.199951172</ele>
        <time>2014-01-12T09:53:18Z</time>
      </trkpt>
      <trkpt lat="45.23168" lon="6.03619">
        <ele>2288.199951172</ele>
        <time>2014-01-12T09:53:24Z</time>
      </trkpt>
      <trkpt lat="45.23171" lon="6.03621">
        <ele>2290.600097656</ele>
        <time>2014-01-12T09:53:28Z</time>
      </trkpt>
      <trkpt lat="45.23172" lon="6.03621">
        <ele>2291.199951172</ele>
        <time>2014-01-12T09:53:29Z</time>
      </trkpt>
      <trkpt lat="45.23173" lon="6.03621">
        <ele>2291.600097656</ele>
        <time>2014-01-12T09:53:30Z</time>
      </trkpt>
      <trkpt lat="45.23173" lon="6.03621">
        <ele>2292</ele>
        <time>2014-01-12T09:53:31Z</time>
      </trkpt>
      <trkpt lat="45.23178" lon="6.03624">
        <ele>2294.800048828</ele>
        <time>2014-01-12T09:53:37Z</time>
      </trkpt>
      <trkpt lat="45.23183" lon="6.03626">
        <ele>2297.199951172</ele>
        <time>2014-01-12T09:53:43Z</time>
      </trkpt>
      <trkpt lat="45.23187" lon="6.0363">
        <ele>2299.199951172</ele>
        <time>2014-01-12T09:53:49Z</time>
      </trkpt>
      <trkpt lat="45.23191" lon="6.03635">
        <ele>2301</ele>
        <time>2014-01-12T09:53:56Z</time>
      </trkpt>
      <trkpt lat="45.23195" lon="6.03638">
        <ele>2302.800048828</ele>
        <time>2014-01-12T09:54:03Z</time>
      </trkpt>
      <trkpt lat="45.232" lon="6.03641">
        <ele>2305.399902344</ele>
        <time>2014-01-12T09:54:11Z</time>
      </trkpt>
      <trkpt lat="45.23203" lon="6.03643">
        <ele>2306.399902344</ele>
        <time>2014-01-12T09:54:15Z</time>
      </trkpt>
      <trkpt lat="45.23205" lon="6.03645">
        <ele>2307.800048828</ele>
        <time>2014-01-12T09:54:19Z</time>
      </trkpt>
      <trkpt lat="45.23209" lon="6.03645">
        <ele>2310.199951172</ele>
        <time>2014-01-12T09:54:24Z</time>
      </trkpt>
      <trkpt lat="45.23214" lon="6.03648">
        <ele>2312.800048828</ele>
        <time>2014-01-12T09:54:31Z</time>
      </trkpt>
      <trkpt lat="45.23216" lon="6.03651">
        <ele>2313.199951172</ele>
        <time>2014-01-12T09:54:36Z</time>
      </trkpt>
      <trkpt lat="45.23218" lon="6.03653">
        <ele>2314</ele>
        <time>2014-01-12T09:54:42Z</time>
      </trkpt>
      <trkpt lat="45.2322" lon="6.03655">
        <ele>2314.600097656</ele>
        <time>2014-01-12T09:54:46Z</time>
      </trkpt>
      <trkpt lat="45.23222" lon="6.03657">
        <ele>2315</ele>
        <time>2014-01-12T09:54:52Z</time>
      </trkpt>
      <trkpt lat="45.23225" lon="6.0366">
        <ele>2316</ele>
        <time>2014-01-12T09:54:58Z</time>
      </trkpt>
      <trkpt lat="45.23226" lon="6.03662">
        <ele>2316.399902344</ele>
        <time>2014-01-12T09:55:02Z</time>
      </trkpt>
      <trkpt lat="45.23229" lon="6.03664">
        <ele>2317.199951172</ele>
        <time>2014-01-12T09:55:07Z</time>
      </trkpt>
      <trkpt lat="45.2323" lon="6.03665">
        <ele>2317.800048828</ele>
        <time>2014-01-12T09:55:10Z</time>
      </trkpt>
      <trkpt lat="45.23233" lon="6.03667">
        <ele>2319.399902344</ele>
        <time>2014-01-12T09:55:15Z</time>
      </trkpt>
      <trkpt lat="45.23237" lon="6.03668">
        <ele>2321.399902344</ele>
        <time>2014-01-12T09:55:21Z</time>
      </trkpt>
      <trkpt lat="45.23239" lon="6.03669">
        <ele>2323</ele>
        <time>2014-01-12T09:55:26Z</time>
      </trkpt>
      <trkpt lat="45.23241" lon="6.0367">
        <ele>2324</ele>
        <time>2014-01-12T09:55:30Z</time>
      </trkpt>
      <trkpt lat="45.23243" lon="6.03671">
        <ele>2324.800048828</ele>
        <time>2014-01-12T09:55:34Z</time>
      </trkpt>
      <trkpt lat="45.23245" lon="6.0367">
        <ele>2326.199951172</ele>
        <time>2014-01-12T09:55:38Z</time>
      </trkpt>
      <trkpt lat="45.23247" lon="6.03671">
        <ele>2327.199951172</ele>
        <time>2014-01-12T09:55:43Z</time>
      </trkpt>
      <trkpt lat="45.23249" lon="6.03671">
        <ele>2329</ele>
        <time>2014-01-12T09:55:47Z</time>
      </trkpt>
      <trkpt lat="45.23251" lon="6.03671">
        <ele>2330.199951172</ele>
        <time>2014-01-12T09:55:51Z</time>
      </trkpt>
      <trkpt lat="45.23249" lon="6.03671">
        <ele>2328.600097656</ele>
        <time>2014-01-12T09:55:55Z</time>
      </trkpt>
      <trkpt lat="45.23246" lon="6.03667">
        <ele>2328</ele>
        <time>2014-01-12T09:56:01Z</time>
      </trkpt>
      <trkpt lat="45.23242" lon="6.03663">
        <ele>2327</ele>
        <time>2014-01-12T09:56:08Z</time>
      </trkpt>
      <trkpt lat="45.2324" lon="6.0366">
        <ele>2326.800048828</ele>
        <time>2014-01-12T09:56:12Z</time>
      </trkpt>
      <trkpt lat="45.23238" lon="6.03657">
        <ele>2326.600097656</ele>
        <time>2014-01-12T09:56:16Z</time>
      </trkpt>
      <trkpt lat="45.23236" lon="6.03653">
        <ele>2326.399902344</ele>
        <time>2014-01-12T09:56:21Z</time>
      </trkpt>
      <trkpt lat="45.23235" lon="6.03649">
        <ele>2327.399902344</ele>
        <time>2014-01-12T09:56:26Z</time>
      </trkpt>
      <trkpt lat="45.23235" lon="6.03646">
        <ele>2328.199951172</ele>
        <time>2014-01-12T09:56:30Z</time>
      </trkpt>
      <trkpt lat="45.23234" lon="6.03644">
        <ele>2328.399902344</ele>
        <time>2014-01-12T09:56:34Z</time>
      </trkpt>
      <trkpt lat="45.23233" lon="6.03641">
        <ele>2329.199951172</ele>
        <time>2014-01-12T09:56:38Z</time>
      </trkpt>
      <trkpt lat="45.23233" lon="6.03639">
        <ele>2329.800048828</ele>
        <time>2014-01-12T09:56:44Z</time>
      </trkpt>
      <trkpt lat="45.23236" lon="6.0364">
        <ele>2331</ele>
        <time>2014-01-12T09:56:53Z</time>
      </trkpt>
      <trkpt lat="45.23238" lon="6.03641">
        <ele>2332.199951172</ele>
        <time>2014-01-12T09:56:59Z</time>
      </trkpt>
      <trkpt lat="45.23239" lon="6.03641">
        <ele>2332.800048828</ele>
        <time>2014-01-12T09:57:05Z</time>
      </trkpt>
      <trkpt lat="45.23238" lon="6.03639">
        <ele>2332.800048828</ele>
        <time>2014-01-12T09:57:12Z</time>
      </trkpt>
      <trkpt lat="45.23237" lon="6.03636">
        <ele>2333.399902344</ele>
        <time>2014-01-12T09:57:17Z</time>
      </trkpt>
      <trkpt lat="45.23238" lon="6.03633">
        <ele>2335</ele>
        <time>2014-01-12T09:57:23Z</time>
      </trkpt>
      <trkpt lat="45.2324" lon="6.03635">
        <ele>2336.199951172</ele>
        <time>2014-01-12T09:57:27Z</time>
      </trkpt>
      <trkpt lat="45.23243" lon="6.03636">
        <ele>2338</ele>
        <time>2014-01-12T09:57:32Z</time>
      </trkpt>
      <trkpt lat="45.23246" lon="6.03636">
        <ele>2340</ele>
        <time>2014-01-12T09:57:37Z</time>
      </trkpt>
      <trkpt lat="45.23247" lon="6.03637">
        <ele>2340.199951172</ele>
        <time>2014-01-12T09:57:41Z</time>
      </trkpt>
      <trkpt lat="45.23246" lon="6.03634">
        <ele>2340.800048828</ele>
        <time>2014-01-12T09:57:47Z</time>
      </trkpt>
      <trkpt lat="45.23246" lon="6.03631">
        <ele>2341.399902344</ele>
        <time>2014-01-12T09:57:51Z</time>
      </trkpt>
      <trkpt lat="45.2325" lon="6.0363">
        <ele>2344.800048828</ele>
        <time>2014-01-12T09:57:59Z</time>
      </trkpt>
      <trkpt lat="45.23252" lon="6.03631">
        <ele>2345.600097656</ele>
        <time>2014-01-12T09:58:03Z</time>
      </trkpt>
      <trkpt lat="45.23253" lon="6.03632">
        <ele>2346</ele>
        <time>2014-01-12T09:58:08Z</time>
      </trkpt>
      <trkpt lat="45.23251" lon="6.03631">
        <ele>2345.399902344</ele>
        <time>2014-01-12T09:58:15Z</time>
      </trkpt>
      <trkpt lat="45.23249" lon="6.03627">
        <ele>2345.800048828</ele>
        <time>2014-01-12T09:58:22Z</time>
      </trkpt>
      <trkpt lat="45.23251" lon="6.03626">
        <ele>2347</ele>
        <time>2014-01-12T09:58:27Z</time>
      </trkpt>
      <trkpt lat="45.23253" lon="6.03627">
        <ele>2347.800048828</ele>
        <time>2014-01-12T09:58:33Z</time>
      </trkpt>
      <trkpt lat="45.23255" lon="6.03627">
        <ele>2349.199951172</ele>
        <time>2014-01-12T09:58:38Z</time>
      </trkpt>
      <trkpt lat="45.23257" lon="6.03628">
        <ele>2350</ele>
        <time>2014-01-12T09:58:42Z</time>
      </trkpt>
      <trkpt lat="45.23259" lon="6.03628">
        <ele>2350.600097656</ele>
        <time>2014-01-12T09:58:47Z</time>
      </trkpt>
      <trkpt lat="45.23258" lon="6.03627">
        <ele>2351</ele>
        <time>2014-01-12T09:58:53Z</time>
      </trkpt>
      <trkpt lat="45.23258" lon="6.03626">
        <ele>2351</ele>
        <time>2014-01-12T09:58:57Z</time>
      </trkpt>
      <trkpt lat="45.23257" lon="6.03622">
        <ele>2351.600097656</ele>
        <time>2014-01-12T09:59:02Z</time>
      </trkpt>
      <trkpt lat="45.23255" lon="6.0362">
        <ele>2351.800048828</ele>
        <time>2014-01-12T09:59:07Z</time>
      </trkpt>
      <trkpt lat="45.23253" lon="6.03616">
        <ele>2352</ele>
        <time>2014-01-12T09:59:13Z</time>
      </trkpt>
      <trkpt lat="45.23253" lon="6.03616">
        <ele>2351.800048828</ele>
        <time>2014-01-12T09:59:18Z</time>
      </trkpt>
      <trkpt lat="45.23256" lon="6.03617">
        <ele>2353.199951172</ele>
        <time>2014-01-12T09:59:26Z</time>
      </trkpt>
      <trkpt lat="45.23258" lon="6.03618">
        <ele>2354.199951172</ele>
        <time>2014-01-12T09:59:30Z</time>
      </trkpt>
      <trkpt lat="45.23261" lon="6.03619">
        <ele>2354.800048828</ele>
        <time>2014-01-12T09:59:35Z</time>
      </trkpt>
      <trkpt lat="45.23264" lon="6.03622">
        <ele>2355.600097656</ele>
        <time>2014-01-12T09:59:41Z</time>
      </trkpt>
      <trkpt lat="45.23265" lon="6.03623">
        <ele>2356</ele>
        <time>2014-01-12T09:59:46Z</time>
      </trkpt>
      <trkpt lat="45.23265" lon="6.03621">
        <ele>2356.399902344</ele>
        <time>2014-01-12T09:59:53Z</time>
      </trkpt>
      <trkpt lat="45.23264" lon="6.03619">
        <ele>2357</ele>
        <time>2014-01-12T09:59:58Z</time>
      </trkpt>
      <trkpt lat="45.23263" lon="6.03616">
        <ele>2357</ele>
        <time>2014-01-12T10:00:04Z</time>
      </trkpt>
      <trkpt lat="45.23263" lon="6.03614">
        <ele>2357.600097656</ele>
        <time>2014-01-12T10:00:10Z</time>
      </trkpt>
      <trkpt lat="45.23262" lon="6.03612">
        <ele>2357.800048828</ele>
        <time>2014-01-12T10:00:14Z</time>
      </trkpt>
      <trkpt lat="45.23261" lon="6.03611">
        <ele>2357.800048828</ele>
        <time>2014-01-12T10:00:18Z</time>
      </trkpt>
      <trkpt lat="45.23263" lon="6.03612">
        <ele>2358.800048828</ele>
        <time>2014-01-12T10:00:26Z</time>
      </trkpt>
      <trkpt lat="45.23267" lon="6.03612">
        <ele>2360.199951172</ele>
        <time>2014-01-12T10:00:32Z</time>
      </trkpt>
      <trkpt lat="45.2327" lon="6.03612">
        <ele>2362.199951172</ele>
        <time>2014-01-12T10:00:36Z</time>
      </trkpt>
      <trkpt lat="45.23274" lon="6.03612">
        <ele>2363.800048828</ele>
        <time>2014-01-12T10:00:40Z</time>
      </trkpt>
      <trkpt lat="45.23275" lon="6.03611">
        <ele>2364.800048828</ele>
        <time>2014-01-12T10:00:46Z</time>
      </trkpt>
      <trkpt lat="45.23276" lon="6.03607">
        <ele>2366.399902344</ele>
        <time>2014-01-12T10:00:53Z</time>
      </trkpt>
      <trkpt lat="45.23276" lon="6.03607">
        <ele>2366.600097656</ele>
        <time>2014-01-12T10:00:54Z</time>
      </trkpt>
      <trkpt lat="45.23276" lon="6.03605">
        <ele>2367</ele>
        <time>2014-01-12T10:00:58Z</time>
      </trkpt>
      <trkpt lat="45.23274" lon="6.03602">
        <ele>2367</ele>
        <time>2014-01-12T10:01:03Z</time>
      </trkpt>
      <trkpt lat="45.23277" lon="6.03602">
        <ele>2368</ele>
        <time>2014-01-12T10:01:08Z</time>
      </trkpt>
      <trkpt lat="45.23278" lon="6.03603">
        <ele>2368.800048828</ele>
        <time>2014-01-12T10:01:10Z</time>
      </trkpt>
      <trkpt lat="45.2328" lon="6.03604">
        <ele>2369.399902344</ele>
        <time>2014-01-12T10:01:13Z</time>
      </trkpt>
      <trkpt lat="45.23282" lon="6.03604">
        <ele>2370</ele>
        <time>2014-01-12T10:01:14Z</time>
      </trkpt>
      <trkpt lat="45.23284" lon="6.03604">
        <ele>2371</ele>
        <time>2014-01-12T10:01:18Z</time>
      </trkpt>
      <trkpt lat="45.23287" lon="6.03605">
        <ele>2372.399902344</ele>
        <time>2014-01-12T10:01:24Z</time>
      </trkpt>
      <trkpt lat="45.23288" lon="6.03605">
        <ele>2372.800048828</ele>
        <time>2014-01-12T10:01:26Z</time>
      </trkpt>
      <trkpt lat="45.23292" lon="6.03605">
        <ele>2374.399902344</ele>
        <time>2014-01-12T10:01:32Z</time>
      </trkpt>
      <trkpt lat="45.23293" lon="6.03605">
        <ele>2375</ele>
        <time>2014-01-12T10:01:36Z</time>
      </trkpt>
      <trkpt lat="45.23295" lon="6.03605">
        <ele>2376</ele>
        <time>2014-01-12T10:01:41Z</time>
      </trkpt>
      <trkpt lat="45.23299" lon="6.03607">
        <ele>2377.600097656</ele>
        <time>2014-01-12T10:01:46Z</time>
      </trkpt>
      <trkpt lat="45.23301" lon="6.03608">
        <ele>2378.199951172</ele>
        <time>2014-01-12T10:01:51Z</time>
      </trkpt>
      <trkpt lat="45.23302" lon="6.03609">
        <ele>2378.600097656</ele>
        <time>2014-01-12T10:01:56Z</time>
      </trkpt>
      <trkpt lat="45.23305" lon="6.03611">
        <ele>2379.399902344</ele>
        <time>2014-01-12T10:02:05Z</time>
      </trkpt>
      <trkpt lat="45.23304" lon="6.03608">
        <ele>2379.800048828</ele>
        <time>2014-01-12T10:02:11Z</time>
      </trkpt>
      <trkpt lat="45.23304" lon="6.03607">
        <ele>2379.600097656</ele>
        <time>2014-01-12T10:02:15Z</time>
      </trkpt>
      <trkpt lat="45.23302" lon="6.03605">
        <ele>2379.600097656</ele>
        <time>2014-01-12T10:02:20Z</time>
      </trkpt>
      <trkpt lat="45.23301" lon="6.03603">
        <ele>2379.199951172</ele>
        <time>2014-01-12T10:02:25Z</time>
      </trkpt>
      <trkpt lat="45.23299" lon="6.036">
        <ele>2379</ele>
        <time>2014-01-12T10:02:30Z</time>
      </trkpt>
      <trkpt lat="45.23298" lon="6.03598">
        <ele>2379</ele>
        <time>2014-01-12T10:02:35Z</time>
      </trkpt>
      <trkpt lat="45.23298" lon="6.03596">
        <ele>2379.199951172</ele>
        <time>2014-01-12T10:02:39Z</time>
      </trkpt>
      <trkpt lat="45.23295" lon="6.03593">
        <ele>2378.600097656</ele>
        <time>2014-01-12T10:02:44Z</time>
      </trkpt>
      <trkpt lat="45.23296" lon="6.03593">
        <ele>2379.399902344</ele>
        <time>2014-01-12T10:02:49Z</time>
      </trkpt>
      <trkpt lat="45.23298" lon="6.03593">
        <ele>2379.800048828</ele>
        <time>2014-01-12T10:02:53Z</time>
      </trkpt>
      <trkpt lat="45.233" lon="6.03594">
        <ele>2380.600097656</ele>
        <time>2014-01-12T10:02:57Z</time>
      </trkpt>
      <trkpt lat="45.23302" lon="6.03594">
        <ele>2381.600097656</ele>
        <time>2014-01-12T10:03:01Z</time>
      </trkpt>
      <trkpt lat="45.23304" lon="6.03595">
        <ele>2382.399902344</ele>
        <time>2014-01-12T10:03:06Z</time>
      </trkpt>
      <trkpt lat="45.23306" lon="6.03596">
        <ele>2383</ele>
        <time>2014-01-12T10:03:13Z</time>
      </trkpt>
      <trkpt lat="45.2331" lon="6.03598">
        <ele>2384.399902344</ele>
        <time>2014-01-12T10:03:18Z</time>
      </trkpt>
      <trkpt lat="45.23313" lon="6.03599">
        <ele>2385.399902344</ele>
        <time>2014-01-12T10:03:24Z</time>
      </trkpt>
      <trkpt lat="45.23317" lon="6.03601">
        <ele>2387</ele>
        <time>2014-01-12T10:03:32Z</time>
      </trkpt>
      <trkpt lat="45.23318" lon="6.03601">
        <ele>2387.399902344</ele>
        <time>2014-01-12T10:03:37Z</time>
      </trkpt>
      <trkpt lat="45.2332" lon="6.03604">
        <ele>2388</ele>
        <time>2014-01-12T10:03:43Z</time>
      </trkpt>
      <trkpt lat="45.23322" lon="6.03605">
        <ele>2388.600097656</ele>
        <time>2014-01-12T10:03:49Z</time>
      </trkpt>
      <trkpt lat="45.23323" lon="6.03608">
        <ele>2389</ele>
        <time>2014-01-12T10:03:55Z</time>
      </trkpt>
      <trkpt lat="45.23326" lon="6.03611">
        <ele>2390</ele>
        <time>2014-01-12T10:04:14Z</time>
      </trkpt>
      <trkpt lat="45.23326" lon="6.03612">
        <ele>2390</ele>
        <time>2014-01-12T10:04:21Z</time>
      </trkpt>
      <trkpt lat="45.23327" lon="6.03614">
        <ele>2390</ele>
        <time>2014-01-12T10:04:26Z</time>
      </trkpt>
      <trkpt lat="45.23327" lon="6.03615">
        <ele>2390</ele>
        <time>2014-01-12T10:04:31Z</time>
      </trkpt>
      <trkpt lat="45.23326" lon="6.03618">
        <ele>2389.399902344</ele>
        <time>2014-01-12T10:04:38Z</time>
      </trkpt>
      <trkpt lat="45.23325" lon="6.0362">
        <ele>2388.800048828</ele>
        <time>2014-01-12T10:04:43Z</time>
      </trkpt>
      <trkpt lat="45.23324" lon="6.03622">
        <ele>2387.600097656</ele>
        <time>2014-01-12T10:04:50Z</time>
      </trkpt>
      <trkpt lat="45.23323" lon="6.03625">
        <ele>2386.800048828</ele>
        <time>2014-01-12T10:04:56Z</time>
      </trkpt>
      <trkpt lat="45.23322" lon="6.03627">
        <ele>2386.199951172</ele>
        <time>2014-01-12T10:05:02Z</time>
      </trkpt>
      <trkpt lat="45.23322" lon="6.03629">
        <ele>2386</ele>
        <time>2014-01-12T10:05:06Z</time>
      </trkpt>
      <trkpt lat="45.23322" lon="6.03631">
        <ele>2385.399902344</ele>
        <time>2014-01-12T10:05:11Z</time>
      </trkpt>
      <trkpt lat="45.23323" lon="6.03636">
        <ele>2385.399902344</ele>
        <time>2014-01-12T10:05:20Z</time>
      </trkpt>
      <trkpt lat="45.23322" lon="6.03635">
        <ele>2385.399902344</ele>
        <time>2014-01-12T10:05:33Z</time>
      </trkpt>
      <trkpt lat="45.23324" lon="6.03632">
        <ele>2386.399902344</ele>
        <time>2014-01-12T10:05:40Z</time>
      </trkpt>
      <trkpt lat="45.23326" lon="6.0363">
        <ele>2388</ele>
        <time>2014-01-12T10:05:48Z</time>
      </trkpt>
      <trkpt lat="45.23327" lon="6.03629">
        <ele>2388.600097656</ele>
        <time>2014-01-12T10:05:53Z</time>
      </trkpt>
      <trkpt lat="45.23328" lon="6.03634">
        <ele>2388.800048828</ele>
        <time>2014-01-12T10:05:59Z</time>
      </trkpt>
      <trkpt lat="45.23329" lon="6.03636">
        <ele>2388.800048828</ele>
        <time>2014-01-12T10:06:03Z</time>
      </trkpt>
      <trkpt lat="45.23329" lon="6.03641">
        <ele>2388.399902344</ele>
        <time>2014-01-12T10:06:10Z</time>
      </trkpt>
      <trkpt lat="45.23329" lon="6.03642">
        <ele>2388.199951172</ele>
        <time>2014-01-12T10:06:15Z</time>
      </trkpt>
      <trkpt lat="45.23328" lon="6.0364">
        <ele>2388.199951172</ele>
        <time>2014-01-12T10:06:20Z</time>
      </trkpt>
      <trkpt lat="45.2333" lon="6.03636">
        <ele>2389.800048828</ele>
        <time>2014-01-12T10:06:30Z</time>
      </trkpt>
      <trkpt lat="45.23332" lon="6.03633">
        <ele>2391</ele>
        <time>2014-01-12T10:06:34Z</time>
      </trkpt>
      <trkpt lat="45.23333" lon="6.03628">
        <ele>2391.800048828</ele>
        <time>2014-01-12T10:06:43Z</time>
      </trkpt>
      <trkpt lat="45.23334" lon="6.03625">
        <ele>2392.800048828</ele>
        <time>2014-01-12T10:06:47Z</time>
      </trkpt>
      <trkpt lat="45.23336" lon="6.03626">
        <ele>2393.600097656</ele>
        <time>2014-01-12T10:06:55Z</time>
      </trkpt>
      <trkpt lat="45.23336" lon="6.0363">
        <ele>2393.600097656</ele>
        <time>2014-01-12T10:07:01Z</time>
      </trkpt>
      <trkpt lat="45.23337" lon="6.03635">
        <ele>2393.399902344</ele>
        <time>2014-01-12T10:07:07Z</time>
      </trkpt>
      <trkpt lat="45.23338" lon="6.0364">
        <ele>2393.600097656</ele>
        <time>2014-01-12T10:07:13Z</time>
      </trkpt>
      <trkpt lat="45.23339" lon="6.03643">
        <ele>2394</ele>
        <time>2014-01-12T10:07:17Z</time>
      </trkpt>
      <trkpt lat="45.23341" lon="6.03648">
        <ele>2394.600097656</ele>
        <time>2014-01-12T10:07:23Z</time>
      </trkpt>
      <trkpt lat="45.23344" lon="6.03655">
        <ele>2396</ele>
        <time>2014-01-12T10:07:31Z</time>
      </trkpt>
      <trkpt lat="45.23348" lon="6.0366">
        <ele>2398</ele>
        <time>2014-01-12T10:07:35Z</time>
      </trkpt>
      <trkpt lat="45.23349" lon="6.03661">
        <ele>2398.199951172</ele>
        <time>2014-01-12T10:07:36Z</time>
      </trkpt>
      <trkpt lat="45.23349" lon="6.03665">
        <ele>2398.399902344</ele>
        <time>2014-01-12T10:07:43Z</time>
      </trkpt>
      <trkpt lat="45.23351" lon="6.03668">
        <ele>2399.199951172</ele>
        <time>2014-01-12T10:07:47Z</time>
      </trkpt>
      <trkpt lat="45.23352" lon="6.03674">
        <ele>2398.600097656</ele>
        <time>2014-01-12T10:07:53Z</time>
      </trkpt>
      <trkpt lat="45.23355" lon="6.03681">
        <ele>2398.199951172</ele>
        <time>2014-01-12T10:08:00Z</time>
      </trkpt>
      <trkpt lat="45.23355" lon="6.03684">
        <ele>2397.800048828</ele>
        <time>2014-01-12T10:08:04Z</time>
      </trkpt>
      <trkpt lat="45.23356" lon="6.03688">
        <ele>2397.600097656</ele>
        <time>2014-01-12T10:08:10Z</time>
      </trkpt>
      <trkpt lat="45.23357" lon="6.03691">
        <ele>2397.399902344</ele>
        <time>2014-01-12T10:08:14Z</time>
      </trkpt>
      <trkpt lat="45.23358" lon="6.03694">
        <ele>2397.399902344</ele>
        <time>2014-01-12T10:08:18Z</time>
      </trkpt>
      <trkpt lat="45.23361" lon="6.03698">
        <ele>2398</ele>
        <time>2014-01-12T10:08:22Z</time>
      </trkpt>
      <trkpt lat="45.23361" lon="6.03699">
        <ele>2398.199951172</ele>
        <time>2014-01-12T10:08:23Z</time>
      </trkpt>
      <trkpt lat="45.23363" lon="6.037">
        <ele>2398.600097656</ele>
        <time>2014-01-12T10:08:24Z</time>
      </trkpt>
      <trkpt lat="45.23364" lon="6.03703">
        <ele>2398.800048828</ele>
        <time>2014-01-12T10:08:27Z</time>
      </trkpt>
      <trkpt lat="45.23366" lon="6.03707">
        <ele>2399</ele>
        <time>2014-01-12T10:08:31Z</time>
      </trkpt>
      <trkpt lat="45.23368" lon="6.0371">
        <ele>2399.399902344</ele>
        <time>2014-01-12T10:08:36Z</time>
      </trkpt>
      <trkpt lat="45.23371" lon="6.03713">
        <ele>2400.399902344</ele>
        <time>2014-01-12T10:08:42Z</time>
      </trkpt>
      <trkpt lat="45.23372" lon="6.03716">
        <ele>2400.800048828</ele>
        <time>2014-01-12T10:08:46Z</time>
      </trkpt>
      <trkpt lat="45.23374" lon="6.03718">
        <ele>2401.199951172</ele>
        <time>2014-01-12T10:08:50Z</time>
      </trkpt>
      <trkpt lat="45.23378" lon="6.03721">
        <ele>2402.600097656</ele>
        <time>2014-01-12T10:08:57Z</time>
      </trkpt>
      <trkpt lat="45.2338" lon="6.03721">
        <ele>2403.800048828</ele>
        <time>2014-01-12T10:09:01Z</time>
      </trkpt>
      <trkpt lat="45.23381" lon="6.03722">
        <ele>2404.399902344</ele>
        <time>2014-01-12T10:09:06Z</time>
      </trkpt>
      <trkpt lat="45.23382" lon="6.03722">
        <ele>2405.199951172</ele>
        <time>2014-01-12T10:09:10Z</time>
      </trkpt>
      <trkpt lat="45.23385" lon="6.03722">
        <ele>2407</ele>
        <time>2014-01-12T10:09:15Z</time>
      </trkpt>
      <trkpt lat="45.23386" lon="6.03722">
        <ele>2407.800048828</ele>
        <time>2014-01-12T10:09:19Z</time>
      </trkpt>
      <trkpt lat="45.23391" lon="6.03721">
        <ele>2410.600097656</ele>
        <time>2014-01-12T10:09:27Z</time>
      </trkpt>
      <trkpt lat="45.23394" lon="6.03722">
        <ele>2412.399902344</ele>
        <time>2014-01-12T10:09:32Z</time>
      </trkpt>
      <trkpt lat="45.23398" lon="6.03721">
        <ele>2415</ele>
        <time>2014-01-12T10:09:40Z</time>
      </trkpt>
      <trkpt lat="45.234" lon="6.0372">
        <ele>2416.399902344</ele>
        <time>2014-01-12T10:09:44Z</time>
      </trkpt>
      <trkpt lat="45.23403" lon="6.03719">
        <ele>2418.600097656</ele>
        <time>2014-01-12T10:09:50Z</time>
      </trkpt>
      <trkpt lat="45.23407" lon="6.03719">
        <ele>2420.600097656</ele>
        <time>2014-01-12T10:09:55Z</time>
      </trkpt>
      <trkpt lat="45.23411" lon="6.03721">
        <ele>2422.600097656</ele>
        <time>2014-01-12T10:09:59Z</time>
      </trkpt>
      <trkpt lat="45.23412" lon="6.03721">
        <ele>2423.199951172</ele>
        <time>2014-01-12T10:10:01Z</time>
      </trkpt>
      <trkpt lat="45.23414" lon="6.03722">
        <ele>2424</ele>
        <time>2014-01-12T10:10:03Z</time>
      </trkpt>
      <trkpt lat="45.23422" lon="6.03729">
        <ele>2426.600097656</ele>
        <time>2014-01-12T10:10:11Z</time>
      </trkpt>
      <trkpt lat="45.23423" lon="6.03729">
        <ele>2426.800048828</ele>
        <time>2014-01-12T10:10:12Z</time>
      </trkpt>
      <trkpt lat="45.23425" lon="6.03731">
        <ele>2427.399902344</ele>
        <time>2014-01-12T10:10:17Z</time>
      </trkpt>
      <trkpt lat="45.23428" lon="6.03734">
        <ele>2428</ele>
        <time>2014-01-12T10:10:21Z</time>
      </trkpt>
      <trkpt lat="45.23429" lon="6.03737">
        <ele>2428.199951172</ele>
        <time>2014-01-12T10:10:26Z</time>
      </trkpt>
      <trkpt lat="45.23432" lon="6.03739">
        <ele>2429.399902344</ele>
        <time>2014-01-12T10:10:31Z</time>
      </trkpt>
      <trkpt lat="45.23435" lon="6.03741">
        <ele>2430.399902344</ele>
        <time>2014-01-12T10:10:36Z</time>
      </trkpt>
      <trkpt lat="45.23438" lon="6.03743">
        <ele>2431.600097656</ele>
        <time>2014-01-12T10:10:41Z</time>
      </trkpt>
      <trkpt lat="45.23442" lon="6.03745">
        <ele>2433.399902344</ele>
        <time>2014-01-12T10:10:47Z</time>
      </trkpt>
      <trkpt lat="45.23446" lon="6.03747">
        <ele>2435.600097656</ele>
        <time>2014-01-12T10:10:52Z</time>
      </trkpt>
      <trkpt lat="45.23451" lon="6.0375">
        <ele>2438</ele>
        <time>2014-01-12T10:10:58Z</time>
      </trkpt>
      <trkpt lat="45.23456" lon="6.03753">
        <ele>2440.199951172</ele>
        <time>2014-01-12T10:11:05Z</time>
      </trkpt>
      <trkpt lat="45.23458" lon="6.03756">
        <ele>2441.600097656</ele>
        <time>2014-01-12T10:11:11Z</time>
      </trkpt>
      <trkpt lat="45.2346" lon="6.03761">
        <ele>2442.199951172</ele>
        <time>2014-01-12T10:11:17Z</time>
      </trkpt>
      <trkpt lat="45.23461" lon="6.03763">
        <ele>2442.600097656</ele>
        <time>2014-01-12T10:11:21Z</time>
      </trkpt>
      <trkpt lat="45.23463" lon="6.03766">
        <ele>2443.199951172</ele>
        <time>2014-01-12T10:11:26Z</time>
      </trkpt>
      <trkpt lat="45.23465" lon="6.03773">
        <ele>2443.800048828</ele>
        <time>2014-01-12T10:11:35Z</time>
      </trkpt>
      <trkpt lat="45.23467" lon="6.03776">
        <ele>2444.800048828</ele>
        <time>2014-01-12T10:11:41Z</time>
      </trkpt>
      <trkpt lat="45.23468" lon="6.03778">
        <ele>2445.399902344</ele>
        <time>2014-01-12T10:11:46Z</time>
      </trkpt>
      <trkpt lat="45.23471" lon="6.0378">
        <ele>2446.800048828</ele>
        <time>2014-01-12T10:11:52Z</time>
      </trkpt>
      <trkpt lat="45.23472" lon="6.03782">
        <ele>2447.399902344</ele>
        <time>2014-01-12T10:11:56Z</time>
      </trkpt>
      <trkpt lat="45.23477" lon="6.03787">
        <ele>2450.199951172</ele>
        <time>2014-01-12T10:12:04Z</time>
      </trkpt>
      <trkpt lat="45.23481" lon="6.03792">
        <ele>2443.600097656</ele>
        <time>2014-01-12T10:12:11Z</time>
      </trkpt>
      <trkpt lat="45.23483" lon="6.03795">
        <ele>2443.399902344</ele>
        <time>2014-01-12T10:12:16Z</time>
      </trkpt>
      <trkpt lat="45.23484" lon="6.03798">
        <ele>2443.399902344</ele>
        <time>2014-01-12T10:12:22Z</time>
      </trkpt>
      <trkpt lat="45.23485" lon="6.03801">
        <ele>2443</ele>
        <time>2014-01-12T10:12:27Z</time>
      </trkpt>
      <trkpt lat="45.23485" lon="6.03806">
        <ele>2441.800048828</ele>
        <time>2014-01-12T10:12:33Z</time>
      </trkpt>
      <trkpt lat="45.23484" lon="6.0381">
        <ele>2440.199951172</ele>
        <time>2014-01-12T10:12:38Z</time>
      </trkpt>
      <trkpt lat="45.23482" lon="6.03814">
        <ele>2438.600097656</ele>
        <time>2014-01-12T10:12:43Z</time>
      </trkpt>
      <trkpt lat="45.23481" lon="6.03818">
        <ele>2436.800048828</ele>
        <time>2014-01-12T10:12:49Z</time>
      </trkpt>
      <trkpt lat="45.2348" lon="6.03822">
        <ele>2435.399902344</ele>
        <time>2014-01-12T10:12:54Z</time>
      </trkpt>
      <trkpt lat="45.23478" lon="6.03826">
        <ele>2433.800048828</ele>
        <time>2014-01-12T10:13:00Z</time>
      </trkpt>
      <trkpt lat="45.23478" lon="6.0383">
        <ele>2432.399902344</ele>
        <time>2014-01-12T10:13:06Z</time>
      </trkpt>
      <trkpt lat="45.23477" lon="6.03835">
        <ele>2431</ele>
        <time>2014-01-12T10:13:13Z</time>
      </trkpt>
      <trkpt lat="45.23476" lon="6.03839">
        <ele>2430</ele>
        <time>2014-01-12T10:13:19Z</time>
      </trkpt>
      <trkpt lat="45.23476" lon="6.03842">
        <ele>2429.600097656</ele>
        <time>2014-01-12T10:13:24Z</time>
      </trkpt>
      <trkpt lat="45.23477" lon="6.03845">
        <ele>2429.399902344</ele>
        <time>2014-01-12T10:13:28Z</time>
      </trkpt>
      <trkpt lat="45.23478" lon="6.03848">
        <ele>2429.600097656</ele>
        <time>2014-01-12T10:13:33Z</time>
      </trkpt>
      <trkpt lat="45.23478" lon="6.03847">
        <ele>2429.800048828</ele>
        <time>2014-01-12T10:13:38Z</time>
      </trkpt>
      <trkpt lat="45.23478" lon="6.03844">
        <ele>2430.199951172</ele>
        <time>2014-01-12T10:13:44Z</time>
      </trkpt>
      <trkpt lat="45.23479" lon="6.03842">
        <ele>2431</ele>
        <time>2014-01-12T10:13:48Z</time>
      </trkpt>
      <trkpt lat="45.23481" lon="6.0384">
        <ele>2432.199951172</ele>
        <time>2014-01-12T10:13:53Z</time>
      </trkpt>
      <trkpt lat="45.23482" lon="6.03839">
        <ele>2433</ele>
        <time>2014-01-12T10:13:58Z</time>
      </trkpt>
      <trkpt lat="45.23484" lon="6.03838">
        <ele>2433.800048828</ele>
        <time>2014-01-12T10:14:02Z</time>
      </trkpt>
      <trkpt lat="45.23486" lon="6.03838">
        <ele>2435</ele>
        <time>2014-01-12T10:14:06Z</time>
      </trkpt>
      <trkpt lat="45.23489" lon="6.03836">
        <ele>2436.199951172</ele>
        <time>2014-01-12T10:14:11Z</time>
      </trkpt>
      <trkpt lat="45.23491" lon="6.03834">
        <ele>2437.199951172</ele>
        <time>2014-01-12T10:14:15Z</time>
      </trkpt>
      <trkpt lat="45.23493" lon="6.03832">
        <ele>2438.199951172</ele>
        <time>2014-01-12T10:14:19Z</time>
      </trkpt>
      <trkpt lat="45.23494" lon="6.03831">
        <ele>2439.399902344</ele>
        <time>2014-01-12T10:14:28Z</time>
      </trkpt>
      <trkpt lat="45.23497" lon="6.03834">
        <ele>2439.800048828</ele>
        <time>2014-01-12T10:14:41Z</time>
      </trkpt>
      <trkpt lat="45.23497" lon="6.03836">
        <ele>2439.600097656</ele>
        <time>2014-01-12T10:14:46Z</time>
      </trkpt>
      <trkpt lat="45.23496" lon="6.03839">
        <ele>2439.199951172</ele>
        <time>2014-01-12T10:14:53Z</time>
      </trkpt>
      <trkpt lat="45.23496" lon="6.03841">
        <ele>2439</ele>
        <time>2014-01-12T10:15:00Z</time>
      </trkpt>
      <trkpt lat="45.23488" lon="6.03842">
        <ele>2435.399902344</ele>
        <time>2014-01-12T10:15:10Z</time>
      </trkpt>
      <trkpt lat="45.23483" lon="6.0384">
        <ele>2433</ele>
        <time>2014-01-12T10:15:15Z</time>
      </trkpt>
      <trkpt lat="45.23477" lon="6.03839">
        <ele>2430.600097656</ele>
        <time>2014-01-12T10:15:19Z</time>
      </trkpt>
      <trkpt lat="45.23474" lon="6.03837">
        <ele>2429.600097656</ele>
        <time>2014-01-12T10:15:25Z</time>
      </trkpt>
      <trkpt lat="45.23473" lon="6.03838">
        <ele>2428.800048828</ele>
        <time>2014-01-12T10:15:29Z</time>
      </trkpt>
      <trkpt lat="45.23471" lon="6.0384">
        <ele>2427.800048828</ele>
        <time>2014-01-12T10:15:49Z</time>
      </trkpt>
      <trkpt lat="45.23472" lon="6.0384">
        <ele>2428</ele>
        <time>2014-01-12T10:15:57Z</time>
      </trkpt>
      <trkpt lat="45.23471" lon="6.03841">
        <ele>2427.600097656</ele>
        <time>2014-01-12T10:15:59Z</time>
      </trkpt>
      <trkpt lat="45.23471" lon="6.03841">
        <ele>2427.600097656</ele>
        <time>2014-01-12T10:16:01Z</time>
      </trkpt>
      <trkpt lat="45.23473" lon="6.03841">
        <ele>2428.199951172</ele>
        <time>2014-01-12T10:16:13Z</time>
      </trkpt>
      <trkpt lat="45.23474" lon="6.03841">
        <ele>2428.600097656</ele>
        <time>2014-01-12T10:16:22Z</time>
      </trkpt>
      <trkpt lat="45.23474" lon="6.03841">
        <ele>2428.800048828</ele>
        <time>2014-01-12T10:16:23Z</time>
      </trkpt>
      <trkpt lat="45.23474" lon="6.03841">
        <ele>2428.800048828</ele>
        <time>2014-01-12T10:16:24Z</time>
      </trkpt>
      <trkpt lat="45.23474" lon="6.0384">
        <ele>2429</ele>
        <time>2014-01-12T10:16:28Z</time>
      </trkpt>
      <trkpt lat="45.23474" lon="6.0384">
        <ele>2429.199951172</ele>
        <time>2014-01-12T10:16:31Z</time>
      </trkpt>
      <trkpt lat="45.23476" lon="6.03839">
        <ele>2430</ele>
        <time>2014-01-12T10:16:33Z</time>
      </trkpt>
      <trkpt lat="45.23475" lon="6.03837">
        <ele>2430</ele>
        <time>2014-01-12T10:16:46Z</time>
      </trkpt>
      <trkpt lat="45.23474" lon="6.0384">
        <ele>2429</ele>
        <time>2014-01-12T10:16:50Z</time>
      </trkpt>
      <trkpt lat="45.23471" lon="6.03842">
        <ele>2427.199951172</ele>
        <time>2014-01-12T10:17:15Z</time>
      </trkpt>
      <trkpt lat="45.23471" lon="6.03842">
        <ele>2427.399902344</ele>
        <time>2014-01-12T10:17:28Z</time>
      </trkpt>
      <trkpt lat="45.23472" lon="6.03843">
        <ele>2427.600097656</ele>
        <time>2014-01-12T10:17:33Z</time>
      </trkpt>
      <trkpt lat="45.23473" lon="6.03844">
        <ele>2427.800048828</ele>
        <time>2014-01-12T10:17:35Z</time>
      </trkpt>
      <trkpt lat="45.23473" lon="6.03845">
        <ele>2427.800048828</ele>
        <time>2014-01-12T10:17:38Z</time>
      </trkpt>
      <trkpt lat="45.23474" lon="6.03846">
        <ele>2428</ele>
        <time>2014-01-12T10:17:40Z</time>
      </trkpt>
      <trkpt lat="45.23475" lon="6.03846">
        <ele>2428.399902344</ele>
        <time>2014-01-12T10:17:44Z</time>
      </trkpt>
      <trkpt lat="45.23475" lon="6.03846">
        <ele>2428.399902344</ele>
        <time>2014-01-12T10:17:47Z</time>
      </trkpt>
      <trkpt lat="45.23475" lon="6.03846">
        <ele>2428.199951172</ele>
        <time>2014-01-12T10:17:48Z</time>
      </trkpt>
      <trkpt lat="45.23475" lon="6.03847">
        <ele>2428.399902344</ele>
        <time>2014-01-12T10:17:53Z</time>
      </trkpt>
      <trkpt lat="45.23475" lon="6.03848">
        <ele>2428.399902344</ele>
        <time>2014-01-12T10:17:56Z</time>
      </trkpt>
      <trkpt lat="45.23477" lon="6.0385">
        <ele>2429</ele>
        <time>2014-01-12T10:18:09Z</time>
      </trkpt>
      <trkpt lat="45.23477" lon="6.03849">
        <ele>2428.800048828</ele>
        <time>2014-01-12T10:18:13Z</time>
      </trkpt>
      <trkpt lat="45.23478" lon="6.0385">
        <ele>2429.399902344</ele>
        <time>2014-01-12T10:18:25Z</time>
      </trkpt>
      <trkpt lat="45.23481" lon="6.03849">
        <ele>2431</ele>
        <time>2014-01-12T10:18:30Z</time>
      </trkpt>
      <trkpt lat="45.2348" lon="6.03846">
        <ele>2431.199951172</ele>
        <time>2014-01-12T10:18:32Z</time>
      </trkpt>
      <trkpt lat="45.23481" lon="6.03847">
        <ele>2431.399902344</ele>
        <time>2014-01-12T10:18:36Z</time>
      </trkpt>
      <trkpt lat="45.23482" lon="6.03848">
        <ele>2431.600097656</ele>
        <time>2014-01-12T10:18:43Z</time>
      </trkpt>
      <trkpt lat="45.23482" lon="6.0385">
        <ele>2431.600097656</ele>
        <time>2014-01-12T10:18:54Z</time>
      </trkpt>
      <trkpt lat="45.23482" lon="6.03854">
        <ele>2431.199951172</ele>
        <time>2014-01-12T10:19:02Z</time>
      </trkpt>
      <trkpt lat="45.23484" lon="6.03857">
        <ele>2432</ele>
        <time>2014-01-12T10:19:09Z</time>
      </trkpt>
      <trkpt lat="45.23482" lon="6.03855">
        <ele>2431.199951172</ele>
        <time>2014-01-12T10:19:22Z</time>
      </trkpt>
      <trkpt lat="45.23484" lon="6.03858">
        <ele>2432</ele>
        <time>2014-01-12T10:19:36Z</time>
      </trkpt>
      <trkpt lat="45.23486" lon="6.03858">
        <ele>2432.800048828</ele>
        <time>2014-01-12T10:19:43Z</time>
      </trkpt>
      <trkpt lat="45.23486" lon="6.03859">
        <ele>2432.600097656</ele>
        <time>2014-01-12T10:19:50Z</time>
      </trkpt>
      <trkpt lat="45.23483" lon="6.03859">
        <ele>2431.399902344</ele>
        <time>2014-01-12T10:20:06Z</time>
      </trkpt>
      <trkpt lat="45.23484" lon="6.03857">
        <ele>2432.199951172</ele>
        <time>2014-01-12T10:20:17Z</time>
      </trkpt>
      <trkpt lat="45.23488" lon="6.03859">
        <ele>2433.800048828</ele>
        <time>2014-01-12T10:20:34Z</time>
      </trkpt>
      <trkpt lat="45.23489" lon="6.03862">
        <ele>2434.199951172</ele>
        <time>2014-01-12T10:20:41Z</time>
      </trkpt>
      <trkpt lat="45.23489" lon="6.03863">
        <ele>2434</ele>
        <time>2014-01-12T10:20:50Z</time>
      </trkpt>
      <trkpt lat="45.2349" lon="6.03862">
        <ele>2435</ele>
        <time>2014-01-12T10:20:57Z</time>
      </trkpt>
      <trkpt lat="45.23493" lon="6.03861">
        <ele>2437</ele>
        <time>2014-01-12T10:21:05Z</time>
      </trkpt>
      <trkpt lat="45.23498" lon="6.03861">
        <ele>2439.800048828</ele>
        <time>2014-01-12T10:21:13Z</time>
      </trkpt>
      <trkpt lat="45.23501" lon="6.03861">
        <ele>2441.800048828</ele>
        <time>2014-01-12T10:21:19Z</time>
      </trkpt>
      <trkpt lat="45.23505" lon="6.03863">
        <ele>2444.800048828</ele>
        <time>2014-01-12T10:21:25Z</time>
      </trkpt>
      <trkpt lat="45.2351" lon="6.03866">
        <ele>2448.800048828</ele>
        <time>2014-01-12T10:21:34Z</time>
      </trkpt>
      <trkpt lat="45.23513" lon="6.03867">
        <ele>2451.600097656</ele>
        <time>2014-01-12T10:21:52Z</time>
      </trkpt>
      <trkpt lat="45.23514" lon="6.03867">
        <ele>2452.199951172</ele>
        <time>2014-01-12T10:21:58Z</time>
      </trkpt>
      <trkpt lat="45.23514" lon="6.03867">
        <ele>2452.199951172</ele>
        <time>2014-01-12T10:22:05Z</time>
      </trkpt>
      <trkpt lat="45.23514" lon="6.03867">
        <ele>2451.800048828</ele>
        <time>2014-01-12T10:22:20Z</time>
      </trkpt>
      <trkpt lat="45.2351" lon="6.03867">
        <ele>2449</ele>
        <time>2014-01-12T10:22:30Z</time>
      </trkpt>
      <trkpt lat="45.23507" lon="6.03866">
        <ele>2446.399902344</ele>
        <time>2014-01-12T10:22:39Z</time>
      </trkpt>
      <trkpt lat="45.23508" lon="6.03866">
        <ele>2447.199951172</ele>
        <time>2014-01-12T10:22:44Z</time>
      </trkpt>
      <trkpt lat="45.23509" lon="6.03866">
        <ele>2447.800048828</ele>
        <time>2014-01-12T10:22:49Z</time>
      </trkpt>
      <trkpt lat="45.23515" lon="6.03867">
        <ele>2452.800048828</ele>
        <time>2014-01-12T10:22:56Z</time>
      </trkpt>
      <trkpt lat="45.23518" lon="6.0387">
        <ele>2455.399902344</ele>
        <time>2014-01-12T10:23:05Z</time>
      </trkpt>
      <trkpt lat="45.2352" lon="6.03869">
        <ele>2457</ele>
        <time>2014-01-12T10:23:22Z</time>
      </trkpt>
      <trkpt lat="45.2352" lon="6.03869">
        <ele>2457.199951172</ele>
        <time>2014-01-12T10:23:31Z</time>
      </trkpt>
      <trkpt lat="45.2352" lon="6.03871">
        <ele>2457.199951172</ele>
        <time>2014-01-12T10:23:41Z</time>
      </trkpt>
      <trkpt lat="45.23522" lon="6.0387">
        <ele>2459</ele>
        <time>2014-01-12T10:23:52Z</time>
      </trkpt>
      <trkpt lat="45.23523" lon="6.0387">
        <ele>2459.800048828</ele>
        <time>2014-01-12T10:23:58Z</time>
      </trkpt>
      <trkpt lat="45.23524" lon="6.03872">
        <ele>2460.399902344</ele>
        <time>2014-01-12T10:24:07Z</time>
      </trkpt>
      <trkpt lat="45.23524" lon="6.03873">
        <ele>2460.800048828</ele>
        <time>2014-01-12T10:24:14Z</time>
      </trkpt>
      <trkpt lat="45.23525" lon="6.03874">
        <ele>2461.600097656</ele>
        <time>2014-01-12T10:24:23Z</time>
      </trkpt>
      <trkpt lat="45.23526" lon="6.03875">
        <ele>2463</ele>
        <time>2014-01-12T10:24:30Z</time>
      </trkpt>
      <trkpt lat="45.23528" lon="6.03876">
        <ele>2464</ele>
        <time>2014-01-12T10:24:42Z</time>
      </trkpt>
      <trkpt lat="45.23529" lon="6.03876">
        <ele>2465.399902344</ele>
        <time>2014-01-12T10:25:04Z</time>
      </trkpt>
      <trkpt lat="45.2353" lon="6.03877">
        <ele>2466.600097656</ele>
        <time>2014-01-12T10:25:10Z</time>
      </trkpt>
      <trkpt lat="45.2353" lon="6.03877">
        <ele>2466.600097656</ele>
        <time>2014-01-12T10:25:13Z</time>
      </trkpt>
      <trkpt lat="45.23531" lon="6.03878">
        <ele>2467.600097656</ele>
        <time>2014-01-12T10:25:19Z</time>
      </trkpt>
      <trkpt lat="45.23534" lon="6.03878">
        <ele>2469.600097656</ele>
        <time>2014-01-12T10:25:30Z</time>
      </trkpt>
      <trkpt lat="45.23535" lon="6.03878">
        <ele>2471</ele>
        <time>2014-01-12T10:25:36Z</time>
      </trkpt>
      <trkpt lat="45.23537" lon="6.03877">
        <ele>2472.399902344</ele>
        <time>2014-01-12T10:25:47Z</time>
      </trkpt>
      <trkpt lat="45.23538" lon="6.03878">
        <ele>2473</ele>
        <time>2014-01-12T10:25:51Z</time>
      </trkpt>
      <trkpt lat="45.23538" lon="6.03878">
        <ele>2473.600097656</ele>
        <time>2014-01-12T10:25:58Z</time>
      </trkpt>
      <trkpt lat="45.23539" lon="6.03877">
        <ele>2474.199951172</ele>
        <time>2014-01-12T10:26:07Z</time>
      </trkpt>
      <trkpt lat="45.2354" lon="6.03875">
        <ele>2474.199951172</ele>
        <time>2014-01-12T10:26:31Z</time>
      </trkpt>
      <trkpt lat="45.23541" lon="6.03874">
        <ele>2475.199951172</ele>
        <time>2014-01-12T10:26:39Z</time>
      </trkpt>
      <trkpt lat="45.23541" lon="6.03873">
        <ele>2475.199951172</ele>
        <time>2014-01-12T10:26:40Z</time>
      </trkpt>
      <trkpt lat="45.23543" lon="6.03873">
        <ele>2476</ele>
        <time>2014-01-12T10:26:46Z</time>
      </trkpt>
      <trkpt lat="45.23545" lon="6.03872">
        <ele>2477.600097656</ele>
        <time>2014-01-12T10:26:54Z</time>
      </trkpt>
      <trkpt lat="45.23545" lon="6.03872">
        <ele>2478.199951172</ele>
        <time>2014-01-12T10:27:00Z</time>
      </trkpt>
      <trkpt lat="45.23547" lon="6.03871">
        <ele>2479.199951172</ele>
        <time>2014-01-12T10:27:06Z</time>
      </trkpt>
      <trkpt lat="45.23548" lon="6.0387">
        <ele>2479.600097656</ele>
        <time>2014-01-12T10:27:12Z</time>
      </trkpt>
      <trkpt lat="45.2355" lon="6.03869">
        <ele>2481</ele>
        <time>2014-01-12T10:27:21Z</time>
      </trkpt>
      <trkpt lat="45.23552" lon="6.03869">
        <ele>2482.600097656</ele>
        <time>2014-01-12T10:27:27Z</time>
      </trkpt>
      <trkpt lat="45.23553" lon="6.03868">
        <ele>2483.399902344</ele>
        <time>2014-01-12T10:27:32Z</time>
      </trkpt>
      <trkpt lat="45.23554" lon="6.03868">
        <ele>2484.399902344</ele>
        <time>2014-01-12T10:27:39Z</time>
      </trkpt>
      <trkpt lat="45.23556" lon="6.03867">
        <ele>2485.399902344</ele>
        <time>2014-01-12T10:27:44Z</time>
      </trkpt>
      <trkpt lat="45.23557" lon="6.03867">
        <ele>2486.199951172</ele>
        <time>2014-01-12T10:27:49Z</time>
      </trkpt>
      <trkpt lat="45.23559" lon="6.03866">
        <ele>2487.800048828</ele>
        <time>2014-01-12T10:27:56Z</time>
      </trkpt>
      <trkpt lat="45.23561" lon="6.03866">
        <ele>2488.800048828</ele>
        <time>2014-01-12T10:28:02Z</time>
      </trkpt>
      <trkpt lat="45.23561" lon="6.03864">
        <ele>2488.600097656</ele>
        <time>2014-01-12T10:28:18Z</time>
      </trkpt>
      <trkpt lat="45.23561" lon="6.03865">
        <ele>2488.800048828</ele>
        <time>2014-01-12T10:28:23Z</time>
      </trkpt>
      <trkpt lat="45.23561" lon="6.03864">
        <ele>2488</ele>
        <time>2014-01-12T10:28:27Z</time>
      </trkpt>
      <trkpt lat="45.23561" lon="6.03865">
        <ele>2489.199951172</ele>
        <time>2014-01-12T10:28:33Z</time>
      </trkpt>
      <trkpt lat="45.23562" lon="6.03866">
        <ele>2489.399902344</ele>
        <time>2014-01-12T10:28:38Z</time>
      </trkpt>
      <trkpt lat="45.23562" lon="6.03865">
        <ele>2489.399902344</ele>
        <time>2014-01-12T10:28:43Z</time>
      </trkpt>
      <trkpt lat="45.23562" lon="6.03865">
        <ele>2489.399902344</ele>
        <time>2014-01-12T10:28:45Z</time>
      </trkpt>
      <trkpt lat="45.23562" lon="6.03866">
        <ele>2489.399902344</ele>
        <time>2014-01-12T10:28:47Z</time>
      </trkpt>
      <trkpt lat="45.23562" lon="6.03865">
        <ele>2489.399902344</ele>
        <time>2014-01-12T10:28:54Z</time>
      </trkpt>
      <trkpt lat="45.23562" lon="6.03864">
        <ele>2489.199951172</ele>
        <time>2014-01-12T10:29:04Z</time>
      </trkpt>
      <trkpt lat="45.23563" lon="6.03864">
        <ele>2489.800048828</ele>
        <time>2014-01-12T10:29:05Z</time>
      </trkpt>
      <trkpt lat="45.23566" lon="6.03864">
        <ele>2492</ele>
        <time>2014-01-12T10:29:09Z</time>
      </trkpt>
      <trkpt lat="45.23567" lon="6.03864">
        <ele>2493</ele>
        <time>2014-01-12T10:29:11Z</time>
      </trkpt>
      <trkpt lat="45.23568" lon="6.03865">
        <ele>2494.199951172</ele>
        <time>2014-01-12T10:29:13Z</time>
      </trkpt>
      <trkpt lat="45.23568" lon="6.03864">
        <ele>2493.600097656</ele>
        <time>2014-01-12T10:29:14Z</time>
      </trkpt>
      <trkpt lat="45.23568" lon="6.03864">
        <ele>2493.600097656</ele>
        <time>2014-01-12T10:29:16Z</time>
      </trkpt>
      <trkpt lat="45.23567" lon="6.03864">
        <ele>2493.600097656</ele>
        <time>2014-01-12T10:29:18Z</time>
      </trkpt>
      <trkpt lat="45.23567" lon="6.03864">
        <ele>2493.600097656</ele>
        <time>2014-01-12T10:29:19Z</time>
      </trkpt>
      <trkpt lat="45.23567" lon="6.03865">
        <ele>2493.600097656</ele>
        <time>2014-01-12T10:29:24Z</time>
      </trkpt>
      <trkpt lat="45.23567" lon="6.03865">
        <ele>2493.600097656</ele>
        <time>2014-01-12T10:29:36Z</time>
      </trkpt>
      <trkpt lat="45.23567" lon="6.03865">
        <ele>2493.600097656</ele>
        <time>2014-01-12T10:29:42Z</time>
      </trkpt>
      <trkpt lat="45.23567" lon="6.03866">
        <ele>2494</ele>
        <time>2014-01-12T10:29:49Z</time>
      </trkpt>
      <trkpt lat="45.2357" lon="6.03866">
        <ele>2496.199951172</ele>
        <time>2014-01-12T10:29:56Z</time>
      </trkpt>
      <trkpt lat="45.23576" lon="6.03869">
        <ele>2501.800048828</ele>
        <time>2014-01-12T10:30:04Z</time>
      </trkpt>
      <trkpt lat="45.2358" lon="6.0387">
        <ele>2505.600097656</ele>
        <time>2014-01-12T10:30:10Z</time>
      </trkpt>
      <trkpt lat="45.23581" lon="6.03872">
        <ele>2507.800048828</ele>
        <time>2014-01-12T10:30:13Z</time>
      </trkpt>
      <trkpt lat="45.23583" lon="6.03873">
        <ele>2509</ele>
        <time>2014-01-12T10:30:15Z</time>
      </trkpt>
      <trkpt lat="45.23583" lon="6.03874">
        <ele>2509.800048828</ele>
        <time>2014-01-12T10:30:16Z</time>
      </trkpt>
      <trkpt lat="45.23584" lon="6.03874">
        <ele>2510.199951172</ele>
        <time>2014-01-12T10:30:17Z</time>
      </trkpt>
      <trkpt lat="45.23586" lon="6.03879">
        <ele>2511.600097656</ele>
        <time>2014-01-12T10:30:23Z</time>
      </trkpt>
      <trkpt lat="45.23587" lon="6.03881">
        <ele>2512.600097656</ele>
        <time>2014-01-12T10:30:25Z</time>
      </trkpt>
      <trkpt lat="45.23589" lon="6.03885">
        <ele>2514</ele>
        <time>2014-01-12T10:30:30Z</time>
      </trkpt>
      <trkpt lat="45.23592" lon="6.03887">
        <ele>2514.600097656</ele>
        <time>2014-01-12T10:30:35Z</time>
      </trkpt>
      <trkpt lat="45.23596" lon="6.0389">
        <ele>2515.399902344</ele>
        <time>2014-01-12T10:30:40Z</time>
      </trkpt>
      <trkpt lat="45.23604" lon="6.03894">
        <ele>2516.199951172</ele>
        <time>2014-01-12T10:30:46Z</time>
      </trkpt>
      <trkpt lat="45.23612" lon="6.03896">
        <ele>2516.600097656</ele>
        <time>2014-01-12T10:30:52Z</time>
      </trkpt>
      <trkpt lat="45.23617" lon="6.03898">
        <ele>2516.600097656</ele>
        <time>2014-01-12T10:30:57Z</time>
      </trkpt>
      <trkpt lat="45.23627" lon="6.03902">
        <ele>2517.399902344</ele>
        <time>2014-01-12T10:31:04Z</time>
      </trkpt>
      <trkpt lat="45.23636" lon="6.03908">
        <ele>2519.600097656</ele>
        <time>2014-01-12T10:31:11Z</time>
      </trkpt>
      <trkpt lat="45.23641" lon="6.03914">
        <ele>2521.800048828</ele>
        <time>2014-01-12T10:31:18Z</time>
      </trkpt>
      <trkpt lat="45.23642" lon="6.03916">
        <ele>2522.600097656</ele>
        <time>2014-01-12T10:31:20Z</time>
      </trkpt>
      <trkpt lat="45.23643" lon="6.03917">
        <ele>2523</ele>
        <time>2014-01-12T10:31:23Z</time>
      </trkpt>
      <trkpt lat="45.23644" lon="6.03919">
        <ele>2523.600097656</ele>
        <time>2014-01-12T10:31:25Z</time>
      </trkpt>
      <trkpt lat="45.23646" lon="6.03922">
        <ele>2524.199951172</ele>
        <time>2014-01-12T10:31:29Z</time>
      </trkpt>
      <trkpt lat="45.23649" lon="6.03925">
        <ele>2525</ele>
        <time>2014-01-12T10:31:34Z</time>
      </trkpt>
      <trkpt lat="45.23651" lon="6.03927">
        <ele>2525.600097656</ele>
        <time>2014-01-12T10:31:38Z</time>
      </trkpt>
      <trkpt lat="45.23654" lon="6.03931">
        <ele>2526.600097656</ele>
        <time>2014-01-12T10:31:44Z</time>
      </trkpt>
      <trkpt lat="45.23657" lon="6.03934">
        <ele>2527.600097656</ele>
        <time>2014-01-12T10:31:49Z</time>
      </trkpt>
      <trkpt lat="45.23657" lon="6.03934">
        <ele>2527.600097656</ele>
        <time>2014-01-12T10:31:50Z</time>
      </trkpt>
      <trkpt lat="45.23658" lon="6.03936">
        <ele>2528.399902344</ele>
        <time>2014-01-12T10:31:54Z</time>
      </trkpt>
      <trkpt lat="45.23661" lon="6.03938">
        <ele>2529</ele>
        <time>2014-01-12T10:31:59Z</time>
      </trkpt>
      <trkpt lat="45.23662" lon="6.03941">
        <ele>2530</ele>
        <time>2014-01-12T10:32:04Z</time>
      </trkpt>
      <trkpt lat="45.23665" lon="6.03944">
        <ele>2531.199951172</ele>
        <time>2014-01-12T10:32:09Z</time>
      </trkpt>
      <trkpt lat="45.23667" lon="6.03946">
        <ele>2532</ele>
        <time>2014-01-12T10:32:13Z</time>
      </trkpt>
      <trkpt lat="45.23669" lon="6.03949">
        <ele>2533</ele>
        <time>2014-01-12T10:32:18Z</time>
      </trkpt>
      <trkpt lat="45.23673" lon="6.03953">
        <ele>2534.800048828</ele>
        <time>2014-01-12T10:32:26Z</time>
      </trkpt>
      <trkpt lat="45.23674" lon="6.03954">
        <ele>2535.399902344</ele>
        <time>2014-01-12T10:32:30Z</time>
      </trkpt>
      <trkpt lat="45.23676" lon="6.03956">
        <ele>2536.199951172</ele>
        <time>2014-01-12T10:32:35Z</time>
      </trkpt>
      <trkpt lat="45.23678" lon="6.03957">
        <ele>2536.600097656</ele>
        <time>2014-01-12T10:32:40Z</time>
      </trkpt>
      <trkpt lat="45.2368" lon="6.03958">
        <ele>2537</ele>
        <time>2014-01-12T10:32:45Z</time>
      </trkpt>
      <trkpt lat="45.23681" lon="6.03959">
        <ele>2537.600097656</ele>
        <time>2014-01-12T10:32:50Z</time>
      </trkpt>
      <trkpt lat="45.23682" lon="6.0396">
        <ele>2537.800048828</ele>
        <time>2014-01-12T10:32:55Z</time>
      </trkpt>
      <trkpt lat="45.23684" lon="6.03961">
        <ele>2538.399902344</ele>
        <time>2014-01-12T10:33:01Z</time>
      </trkpt>
      <trkpt lat="45.23685" lon="6.03963">
        <ele>2539</ele>
        <time>2014-01-12T10:33:05Z</time>
      </trkpt>
      <trkpt lat="45.23687" lon="6.03965">
        <ele>2539.800048828</ele>
        <time>2014-01-12T10:33:10Z</time>
      </trkpt>
      <trkpt lat="45.23688" lon="6.03966">
        <ele>2540.399902344</ele>
        <time>2014-01-12T10:33:15Z</time>
      </trkpt>
      <trkpt lat="45.23689" lon="6.03968">
        <ele>2541</ele>
        <time>2014-01-12T10:33:19Z</time>
      </trkpt>
      <trkpt lat="45.23691" lon="6.03969">
        <ele>2541.399902344</ele>
        <time>2014-01-12T10:33:24Z</time>
      </trkpt>
      <trkpt lat="45.23692" lon="6.03969">
        <ele>2541.399902344</ele>
        <time>2014-01-12T10:33:28Z</time>
      </trkpt>
      <trkpt lat="45.23694" lon="6.03969">
        <ele>2541.399902344</ele>
        <time>2014-01-12T10:33:33Z</time>
      </trkpt>
      <trkpt lat="45.23696" lon="6.03968">
        <ele>2541.399902344</ele>
        <time>2014-01-12T10:33:37Z</time>
      </trkpt>
      <trkpt lat="45.23698" lon="6.03968">
        <ele>2541.399902344</ele>
        <time>2014-01-12T10:33:41Z</time>
      </trkpt>
      <trkpt lat="45.237" lon="6.03967">
        <ele>2541.199951172</ele>
        <time>2014-01-12T10:33:46Z</time>
      </trkpt>
      <trkpt lat="45.23701" lon="6.03967">
        <ele>2541.199951172</ele>
        <time>2014-01-12T10:33:50Z</time>
      </trkpt>
      <trkpt lat="45.23703" lon="6.03967">
        <ele>2541.199951172</ele>
        <time>2014-01-12T10:33:54Z</time>
      </trkpt>
      <trkpt lat="45.23707" lon="6.03967">
        <ele>2541.399902344</ele>
        <time>2014-01-12T10:34:00Z</time>
      </trkpt>
      <trkpt lat="45.23709" lon="6.03967">
        <ele>2541.600097656</ele>
        <time>2014-01-12T10:34:05Z</time>
      </trkpt>
      <trkpt lat="45.23712" lon="6.03967">
        <ele>2541.800048828</ele>
        <time>2014-01-12T10:34:12Z</time>
      </trkpt>
      <trkpt lat="45.23713" lon="6.03967">
        <ele>2541.800048828</ele>
        <time>2014-01-12T10:34:20Z</time>
      </trkpt>
      <trkpt lat="45.23714" lon="6.03969">
        <ele>2542.399902344</ele>
        <time>2014-01-12T10:34:31Z</time>
      </trkpt>
      <trkpt lat="45.23717" lon="6.0397">
        <ele>2543</ele>
        <time>2014-01-12T10:34:35Z</time>
      </trkpt>
      <trkpt lat="45.2372" lon="6.03971">
        <ele>2543.399902344</ele>
        <time>2014-01-12T10:34:39Z</time>
      </trkpt>
      <trkpt lat="45.23722" lon="6.03972">
        <ele>2543.600097656</ele>
        <time>2014-01-12T10:34:42Z</time>
      </trkpt>
      <trkpt lat="45.23725" lon="6.03973">
        <ele>2544.399902344</ele>
        <time>2014-01-12T10:34:47Z</time>
      </trkpt>
      <trkpt lat="45.23728" lon="6.03974">
        <ele>2544.600097656</ele>
        <time>2014-01-12T10:34:51Z</time>
      </trkpt>
      <trkpt lat="45.23732" lon="6.03975">
        <ele>2545.199951172</ele>
        <time>2014-01-12T10:34:57Z</time>
      </trkpt>
      <trkpt lat="45.23737" lon="6.03975">
        <ele>2545.600097656</ele>
        <time>2014-01-12T10:35:03Z</time>
      </trkpt>
      <trkpt lat="45.23739" lon="6.03976">
        <ele>2545.800048828</ele>
        <time>2014-01-12T10:35:08Z</time>
      </trkpt>
      <trkpt lat="45.23743" lon="6.03977">
        <ele>2546.199951172</ele>
        <time>2014-01-12T10:35:13Z</time>
      </trkpt>
      <trkpt lat="45.23746" lon="6.03978">
        <ele>2546.600097656</ele>
        <time>2014-01-12T10:35:17Z</time>
      </trkpt>
      <trkpt lat="45.23747" lon="6.03978">
        <ele>2546.600097656</ele>
        <time>2014-01-12T10:35:19Z</time>
      </trkpt>
      <trkpt lat="45.23749" lon="6.03979">
        <ele>2547</ele>
        <time>2014-01-12T10:35:23Z</time>
      </trkpt>
      <trkpt lat="45.23752" lon="6.03979">
        <ele>2547.800048828</ele>
        <time>2014-01-12T10:35:29Z</time>
      </trkpt>
      <trkpt lat="45.23754" lon="6.0398">
        <ele>2548.600097656</ele>
        <time>2014-01-12T10:35:33Z</time>
      </trkpt>
      <trkpt lat="45.23756" lon="6.0398">
        <ele>2549.199951172</ele>
        <time>2014-01-12T10:35:37Z</time>
      </trkpt>
      <trkpt lat="45.23758" lon="6.03981">
        <ele>2549.800048828</ele>
        <time>2014-01-12T10:35:41Z</time>
      </trkpt>
      <trkpt lat="45.2376" lon="6.03981">
        <ele>2550.399902344</ele>
        <time>2014-01-12T10:35:45Z</time>
      </trkpt>
      <trkpt lat="45.23763" lon="6.03982">
        <ele>2551.399902344</ele>
        <time>2014-01-12T10:35:49Z</time>
      </trkpt>
      <trkpt lat="45.23765" lon="6.03982">
        <ele>2551.800048828</ele>
        <time>2014-01-12T10:35:53Z</time>
      </trkpt>
      <trkpt lat="45.23767" lon="6.03983">
        <ele>2552.600097656</ele>
        <time>2014-01-12T10:35:57Z</time>
      </trkpt>
      <trkpt lat="45.2377" lon="6.03983">
        <ele>2553.199951172</ele>
        <time>2014-01-12T10:36:01Z</time>
      </trkpt>
      <trkpt lat="45.23772" lon="6.03982">
        <ele>2553.600097656</ele>
        <time>2014-01-12T10:36:06Z</time>
      </trkpt>
      <trkpt lat="45.23776" lon="6.03984">
        <ele>2555.199951172</ele>
        <time>2014-01-12T10:36:12Z</time>
      </trkpt>
      <trkpt lat="45.23779" lon="6.03985">
        <ele>2556.399902344</ele>
        <time>2014-01-12T10:36:17Z</time>
      </trkpt>
      <trkpt lat="45.2378" lon="6.03987">
        <ele>2557</ele>
        <time>2014-01-12T10:36:35Z</time>
      </trkpt>
      <trkpt lat="45.2378" lon="6.03986">
        <ele>2556.800048828</ele>
        <time>2014-01-12T10:36:37Z</time>
      </trkpt>
      <trkpt lat="45.2378" lon="6.03986">
        <ele>2557</ele>
        <time>2014-01-12T10:36:40Z</time>
      </trkpt>
      <trkpt lat="45.23779" lon="6.03986">
        <ele>2557</ele>
        <time>2014-01-12T10:36:44Z</time>
      </trkpt>
      <trkpt lat="45.2378" lon="6.03988">
        <ele>2557.800048828</ele>
        <time>2014-01-12T10:36:53Z</time>
      </trkpt>
      <trkpt lat="45.2378" lon="6.03987">
        <ele>2557.199951172</ele>
        <time>2014-01-12T10:37:08Z</time>
      </trkpt>
      <trkpt lat="45.2378" lon="6.03987">
        <ele>2557.399902344</ele>
        <time>2014-01-12T10:37:14Z</time>
      </trkpt>
      <trkpt lat="45.23781" lon="6.03987">
        <ele>2557.399902344</ele>
        <time>2014-01-12T10:37:27Z</time>
      </trkpt>
      <trkpt lat="45.23784" lon="6.03988">
        <ele>2558.600097656</ele>
        <time>2014-01-12T10:37:37Z</time>
      </trkpt>
      <trkpt lat="45.23787" lon="6.03989">
        <ele>2560</ele>
        <time>2014-01-12T10:37:42Z</time>
      </trkpt>
      <trkpt lat="45.2379" lon="6.03991">
        <ele>2561.199951172</ele>
        <time>2014-01-12T10:37:47Z</time>
      </trkpt>
      <trkpt lat="45.23792" lon="6.03991">
        <ele>2562</ele>
        <time>2014-01-12T10:37:51Z</time>
      </trkpt>
      <trkpt lat="45.23795" lon="6.03992">
        <ele>2563</ele>
        <time>2014-01-12T10:37:56Z</time>
      </trkpt>
      <trkpt lat="45.23795" lon="6.03992">
        <ele>2563</ele>
        <time>2014-01-12T10:37:57Z</time>
      </trkpt>
      <trkpt lat="45.23797" lon="6.03992">
        <ele>2563.399902344</ele>
        <time>2014-01-12T10:38:00Z</time>
      </trkpt>
      <trkpt lat="45.23797" lon="6.03992">
        <ele>2563.600097656</ele>
        <time>2014-01-12T10:38:01Z</time>
      </trkpt>
      <trkpt lat="45.23799" lon="6.03991">
        <ele>2563.600097656</ele>
        <time>2014-01-12T10:38:05Z</time>
      </trkpt>
      <trkpt lat="45.23801" lon="6.03989">
        <ele>2563.600097656</ele>
        <time>2014-01-12T10:38:09Z</time>
      </trkpt>
      <trkpt lat="45.23803" lon="6.03988">
        <ele>2563.600097656</ele>
        <time>2014-01-12T10:38:13Z</time>
      </trkpt>
      <trkpt lat="45.23805" lon="6.03986">
        <ele>2563.199951172</ele>
        <time>2014-01-12T10:38:18Z</time>
      </trkpt>
      <trkpt lat="45.23807" lon="6.03986">
        <ele>2563.600097656</ele>
        <time>2014-01-12T10:38:22Z</time>
      </trkpt>
      <trkpt lat="45.23809" lon="6.03985">
        <ele>2563.800048828</ele>
        <time>2014-01-12T10:38:26Z</time>
      </trkpt>
      <trkpt lat="45.23811" lon="6.03984">
        <ele>2564</ele>
        <time>2014-01-12T10:38:30Z</time>
      </trkpt>
      <trkpt lat="45.23813" lon="6.03983">
        <ele>2564</ele>
        <time>2014-01-12T10:38:34Z</time>
      </trkpt>
      <trkpt lat="45.23814" lon="6.03983">
        <ele>2564.399902344</ele>
        <time>2014-01-12T10:38:38Z</time>
      </trkpt>
      <trkpt lat="45.23814" lon="6.03986">
        <ele>2565.600097656</ele>
        <time>2014-01-12T10:38:44Z</time>
      </trkpt>
      <trkpt lat="45.23813" lon="6.03989">
        <ele>2566.600097656</ele>
        <time>2014-01-12T10:38:49Z</time>
      </trkpt>
      <trkpt lat="45.23812" lon="6.03994">
        <ele>2568.399902344</ele>
        <time>2014-01-12T10:38:55Z</time>
      </trkpt>
      <trkpt lat="45.23811" lon="6.03996">
        <ele>2569.199951172</ele>
        <time>2014-01-12T10:38:59Z</time>
      </trkpt>
      <trkpt lat="45.2381" lon="6.03999">
        <ele>2570.199951172</ele>
        <time>2014-01-12T10:39:05Z</time>
      </trkpt>
      <trkpt lat="45.2381" lon="6.04001">
        <ele>2570.600097656</ele>
        <time>2014-01-12T10:39:09Z</time>
      </trkpt>
      <trkpt lat="45.23809" lon="6.04003">
        <ele>2570.399902344</ele>
        <time>2014-01-12T10:39:15Z</time>
      </trkpt>
      <trkpt lat="45.2381" lon="6.04003">
        <ele>2570.600097656</ele>
        <time>2014-01-12T10:39:23Z</time>
      </trkpt>
      <trkpt lat="45.23813" lon="6.04001">
        <ele>2571.399902344</ele>
        <time>2014-01-12T10:39:32Z</time>
      </trkpt>
      <trkpt lat="45.23815" lon="6.03999">
        <ele>2571.600097656</ele>
        <time>2014-01-12T10:39:38Z</time>
      </trkpt>
      <trkpt lat="45.23814" lon="6.04004">
        <ele>2571.800048828</ele>
        <time>2014-01-12T10:39:50Z</time>
      </trkpt>
      <trkpt lat="45.23813" lon="6.04006">
        <ele>2571.800048828</ele>
        <time>2014-01-12T10:39:55Z</time>
      </trkpt>
      <trkpt lat="45.23812" lon="6.04008">
        <ele>2571.600097656</ele>
        <time>2014-01-12T10:40:03Z</time>
      </trkpt>
      <trkpt lat="45.23812" lon="6.0401">
        <ele>2571.800048828</ele>
        <time>2014-01-12T10:40:08Z</time>
      </trkpt>
      <trkpt lat="45.23811" lon="6.04012">
        <ele>2571.600097656</ele>
        <time>2014-01-12T10:40:19Z</time>
      </trkpt>
      <trkpt lat="45.23812" lon="6.04011">
        <ele>2571.800048828</ele>
        <time>2014-01-12T10:40:27Z</time>
      </trkpt>
      <trkpt lat="45.23814" lon="6.04011">
        <ele>2572.199951172</ele>
        <time>2014-01-12T10:40:35Z</time>
      </trkpt>
      <trkpt lat="45.23815" lon="6.0401">
        <ele>2572.600097656</ele>
        <time>2014-01-12T10:40:39Z</time>
      </trkpt>
      <trkpt lat="45.23816" lon="6.04009">
        <ele>2572.800048828</ele>
        <time>2014-01-12T10:40:47Z</time>
      </trkpt>
      <trkpt lat="45.23817" lon="6.04009">
        <ele>2573</ele>
        <time>2014-01-12T10:40:53Z</time>
      </trkpt>
      <trkpt lat="45.23818" lon="6.04007">
        <ele>2573.199951172</ele>
        <time>2014-01-12T10:41:03Z</time>
      </trkpt>
      <trkpt lat="45.23819" lon="6.04007">
        <ele>2573.399902344</ele>
        <time>2014-01-12T10:41:11Z</time>
      </trkpt>
      <trkpt lat="45.23821" lon="6.04006">
        <ele>2574</ele>
        <time>2014-01-12T10:41:18Z</time>
      </trkpt>
      <trkpt lat="45.23826" lon="6.04005">
        <ele>2575.399902344</ele>
        <time>2014-01-12T10:41:34Z</time>
      </trkpt>
      <trkpt lat="45.23827" lon="6.04007">
        <ele>2575.600097656</ele>
        <time>2014-01-12T10:41:42Z</time>
      </trkpt>
      <trkpt lat="45.23826" lon="6.04008">
        <ele>2575.600097656</ele>
        <time>2014-01-12T10:41:48Z</time>
      </trkpt>
      <trkpt lat="45.23825" lon="6.0401">
        <ele>2575.399902344</ele>
        <time>2014-01-12T10:41:55Z</time>
      </trkpt>
      <trkpt lat="45.23825" lon="6.04012">
        <ele>2575.399902344</ele>
        <time>2014-01-12T10:42:03Z</time>
      </trkpt>
      <trkpt lat="45.23824" lon="6.04014">
        <ele>2575.399902344</ele>
        <time>2014-01-12T10:42:09Z</time>
      </trkpt>
      <trkpt lat="45.23824" lon="6.04016">
        <ele>2575.600097656</ele>
        <time>2014-01-12T10:42:17Z</time>
      </trkpt>
      <trkpt lat="45.23824" lon="6.04016">
        <ele>2575.600097656</ele>
        <time>2014-01-12T10:42:19Z</time>
      </trkpt>
      <trkpt lat="45.23824" lon="6.0402">
        <ele>2575.800048828</ele>
        <time>2014-01-12T10:42:38Z</time>
      </trkpt>
      <trkpt lat="45.23824" lon="6.04021">
        <ele>2575.800048828</ele>
        <time>2014-01-12T10:42:44Z</time>
      </trkpt>
      <trkpt lat="45.23825" lon="6.0402">
        <ele>2576</ele>
        <time>2014-01-12T10:43:01Z</time>
      </trkpt>
      <trkpt lat="45.23825" lon="6.0402">
        <ele>2576</ele>
        <time>2014-01-12T10:43:05Z</time>
      </trkpt>
      <trkpt lat="45.23826" lon="6.04019">
        <ele>2576.199951172</ele>
        <time>2014-01-12T10:43:11Z</time>
      </trkpt>
      <trkpt lat="45.23825" lon="6.04022">
        <ele>2576.199951172</ele>
        <time>2014-01-12T10:43:22Z</time>
      </trkpt>
      <trkpt lat="45.23825" lon="6.04024">
        <ele>2576.199951172</ele>
        <time>2014-01-12T10:43:27Z</time>
      </trkpt>
      <trkpt lat="45.23825" lon="6.04025">
        <ele>2576.199951172</ele>
        <time>2014-01-12T10:43:32Z</time>
      </trkpt>
      <trkpt lat="45.23823" lon="6.04028">
        <ele>2575.800048828</ele>
        <time>2014-01-12T10:43:39Z</time>
      </trkpt>
      <trkpt lat="45.23822" lon="6.04028">
        <ele>2575.600097656</ele>
        <time>2014-01-12T10:43:43Z</time>
      </trkpt>
      <trkpt lat="45.2382" lon="6.04029">
        <ele>2575</ele>
        <time>2014-01-12T10:43:48Z</time>
      </trkpt>
      <trkpt lat="45.23819" lon="6.04032">
        <ele>2575</ele>
        <time>2014-01-12T10:43:53Z</time>
      </trkpt>
      <trkpt lat="45.23821" lon="6.04033">
        <ele>2575.600097656</ele>
        <time>2014-01-12T10:44:02Z</time>
      </trkpt>
      <trkpt lat="45.23823" lon="6.04032">
        <ele>2576.199951172</ele>
        <time>2014-01-12T10:44:07Z</time>
      </trkpt>
      <trkpt lat="45.23825" lon="6.04032">
        <ele>2576.800048828</ele>
        <time>2014-01-12T10:44:12Z</time>
      </trkpt>
      <trkpt lat="45.23827" lon="6.04032">
        <ele>2577.199951172</ele>
        <time>2014-01-12T10:44:17Z</time>
      </trkpt>
      <trkpt lat="45.23828" lon="6.04031">
        <ele>2577.800048828</ele>
        <time>2014-01-12T10:44:23Z</time>
      </trkpt>
      <trkpt lat="45.2383" lon="6.04031">
        <ele>2578.399902344</ele>
        <time>2014-01-12T10:44:28Z</time>
      </trkpt>
      <trkpt lat="45.23832" lon="6.0403">
        <ele>2578.800048828</ele>
        <time>2014-01-12T10:44:33Z</time>
      </trkpt>
      <trkpt lat="45.23834" lon="6.04029">
        <ele>2579.199951172</ele>
        <time>2014-01-12T10:44:38Z</time>
      </trkpt>
      <trkpt lat="45.23836" lon="6.04029">
        <ele>2579.199951172</ele>
        <time>2014-01-12T10:44:44Z</time>
      </trkpt>
      <trkpt lat="45.23838" lon="6.04029">
        <ele>2579.199951172</ele>
        <time>2014-01-12T10:44:49Z</time>
      </trkpt>
      <trkpt lat="45.23839" lon="6.0403">
        <ele>2579.199951172</ele>
        <time>2014-01-12T10:44:54Z</time>
      </trkpt>
      <trkpt lat="45.23842" lon="6.04029">
        <ele>2579.199951172</ele>
        <time>2014-01-12T10:45:00Z</time>
      </trkpt>
      <trkpt lat="45.23842" lon="6.04031">
        <ele>2579.399902344</ele>
        <time>2014-01-12T10:45:04Z</time>
      </trkpt>
      <trkpt lat="45.23842" lon="6.04033">
        <ele>2579.600097656</ele>
        <time>2014-01-12T10:45:09Z</time>
      </trkpt>
      <trkpt lat="45.23841" lon="6.04034">
        <ele>2579.600097656</ele>
        <time>2014-01-12T10:45:14Z</time>
      </trkpt>
      <trkpt lat="45.23841" lon="6.04036">
        <ele>2579.800048828</ele>
        <time>2014-01-12T10:45:19Z</time>
      </trkpt>
      <trkpt lat="45.23842" lon="6.04041">
        <ele>2580.199951172</ele>
        <time>2014-01-12T10:45:25Z</time>
      </trkpt>
      <trkpt lat="45.23844" lon="6.04043">
        <ele>2580.600097656</ele>
        <time>2014-01-12T10:45:30Z</time>
      </trkpt>
      <trkpt lat="45.23847" lon="6.04043">
        <ele>2580.600097656</ele>
        <time>2014-01-12T10:45:36Z</time>
      </trkpt>
      <trkpt lat="45.23851" lon="6.04043">
        <ele>2580.800048828</ele>
        <time>2014-01-12T10:45:43Z</time>
      </trkpt>
      <trkpt lat="45.23853" lon="6.04043">
        <ele>2580.800048828</ele>
        <time>2014-01-12T10:45:47Z</time>
      </trkpt>
      <trkpt lat="45.23854" lon="6.04043">
        <ele>2581</ele>
        <time>2014-01-12T10:45:51Z</time>
      </trkpt>
      <trkpt lat="45.23857" lon="6.04043">
        <ele>2581</ele>
        <time>2014-01-12T10:45:56Z</time>
      </trkpt>
      <trkpt lat="45.23859" lon="6.04043">
        <ele>2581</ele>
        <time>2014-01-12T10:46:01Z</time>
      </trkpt>
      <trkpt lat="45.23861" lon="6.04044">
        <ele>2581.199951172</ele>
        <time>2014-01-12T10:46:05Z</time>
      </trkpt>
      <trkpt lat="45.23863" lon="6.04045">
        <ele>2581.399902344</ele>
        <time>2014-01-12T10:46:10Z</time>
      </trkpt>
      <trkpt lat="45.23865" lon="6.04045">
        <ele>2581.600097656</ele>
        <time>2014-01-12T10:46:15Z</time>
      </trkpt>
      <trkpt lat="45.23867" lon="6.04047">
        <ele>2581.800048828</ele>
        <time>2014-01-12T10:46:20Z</time>
      </trkpt>
      <trkpt lat="45.23867" lon="6.04044">
        <ele>2581.600097656</ele>
        <time>2014-01-12T10:46:33Z</time>
      </trkpt>
      <trkpt lat="45.23867" lon="6.04042">
        <ele>2581.199951172</ele>
        <time>2014-01-12T10:46:37Z</time>
      </trkpt>
      <trkpt lat="45.23867" lon="6.04039">
        <ele>2580.800048828</ele>
        <time>2014-01-12T10:46:43Z</time>
      </trkpt>
      <trkpt lat="45.23867" lon="6.04037">
        <ele>2580.600097656</ele>
        <time>2014-01-12T10:46:48Z</time>
      </trkpt>
      <trkpt lat="45.23866" lon="6.04037">
        <ele>2580.600097656</ele>
        <time>2014-01-12T10:46:56Z</time>
      </trkpt>
      <trkpt lat="45.23866" lon="6.04037">
        <ele>2580.600097656</ele>
        <time>2014-01-12T10:47:15Z</time>
      </trkpt>
      <trkpt lat="45.23865" lon="6.04035">
        <ele>2580.399902344</ele>
        <time>2014-01-12T10:47:20Z</time>
      </trkpt>
      <trkpt lat="45.23866" lon="6.04035">
        <ele>2580.399902344</ele>
        <time>2014-01-12T10:47:23Z</time>
      </trkpt>
      <trkpt lat="45.23866" lon="6.04034">
        <ele>2580.199951172</ele>
        <time>2014-01-12T10:47:25Z</time>
      </trkpt>
      <trkpt lat="45.23866" lon="6.04033">
        <ele>2580.199951172</ele>
        <time>2014-01-12T10:47:27Z</time>
      </trkpt>
      <trkpt lat="45.23866" lon="6.04032">
        <ele>2580</ele>
        <time>2014-01-12T10:47:40Z</time>
      </trkpt>
      <trkpt lat="45.23865" lon="6.04032">
        <ele>2580</ele>
        <time>2014-01-12T10:47:49Z</time>
      </trkpt>
      <trkpt lat="45.23865" lon="6.04032">
        <ele>2580</ele>
        <time>2014-01-12T10:47:52Z</time>
      </trkpt>
      <trkpt lat="45.23865" lon="6.04032">
        <ele>2580</ele>
        <time>2014-01-12T10:47:53Z</time>
      </trkpt>
      <trkpt lat="45.23865" lon="6.04032">
        <ele>2580</ele>
        <time>2014-01-12T10:47:54Z</time>
      </trkpt>
      <trkpt lat="45.23865" lon="6.04031">
        <ele>2580</ele>
        <time>2014-01-12T10:48:02Z</time>
      </trkpt>
      <trkpt lat="45.23866" lon="6.04032">
        <ele>2580</ele>
        <time>2014-01-12T10:48:04Z</time>
      </trkpt>
      <trkpt lat="45.23865" lon="6.04032">
        <ele>2580</ele>
        <time>2014-01-12T10:48:08Z</time>
      </trkpt>
      <trkpt lat="45.23866" lon="6.04031">
        <ele>2579.800048828</ele>
        <time>2014-01-12T10:48:13Z</time>
      </trkpt>
      <trkpt lat="45.23867" lon="6.04032">
        <ele>2580</ele>
        <time>2014-01-12T10:48:18Z</time>
      </trkpt>
      <trkpt lat="45.23867" lon="6.04032">
        <ele>2580</ele>
        <time>2014-01-12T10:48:21Z</time>
      </trkpt>
      <trkpt lat="45.23868" lon="6.04033">
        <ele>2580.199951172</ele>
        <time>2014-01-12T10:48:22Z</time>
      </trkpt>
      <trkpt lat="45.23869" lon="6.04032">
        <ele>2580.199951172</ele>
        <time>2014-01-12T10:48:26Z</time>
      </trkpt>
      <trkpt lat="45.23872" lon="6.04032">
        <ele>2580.199951172</ele>
        <time>2014-01-12T10:48:31Z</time>
      </trkpt>
      <trkpt lat="45.23872" lon="6.04033">
        <ele>2580.199951172</ele>
        <time>2014-01-12T10:48:36Z</time>
      </trkpt>
      <trkpt lat="45.23874" lon="6.04034">
        <ele>2580.399902344</ele>
        <time>2014-01-12T10:48:41Z</time>
      </trkpt>
      <trkpt lat="45.23875" lon="6.04035">
        <ele>2580.600097656</ele>
        <time>2014-01-12T10:48:43Z</time>
      </trkpt>
      <trkpt lat="45.23875" lon="6.04036">
        <ele>2580.800048828</ele>
        <time>2014-01-12T10:48:45Z</time>
      </trkpt>
      <trkpt lat="45.23875" lon="6.04038">
        <ele>2581</ele>
        <time>2014-01-12T10:48:48Z</time>
      </trkpt>
      <trkpt lat="45.23877" lon="6.0404">
        <ele>2581.399902344</ele>
        <time>2014-01-12T10:48:53Z</time>
      </trkpt>
      <trkpt lat="45.23877" lon="6.0404">
        <ele>2581.399902344</ele>
        <time>2014-01-12T10:49:04Z</time>
      </trkpt>
      <trkpt lat="45.23875" lon="6.04041">
        <ele>2581.399902344</ele>
        <time>2014-01-12T10:49:21Z</time>
      </trkpt>
      <trkpt lat="45.23874" lon="6.04041">
        <ele>2581.399902344</ele>
        <time>2014-01-12T10:49:26Z</time>
      </trkpt>
      <trkpt lat="45.23874" lon="6.04041">
        <ele>2581.399902344</ele>
        <time>2014-01-12T10:49:29Z</time>
      </trkpt>
      <trkpt lat="45.23874" lon="6.04041">
        <ele>2581.399902344</ele>
        <time>2014-01-12T10:49:33Z</time>
      </trkpt>
      <trkpt lat="45.23874" lon="6.04041">
        <ele>2581.399902344</ele>
        <time>2014-01-12T10:49:35Z</time>
      </trkpt>
      <trkpt lat="45.23873" lon="6.04041">
        <ele>2581.199951172</ele>
        <time>2014-01-12T10:49:49Z</time>
      </trkpt>
      <trkpt lat="45.23873" lon="6.0404">
        <ele>2581.199951172</ele>
        <time>2014-01-12T10:49:50Z</time>
      </trkpt>
      <trkpt lat="45.23872" lon="6.0404">
        <ele>2581.199951172</ele>
        <time>2014-01-12T10:50:00Z</time>
      </trkpt>
      <trkpt lat="45.23872" lon="6.0404">
        <ele>2581.199951172</ele>
        <time>2014-01-12T10:50:01Z</time>
      </trkpt>
      <trkpt lat="45.23872" lon="6.0404">
        <ele>2581.199951172</ele>
        <time>2014-01-12T10:50:02Z</time>
      </trkpt>
      <trkpt lat="45.23872" lon="6.0404">
        <ele>2581.199951172</ele>
        <time>2014-01-12T10:50:05Z</time>
      </trkpt>
      <trkpt lat="45.23872" lon="6.0404">
        <ele>2581.199951172</ele>
        <time>2014-01-12T10:50:20Z</time>
      </trkpt>
      <trkpt lat="45.23871" lon="6.0404">
        <ele>2581.199951172</ele>
        <time>2014-01-12T10:50:26Z</time>
      </trkpt>
      <trkpt lat="45.23869" lon="6.04037">
        <ele>2580.800048828</ele>
        <time>2014-01-12T10:50:34Z</time>
      </trkpt>
      <trkpt lat="45.23869" lon="6.04037">
        <ele>2580.800048828</ele>
        <time>2014-01-12T10:50:35Z</time>
      </trkpt>
      <trkpt lat="45.23867" lon="6.04035">
        <ele>2580.399902344</ele>
        <time>2014-01-12T10:50:40Z</time>
      </trkpt>
      <trkpt lat="45.23867" lon="6.04033">
        <ele>2580.199951172</ele>
        <time>2014-01-12T10:50:46Z</time>
      </trkpt>
      <trkpt lat="45.23867" lon="6.04033">
        <ele>2580.199951172</ele>
        <time>2014-01-12T10:50:50Z</time>
      </trkpt>
      <trkpt lat="45.23867" lon="6.04033">
        <ele>2580.199951172</ele>
        <time>2014-01-12T10:50:52Z</time>
      </trkpt>
      <trkpt lat="45.23868" lon="6.04033">
        <ele>2580.199951172</ele>
        <time>2014-01-12T10:51:04Z</time>
      </trkpt>
      <trkpt lat="45.23868" lon="6.04033">
        <ele>2580.199951172</ele>
        <time>2014-01-12T10:51:06Z</time>
      </trkpt>
      <trkpt lat="45.23868" lon="6.04033">
        <ele>2580.199951172</ele>
        <time>2014-01-12T10:51:09Z</time>
      </trkpt>
      <trkpt lat="45.23869" lon="6.04033">
        <ele>2580.199951172</ele>
        <time>2014-01-12T10:51:35Z</time>
      </trkpt>
      <trkpt lat="45.23869" lon="6.04034">
        <ele>2580.199951172</ele>
        <time>2014-01-12T10:51:37Z</time>
      </trkpt>
      <trkpt lat="45.23869" lon="6.04034">
        <ele>2580.199951172</ele>
        <time>2014-01-12T10:51:38Z</time>
      </trkpt>
      <trkpt lat="45.23869" lon="6.04034">
        <ele>2580.199951172</ele>
        <time>2014-01-12T10:51:41Z</time>
      </trkpt>
      <trkpt lat="45.23867" lon="6.04034">
        <ele>2580.199951172</ele>
        <time>2014-01-12T10:51:48Z</time>
      </trkpt>
      <trkpt lat="45.23866" lon="6.04033">
        <ele>2580.199951172</ele>
        <time>2014-01-12T10:51:53Z</time>
      </trkpt>
      <trkpt lat="45.23865" lon="6.04033">
        <ele>2580</ele>
        <time>2014-01-12T10:51:56Z</time>
      </trkpt>
      <trkpt lat="45.23864" lon="6.04032">
        <ele>2580</ele>
        <time>2014-01-12T10:51:58Z</time>
      </trkpt>
      <trkpt lat="45.23863" lon="6.04031">
        <ele>2579.800048828</ele>
        <time>2014-01-12T10:52:08Z</time>
      </trkpt>
      <trkpt lat="45.23862" lon="6.04031">
        <ele>2579.800048828</ele>
        <time>2014-01-12T10:52:21Z</time>
      </trkpt>
      <trkpt lat="45.23862" lon="6.0403">
        <ele>2579.800048828</ele>
        <time>2014-01-12T10:52:30Z</time>
      </trkpt>
      <trkpt lat="45.23862" lon="6.04029">
        <ele>2579.600097656</ele>
        <time>2014-01-12T10:52:37Z</time>
      </trkpt>
      <trkpt lat="45.23862" lon="6.04029">
        <ele>2579.600097656</ele>
        <time>2014-01-12T10:52:41Z</time>
      </trkpt>
      <trkpt lat="45.23861" lon="6.0403">
        <ele>2579.600097656</ele>
        <time>2014-01-12T10:52:50Z</time>
      </trkpt>
      <trkpt lat="45.23861" lon="6.04029">
        <ele>2579.600097656</ele>
        <time>2014-01-12T10:53:08Z</time>
      </trkpt>
      <trkpt lat="45.2386" lon="6.0403">
        <ele>2579.600097656</ele>
        <time>2014-01-12T10:53:26Z</time>
      </trkpt>
      <trkpt lat="45.23861" lon="6.0403">
        <ele>2579.600097656</ele>
        <time>2014-01-12T10:53:35Z</time>
      </trkpt>
      <trkpt lat="45.23861" lon="6.04029">
        <ele>2579.600097656</ele>
        <time>2014-01-12T10:53:41Z</time>
      </trkpt>
      <trkpt lat="45.2386" lon="6.04029">
        <ele>2579.600097656</ele>
        <time>2014-01-12T10:53:49Z</time>
      </trkpt>
      <trkpt lat="45.23861" lon="6.04029">
        <ele>2579.600097656</ele>
        <time>2014-01-12T10:53:58Z</time>
      </trkpt>
      <trkpt lat="45.23861" lon="6.04029">
        <ele>2579.600097656</ele>
        <time>2014-01-12T10:54:02Z</time>
      </trkpt>
      <trkpt lat="45.23861" lon="6.04029">
        <ele>2579.600097656</ele>
        <time>2014-01-12T10:54:14Z</time>
      </trkpt>
      <trkpt lat="45.23862" lon="6.04029">
        <ele>2579.600097656</ele>
        <time>2014-01-12T10:54:15Z</time>
      </trkpt>
      <trkpt lat="45.23862" lon="6.04029">
        <ele>2579.600097656</ele>
        <time>2014-01-12T10:54:16Z</time>
      </trkpt>
      <trkpt lat="45.23861" lon="6.04031">
        <ele>2579.800048828</ele>
        <time>2014-01-12T10:54:47Z</time>
      </trkpt>
      <trkpt lat="45.23861" lon="6.0403">
        <ele>2579.600097656</ele>
        <time>2014-01-12T10:55:08Z</time>
      </trkpt>
      <trkpt lat="45.23862" lon="6.0403">
        <ele>2579.600097656</ele>
        <time>2014-01-12T10:55:26Z</time>
      </trkpt>
      <trkpt lat="45.23862" lon="6.0403">
        <ele>2579.800048828</ele>
        <time>2014-01-12T10:55:29Z</time>
      </trkpt>
      <trkpt lat="45.23861" lon="6.0403">
        <ele>2579.800048828</ele>
        <time>2014-01-12T10:55:31Z</time>
      </trkpt>
      <trkpt lat="45.23861" lon="6.0403">
        <ele>2579.800048828</ele>
        <time>2014-01-12T10:55:33Z</time>
      </trkpt>
      <trkpt lat="45.23861" lon="6.0403">
        <ele>2579.600097656</ele>
        <time>2014-01-12T10:55:35Z</time>
      </trkpt>
      <trkpt lat="45.23861" lon="6.0403">
        <ele>2579.600097656</ele>
        <time>2014-01-12T10:55:42Z</time>
      </trkpt>
      <trkpt lat="45.23862" lon="6.0403">
        <ele>2579.600097656</ele>
        <time>2014-01-12T10:55:45Z</time>
      </trkpt>
      <trkpt lat="45.23862" lon="6.04029">
        <ele>2579.600097656</ele>
        <time>2014-01-12T10:55:47Z</time>
      </trkpt>
      <trkpt lat="45.23863" lon="6.0403">
        <ele>2579.600097656</ele>
        <time>2014-01-12T10:56:01Z</time>
      </trkpt>
      <trkpt lat="45.23863" lon="6.04029">
        <ele>2579.600097656</ele>
        <time>2014-01-12T10:56:06Z</time>
      </trkpt>
      <trkpt lat="45.23862" lon="6.04029">
        <ele>2579.600097656</ele>
        <time>2014-01-12T10:56:09Z</time>
      </trkpt>
      <trkpt lat="45.23863" lon="6.04029">
        <ele>2579.600097656</ele>
        <time>2014-01-12T10:56:18Z</time>
      </trkpt>
      <trkpt lat="45.23862" lon="6.04029">
        <ele>2579.600097656</ele>
        <time>2014-01-12T10:56:26Z</time>
      </trkpt>
      <trkpt lat="45.23862" lon="6.0403">
        <ele>2579.600097656</ele>
        <time>2014-01-12T10:56:34Z</time>
      </trkpt>
      <trkpt lat="45.23862" lon="6.04029">
        <ele>2579.600097656</ele>
        <time>2014-01-12T10:56:42Z</time>
      </trkpt>
      <trkpt lat="45.23861" lon="6.0403">
        <ele>2579.600097656</ele>
        <time>2014-01-12T10:56:44Z</time>
      </trkpt>
      <trkpt lat="45.23861" lon="6.04031">
        <ele>2579.800048828</ele>
        <time>2014-01-12T10:56:47Z</time>
      </trkpt>
      <trkpt lat="45.23861" lon="6.04031">
        <ele>2579.800048828</ele>
        <time>2014-01-12T10:56:48Z</time>
      </trkpt>
      <trkpt lat="45.23861" lon="6.0403">
        <ele>2579.600097656</ele>
        <time>2014-01-12T10:57:10Z</time>
      </trkpt>
      <trkpt lat="45.23861" lon="6.04028">
        <ele>2579.399902344</ele>
        <time>2014-01-12T10:57:42Z</time>
      </trkpt>
      <trkpt lat="45.23861" lon="6.04028">
        <ele>2579.399902344</ele>
        <time>2014-01-12T10:57:46Z</time>
      </trkpt>
      <trkpt lat="45.23861" lon="6.04028">
        <ele>2579.399902344</ele>
        <time>2014-01-12T10:57:58Z</time>
      </trkpt>
      <trkpt lat="45.23862" lon="6.04028">
        <ele>2579.600097656</ele>
        <time>2014-01-12T10:58:05Z</time>
      </trkpt>
      <trkpt lat="45.23862" lon="6.04029">
        <ele>2579.600097656</ele>
        <time>2014-01-12T10:58:09Z</time>
      </trkpt>
      <trkpt lat="45.23862" lon="6.04029">
        <ele>2579.600097656</ele>
        <time>2014-01-12T10:58:12Z</time>
      </trkpt>
      <trkpt lat="45.23862" lon="6.04029">
        <ele>2579.600097656</ele>
        <time>2014-01-12T10:58:14Z</time>
      </trkpt>
      <trkpt lat="45.23861" lon="6.04029">
        <ele>2579.600097656</ele>
        <time>2014-01-12T10:58:28Z</time>
      </trkpt>
      <trkpt lat="45.23861" lon="6.04029">
        <ele>2579.600097656</ele>
        <time>2014-01-12T10:58:35Z</time>
      </trkpt>
      <trkpt lat="45.23861" lon="6.04029">
        <ele>2579.600097656</ele>
        <time>2014-01-12T10:58:40Z</time>
      </trkpt>
      <trkpt lat="45.23861" lon="6.04029">
        <ele>2579.600097656</ele>
        <time>2014-01-12T10:58:41Z</time>
      </trkpt>
      <trkpt lat="45.23861" lon="6.04029">
        <ele>2579.600097656</ele>
        <time>2014-01-12T10:58:42Z</time>
      </trkpt>
      <trkpt lat="45.23861" lon="6.04029">
        <ele>2579.600097656</ele>
        <time>2014-01-12T10:58:44Z</time>
      </trkpt>
      <trkpt lat="45.23861" lon="6.04029">
        <ele>2579.600097656</ele>
        <time>2014-01-12T10:58:48Z</time>
      </trkpt>
      <trkpt lat="45.23861" lon="6.04029">
        <ele>2579.600097656</ele>
        <time>2014-01-12T10:58:50Z</time>
      </trkpt>
      <trkpt lat="45.23861" lon="6.04029">
        <ele>2579.600097656</ele>
        <time>2014-01-12T10:58:53Z</time>
      </trkpt>
      <trkpt lat="45.23861" lon="6.04029">
        <ele>2579.600097656</ele>
        <time>2014-01-12T10:58:56Z</time>
      </trkpt>
      <trkpt lat="45.23861" lon="6.04029">
        <ele>2579.600097656</ele>
        <time>2014-01-12T10:58:58Z</time>
      </trkpt>
      <trkpt lat="45.23861" lon="6.04031">
        <ele>2579.800048828</ele>
        <time>2014-01-12T10:59:20Z</time>
      </trkpt>
      <trkpt lat="45.23862" lon="6.0403">
        <ele>2579.800048828</ele>
        <time>2014-01-12T10:59:33Z</time>
      </trkpt>
      <trkpt lat="45.23862" lon="6.0403">
        <ele>2579.800048828</ele>
        <time>2014-01-12T10:59:35Z</time>
      </trkpt>
      <trkpt lat="45.23862" lon="6.0403">
        <ele>2579.600097656</ele>
        <time>2014-01-12T10:59:38Z</time>
      </trkpt>
      <trkpt lat="45.23862" lon="6.0403">
        <ele>2579.800048828</ele>
        <time>2014-01-12T10:59:43Z</time>
      </trkpt>
      <trkpt lat="45.23862" lon="6.0403">
        <ele>2579.600097656</ele>
        <time>2014-01-12T10:59:47Z</time>
      </trkpt>
      <trkpt lat="45.23862" lon="6.0403">
        <ele>2579.600097656</ele>
        <time>2014-01-12T10:59:49Z</time>
      </trkpt>
      <trkpt lat="45.23862" lon="6.0403">
        <ele>2579.800048828</ele>
        <time>2014-01-12T10:59:50Z</time>
      </trkpt>
      <trkpt lat="45.23862" lon="6.0403">
        <ele>2579.600097656</ele>
        <time>2014-01-12T10:59:51Z</time>
      </trkpt>
      <trkpt lat="45.23862" lon="6.04029">
        <ele>2579.600097656</ele>
        <time>2014-01-12T10:59:58Z</time>
      </trkpt>
      <trkpt lat="45.23862" lon="6.0403">
        <ele>2579.600097656</ele>
        <time>2014-01-12T11:00:03Z</time>
      </trkpt>
      <trkpt lat="45.23863" lon="6.04029">
        <ele>2579.600097656</ele>
        <time>2014-01-12T11:00:13Z</time>
      </trkpt>
      <trkpt lat="45.23863" lon="6.0403">
        <ele>2579.800048828</ele>
        <time>2014-01-12T11:00:17Z</time>
      </trkpt>
      <trkpt lat="45.23863" lon="6.04031">
        <ele>2579.800048828</ele>
        <time>2014-01-12T11:00:29Z</time>
      </trkpt>
      <trkpt lat="45.23862" lon="6.04034">
        <ele>2580.199951172</ele>
        <time>2014-01-12T11:00:40Z</time>
      </trkpt>
      <trkpt lat="45.23862" lon="6.04036">
        <ele>2580.399902344</ele>
        <time>2014-01-12T11:00:43Z</time>
      </trkpt>
      <trkpt lat="45.23863" lon="6.04038">
        <ele>2580.600097656</ele>
        <time>2014-01-12T11:00:46Z</time>
      </trkpt>
      <trkpt lat="45.23862" lon="6.04036">
        <ele>2580.399902344</ele>
        <time>2014-01-12T11:00:55Z</time>
      </trkpt>
      <trkpt lat="45.23861" lon="6.04036">
        <ele>2580.399902344</ele>
        <time>2014-01-12T11:00:56Z</time>
      </trkpt>
      <trkpt lat="45.23861" lon="6.04036">
        <ele>2580.399902344</ele>
        <time>2014-01-12T11:01:00Z</time>
      </trkpt>
      <trkpt lat="45.23861" lon="6.04037">
        <ele>2580.399902344</ele>
        <time>2014-01-12T11:01:17Z</time>
      </trkpt>
      <trkpt lat="45.23861" lon="6.04037">
        <ele>2580.399902344</ele>
        <time>2014-01-12T11:01:19Z</time>
      </trkpt>
      <trkpt lat="45.23861" lon="6.04037">
        <ele>2580.399902344</ele>
        <time>2014-01-12T11:01:27Z</time>
      </trkpt>
      <trkpt lat="45.23861" lon="6.04037">
        <ele>2580.399902344</ele>
        <time>2014-01-12T11:01:32Z</time>
      </trkpt>
      <trkpt lat="45.23861" lon="6.04037">
        <ele>2580.600097656</ele>
        <time>2014-01-12T11:01:33Z</time>
      </trkpt>
      <trkpt lat="45.23862" lon="6.04037">
        <ele>2580.600097656</ele>
        <time>2014-01-12T11:01:34Z</time>
      </trkpt>
      <trkpt lat="45.23862" lon="6.04037">
        <ele>2580.600097656</ele>
        <time>2014-01-12T11:01:38Z</time>
      </trkpt>
      <trkpt lat="45.23861" lon="6.04039">
        <ele>2580.600097656</ele>
        <time>2014-01-12T11:01:53Z</time>
      </trkpt>
      <trkpt lat="45.23858" lon="6.04044">
        <ele>2581.199951172</ele>
        <time>2014-01-12T11:01:55Z</time>
      </trkpt>
      <trkpt lat="45.23857" lon="6.04042">
        <ele>2580.800048828</ele>
        <time>2014-01-12T11:01:58Z</time>
      </trkpt>
      <trkpt lat="45.23857" lon="6.04041">
        <ele>2580.800048828</ele>
        <time>2014-01-12T11:02:12Z</time>
      </trkpt>
      <trkpt lat="45.23857" lon="6.04041">
        <ele>2580.800048828</ele>
        <time>2014-01-12T11:02:26Z</time>
      </trkpt>
      <trkpt lat="45.23858" lon="6.04041">
        <ele>2580.800048828</ele>
        <time>2014-01-12T11:02:31Z</time>
      </trkpt>
      <trkpt lat="45.23858" lon="6.04041">
        <ele>2580.800048828</ele>
        <time>2014-01-12T11:02:39Z</time>
      </trkpt>
      <trkpt lat="45.23857" lon="6.04041">
        <ele>2580.800048828</ele>
        <time>2014-01-12T11:02:52Z</time>
      </trkpt>
      <trkpt lat="45.23857" lon="6.0404">
        <ele>2580.600097656</ele>
        <time>2014-01-12T11:02:59Z</time>
      </trkpt>
      <trkpt lat="45.23857" lon="6.04039">
        <ele>2580.600097656</ele>
        <time>2014-01-12T11:03:01Z</time>
      </trkpt>
      <trkpt lat="45.23858" lon="6.04039">
        <ele>2580.600097656</ele>
        <time>2014-01-12T11:03:02Z</time>
      </trkpt>
      <trkpt lat="45.23858" lon="6.04038">
        <ele>2580.399902344</ele>
        <time>2014-01-12T11:03:17Z</time>
      </trkpt>
      <trkpt lat="45.23858" lon="6.04038">
        <ele>2580.399902344</ele>
        <time>2014-01-12T11:03:23Z</time>
      </trkpt>
      <trkpt lat="45.23858" lon="6.04038">
        <ele>2580.399902344</ele>
        <time>2014-01-12T11:03:30Z</time>
      </trkpt>
      <trkpt lat="45.23858" lon="6.04038">
        <ele>2580.399902344</ele>
        <time>2014-01-12T11:03:36Z</time>
      </trkpt>
      <trkpt lat="45.23858" lon="6.04038">
        <ele>2580.399902344</ele>
        <time>2014-01-12T11:03:39Z</time>
      </trkpt>
      <trkpt lat="45.23858" lon="6.04038">
        <ele>2580.600097656</ele>
        <time>2014-01-12T11:03:41Z</time>
      </trkpt>
      <trkpt lat="45.23858" lon="6.04038">
        <ele>2580.600097656</ele>
        <time>2014-01-12T11:03:42Z</time>
      </trkpt>
      <trkpt lat="45.23858" lon="6.04039">
        <ele>2580.600097656</ele>
        <time>2014-01-12T11:03:44Z</time>
      </trkpt>
      <trkpt lat="45.23858" lon="6.04039">
        <ele>2580.600097656</ele>
        <time>2014-01-12T11:03:47Z</time>
      </trkpt>
      <trkpt lat="45.23858" lon="6.04039">
        <ele>2580.600097656</ele>
        <time>2014-01-12T11:03:51Z</time>
      </trkpt>
      <trkpt lat="45.23859" lon="6.0404">
        <ele>2580.800048828</ele>
        <time>2014-01-12T11:03:55Z</time>
      </trkpt>
      <trkpt lat="45.23858" lon="6.04042">
        <ele>2580.800048828</ele>
        <time>2014-01-12T11:04:00Z</time>
      </trkpt>
      <trkpt lat="45.23858" lon="6.04042">
        <ele>2581</ele>
        <time>2014-01-12T11:04:03Z</time>
      </trkpt>
      <trkpt lat="45.23858" lon="6.04041">
        <ele>2580.800048828</ele>
        <time>2014-01-12T11:04:22Z</time>
      </trkpt>
      <trkpt lat="45.23858" lon="6.0404">
        <ele>2580.800048828</ele>
        <time>2014-01-12T11:04:29Z</time>
      </trkpt>
      <trkpt lat="45.23858" lon="6.0404">
        <ele>2580.600097656</ele>
        <time>2014-01-12T11:04:32Z</time>
      </trkpt>
      <trkpt lat="45.23858" lon="6.0404">
        <ele>2580.600097656</ele>
        <time>2014-01-12T11:04:33Z</time>
      </trkpt>
      <trkpt lat="45.23858" lon="6.04041">
        <ele>2580.800048828</ele>
        <time>2014-01-12T11:04:37Z</time>
      </trkpt>
      <trkpt lat="45.23858" lon="6.04041">
        <ele>2580.800048828</ele>
        <time>2014-01-12T11:04:40Z</time>
      </trkpt>
      <trkpt lat="45.23858" lon="6.0404">
        <ele>2580.800048828</ele>
        <time>2014-01-12T11:04:50Z</time>
      </trkpt>
      <trkpt lat="45.23858" lon="6.0404">
        <ele>2580.600097656</ele>
        <time>2014-01-12T11:04:53Z</time>
      </trkpt>
      <trkpt lat="45.23852" lon="6.04041">
        <ele>2580.600097656</ele>
        <time>2014-01-12T11:04:57Z</time>
      </trkpt>
      <trkpt lat="45.23839" lon="6.04041">
        <ele>2580.199951172</ele>
        <time>2014-01-12T11:05:00Z</time>
      </trkpt>
      <trkpt lat="45.23836" lon="6.04038">
        <ele>2579.800048828</ele>
        <time>2014-01-12T11:05:01Z</time>
      </trkpt>
      <trkpt lat="45.23836" lon="6.04035">
        <ele>2579.600097656</ele>
        <time>2014-01-12T11:05:03Z</time>
      </trkpt>
      <trkpt lat="45.23839" lon="6.04029">
        <ele>2579.199951172</ele>
        <time>2014-01-12T11:05:09Z</time>
      </trkpt>
      <trkpt lat="45.23839" lon="6.04027">
        <ele>2579</ele>
        <time>2014-01-12T11:05:10Z</time>
      </trkpt>
      <trkpt lat="45.23834" lon="6.04027">
        <ele>2579</ele>
        <time>2014-01-12T11:05:13Z</time>
      </trkpt>
      <trkpt lat="45.23831" lon="6.04027">
        <ele>2578.199951172</ele>
        <time>2014-01-12T11:05:15Z</time>
      </trkpt>
      <trkpt lat="45.23828" lon="6.04026">
        <ele>2577.199951172</ele>
        <time>2014-01-12T11:05:17Z</time>
      </trkpt>
      <trkpt lat="45.23827" lon="6.04024">
        <ele>2576.800048828</ele>
        <time>2014-01-12T11:05:18Z</time>
      </trkpt>
      <trkpt lat="45.23825" lon="6.0402">
        <ele>2576</ele>
        <time>2014-01-12T11:05:21Z</time>
      </trkpt>
      <trkpt lat="45.23823" lon="6.04017">
        <ele>2575.199951172</ele>
        <time>2014-01-12T11:05:24Z</time>
      </trkpt>
      <trkpt lat="45.23823" lon="6.04018">
        <ele>2575.199951172</ele>
        <time>2014-01-12T11:05:25Z</time>
      </trkpt>
      <trkpt lat="45.23821" lon="6.04017">
        <ele>2574.600097656</ele>
        <time>2014-01-12T11:05:26Z</time>
      </trkpt>
      <trkpt lat="45.23819" lon="6.04017">
        <ele>2574.199951172</ele>
        <time>2014-01-12T11:05:28Z</time>
      </trkpt>
      <trkpt lat="45.23817" lon="6.0401">
        <ele>2573</ele>
        <time>2014-01-12T11:05:32Z</time>
      </trkpt>
      <trkpt lat="45.23813" lon="6.04013">
        <ele>2572</ele>
        <time>2014-01-12T11:05:35Z</time>
      </trkpt>
      <trkpt lat="45.23813" lon="6.04012">
        <ele>2572.199951172</ele>
        <time>2014-01-12T11:05:41Z</time>
      </trkpt>
      <trkpt lat="45.23808" lon="6.0401">
        <ele>2570.399902344</ele>
        <time>2014-01-12T11:05:47Z</time>
      </trkpt>
      <trkpt lat="45.23809" lon="6.04005">
        <ele>2570.600097656</ele>
        <time>2014-01-12T11:05:50Z</time>
      </trkpt>
      <trkpt lat="45.23809" lon="6.04004">
        <ele>2570.600097656</ele>
        <time>2014-01-12T11:05:51Z</time>
      </trkpt>
      <trkpt lat="45.2381" lon="6.04002">
        <ele>2570.600097656</ele>
        <time>2014-01-12T11:05:52Z</time>
      </trkpt>
      <trkpt lat="45.2381" lon="6.03999">
        <ele>2570.199951172</ele>
        <time>2014-01-12T11:05:54Z</time>
      </trkpt>
      <trkpt lat="45.23811" lon="6.03998">
        <ele>2570</ele>
        <time>2014-01-12T11:06:00Z</time>
      </trkpt>
      <trkpt lat="45.23805" lon="6.03998">
        <ele>2568.600097656</ele>
        <time>2014-01-12T11:06:08Z</time>
      </trkpt>
      <trkpt lat="45.23803" lon="6.03997">
        <ele>2567.399902344</ele>
        <time>2014-01-12T11:06:09Z</time>
      </trkpt>
      <trkpt lat="45.23803" lon="6.03974">
        <ele>2557.399902344</ele>
        <time>2014-01-12T11:06:12Z</time>
      </trkpt>
      <trkpt lat="45.238" lon="6.03969">
        <ele>2554.800048828</ele>
        <time>2014-01-12T11:06:13Z</time>
      </trkpt>
      <trkpt lat="45.23793" lon="6.03977">
        <ele>2556.399902344</ele>
        <time>2014-01-12T11:06:15Z</time>
      </trkpt>
      <trkpt lat="45.23776" lon="6.03983">
        <ele>2554.800048828</ele>
        <time>2014-01-12T11:06:18Z</time>
      </trkpt>
      <trkpt lat="45.23772" lon="6.0397">
        <ele>2549</ele>
        <time>2014-01-12T11:06:21Z</time>
      </trkpt>
      <trkpt lat="45.23773" lon="6.03971">
        <ele>2550</ele>
        <time>2014-01-12T11:06:24Z</time>
      </trkpt>
      <trkpt lat="45.23779" lon="6.03978">
        <ele>2553.600097656</ele>
        <time>2014-01-12T11:06:44Z</time>
      </trkpt>
      <trkpt lat="45.23775" lon="6.03965">
        <ele>2547.600097656</ele>
        <time>2014-01-12T11:06:54Z</time>
      </trkpt>
      <trkpt lat="45.23763" lon="6.03946">
        <ele>2538.600097656</ele>
        <time>2014-01-12T11:06:57Z</time>
      </trkpt>
      <trkpt lat="45.23759" lon="6.03938">
        <ele>2535.199951172</ele>
        <time>2014-01-12T11:06:58Z</time>
      </trkpt>
      <trkpt lat="45.23753" lon="6.03917">
        <ele>2527.600097656</ele>
        <time>2014-01-12T11:07:01Z</time>
      </trkpt>
      <trkpt lat="45.23752" lon="6.03908">
        <ele>2523.800048828</ele>
        <time>2014-01-12T11:07:02Z</time>
      </trkpt>
      <trkpt lat="45.2375" lon="6.03898">
        <ele>2519.399902344</ele>
        <time>2014-01-12T11:07:04Z</time>
      </trkpt>
      <trkpt lat="45.23742" lon="6.03904">
        <ele>2521.199951172</ele>
        <time>2014-01-12T11:07:06Z</time>
      </trkpt>
      <trkpt lat="45.23732" lon="6.03898">
        <ele>2517.800048828</ele>
        <time>2014-01-12T11:07:09Z</time>
      </trkpt>
      <trkpt lat="45.2373" lon="6.03899">
        <ele>2518</ele>
        <time>2014-01-12T11:07:12Z</time>
      </trkpt>
      <trkpt lat="45.23704" lon="6.03897">
        <ele>2514.800048828</ele>
        <time>2014-01-12T11:07:15Z</time>
      </trkpt>
      <trkpt lat="45.23685" lon="6.0388">
        <ele>2504.800048828</ele>
        <time>2014-01-12T11:07:17Z</time>
      </trkpt>
      <trkpt lat="45.23676" lon="6.03857">
        <ele>2493.199951172</ele>
        <time>2014-01-12T11:07:20Z</time>
      </trkpt>
      <trkpt lat="45.23684" lon="6.03846">
        <ele>2488.800048828</ele>
        <time>2014-01-12T11:07:23Z</time>
      </trkpt>
      <trkpt lat="45.23682" lon="6.03843">
        <ele>2487</ele>
        <time>2014-01-12T11:07:24Z</time>
      </trkpt>
      <trkpt lat="45.23676" lon="6.03837">
        <ele>2483</ele>
        <time>2014-01-12T11:07:26Z</time>
      </trkpt>
      <trkpt lat="45.23678" lon="6.03832">
        <ele>2481.399902344</ele>
        <time>2014-01-12T11:07:28Z</time>
      </trkpt>
      <trkpt lat="45.23681" lon="6.03832">
        <ele>2481.800048828</ele>
        <time>2014-01-12T11:07:29Z</time>
      </trkpt>
      <trkpt lat="45.23683" lon="6.03823">
        <ele>2478.800048828</ele>
        <time>2014-01-12T11:07:32Z</time>
      </trkpt>
      <trkpt lat="45.23695" lon="6.03824">
        <ele>2480.800048828</ele>
        <time>2014-01-12T11:07:34Z</time>
      </trkpt>
      <trkpt lat="45.23695" lon="6.03826">
        <ele>2481.600097656</ele>
        <time>2014-01-12T11:07:37Z</time>
      </trkpt>
      <trkpt lat="45.23692" lon="6.03822">
        <ele>2479.800048828</ele>
        <time>2014-01-12T11:07:45Z</time>
      </trkpt>
      <trkpt lat="45.23693" lon="6.03825">
        <ele>2481</ele>
        <time>2014-01-12T11:07:56Z</time>
      </trkpt>
      <trkpt lat="45.23693" lon="6.03825">
        <ele>2481.199951172</ele>
        <time>2014-01-12T11:08:03Z</time>
      </trkpt>
      <trkpt lat="45.23694" lon="6.03826">
        <ele>2481.600097656</ele>
        <time>2014-01-12T11:08:10Z</time>
      </trkpt>
      <trkpt lat="45.23694" lon="6.03826">
        <ele>2481.600097656</ele>
        <time>2014-01-12T11:08:15Z</time>
      </trkpt>
      <trkpt lat="45.23696" lon="6.03822">
        <ele>2480.399902344</ele>
        <time>2014-01-12T11:08:17Z</time>
      </trkpt>
      <trkpt lat="45.23692" lon="6.03817">
        <ele>2478</ele>
        <time>2014-01-12T11:08:19Z</time>
      </trkpt>
      <trkpt lat="45.23685" lon="6.03792">
        <ele>2467.800048828</ele>
        <time>2014-01-12T11:08:22Z</time>
      </trkpt>
      <trkpt lat="45.23678" lon="6.03786">
        <ele>2464.399902344</ele>
        <time>2014-01-12T11:08:23Z</time>
      </trkpt>
      <trkpt lat="45.23659" lon="6.03766">
        <ele>2456.800048828</ele>
        <time>2014-01-12T11:08:26Z</time>
      </trkpt>
      <trkpt lat="45.23654" lon="6.03758">
        <ele>2454.800048828</ele>
        <time>2014-01-12T11:08:27Z</time>
      </trkpt>
      <trkpt lat="45.23648" lon="6.03753">
        <ele>2454.199951172</ele>
        <time>2014-01-12T11:08:28Z</time>
      </trkpt>
      <trkpt lat="45.23645" lon="6.03747">
        <ele>2452.600097656</ele>
        <time>2014-01-12T11:08:29Z</time>
      </trkpt>
      <trkpt lat="45.23632" lon="6.03729">
        <ele>2448.800048828</ele>
        <time>2014-01-12T11:08:31Z</time>
      </trkpt>
      <trkpt lat="45.23626" lon="6.0372">
        <ele>2446</ele>
        <time>2014-01-12T11:08:32Z</time>
      </trkpt>
      <trkpt lat="45.23613" lon="6.03696">
        <ele>2437.199951172</ele>
        <time>2014-01-12T11:08:34Z</time>
      </trkpt>
      <trkpt lat="45.23605" lon="6.03688">
        <ele>2433.600097656</ele>
        <time>2014-01-12T11:08:35Z</time>
      </trkpt>
      <trkpt lat="45.2359" lon="6.03658">
        <ele>2421</ele>
        <time>2014-01-12T11:08:38Z</time>
      </trkpt>
      <trkpt lat="45.23588" lon="6.03645">
        <ele>2419.600097656</ele>
        <time>2014-01-12T11:08:39Z</time>
      </trkpt>
      <trkpt lat="45.23581" lon="6.03628">
        <ele>2417.199951172</ele>
        <time>2014-01-12T11:08:41Z</time>
      </trkpt>
      <trkpt lat="45.23577" lon="6.03617">
        <ele>2415.800048828</ele>
        <time>2014-01-12T11:08:42Z</time>
      </trkpt>
      <trkpt lat="45.23563" lon="6.03594">
        <ele>2410.399902344</ele>
        <time>2014-01-12T11:08:44Z</time>
      </trkpt>
      <trkpt lat="45.23559" lon="6.03582">
        <ele>2407</ele>
        <time>2014-01-12T11:08:45Z</time>
      </trkpt>
      <trkpt lat="45.23554" lon="6.03574">
        <ele>2403.399902344</ele>
        <time>2014-01-12T11:08:46Z</time>
      </trkpt>
      <trkpt lat="45.23544" lon="6.03559">
        <ele>2396.399902344</ele>
        <time>2014-01-12T11:08:48Z</time>
      </trkpt>
      <trkpt lat="45.23542" lon="6.03549">
        <ele>2392.600097656</ele>
        <time>2014-01-12T11:08:49Z</time>
      </trkpt>
      <trkpt lat="45.23535" lon="6.03519">
        <ele>2381</ele>
        <time>2014-01-12T11:08:52Z</time>
      </trkpt>
      <trkpt lat="45.23536" lon="6.03496">
        <ele>2373</ele>
        <time>2014-01-12T11:08:54Z</time>
      </trkpt>
      <trkpt lat="45.23537" lon="6.03488">
        <ele>2368.399902344</ele>
        <time>2014-01-12T11:08:55Z</time>
      </trkpt>
      <trkpt lat="45.23539" lon="6.03485">
        <ele>2367</ele>
        <time>2014-01-12T11:08:57Z</time>
      </trkpt>
      <trkpt lat="45.2354" lon="6.03486">
        <ele>2368.399902344</ele>
        <time>2014-01-12T11:08:58Z</time>
      </trkpt>
      <trkpt lat="45.23541" lon="6.03491">
        <ele>2371.399902344</ele>
        <time>2014-01-12T11:09:02Z</time>
      </trkpt>
      <trkpt lat="45.2354" lon="6.03495">
        <ele>2373.800048828</ele>
        <time>2014-01-12T11:09:13Z</time>
      </trkpt>
      <trkpt lat="45.2354" lon="6.03496">
        <ele>2373.800048828</ele>
        <time>2014-01-12T11:09:25Z</time>
      </trkpt>
      <trkpt lat="45.2354" lon="6.03496">
        <ele>2374.399902344</ele>
        <time>2014-01-12T11:09:31Z</time>
      </trkpt>
      <trkpt lat="45.23535" lon="6.03499">
        <ele>2374.399902344</ele>
        <time>2014-01-12T11:09:37Z</time>
      </trkpt>
      <trkpt lat="45.2353" lon="6.03499">
        <ele>2372.800048828</ele>
        <time>2014-01-12T11:09:41Z</time>
      </trkpt>
      <trkpt lat="45.23524" lon="6.03498">
        <ele>2370</ele>
        <time>2014-01-12T11:09:45Z</time>
      </trkpt>
      <trkpt lat="45.2352" lon="6.03494">
        <ele>2367.199951172</ele>
        <time>2014-01-12T11:09:46Z</time>
      </trkpt>
      <trkpt lat="45.23513" lon="6.03489">
        <ele>2362.399902344</ele>
        <time>2014-01-12T11:09:48Z</time>
      </trkpt>
      <trkpt lat="45.23505" lon="6.03492">
        <ele>2361.399902344</ele>
        <time>2014-01-12T11:09:50Z</time>
      </trkpt>
      <trkpt lat="45.23503" lon="6.03489">
        <ele>2359.600097656</ele>
        <time>2014-01-12T11:09:52Z</time>
      </trkpt>
      <trkpt lat="45.23503" lon="6.03489">
        <ele>2359.800048828</ele>
        <time>2014-01-12T11:09:53Z</time>
      </trkpt>
      <trkpt lat="45.23504" lon="6.0349">
        <ele>2360.199951172</ele>
        <time>2014-01-12T11:09:58Z</time>
      </trkpt>
      <trkpt lat="45.23508" lon="6.03477">
        <ele>2354.800048828</ele>
        <time>2014-01-12T11:10:06Z</time>
      </trkpt>
      <trkpt lat="45.2351" lon="6.03473">
        <ele>2353</ele>
        <time>2014-01-12T11:10:09Z</time>
      </trkpt>
      <trkpt lat="45.23511" lon="6.03476">
        <ele>2355.199951172</ele>
        <time>2014-01-12T11:10:45Z</time>
      </trkpt>
      <trkpt lat="45.23511" lon="6.03476">
        <ele>2355.199951172</ele>
        <time>2014-01-12T11:10:47Z</time>
      </trkpt>
      <trkpt lat="45.23511" lon="6.03476">
        <ele>2355.199951172</ele>
        <time>2014-01-12T11:10:49Z</time>
      </trkpt>
      <trkpt lat="45.23511" lon="6.03476">
        <ele>2355.199951172</ele>
        <time>2014-01-12T11:10:52Z</time>
      </trkpt>
      <trkpt lat="45.23511" lon="6.03475">
        <ele>2355</ele>
        <time>2014-01-12T11:11:07Z</time>
      </trkpt>
      <trkpt lat="45.2351" lon="6.03475">
        <ele>2354.399902344</ele>
        <time>2014-01-12T11:11:12Z</time>
      </trkpt>
      <trkpt lat="45.2351" lon="6.03475">
        <ele>2354.399902344</ele>
        <time>2014-01-12T11:11:13Z</time>
      </trkpt>
      <trkpt lat="45.23504" lon="6.03469">
        <ele>2350.199951172</ele>
        <time>2014-01-12T11:11:16Z</time>
      </trkpt>
      <trkpt lat="45.2349" lon="6.03476">
        <ele>2351</ele>
        <time>2014-01-12T11:11:19Z</time>
      </trkpt>
      <trkpt lat="45.23485" lon="6.03473">
        <ele>2348.800048828</ele>
        <time>2014-01-12T11:11:20Z</time>
      </trkpt>
      <trkpt lat="45.23473" lon="6.03481">
        <ele>2351.600097656</ele>
        <time>2014-01-12T11:11:22Z</time>
      </trkpt>
      <trkpt lat="45.23465" lon="6.03492">
        <ele>2356.600097656</ele>
        <time>2014-01-12T11:11:25Z</time>
      </trkpt>
      <trkpt lat="45.23454" lon="6.03496">
        <ele>2357.199951172</ele>
        <time>2014-01-12T11:11:29Z</time>
      </trkpt>
      <trkpt lat="45.23439" lon="6.03493">
        <ele>2354.199951172</ele>
        <time>2014-01-12T11:11:34Z</time>
      </trkpt>
      <trkpt lat="45.23433" lon="6.03488">
        <ele>2350.600097656</ele>
        <time>2014-01-12T11:11:36Z</time>
      </trkpt>
      <trkpt lat="45.23427" lon="6.03481">
        <ele>2345.800048828</ele>
        <time>2014-01-12T11:11:39Z</time>
      </trkpt>
      <trkpt lat="45.23423" lon="6.03477">
        <ele>2342.800048828</ele>
        <time>2014-01-12T11:11:43Z</time>
      </trkpt>
      <trkpt lat="45.23424" lon="6.03472">
        <ele>2340</ele>
        <time>2014-01-12T11:11:46Z</time>
      </trkpt>
      <trkpt lat="45.23427" lon="6.0347">
        <ele>2338.800048828</ele>
        <time>2014-01-12T11:11:47Z</time>
      </trkpt>
      <trkpt lat="45.23432" lon="6.03467">
        <ele>2338</ele>
        <time>2014-01-12T11:11:50Z</time>
      </trkpt>
      <trkpt lat="45.23431" lon="6.03464">
        <ele>2336.399902344</ele>
        <time>2014-01-12T11:11:51Z</time>
      </trkpt>
      <trkpt lat="45.23437" lon="6.03461">
        <ele>2335</ele>
        <time>2014-01-12T11:11:54Z</time>
      </trkpt>
      <trkpt lat="45.23438" lon="6.03454">
        <ele>2331.199951172</ele>
        <time>2014-01-12T11:11:58Z</time>
      </trkpt>
      <trkpt lat="45.23442" lon="6.03441">
        <ele>2324.600097656</ele>
        <time>2014-01-12T11:12:02Z</time>
      </trkpt>
      <trkpt lat="45.23442" lon="6.03433">
        <ele>2320.399902344</ele>
        <time>2014-01-12T11:12:05Z</time>
      </trkpt>
      <trkpt lat="45.23443" lon="6.03431">
        <ele>2319.399902344</ele>
        <time>2014-01-12T11:12:06Z</time>
      </trkpt>
      <trkpt lat="45.23442" lon="6.0343">
        <ele>2318.199951172</ele>
        <time>2014-01-12T11:12:07Z</time>
      </trkpt>
      <trkpt lat="45.2344" lon="6.03424">
        <ele>2314.199951172</ele>
        <time>2014-01-12T11:12:09Z</time>
      </trkpt>
      <trkpt lat="45.23442" lon="6.03424">
        <ele>2315</ele>
        <time>2014-01-12T11:12:11Z</time>
      </trkpt>
      <trkpt lat="45.23442" lon="6.03423">
        <ele>2314.600097656</ele>
        <time>2014-01-12T11:12:12Z</time>
      </trkpt>
      <trkpt lat="45.23443" lon="6.03424">
        <ele>2315.199951172</ele>
        <time>2014-01-12T11:12:15Z</time>
      </trkpt>
      <trkpt lat="45.23443" lon="6.03424">
        <ele>2315.399902344</ele>
        <time>2014-01-12T11:12:17Z</time>
      </trkpt>
      <trkpt lat="45.23443" lon="6.03424">
        <ele>2315</ele>
        <time>2014-01-12T11:12:19Z</time>
      </trkpt>
      <trkpt lat="45.23444" lon="6.0342">
        <ele>2312.800048828</ele>
        <time>2014-01-12T11:12:21Z</time>
      </trkpt>
      <trkpt lat="45.23444" lon="6.03415">
        <ele>2310.199951172</ele>
        <time>2014-01-12T11:12:22Z</time>
      </trkpt>
      <trkpt lat="45.2344" lon="6.03413">
        <ele>2307.600097656</ele>
        <time>2014-01-12T11:12:23Z</time>
      </trkpt>
      <trkpt lat="45.23436" lon="6.03401">
        <ele>2299</ele>
        <time>2014-01-12T11:12:26Z</time>
      </trkpt>
      <trkpt lat="45.23436" lon="6.03399">
        <ele>2297.600097656</ele>
        <time>2014-01-12T11:12:27Z</time>
      </trkpt>
      <trkpt lat="45.23434" lon="6.03398">
        <ele>2296.399902344</ele>
        <time>2014-01-12T11:12:28Z</time>
      </trkpt>
      <trkpt lat="45.23434" lon="6.034">
        <ele>2297.399902344</ele>
        <time>2014-01-12T11:12:29Z</time>
      </trkpt>
      <trkpt lat="45.23435" lon="6.03396">
        <ele>2295</ele>
        <time>2014-01-12T11:12:33Z</time>
      </trkpt>
      <trkpt lat="45.23436" lon="6.03395">
        <ele>2294.800048828</ele>
        <time>2014-01-12T11:12:34Z</time>
      </trkpt>
      <trkpt lat="45.23439" lon="6.0339">
        <ele>2292</ele>
        <time>2014-01-12T11:12:37Z</time>
      </trkpt>
      <trkpt lat="45.23437" lon="6.03389">
        <ele>2290.600097656</ele>
        <time>2014-01-12T11:12:38Z</time>
      </trkpt>
      <trkpt lat="45.23438" lon="6.03381">
        <ele>2285.800048828</ele>
        <time>2014-01-12T11:12:41Z</time>
      </trkpt>
      <trkpt lat="45.23439" lon="6.03381">
        <ele>2285.399902344</ele>
        <time>2014-01-12T11:12:43Z</time>
      </trkpt>
      <trkpt lat="45.23439" lon="6.03381">
        <ele>2285.800048828</ele>
        <time>2014-01-12T11:12:45Z</time>
      </trkpt>
      <trkpt lat="45.23439" lon="6.03377">
        <ele>2283</ele>
        <time>2014-01-12T11:12:57Z</time>
      </trkpt>
      <trkpt lat="45.23441" lon="6.03371">
        <ele>2279.199951172</ele>
        <time>2014-01-12T11:12:59Z</time>
      </trkpt>
      <trkpt lat="45.23433" lon="6.03367">
        <ele>2275.600097656</ele>
        <time>2014-01-12T11:13:02Z</time>
      </trkpt>
      <trkpt lat="45.23433" lon="6.03367">
        <ele>2275.199951172</ele>
        <time>2014-01-12T11:13:03Z</time>
      </trkpt>
      <trkpt lat="45.23433" lon="6.03368">
        <ele>2276.199951172</ele>
        <time>2014-01-12T11:13:05Z</time>
      </trkpt>
      <trkpt lat="45.23432" lon="6.0337">
        <ele>2277.199951172</ele>
        <time>2014-01-12T11:13:10Z</time>
      </trkpt>
      <trkpt lat="45.23429" lon="6.03369">
        <ele>2276.399902344</ele>
        <time>2014-01-12T11:13:26Z</time>
      </trkpt>
      <trkpt lat="45.23426" lon="6.03358">
        <ele>2268.399902344</ele>
        <time>2014-01-12T11:13:28Z</time>
      </trkpt>
      <trkpt lat="45.23445" lon="6.03339">
        <ele>2257.199951172</ele>
        <time>2014-01-12T11:13:31Z</time>
      </trkpt>
      <trkpt lat="45.2345" lon="6.03333">
        <ele>2253.600097656</ele>
        <time>2014-01-12T11:13:34Z</time>
      </trkpt>
      <trkpt lat="45.23461" lon="6.03331">
        <ele>2252.199951172</ele>
        <time>2014-01-12T11:13:37Z</time>
      </trkpt>
      <trkpt lat="45.23467" lon="6.0333">
        <ele>2252.199951172</ele>
        <time>2014-01-12T11:13:38Z</time>
      </trkpt>
      <trkpt lat="45.23481" lon="6.03325">
        <ele>2249.399902344</ele>
        <time>2014-01-12T11:13:40Z</time>
      </trkpt>
      <trkpt lat="45.23502" lon="6.03323">
        <ele>2248</ele>
        <time>2014-01-12T11:13:44Z</time>
      </trkpt>
      <trkpt lat="45.23523" lon="6.03319">
        <ele>2241.399902344</ele>
        <time>2014-01-12T11:13:47Z</time>
      </trkpt>
      <trkpt lat="45.23543" lon="6.03315">
        <ele>2235.800048828</ele>
        <time>2014-01-12T11:13:50Z</time>
      </trkpt>
      <trkpt lat="45.2355" lon="6.03311">
        <ele>2232.600097656</ele>
        <time>2014-01-12T11:13:51Z</time>
      </trkpt>
      <trkpt lat="45.23562" lon="6.03303">
        <ele>2227.800048828</ele>
        <time>2014-01-12T11:13:53Z</time>
      </trkpt>
      <trkpt lat="45.23578" lon="6.0329">
        <ele>2222.199951172</ele>
        <time>2014-01-12T11:13:56Z</time>
      </trkpt>
      <trkpt lat="45.23595" lon="6.03275">
        <ele>2220</ele>
        <time>2014-01-12T11:13:59Z</time>
      </trkpt>
      <trkpt lat="45.23611" lon="6.0326">
        <ele>2219</ele>
        <time>2014-01-12T11:14:02Z</time>
      </trkpt>
      <trkpt lat="45.23614" lon="6.03252">
        <ele>2217.199951172</ele>
        <time>2014-01-12T11:14:03Z</time>
      </trkpt>
      <trkpt lat="45.23614" lon="6.03224">
        <ele>2209.600097656</ele>
        <time>2014-01-12T11:14:05Z</time>
      </trkpt>
      <trkpt lat="45.23616" lon="6.03195">
        <ele>2202.800048828</ele>
        <time>2014-01-12T11:14:08Z</time>
      </trkpt>
      <trkpt lat="45.23618" lon="6.03188">
        <ele>2201.399902344</ele>
        <time>2014-01-12T11:14:09Z</time>
      </trkpt>
      <trkpt lat="45.23622" lon="6.03171">
        <ele>2198.399902344</ele>
        <time>2014-01-12T11:14:12Z</time>
      </trkpt>
      <trkpt lat="45.23632" lon="6.03153">
        <ele>2200</ele>
        <time>2014-01-12T11:14:15Z</time>
      </trkpt>
      <trkpt lat="45.23634" lon="6.03136">
        <ele>2199.800048828</ele>
        <time>2014-01-12T11:14:18Z</time>
      </trkpt>
      <trkpt lat="45.23634" lon="6.03118">
        <ele>2198.800048828</ele>
        <time>2014-01-12T11:14:20Z</time>
      </trkpt>
      <trkpt lat="45.23631" lon="6.03105">
        <ele>2196.800048828</ele>
        <time>2014-01-12T11:14:21Z</time>
      </trkpt>
      <trkpt lat="45.23612" lon="6.03074">
        <ele>2189.399902344</ele>
        <time>2014-01-12T11:14:23Z</time>
      </trkpt>
      <trkpt lat="45.2359" lon="6.03059">
        <ele>2182</ele>
        <time>2014-01-12T11:14:25Z</time>
      </trkpt>
      <trkpt lat="45.23581" lon="6.03052">
        <ele>2179.399902344</ele>
        <time>2014-01-12T11:14:26Z</time>
      </trkpt>
      <trkpt lat="45.2357" lon="6.03045">
        <ele>2177.199951172</ele>
        <time>2014-01-12T11:14:27Z</time>
      </trkpt>
      <trkpt lat="45.23549" lon="6.03035">
        <ele>2172.399902344</ele>
        <time>2014-01-12T11:14:29Z</time>
      </trkpt>
      <trkpt lat="45.23529" lon="6.03023">
        <ele>2168.199951172</ele>
        <time>2014-01-12T11:14:31Z</time>
      </trkpt>
      <trkpt lat="45.2351" lon="6.03013">
        <ele>2164.399902344</ele>
        <time>2014-01-12T11:14:33Z</time>
      </trkpt>
      <trkpt lat="45.23493" lon="6.03002">
        <ele>2162.199951172</ele>
        <time>2014-01-12T11:14:35Z</time>
      </trkpt>
      <trkpt lat="45.23473" lon="6.0299">
        <ele>2161.199951172</ele>
        <time>2014-01-12T11:14:38Z</time>
      </trkpt>
      <trkpt lat="45.23468" lon="6.02987">
        <ele>2161</ele>
        <time>2014-01-12T11:14:39Z</time>
      </trkpt>
      <trkpt lat="45.2346" lon="6.02979">
        <ele>2160.800048828</ele>
        <time>2014-01-12T11:14:41Z</time>
      </trkpt>
      <trkpt lat="45.23453" lon="6.02971">
        <ele>2160.600097656</ele>
        <time>2014-01-12T11:14:43Z</time>
      </trkpt>
      <trkpt lat="45.23438" lon="6.02955">
        <ele>2160.399902344</ele>
        <time>2014-01-12T11:14:46Z</time>
      </trkpt>
      <trkpt lat="45.23432" lon="6.02951">
        <ele>2160.199951172</ele>
        <time>2014-01-12T11:14:47Z</time>
      </trkpt>
      <trkpt lat="45.23411" lon="6.02942">
        <ele>2158.800048828</ele>
        <time>2014-01-12T11:14:51Z</time>
      </trkpt>
      <trkpt lat="45.23403" lon="6.02939">
        <ele>2158.199951172</ele>
        <time>2014-01-12T11:14:53Z</time>
      </trkpt>
      <trkpt lat="45.23396" lon="6.02935">
        <ele>2157.800048828</ele>
        <time>2014-01-12T11:14:55Z</time>
      </trkpt>
      <trkpt lat="45.23386" lon="6.02925">
        <ele>2157.399902344</ele>
        <time>2014-01-12T11:14:59Z</time>
      </trkpt>
      <trkpt lat="45.23385" lon="6.02924">
        <ele>2157.399902344</ele>
        <time>2014-01-12T11:15:00Z</time>
      </trkpt>
      <trkpt lat="45.23386" lon="6.02924">
        <ele>2157.399902344</ele>
        <time>2014-01-12T11:15:04Z</time>
      </trkpt>
      <trkpt lat="45.23386" lon="6.02925">
        <ele>2157.399902344</ele>
        <time>2014-01-12T11:15:13Z</time>
      </trkpt>
      <trkpt lat="45.23388" lon="6.02924">
        <ele>2157.600097656</ele>
        <time>2014-01-12T11:15:19Z</time>
      </trkpt>
      <trkpt lat="45.23388" lon="6.02926">
        <ele>2157.600097656</ele>
        <time>2014-01-12T11:15:25Z</time>
      </trkpt>
      <trkpt lat="45.23388" lon="6.02925">
        <ele>2157.600097656</ele>
        <time>2014-01-12T11:15:35Z</time>
      </trkpt>
      <trkpt lat="45.23388" lon="6.02925">
        <ele>2157.600097656</ele>
        <time>2014-01-12T11:15:40Z</time>
      </trkpt>
      <trkpt lat="45.23389" lon="6.02925">
        <ele>2157.600097656</ele>
        <time>2014-01-12T11:15:50Z</time>
      </trkpt>
      <trkpt lat="45.23388" lon="6.02925">
        <ele>2157.600097656</ele>
        <time>2014-01-12T11:15:56Z</time>
      </trkpt>
      <trkpt lat="45.23388" lon="6.02924">
        <ele>2157.800048828</ele>
        <time>2014-01-12T11:16:09Z</time>
      </trkpt>
      <trkpt lat="45.23389" lon="6.02925">
        <ele>2157.800048828</ele>
        <time>2014-01-12T11:16:17Z</time>
      </trkpt>
      <trkpt lat="45.23389" lon="6.02926">
        <ele>2157.600097656</ele>
        <time>2014-01-12T11:16:28Z</time>
      </trkpt>
      <trkpt lat="45.23389" lon="6.02927">
        <ele>2157.600097656</ele>
        <time>2014-01-12T11:16:44Z</time>
      </trkpt>
      <trkpt lat="45.23392" lon="6.02924">
        <ele>2158.199951172</ele>
        <time>2014-01-12T11:16:55Z</time>
      </trkpt>
      <trkpt lat="45.23392" lon="6.02923">
        <ele>2158.199951172</ele>
        <time>2014-01-12T11:16:58Z</time>
      </trkpt>
      <trkpt lat="45.23391" lon="6.02922">
        <ele>2158.199951172</ele>
        <time>2014-01-12T11:17:03Z</time>
      </trkpt>
      <trkpt lat="45.23388" lon="6.02921">
        <ele>2158</ele>
        <time>2014-01-12T11:17:12Z</time>
      </trkpt>
      <trkpt lat="45.23388" lon="6.02922">
        <ele>2158</ele>
        <time>2014-01-12T11:17:18Z</time>
      </trkpt>
      <trkpt lat="45.23388" lon="6.02923">
        <ele>2157.800048828</ele>
        <time>2014-01-12T11:17:21Z</time>
      </trkpt>
      <trkpt lat="45.23388" lon="6.02922">
        <ele>2157.800048828</ele>
        <time>2014-01-12T11:17:25Z</time>
      </trkpt>
      <trkpt lat="45.23387" lon="6.0292">
        <ele>2158</ele>
        <time>2014-01-12T11:17:36Z</time>
      </trkpt>
      <trkpt lat="45.23387" lon="6.0292">
        <ele>2157.800048828</ele>
        <time>2014-01-12T11:17:41Z</time>
      </trkpt>
      <trkpt lat="45.23386" lon="6.0292">
        <ele>2157.800048828</ele>
        <time>2014-01-12T11:17:43Z</time>
      </trkpt>
      <trkpt lat="45.23386" lon="6.0292">
        <ele>2157.800048828</ele>
        <time>2014-01-12T11:17:46Z</time>
      </trkpt>
      <trkpt lat="45.23387" lon="6.02922">
        <ele>2157.800048828</ele>
        <time>2014-01-12T11:17:50Z</time>
      </trkpt>
      <trkpt lat="45.23387" lon="6.02923">
        <ele>2157.800048828</ele>
        <time>2014-01-12T11:17:59Z</time>
      </trkpt>
      <trkpt lat="45.23386" lon="6.02922">
        <ele>2157.600097656</ele>
        <time>2014-01-12T11:18:10Z</time>
      </trkpt>
      <trkpt lat="45.23387" lon="6.02922">
        <ele>2157.800048828</ele>
        <time>2014-01-12T11:18:14Z</time>
      </trkpt>
      <trkpt lat="45.23387" lon="6.02923">
        <ele>2157.600097656</ele>
        <time>2014-01-12T11:18:18Z</time>
      </trkpt>
      <trkpt lat="45.23387" lon="6.02923">
        <ele>2157.600097656</ele>
        <time>2014-01-12T11:18:31Z</time>
      </trkpt>
      <trkpt lat="45.23387" lon="6.02923">
        <ele>2157.600097656</ele>
        <time>2014-01-12T11:18:34Z</time>
      </trkpt>
      <trkpt lat="45.23387" lon="6.02924">
        <ele>2157.600097656</ele>
        <time>2014-01-12T11:18:35Z</time>
      </trkpt>
      <trkpt lat="45.23387" lon="6.02924">
        <ele>2157.600097656</ele>
        <time>2014-01-12T11:18:43Z</time>
      </trkpt>
      <trkpt lat="45.23387" lon="6.02925">
        <ele>2157.600097656</ele>
        <time>2014-01-12T11:18:49Z</time>
      </trkpt>
      <trkpt lat="45.23387" lon="6.02928">
        <ele>2157.399902344</ele>
        <time>2014-01-12T11:19:11Z</time>
      </trkpt>
      <trkpt lat="45.23388" lon="6.02929">
        <ele>2157.399902344</ele>
        <time>2014-01-12T11:19:20Z</time>
      </trkpt>
      <trkpt lat="45.23387" lon="6.0293">
        <ele>2157.199951172</ele>
        <time>2014-01-12T11:19:26Z</time>
      </trkpt>
      <trkpt lat="45.23387" lon="6.02929">
        <ele>2157.399902344</ele>
        <time>2014-01-12T11:19:27Z</time>
      </trkpt>
      <trkpt lat="45.23387" lon="6.02926">
        <ele>2157.600097656</ele>
        <time>2014-01-12T11:19:35Z</time>
      </trkpt>
      <trkpt lat="45.23387" lon="6.02926">
        <ele>2157.600097656</ele>
        <time>2014-01-12T11:19:37Z</time>
      </trkpt>
      <trkpt lat="45.23387" lon="6.02925">
        <ele>2157.600097656</ele>
        <time>2014-01-12T11:19:38Z</time>
      </trkpt>
      <trkpt lat="45.23387" lon="6.02925">
        <ele>2157.600097656</ele>
        <time>2014-01-12T11:19:53Z</time>
      </trkpt>
      <trkpt lat="45.23386" lon="6.02924">
        <ele>2157.399902344</ele>
        <time>2014-01-12T11:20:01Z</time>
      </trkpt>
      <trkpt lat="45.23386" lon="6.02924">
        <ele>2157.399902344</ele>
        <time>2014-01-12T11:20:06Z</time>
      </trkpt>
      <trkpt lat="45.23386" lon="6.02924">
        <ele>2157.399902344</ele>
        <time>2014-01-12T11:20:08Z</time>
      </trkpt>
      <trkpt lat="45.23386" lon="6.02924">
        <ele>2157.399902344</ele>
        <time>2014-01-12T11:20:11Z</time>
      </trkpt>
      <trkpt lat="45.23386" lon="6.02924">
        <ele>2157.399902344</ele>
        <time>2014-01-12T11:20:12Z</time>
      </trkpt>
      <trkpt lat="45.23386" lon="6.02925">
        <ele>2157.399902344</ele>
        <time>2014-01-12T11:20:16Z</time>
      </trkpt>
      <trkpt lat="45.23386" lon="6.02925">
        <ele>2157.399902344</ele>
        <time>2014-01-12T11:20:30Z</time>
      </trkpt>
      <trkpt lat="45.23386" lon="6.02925">
        <ele>2157.399902344</ele>
        <time>2014-01-12T11:20:37Z</time>
      </trkpt>
      <trkpt lat="45.23386" lon="6.02925">
        <ele>2157.399902344</ele>
        <time>2014-01-12T11:20:48Z</time>
      </trkpt>
      <trkpt lat="45.23386" lon="6.02925">
        <ele>2157.399902344</ele>
        <time>2014-01-12T11:20:59Z</time>
      </trkpt>
      <trkpt lat="45.23385" lon="6.02928">
        <ele>2157.199951172</ele>
        <time>2014-01-12T11:21:18Z</time>
      </trkpt>
      <trkpt lat="45.23387" lon="6.02927">
        <ele>2157.399902344</ele>
        <time>2014-01-12T11:21:30Z</time>
      </trkpt>
      <trkpt lat="45.23387" lon="6.02927">
        <ele>2157.399902344</ele>
        <time>2014-01-12T11:21:35Z</time>
      </trkpt>
      <trkpt lat="45.23386" lon="6.02927">
        <ele>2157.399902344</ele>
        <time>2014-01-12T11:21:55Z</time>
      </trkpt>
      <trkpt lat="45.23386" lon="6.02927">
        <ele>2157.399902344</ele>
        <time>2014-01-12T11:22:06Z</time>
      </trkpt>
      <trkpt lat="45.23386" lon="6.02927">
        <ele>2157.199951172</ele>
        <time>2014-01-12T11:22:16Z</time>
      </trkpt>
      <trkpt lat="45.23386" lon="6.02927">
        <ele>2157.399902344</ele>
        <time>2014-01-12T11:22:31Z</time>
      </trkpt>
      <trkpt lat="45.23387" lon="6.02927">
        <ele>2157.399902344</ele>
        <time>2014-01-12T11:22:38Z</time>
      </trkpt>
      <trkpt lat="45.23386" lon="6.02927">
        <ele>2157.399902344</ele>
        <time>2014-01-12T11:23:00Z</time>
      </trkpt>
      <trkpt lat="45.23386" lon="6.02927">
        <ele>2157.399902344</ele>
        <time>2014-01-12T11:23:08Z</time>
      </trkpt>
      <trkpt lat="45.23386" lon="6.02927">
        <ele>2157.399902344</ele>
        <time>2014-01-12T11:23:10Z</time>
      </trkpt>
      <trkpt lat="45.23386" lon="6.02927">
        <ele>2157.399902344</ele>
        <time>2014-01-12T11:23:13Z</time>
      </trkpt>
      <trkpt lat="45.23387" lon="6.02927">
        <ele>2157.399902344</ele>
        <time>2014-01-12T11:23:41Z</time>
      </trkpt>
      <trkpt lat="45.23387" lon="6.02927">
        <ele>2157.399902344</ele>
        <time>2014-01-12T11:23:45Z</time>
      </trkpt>
      <trkpt lat="45.23387" lon="6.02926">
        <ele>2157.399902344</ele>
        <time>2014-01-12T11:24:14Z</time>
      </trkpt>
      <trkpt lat="45.23387" lon="6.02926">
        <ele>2157.399902344</ele>
        <time>2014-01-12T11:24:28Z</time>
      </trkpt>
      <trkpt lat="45.23387" lon="6.02926">
        <ele>2157.399902344</ele>
        <time>2014-01-12T11:24:31Z</time>
      </trkpt>
      <trkpt lat="45.23387" lon="6.02927">
        <ele>2157.399902344</ele>
        <time>2014-01-12T11:24:53Z</time>
      </trkpt>
      <trkpt lat="45.23387" lon="6.02927">
        <ele>2157.399902344</ele>
        <time>2014-01-12T11:24:56Z</time>
      </trkpt>
      <trkpt lat="45.23388" lon="6.02926">
        <ele>2157.399902344</ele>
        <time>2014-01-12T11:24:59Z</time>
      </trkpt>
      <trkpt lat="45.23388" lon="6.02926">
        <ele>2157.600097656</ele>
        <time>2014-01-12T11:25:13Z</time>
      </trkpt>
      <trkpt lat="45.23388" lon="6.02926">
        <ele>2157.600097656</ele>
        <time>2014-01-12T11:25:15Z</time>
      </trkpt>
      <trkpt lat="45.23388" lon="6.02926">
        <ele>2157.600097656</ele>
        <time>2014-01-12T11:25:18Z</time>
      </trkpt>
      <trkpt lat="45.23388" lon="6.02926">
        <ele>2157.600097656</ele>
        <time>2014-01-12T11:25:26Z</time>
      </trkpt>
      <trkpt lat="45.23388" lon="6.02925">
        <ele>2157.600097656</ele>
        <time>2014-01-12T11:25:34Z</time>
      </trkpt>
      <trkpt lat="45.23388" lon="6.02925">
        <ele>2157.600097656</ele>
        <time>2014-01-12T11:25:35Z</time>
      </trkpt>
      <trkpt lat="45.23388" lon="6.02926">
        <ele>2157.600097656</ele>
        <time>2014-01-12T11:25:41Z</time>
      </trkpt>
      <trkpt lat="45.23387" lon="6.02925">
        <ele>2157.600097656</ele>
        <time>2014-01-12T11:25:55Z</time>
      </trkpt>
      <trkpt lat="45.23387" lon="6.02925">
        <ele>2157.600097656</ele>
        <time>2014-01-12T11:26:01Z</time>
      </trkpt>
      <trkpt lat="45.23387" lon="6.02924">
        <ele>2157.600097656</ele>
        <time>2014-01-12T11:26:03Z</time>
      </trkpt>
      <trkpt lat="45.23385" lon="6.02925">
        <ele>2157.399902344</ele>
        <time>2014-01-12T11:26:23Z</time>
      </trkpt>
      <trkpt lat="45.23385" lon="6.02924">
        <ele>2157.399902344</ele>
        <time>2014-01-12T11:26:31Z</time>
      </trkpt>
      <trkpt lat="45.23385" lon="6.02924">
        <ele>2157.399902344</ele>
        <time>2014-01-12T11:26:39Z</time>
      </trkpt>
      <trkpt lat="45.23386" lon="6.02925">
        <ele>2157.600097656</ele>
        <time>2014-01-12T11:27:13Z</time>
      </trkpt>
      <trkpt lat="45.23387" lon="6.02925">
        <ele>2157.600097656</ele>
        <time>2014-01-12T11:27:19Z</time>
      </trkpt>
      <trkpt lat="45.23387" lon="6.02925">
        <ele>2157.600097656</ele>
        <time>2014-01-12T11:27:22Z</time>
      </trkpt>
      <trkpt lat="45.23385" lon="6.02924">
        <ele>2157.399902344</ele>
        <time>2014-01-12T11:27:42Z</time>
      </trkpt>
      <trkpt lat="45.23385" lon="6.02923">
        <ele>2157.399902344</ele>
        <time>2014-01-12T11:27:51Z</time>
      </trkpt>
      <trkpt lat="45.23385" lon="6.02923">
        <ele>2157.399902344</ele>
        <time>2014-01-12T11:27:57Z</time>
      </trkpt>
      <trkpt lat="45.23385" lon="6.02923">
        <ele>2157.399902344</ele>
        <time>2014-01-12T11:28:00Z</time>
      </trkpt>
      <trkpt lat="45.23385" lon="6.02923">
        <ele>2157.600097656</ele>
        <time>2014-01-12T11:28:09Z</time>
      </trkpt>
      <trkpt lat="45.23386" lon="6.02924">
        <ele>2157.600097656</ele>
        <time>2014-01-12T11:28:13Z</time>
      </trkpt>
      <trkpt lat="45.23386" lon="6.02925">
        <ele>2157.399902344</ele>
        <time>2014-01-12T11:28:21Z</time>
      </trkpt>
      <trkpt lat="45.23386" lon="6.02925">
        <ele>2157.399902344</ele>
        <time>2014-01-12T11:28:25Z</time>
      </trkpt>
      <trkpt lat="45.23386" lon="6.02925">
        <ele>2157.399902344</ele>
        <time>2014-01-12T11:28:26Z</time>
      </trkpt>
      <trkpt lat="45.23386" lon="6.02925">
        <ele>2157.399902344</ele>
        <time>2014-01-12T11:28:27Z</time>
      </trkpt>
      <trkpt lat="45.23387" lon="6.02925">
        <ele>2157.600097656</ele>
        <time>2014-01-12T11:28:29Z</time>
      </trkpt>
      <trkpt lat="45.23386" lon="6.02925">
        <ele>2157.399902344</ele>
        <time>2014-01-12T11:28:35Z</time>
      </trkpt>
      <trkpt lat="45.23386" lon="6.02925">
        <ele>2157.399902344</ele>
        <time>2014-01-12T11:28:40Z</time>
      </trkpt>
      <trkpt lat="45.23386" lon="6.02925">
        <ele>2157.399902344</ele>
        <time>2014-01-12T11:28:44Z</time>
      </trkpt>
      <trkpt lat="45.23386" lon="6.02925">
        <ele>2157.399902344</ele>
        <time>2014-01-12T11:28:47Z</time>
      </trkpt>
      <trkpt lat="45.23386" lon="6.02926">
        <ele>2157.399902344</ele>
        <time>2014-01-12T11:29:22Z</time>
      </trkpt>
      <trkpt lat="45.23387" lon="6.02926">
        <ele>2157.399902344</ele>
        <time>2014-01-12T11:29:48Z</time>
      </trkpt>
      <trkpt lat="45.23387" lon="6.02926">
        <ele>2157.399902344</ele>
        <time>2014-01-12T11:30:02Z</time>
      </trkpt>
      <trkpt lat="45.23386" lon="6.02923">
        <ele>2157.600097656</ele>
        <time>2014-01-12T11:30:10Z</time>
      </trkpt>
      <trkpt lat="45.23386" lon="6.02922">
        <ele>2157.800048828</ele>
        <time>2014-01-12T11:30:14Z</time>
      </trkpt>
      <trkpt lat="45.23386" lon="6.02921">
        <ele>2157.800048828</ele>
        <time>2014-01-12T11:30:15Z</time>
      </trkpt>
      <trkpt lat="45.23386" lon="6.02921">
        <ele>2157.800048828</ele>
        <time>2014-01-12T11:30:16Z</time>
      </trkpt>
      <trkpt lat="45.23388" lon="6.0292">
        <ele>2158</ele>
        <time>2014-01-12T11:30:23Z</time>
      </trkpt>
      <trkpt lat="45.23388" lon="6.0292">
        <ele>2158</ele>
        <time>2014-01-12T11:30:28Z</time>
      </trkpt>
      <trkpt lat="45.23388" lon="6.02919">
        <ele>2158</ele>
        <time>2014-01-12T11:30:29Z</time>
      </trkpt>
      <trkpt lat="45.23388" lon="6.0292">
        <ele>2158</ele>
        <time>2014-01-12T11:30:33Z</time>
      </trkpt>
      <trkpt lat="45.23387" lon="6.02922">
        <ele>2157.800048828</ele>
        <time>2014-01-12T11:30:38Z</time>
      </trkpt>
      <trkpt lat="45.23387" lon="6.02923">
        <ele>2157.800048828</ele>
        <time>2014-01-12T11:30:43Z</time>
      </trkpt>
      <trkpt lat="45.23386" lon="6.02925">
        <ele>2157.399902344</ele>
        <time>2014-01-12T11:30:55Z</time>
      </trkpt>
      <trkpt lat="45.23387" lon="6.02926">
        <ele>2157.600097656</ele>
        <time>2014-01-12T11:31:39Z</time>
      </trkpt>
      <trkpt lat="45.23387" lon="6.02926">
        <ele>2157.600097656</ele>
        <time>2014-01-12T11:31:49Z</time>
      </trkpt>
      <trkpt lat="45.23387" lon="6.02926">
        <ele>2157.399902344</ele>
        <time>2014-01-12T11:32:02Z</time>
      </trkpt>
      <trkpt lat="45.23387" lon="6.02927">
        <ele>2157.399902344</ele>
        <time>2014-01-12T11:32:13Z</time>
      </trkpt>
      <trkpt lat="45.23387" lon="6.02927">
        <ele>2157.399902344</ele>
        <time>2014-01-12T11:32:24Z</time>
      </trkpt>
      <trkpt lat="45.23388" lon="6.02928">
        <ele>2157.399902344</ele>
        <time>2014-01-12T11:32:30Z</time>
      </trkpt>
      <trkpt lat="45.23388" lon="6.02927">
        <ele>2157.399902344</ele>
        <time>2014-01-12T11:32:51Z</time>
      </trkpt>
      <trkpt lat="45.23388" lon="6.02927">
        <ele>2157.399902344</ele>
        <time>2014-01-12T11:33:01Z</time>
      </trkpt>
      <trkpt lat="45.23388" lon="6.02927">
        <ele>2157.399902344</ele>
        <time>2014-01-12T11:33:06Z</time>
      </trkpt>
      <trkpt lat="45.23388" lon="6.02926">
        <ele>2157.600097656</ele>
        <time>2014-01-12T11:33:18Z</time>
      </trkpt>
      <trkpt lat="45.23386" lon="6.02925">
        <ele>2157.399902344</ele>
        <time>2014-01-12T11:33:53Z</time>
      </trkpt>
      <trkpt lat="45.23387" lon="6.02925">
        <ele>2157.600097656</ele>
        <time>2014-01-12T11:33:58Z</time>
      </trkpt>
      <trkpt lat="45.23387" lon="6.02926">
        <ele>2157.600097656</ele>
        <time>2014-01-12T11:34:02Z</time>
      </trkpt>
      <trkpt lat="45.23387" lon="6.02926">
        <ele>2157.600097656</ele>
        <time>2014-01-12T11:34:04Z</time>
      </trkpt>
      <trkpt lat="45.23387" lon="6.02926">
        <ele>2157.600097656</ele>
        <time>2014-01-12T11:34:05Z</time>
      </trkpt>
      <trkpt lat="45.23387" lon="6.02926">
        <ele>2157.600097656</ele>
        <time>2014-01-12T11:34:12Z</time>
      </trkpt>
      <trkpt lat="45.23387" lon="6.02926">
        <ele>2157.600097656</ele>
        <time>2014-01-12T11:34:22Z</time>
      </trkpt>
      <trkpt lat="45.23388" lon="6.02926">
        <ele>2157.600097656</ele>
        <time>2014-01-12T11:34:31Z</time>
      </trkpt>
      <trkpt lat="45.23388" lon="6.02926">
        <ele>2157.600097656</ele>
        <time>2014-01-12T11:34:36Z</time>
      </trkpt>
      <trkpt lat="45.23388" lon="6.02925">
        <ele>2157.600097656</ele>
        <time>2014-01-12T11:34:41Z</time>
      </trkpt>
      <trkpt lat="45.23388" lon="6.02925">
        <ele>2157.600097656</ele>
        <time>2014-01-12T11:34:45Z</time>
      </trkpt>
      <trkpt lat="45.23388" lon="6.02926">
        <ele>2157.600097656</ele>
        <time>2014-01-12T11:34:50Z</time>
      </trkpt>
      <trkpt lat="45.23388" lon="6.02925">
        <ele>2157.600097656</ele>
        <time>2014-01-12T11:34:58Z</time>
      </trkpt>
      <trkpt lat="45.23389" lon="6.02925">
        <ele>2157.600097656</ele>
        <time>2014-01-12T11:35:03Z</time>
      </trkpt>
      <trkpt lat="45.23388" lon="6.02925">
        <ele>2157.600097656</ele>
        <time>2014-01-12T11:35:16Z</time>
      </trkpt>
      <trkpt lat="45.23388" lon="6.02926">
        <ele>2157.600097656</ele>
        <time>2014-01-12T11:35:20Z</time>
      </trkpt>
      <trkpt lat="45.23387" lon="6.02926">
        <ele>2157.399902344</ele>
        <time>2014-01-12T11:35:29Z</time>
      </trkpt>
      <trkpt lat="45.23387" lon="6.02927">
        <ele>2157.399902344</ele>
        <time>2014-01-12T11:36:02Z</time>
      </trkpt>
      <trkpt lat="45.2339" lon="6.02925">
        <ele>2157.800048828</ele>
        <time>2014-01-12T11:36:37Z</time>
      </trkpt>
      <trkpt lat="45.2339" lon="6.02925">
        <ele>2157.800048828</ele>
        <time>2014-01-12T11:36:44Z</time>
      </trkpt>
      <trkpt lat="45.2339" lon="6.02923">
        <ele>2158</ele>
        <time>2014-01-12T11:37:00Z</time>
      </trkpt>
      <trkpt lat="45.2339" lon="6.02923">
        <ele>2158</ele>
        <time>2014-01-12T11:37:17Z</time>
      </trkpt>
      <trkpt lat="45.23389" lon="6.02923">
        <ele>2158</ele>
        <time>2014-01-12T11:37:21Z</time>
      </trkpt>
      <trkpt lat="45.23389" lon="6.02923">
        <ele>2157.800048828</ele>
        <time>2014-01-12T11:37:23Z</time>
      </trkpt>
      <trkpt lat="45.23389" lon="6.02924">
        <ele>2157.800048828</ele>
        <time>2014-01-12T11:37:26Z</time>
      </trkpt>
      <trkpt lat="45.23389" lon="6.02924">
        <ele>2157.800048828</ele>
        <time>2014-01-12T11:37:47Z</time>
      </trkpt>
      <trkpt lat="45.23389" lon="6.02925">
        <ele>2157.800048828</ele>
        <time>2014-01-12T11:37:58Z</time>
      </trkpt>
      <trkpt lat="45.23389" lon="6.02925">
        <ele>2157.800048828</ele>
        <time>2014-01-12T11:38:02Z</time>
      </trkpt>
      <trkpt lat="45.23388" lon="6.02926">
        <ele>2157.600097656</ele>
        <time>2014-01-12T11:38:42Z</time>
      </trkpt>
      <trkpt lat="45.23388" lon="6.02926">
        <ele>2157.600097656</ele>
        <time>2014-01-12T11:38:46Z</time>
      </trkpt>
      <trkpt lat="45.23387" lon="6.02927">
        <ele>2157.399902344</ele>
        <time>2014-01-12T11:39:35Z</time>
      </trkpt>
      <trkpt lat="45.23387" lon="6.02927">
        <ele>2157.399902344</ele>
        <time>2014-01-12T11:39:45Z</time>
      </trkpt>
      <trkpt lat="45.23387" lon="6.02928">
        <ele>2157.399902344</ele>
        <time>2014-01-12T11:39:52Z</time>
      </trkpt>
      <trkpt lat="45.23387" lon="6.02928">
        <ele>2157.399902344</ele>
        <time>2014-01-12T11:40:01Z</time>
      </trkpt>
      <trkpt lat="45.23387" lon="6.02927">
        <ele>2157.399902344</ele>
        <time>2014-01-12T11:40:18Z</time>
      </trkpt>
      <trkpt lat="45.23387" lon="6.02927">
        <ele>2157.399902344</ele>
        <time>2014-01-12T11:40:22Z</time>
      </trkpt>
      <trkpt lat="45.23387" lon="6.02928">
        <ele>2157.399902344</ele>
        <time>2014-01-12T11:40:40Z</time>
      </trkpt>
      <trkpt lat="45.23387" lon="6.02927">
        <ele>2157.399902344</ele>
        <time>2014-01-12T11:40:46Z</time>
      </trkpt>
      <trkpt lat="45.23388" lon="6.02927">
        <ele>2157.399902344</ele>
        <time>2014-01-12T11:40:49Z</time>
      </trkpt>
      <trkpt lat="45.23388" lon="6.02927">
        <ele>2157.399902344</ele>
        <time>2014-01-12T11:41:08Z</time>
      </trkpt>
      <trkpt lat="45.23388" lon="6.02928">
        <ele>2157.399902344</ele>
        <time>2014-01-12T11:41:12Z</time>
      </trkpt>
      <trkpt lat="45.23388" lon="6.02928">
        <ele>2157.399902344</ele>
        <time>2014-01-12T11:41:15Z</time>
      </trkpt>
      <trkpt lat="45.23388" lon="6.02928">
        <ele>2157.399902344</ele>
        <time>2014-01-12T11:41:18Z</time>
      </trkpt>
      <trkpt lat="45.23388" lon="6.02926">
        <ele>2157.600097656</ele>
        <time>2014-01-12T11:41:42Z</time>
      </trkpt>
      <trkpt lat="45.23388" lon="6.02927">
        <ele>2157.600097656</ele>
        <time>2014-01-12T11:41:48Z</time>
      </trkpt>
      <trkpt lat="45.23389" lon="6.02926">
        <ele>2157.600097656</ele>
        <time>2014-01-12T11:41:52Z</time>
      </trkpt>
      <trkpt lat="45.23389" lon="6.02927">
        <ele>2157.600097656</ele>
        <time>2014-01-12T11:41:55Z</time>
      </trkpt>
      <trkpt lat="45.2339" lon="6.02927">
        <ele>2157.600097656</ele>
        <time>2014-01-12T11:41:57Z</time>
      </trkpt>
      <trkpt lat="45.2339" lon="6.02927">
        <ele>2157.600097656</ele>
        <time>2014-01-12T11:41:59Z</time>
      </trkpt>
      <trkpt lat="45.2339" lon="6.02927">
        <ele>2157.600097656</ele>
        <time>2014-01-12T11:42:01Z</time>
      </trkpt>
      <trkpt lat="45.2339" lon="6.02926">
        <ele>2157.800048828</ele>
        <time>2014-01-12T11:42:25Z</time>
      </trkpt>
      <trkpt lat="45.2339" lon="6.02925">
        <ele>2157.800048828</ele>
        <time>2014-01-12T11:42:28Z</time>
      </trkpt>
      <trkpt lat="45.2339" lon="6.02925">
        <ele>2157.800048828</ele>
        <time>2014-01-12T11:42:29Z</time>
      </trkpt>
      <trkpt lat="45.2339" lon="6.02925">
        <ele>2157.800048828</ele>
        <time>2014-01-12T11:42:31Z</time>
      </trkpt>
      <trkpt lat="45.23387" lon="6.02926">
        <ele>2157.399902344</ele>
        <time>2014-01-12T11:42:50Z</time>
      </trkpt>
      <trkpt lat="45.23387" lon="6.02926">
        <ele>2157.399902344</ele>
        <time>2014-01-12T11:42:53Z</time>
      </trkpt>
      <trkpt lat="45.23386" lon="6.02927">
        <ele>2157.399902344</ele>
        <time>2014-01-12T11:43:16Z</time>
      </trkpt>
      <trkpt lat="45.23386" lon="6.02927">
        <ele>2157.199951172</ele>
        <time>2014-01-12T11:43:17Z</time>
      </trkpt>
      <trkpt lat="45.23386" lon="6.02928">
        <ele>2157.199951172</ele>
        <time>2014-01-12T11:43:20Z</time>
      </trkpt>
      <trkpt lat="45.23385" lon="6.0293">
        <ele>2157</ele>
        <time>2014-01-12T11:43:30Z</time>
      </trkpt>
      <trkpt lat="45.23386" lon="6.0293">
        <ele>2157</ele>
        <time>2014-01-12T11:43:47Z</time>
      </trkpt>
      <trkpt lat="45.23386" lon="6.02929">
        <ele>2157.199951172</ele>
        <time>2014-01-12T11:43:51Z</time>
      </trkpt>
      <trkpt lat="45.23387" lon="6.02928">
        <ele>2157.399902344</ele>
        <time>2014-01-12T11:43:56Z</time>
      </trkpt>
      <trkpt lat="45.23388" lon="6.02926">
        <ele>2157.600097656</ele>
        <time>2014-01-12T11:44:01Z</time>
      </trkpt>
      <trkpt lat="45.23388" lon="6.02927">
        <ele>2157.600097656</ele>
        <time>2014-01-12T11:44:04Z</time>
      </trkpt>
      <trkpt lat="45.23388" lon="6.02928">
        <ele>2157.399902344</ele>
        <time>2014-01-12T11:44:05Z</time>
      </trkpt>
      <trkpt lat="45.23387" lon="6.02928">
        <ele>2157.399902344</ele>
        <time>2014-01-12T11:44:07Z</time>
      </trkpt>
      <trkpt lat="45.23387" lon="6.02929">
        <ele>2157.199951172</ele>
        <time>2014-01-12T11:44:10Z</time>
      </trkpt>
      <trkpt lat="45.23387" lon="6.0293">
        <ele>2157.199951172</ele>
        <time>2014-01-12T11:44:13Z</time>
      </trkpt>
      <trkpt lat="45.23387" lon="6.0293">
        <ele>2157.199951172</ele>
        <time>2014-01-12T11:44:15Z</time>
      </trkpt>
      <trkpt lat="45.23387" lon="6.0293">
        <ele>2157.199951172</ele>
        <time>2014-01-12T11:44:18Z</time>
      </trkpt>
      <trkpt lat="45.23387" lon="6.02929">
        <ele>2157.199951172</ele>
        <time>2014-01-12T11:44:21Z</time>
      </trkpt>
      <trkpt lat="45.23392" lon="6.02923">
        <ele>2158.199951172</ele>
        <time>2014-01-12T11:44:52Z</time>
      </trkpt>
      <trkpt lat="45.23392" lon="6.02923">
        <ele>2158.199951172</ele>
        <time>2014-01-12T11:44:53Z</time>
      </trkpt>
      <trkpt lat="45.23392" lon="6.02922">
        <ele>2158.399902344</ele>
        <time>2014-01-12T11:44:54Z</time>
      </trkpt>
      <trkpt lat="45.23392" lon="6.02921">
        <ele>2158.399902344</ele>
        <time>2014-01-12T11:45:00Z</time>
      </trkpt>
      <trkpt lat="45.23392" lon="6.02922">
        <ele>2158.199951172</ele>
        <time>2014-01-12T11:45:03Z</time>
      </trkpt>
      <trkpt lat="45.23391" lon="6.02922">
        <ele>2158.199951172</ele>
        <time>2014-01-12T11:45:08Z</time>
      </trkpt>
      <trkpt lat="45.23389" lon="6.02925">
        <ele>2157.800048828</ele>
        <time>2014-01-12T11:45:25Z</time>
      </trkpt>
      <trkpt lat="45.23389" lon="6.02925">
        <ele>2157.800048828</ele>
        <time>2014-01-12T11:45:35Z</time>
      </trkpt>
      <trkpt lat="45.23387" lon="6.02923">
        <ele>2157.600097656</ele>
        <time>2014-01-12T11:45:51Z</time>
      </trkpt>
      <trkpt lat="45.23387" lon="6.02924">
        <ele>2157.600097656</ele>
        <time>2014-01-12T11:45:58Z</time>
      </trkpt>
      <trkpt lat="45.23386" lon="6.02923">
        <ele>2157.600097656</ele>
        <time>2014-01-12T11:46:09Z</time>
      </trkpt>
      <trkpt lat="45.23386" lon="6.02923">
        <ele>2157.600097656</ele>
        <time>2014-01-12T11:46:11Z</time>
      </trkpt>
      <trkpt lat="45.23386" lon="6.02923">
        <ele>2157.600097656</ele>
        <time>2014-01-12T11:46:20Z</time>
      </trkpt>
      <trkpt lat="45.23386" lon="6.02923">
        <ele>2157.600097656</ele>
        <time>2014-01-12T11:46:24Z</time>
      </trkpt>
      <trkpt lat="45.23386" lon="6.02922">
        <ele>2157.600097656</ele>
        <time>2014-01-12T11:46:25Z</time>
      </trkpt>
      <trkpt lat="45.23387" lon="6.02922">
        <ele>2157.600097656</ele>
        <time>2014-01-12T11:46:31Z</time>
      </trkpt>
      <trkpt lat="45.23386" lon="6.02923">
        <ele>2157.600097656</ele>
        <time>2014-01-12T11:46:34Z</time>
      </trkpt>
      <trkpt lat="45.23386" lon="6.02924">
        <ele>2157.600097656</ele>
        <time>2014-01-12T11:46:38Z</time>
      </trkpt>
      <trkpt lat="45.23386" lon="6.02924">
        <ele>2157.399902344</ele>
        <time>2014-01-12T11:46:44Z</time>
      </trkpt>
      <trkpt lat="45.23386" lon="6.02924">
        <ele>2157.399902344</ele>
        <time>2014-01-12T11:46:46Z</time>
      </trkpt>
      <trkpt lat="45.23386" lon="6.02925">
        <ele>2157.399902344</ele>
        <time>2014-01-12T11:46:49Z</time>
      </trkpt>
      <trkpt lat="45.23386" lon="6.02925">
        <ele>2157.399902344</ele>
        <time>2014-01-12T11:46:57Z</time>
      </trkpt>
      <trkpt lat="45.23386" lon="6.02925">
        <ele>2157.399902344</ele>
        <time>2014-01-12T11:46:58Z</time>
      </trkpt>
      <trkpt lat="45.23386" lon="6.02925">
        <ele>2157.399902344</ele>
        <time>2014-01-12T11:46:59Z</time>
      </trkpt>
      <trkpt lat="45.23384" lon="6.02923">
        <ele>2157.399902344</ele>
        <time>2014-01-12T11:47:04Z</time>
      </trkpt>
      <trkpt lat="45.23383" lon="6.02922">
        <ele>2157.399902344</ele>
        <time>2014-01-12T11:47:05Z</time>
      </trkpt>
      <trkpt lat="45.23378" lon="6.0292">
        <ele>2157</ele>
        <time>2014-01-12T11:47:08Z</time>
      </trkpt>
      <trkpt lat="45.23374" lon="6.02918">
        <ele>2156.800048828</ele>
        <time>2014-01-12T11:47:10Z</time>
      </trkpt>
      <trkpt lat="45.2337" lon="6.02916">
        <ele>2156.600097656</ele>
        <time>2014-01-12T11:47:12Z</time>
      </trkpt>
      <trkpt lat="45.23364" lon="6.02911">
        <ele>2156.199951172</ele>
        <time>2014-01-12T11:47:15Z</time>
      </trkpt>
      <trkpt lat="45.2336" lon="6.02905">
        <ele>2156.199951172</ele>
        <time>2014-01-12T11:47:17Z</time>
      </trkpt>
      <trkpt lat="45.2335" lon="6.02895">
        <ele>2155.600097656</ele>
        <time>2014-01-12T11:47:21Z</time>
      </trkpt>
      <trkpt lat="45.23347" lon="6.02892">
        <ele>2155.600097656</ele>
        <time>2014-01-12T11:47:22Z</time>
      </trkpt>
      <trkpt lat="45.23335" lon="6.02885">
        <ele>2154.600097656</ele>
        <time>2014-01-12T11:47:27Z</time>
      </trkpt>
      <trkpt lat="45.23326" lon="6.02883">
        <ele>2152.600097656</ele>
        <time>2014-01-12T11:47:31Z</time>
      </trkpt>
      <trkpt lat="45.23323" lon="6.02882">
        <ele>2152</ele>
        <time>2014-01-12T11:47:32Z</time>
      </trkpt>
      <trkpt lat="45.23317" lon="6.02881">
        <ele>2150.600097656</ele>
        <time>2014-01-12T11:47:34Z</time>
      </trkpt>
      <trkpt lat="45.23305" lon="6.02875">
        <ele>2147.600097656</ele>
        <time>2014-01-12T11:47:37Z</time>
      </trkpt>
      <trkpt lat="45.2329" lon="6.02862">
        <ele>2144.800048828</ele>
        <time>2014-01-12T11:47:41Z</time>
      </trkpt>
      <trkpt lat="45.2328" lon="6.02859">
        <ele>2142.800048828</ele>
        <time>2014-01-12T11:47:45Z</time>
      </trkpt>
      <trkpt lat="45.23271" lon="6.02855">
        <ele>2141.199951172</ele>
        <time>2014-01-12T11:47:50Z</time>
      </trkpt>
      <trkpt lat="45.2326" lon="6.02847">
        <ele>2139.399902344</ele>
        <time>2014-01-12T11:47:55Z</time>
      </trkpt>
      <trkpt lat="45.23242" lon="6.02835">
        <ele>2136.600097656</ele>
        <time>2014-01-12T11:47:59Z</time>
      </trkpt>
      <trkpt lat="45.23225" lon="6.02822">
        <ele>2131.399902344</ele>
        <time>2014-01-12T11:48:02Z</time>
      </trkpt>
      <trkpt lat="45.23219" lon="6.02819">
        <ele>2129.600097656</ele>
        <time>2014-01-12T11:48:03Z</time>
      </trkpt>
      <trkpt lat="45.23212" lon="6.02817">
        <ele>2127.600097656</ele>
        <time>2014-01-12T11:48:04Z</time>
      </trkpt>
      <trkpt lat="45.23201" lon="6.02816">
        <ele>2124.199951172</ele>
        <time>2014-01-12T11:48:06Z</time>
      </trkpt>
      <trkpt lat="45.23187" lon="6.02821">
        <ele>2120.600097656</ele>
        <time>2014-01-12T11:48:09Z</time>
      </trkpt>
      <trkpt lat="45.23178" lon="6.02819">
        <ele>2117.800048828</ele>
        <time>2014-01-12T11:48:12Z</time>
      </trkpt>
      <trkpt lat="45.23168" lon="6.02818">
        <ele>2115</ele>
        <time>2014-01-12T11:48:16Z</time>
      </trkpt>
      <trkpt lat="45.23164" lon="6.02811">
        <ele>2112.600097656</ele>
        <time>2014-01-12T11:48:19Z</time>
      </trkpt>
      <trkpt lat="45.23158" lon="6.0281">
        <ele>2110.199951172</ele>
        <time>2014-01-12T11:48:22Z</time>
      </trkpt>
      <trkpt lat="45.23157" lon="6.02807">
        <ele>2109.199951172</ele>
        <time>2014-01-12T11:48:23Z</time>
      </trkpt>
      <trkpt lat="45.23149" lon="6.02801">
        <ele>2105.399902344</ele>
        <time>2014-01-12T11:48:25Z</time>
      </trkpt>
      <trkpt lat="45.23145" lon="6.02789">
        <ele>2101.600097656</ele>
        <time>2014-01-12T11:48:27Z</time>
      </trkpt>
      <trkpt lat="45.23148" lon="6.02781">
        <ele>2101.399902344</ele>
        <time>2014-01-12T11:48:28Z</time>
      </trkpt>
      <trkpt lat="45.23142" lon="6.02755">
        <ele>2094.199951172</ele>
        <time>2014-01-12T11:48:32Z</time>
      </trkpt>
      <trkpt lat="45.23144" lon="6.02731">
        <ele>2092.199951172</ele>
        <time>2014-01-12T11:48:35Z</time>
      </trkpt>
      <trkpt lat="45.23134" lon="6.02731">
        <ele>2087.600097656</ele>
        <time>2014-01-12T11:48:38Z</time>
      </trkpt>
      <trkpt lat="45.23126" lon="6.02723">
        <ele>2083.399902344</ele>
        <time>2014-01-12T11:48:41Z</time>
      </trkpt>
      <trkpt lat="45.23114" lon="6.02723">
        <ele>2077.600097656</ele>
        <time>2014-01-12T11:48:44Z</time>
      </trkpt>
      <trkpt lat="45.23106" lon="6.02703">
        <ele>2071.199951172</ele>
        <time>2014-01-12T11:48:46Z</time>
      </trkpt>
      <trkpt lat="45.23104" lon="6.02686">
        <ele>2068.199951172</ele>
        <time>2014-01-12T11:48:47Z</time>
      </trkpt>
      <trkpt lat="45.23098" lon="6.02658">
        <ele>2062.800048828</ele>
        <time>2014-01-12T11:48:49Z</time>
      </trkpt>
      <trkpt lat="45.23094" lon="6.02646">
        <ele>2061.399902344</ele>
        <time>2014-01-12T11:48:50Z</time>
      </trkpt>
      <trkpt lat="45.23088" lon="6.0263">
        <ele>2059</ele>
        <time>2014-01-12T11:48:52Z</time>
      </trkpt>
      <trkpt lat="45.23081" lon="6.02611">
        <ele>2055.600097656</ele>
        <time>2014-01-12T11:48:55Z</time>
      </trkpt>
      <trkpt lat="45.23062" lon="6.02611">
        <ele>2045.400024414</ele>
        <time>2014-01-12T11:48:58Z</time>
      </trkpt>
      <trkpt lat="45.23041" lon="6.02617">
        <ele>2034</ele>
        <time>2014-01-12T11:49:01Z</time>
      </trkpt>
      <trkpt lat="45.23024" lon="6.02612">
        <ele>2024.800048828</ele>
        <time>2014-01-12T11:49:04Z</time>
      </trkpt>
      <trkpt lat="45.23001" lon="6.02614">
        <ele>2012.199951172</ele>
        <time>2014-01-12T11:49:08Z</time>
      </trkpt>
      <trkpt lat="45.22985" lon="6.02604">
        <ele>2004</ele>
        <time>2014-01-12T11:49:11Z</time>
      </trkpt>
      <trkpt lat="45.2297" lon="6.02603">
        <ele>1996.599975586</ele>
        <time>2014-01-12T11:49:14Z</time>
      </trkpt>
      <trkpt lat="45.22967" lon="6.02594">
        <ele>1995</ele>
        <time>2014-01-12T11:49:16Z</time>
      </trkpt>
      <trkpt lat="45.22967" lon="6.02592">
        <ele>1995</ele>
        <time>2014-01-12T11:49:17Z</time>
      </trkpt>
      <trkpt lat="45.22967" lon="6.02591">
        <ele>1995</ele>
        <time>2014-01-12T11:49:18Z</time>
      </trkpt>
      <trkpt lat="45.22967" lon="6.02589">
        <ele>1995.199951172</ele>
        <time>2014-01-12T11:49:19Z</time>
      </trkpt>
      <trkpt lat="45.22969" lon="6.02572">
        <ele>1996.800048828</ele>
        <time>2014-01-12T11:49:23Z</time>
      </trkpt>
      <trkpt lat="45.22971" lon="6.02549">
        <ele>1998.800048828</ele>
        <time>2014-01-12T11:49:27Z</time>
      </trkpt>
      <trkpt lat="45.22976" lon="6.02526">
        <ele>2001.800048828</ele>
        <time>2014-01-12T11:49:31Z</time>
      </trkpt>
      <trkpt lat="45.22976" lon="6.02516">
        <ele>2002</ele>
        <time>2014-01-12T11:49:32Z</time>
      </trkpt>
      <trkpt lat="45.22971" lon="6.02498">
        <ele>2000.599975586</ele>
        <time>2014-01-12T11:49:34Z</time>
      </trkpt>
      <trkpt lat="45.22959" lon="6.02473">
        <ele>1999.199951172</ele>
        <time>2014-01-12T11:49:37Z</time>
      </trkpt>
      <trkpt lat="45.22954" lon="6.02465">
        <ele>1997.800048828</ele>
        <time>2014-01-12T11:49:38Z</time>
      </trkpt>
      <trkpt lat="45.22944" lon="6.02451">
        <ele>1994.400024414</ele>
        <time>2014-01-12T11:49:40Z</time>
      </trkpt>
      <trkpt lat="45.22932" lon="6.02433">
        <ele>1990</ele>
        <time>2014-01-12T11:49:42Z</time>
      </trkpt>
      <trkpt lat="45.22913" lon="6.02407">
        <ele>1984</ele>
        <time>2014-01-12T11:49:45Z</time>
      </trkpt>
      <trkpt lat="45.22908" lon="6.02399">
        <ele>1983.599975586</ele>
        <time>2014-01-12T11:49:46Z</time>
      </trkpt>
      <trkpt lat="45.2289" lon="6.02374">
        <ele>1983</ele>
        <time>2014-01-12T11:49:49Z</time>
      </trkpt>
      <trkpt lat="45.22879" lon="6.02359">
        <ele>1982.800048828</ele>
        <time>2014-01-12T11:49:51Z</time>
      </trkpt>
      <trkpt lat="45.22872" lon="6.02354">
        <ele>1981.800048828</ele>
        <time>2014-01-12T11:49:52Z</time>
      </trkpt>
      <trkpt lat="45.22847" lon="6.02344">
        <ele>1975.800048828</ele>
        <time>2014-01-12T11:49:55Z</time>
      </trkpt>
      <trkpt lat="45.22837" lon="6.0234">
        <ele>1973.199951172</ele>
        <time>2014-01-12T11:49:56Z</time>
      </trkpt>
      <trkpt lat="45.22828" lon="6.02338">
        <ele>1970.400024414</ele>
        <time>2014-01-12T11:49:57Z</time>
      </trkpt>
      <trkpt lat="45.22805" lon="6.02338">
        <ele>1960.599975586</ele>
        <time>2014-01-12T11:49:59Z</time>
      </trkpt>
      <trkpt lat="45.22788" lon="6.0233">
        <ele>1954.400024414</ele>
        <time>2014-01-12T11:50:01Z</time>
      </trkpt>
      <trkpt lat="45.22782" lon="6.02326">
        <ele>1952.599975586</ele>
        <time>2014-01-12T11:50:02Z</time>
      </trkpt>
      <trkpt lat="45.22775" lon="6.02321">
        <ele>1950.599975586</ele>
        <time>2014-01-12T11:50:03Z</time>
      </trkpt>
      <trkpt lat="45.22768" lon="6.02317">
        <ele>1948.599975586</ele>
        <time>2014-01-12T11:50:04Z</time>
      </trkpt>
      <trkpt lat="45.22751" lon="6.02319">
        <ele>1940.800048828</ele>
        <time>2014-01-12T11:50:06Z</time>
      </trkpt>
      <trkpt lat="45.22743" lon="6.02321">
        <ele>1936.599975586</ele>
        <time>2014-01-12T11:50:07Z</time>
      </trkpt>
      <trkpt lat="45.22722" lon="6.02321">
        <ele>1927.199951172</ele>
        <time>2014-01-12T11:50:09Z</time>
      </trkpt>
      <trkpt lat="45.2271" lon="6.0231">
        <ele>1924.400024414</ele>
        <time>2014-01-12T11:50:11Z</time>
      </trkpt>
      <trkpt lat="45.22689" lon="6.02291">
        <ele>1918.599975586</ele>
        <time>2014-01-12T11:50:14Z</time>
      </trkpt>
      <trkpt lat="45.22684" lon="6.02285">
        <ele>1917</ele>
        <time>2014-01-12T11:50:15Z</time>
      </trkpt>
      <trkpt lat="45.22675" lon="6.02275">
        <ele>1914.599975586</ele>
        <time>2014-01-12T11:50:17Z</time>
      </trkpt>
      <trkpt lat="45.22668" lon="6.02263">
        <ele>1913.400024414</ele>
        <time>2014-01-12T11:50:19Z</time>
      </trkpt>
      <trkpt lat="45.22662" lon="6.0225">
        <ele>1913</ele>
        <time>2014-01-12T11:50:21Z</time>
      </trkpt>
      <trkpt lat="45.22655" lon="6.02236">
        <ele>1912.199951172</ele>
        <time>2014-01-12T11:50:23Z</time>
      </trkpt>
      <trkpt lat="45.22635" lon="6.02216">
        <ele>1905.599975586</ele>
        <time>2014-01-12T11:50:26Z</time>
      </trkpt>
      <trkpt lat="45.22616" lon="6.02197">
        <ele>1897.599975586</ele>
        <time>2014-01-12T11:50:29Z</time>
      </trkpt>
      <trkpt lat="45.22602" lon="6.02185">
        <ele>1890.199951172</ele>
        <time>2014-01-12T11:50:32Z</time>
      </trkpt>
      <trkpt lat="45.22584" lon="6.02184">
        <ele>1879.599975586</ele>
        <time>2014-01-12T11:50:35Z</time>
      </trkpt>
      <trkpt lat="45.22576" lon="6.02183">
        <ele>1875.599975586</ele>
        <time>2014-01-12T11:50:36Z</time>
      </trkpt>
      <trkpt lat="45.22571" lon="6.02179">
        <ele>1872.800048828</ele>
        <time>2014-01-12T11:50:37Z</time>
      </trkpt>
      <trkpt lat="45.22565" lon="6.02179">
        <ele>1869.800048828</ele>
        <time>2014-01-12T11:50:39Z</time>
      </trkpt>
      <trkpt lat="45.22557" lon="6.02177">
        <ele>1865.599975586</ele>
        <time>2014-01-12T11:50:41Z</time>
      </trkpt>
      <trkpt lat="45.22549" lon="6.02179">
        <ele>1861.199951172</ele>
        <time>2014-01-12T11:50:43Z</time>
      </trkpt>
      <trkpt lat="45.2254" lon="6.02169">
        <ele>1856.800048828</ele>
        <time>2014-01-12T11:50:45Z</time>
      </trkpt>
      <trkpt lat="45.22535" lon="6.02154">
        <ele>1854.800048828</ele>
        <time>2014-01-12T11:50:47Z</time>
      </trkpt>
      <trkpt lat="45.22531" lon="6.02149">
        <ele>1853</ele>
        <time>2014-01-12T11:50:48Z</time>
      </trkpt>
      <trkpt lat="45.22526" lon="6.02145">
        <ele>1850.400024414</ele>
        <time>2014-01-12T11:50:49Z</time>
      </trkpt>
      <trkpt lat="45.22515" lon="6.02131">
        <ele>1844.400024414</ele>
        <time>2014-01-12T11:50:52Z</time>
      </trkpt>
      <trkpt lat="45.22506" lon="6.02131">
        <ele>1839</ele>
        <time>2014-01-12T11:50:55Z</time>
      </trkpt>
      <trkpt lat="45.22504" lon="6.0214">
        <ele>1837.800048828</ele>
        <time>2014-01-12T11:50:58Z</time>
      </trkpt>
      <trkpt lat="45.22507" lon="6.02149">
        <ele>1839.199951172</ele>
        <time>2014-01-12T11:51:01Z</time>
      </trkpt>
      <trkpt lat="45.22504" lon="6.02157">
        <ele>1837.199951172</ele>
        <time>2014-01-12T11:51:04Z</time>
      </trkpt>
      <trkpt lat="45.22496" lon="6.02161">
        <ele>1832.599975586</ele>
        <time>2014-01-12T11:51:07Z</time>
      </trkpt>
      <trkpt lat="45.22489" lon="6.02173">
        <ele>1827.400024414</ele>
        <time>2014-01-12T11:51:10Z</time>
      </trkpt>
      <trkpt lat="45.22482" lon="6.02162">
        <ele>1823</ele>
        <time>2014-01-12T11:51:12Z</time>
      </trkpt>
      <trkpt lat="45.22475" lon="6.02154">
        <ele>1818</ele>
        <time>2014-01-12T11:51:16Z</time>
      </trkpt>
      <trkpt lat="45.22469" lon="6.02155">
        <ele>1814.199951172</ele>
        <time>2014-01-12T11:51:19Z</time>
      </trkpt>
      <trkpt lat="45.22469" lon="6.02155">
        <ele>1814</ele>
        <time>2014-01-12T11:51:20Z</time>
      </trkpt>
      <trkpt lat="45.22469" lon="6.02157">
        <ele>1814.400024414</ele>
        <time>2014-01-12T11:51:26Z</time>
      </trkpt>
      <trkpt lat="45.2247" lon="6.02157">
        <ele>1815</ele>
        <time>2014-01-12T11:51:36Z</time>
      </trkpt>
      <trkpt lat="45.2247" lon="6.02158">
        <ele>1815</ele>
        <time>2014-01-12T11:51:42Z</time>
      </trkpt>
      <trkpt lat="45.22469" lon="6.02158">
        <ele>1814</ele>
        <time>2014-01-12T11:51:52Z</time>
      </trkpt>
      <trkpt lat="45.22464" lon="6.02159">
        <ele>1810.400024414</ele>
        <time>2014-01-12T11:51:54Z</time>
      </trkpt>
      <trkpt lat="45.22452" lon="6.02148">
        <ele>1803.199951172</ele>
        <time>2014-01-12T11:51:57Z</time>
      </trkpt>
      <trkpt lat="45.22443" lon="6.02144">
        <ele>1797</ele>
        <time>2014-01-12T11:52:00Z</time>
      </trkpt>
      <trkpt lat="45.22437" lon="6.02131">
        <ele>1794.199951172</ele>
        <time>2014-01-12T11:52:03Z</time>
      </trkpt>
      <trkpt lat="45.22432" lon="6.02137">
        <ele>1790.400024414</ele>
        <time>2014-01-12T11:52:06Z</time>
      </trkpt>
      <trkpt lat="45.22426" lon="6.02134">
        <ele>1786.599975586</ele>
        <time>2014-01-12T11:52:09Z</time>
      </trkpt>
      <trkpt lat="45.22423" lon="6.02124">
        <ele>1785</ele>
        <time>2014-01-12T11:52:12Z</time>
      </trkpt>
      <trkpt lat="45.22415" lon="6.02119">
        <ele>1780.599975586</ele>
        <time>2014-01-12T11:52:15Z</time>
      </trkpt>
      <trkpt lat="45.22411" lon="6.02128">
        <ele>1777.800048828</ele>
        <time>2014-01-12T11:52:18Z</time>
      </trkpt>
      <trkpt lat="45.22407" lon="6.0214">
        <ele>1775.199951172</ele>
        <time>2014-01-12T11:52:21Z</time>
      </trkpt>
      <trkpt lat="45.22397" lon="6.02139">
        <ele>1770.400024414</ele>
        <time>2014-01-12T11:52:24Z</time>
      </trkpt>
      <trkpt lat="45.2239" lon="6.0214">
        <ele>1767.199951172</ele>
        <time>2014-01-12T11:52:26Z</time>
      </trkpt>
      <trkpt lat="45.22386" lon="6.02139">
        <ele>1765.400024414</ele>
        <time>2014-01-12T11:52:27Z</time>
      </trkpt>
      <trkpt lat="45.22377" lon="6.02139">
        <ele>1761.400024414</ele>
        <time>2014-01-12T11:52:29Z</time>
      </trkpt>
      <trkpt lat="45.22367" lon="6.02134">
        <ele>1756.400024414</ele>
        <time>2014-01-12T11:52:31Z</time>
      </trkpt>
      <trkpt lat="45.22359" lon="6.02117">
        <ele>1752.599975586</ele>
        <time>2014-01-12T11:52:33Z</time>
      </trkpt>
      <trkpt lat="45.22353" lon="6.02093">
        <ele>1749.800048828</ele>
        <time>2014-01-12T11:52:36Z</time>
      </trkpt>
      <trkpt lat="45.2235" lon="6.0209">
        <ele>1748.199951172</ele>
        <time>2014-01-12T11:52:37Z</time>
      </trkpt>
      <trkpt lat="45.22342" lon="6.02088">
        <ele>1743.800048828</ele>
        <time>2014-01-12T11:52:40Z</time>
      </trkpt>
      <trkpt lat="45.22329" lon="6.02088">
        <ele>1738.199951172</ele>
        <time>2014-01-12T11:52:43Z</time>
      </trkpt>
      <trkpt lat="45.2231" lon="6.02089">
        <ele>1734</ele>
        <time>2014-01-12T11:52:46Z</time>
      </trkpt>
      <trkpt lat="45.22295" lon="6.02092">
        <ele>1730.800048828</ele>
        <time>2014-01-12T11:52:49Z</time>
      </trkpt>
      <trkpt lat="45.22291" lon="6.02097">
        <ele>1730.400024414</ele>
        <time>2014-01-12T11:52:50Z</time>
      </trkpt>
      <trkpt lat="45.22283" lon="6.02098">
        <ele>1728.800048828</ele>
        <time>2014-01-12T11:52:51Z</time>
      </trkpt>
      <trkpt lat="45.2228" lon="6.02099">
        <ele>1728.199951172</ele>
        <time>2014-01-12T11:52:52Z</time>
      </trkpt>
      <trkpt lat="45.22281" lon="6.0209">
        <ele>1727.599975586</ele>
        <time>2014-01-12T11:52:54Z</time>
      </trkpt>
      <trkpt lat="45.22281" lon="6.02089">
        <ele>1727.599975586</ele>
        <time>2014-01-12T11:52:57Z</time>
      </trkpt>
      <trkpt lat="45.22279" lon="6.02081">
        <ele>1726.400024414</ele>
        <time>2014-01-12T11:53:04Z</time>
      </trkpt>
      <trkpt lat="45.22277" lon="6.02062">
        <ele>1724.199951172</ele>
        <time>2014-01-12T11:53:07Z</time>
      </trkpt>
      <trkpt lat="45.22275" lon="6.02056">
        <ele>1723.199951172</ele>
        <time>2014-01-12T11:53:08Z</time>
      </trkpt>
      <trkpt lat="45.22269" lon="6.02046">
        <ele>1720.599975586</ele>
        <time>2014-01-12T11:53:10Z</time>
      </trkpt>
      <trkpt lat="45.22263" lon="6.02044">
        <ele>1718.599975586</ele>
        <time>2014-01-12T11:53:13Z</time>
      </trkpt>
      <trkpt lat="45.22248" lon="6.02036">
        <ele>1713.800048828</ele>
        <time>2014-01-12T11:53:17Z</time>
      </trkpt>
      <trkpt lat="45.22246" lon="6.0202">
        <ele>1711.599975586</ele>
        <time>2014-01-12T11:53:19Z</time>
      </trkpt>
      <trkpt lat="45.22247" lon="6.01997">
        <ele>1708.400024414</ele>
        <time>2014-01-12T11:53:22Z</time>
      </trkpt>
      <trkpt lat="45.22248" lon="6.01972">
        <ele>1704.800048828</ele>
        <time>2014-01-12T11:53:25Z</time>
      </trkpt>
      <trkpt lat="45.22252" lon="6.01958">
        <ele>1703.599975586</ele>
        <time>2014-01-12T11:53:27Z</time>
      </trkpt>
      <trkpt lat="45.22253" lon="6.01952">
        <ele>1703.400024414</ele>
        <time>2014-01-12T11:53:28Z</time>
      </trkpt>
      <trkpt lat="45.22254" lon="6.01946">
        <ele>1703</ele>
        <time>2014-01-12T11:53:29Z</time>
      </trkpt>
      <trkpt lat="45.22254" lon="6.01932">
        <ele>1701.199951172</ele>
        <time>2014-01-12T11:53:31Z</time>
      </trkpt>
      <trkpt lat="45.22254" lon="6.0192">
        <ele>1699.400024414</ele>
        <time>2014-01-12T11:53:33Z</time>
      </trkpt>
      <trkpt lat="45.22251" lon="6.01894">
        <ele>1695.400024414</ele>
        <time>2014-01-12T11:53:36Z</time>
      </trkpt>
      <trkpt lat="45.2225" lon="6.01884">
        <ele>1694.199951172</ele>
        <time>2014-01-12T11:53:37Z</time>
      </trkpt>
      <trkpt lat="45.22247" lon="6.01857">
        <ele>1692</ele>
        <time>2014-01-12T11:53:40Z</time>
      </trkpt>
      <trkpt lat="45.22246" lon="6.01842">
        <ele>1690.800048828</ele>
        <time>2014-01-12T11:53:42Z</time>
      </trkpt>
      <trkpt lat="45.22245" lon="6.01827">
        <ele>1689.400024414</ele>
        <time>2014-01-12T11:53:44Z</time>
      </trkpt>
      <trkpt lat="45.2224" lon="6.01805">
        <ele>1686.400024414</ele>
        <time>2014-01-12T11:53:47Z</time>
      </trkpt>
      <trkpt lat="45.22241" lon="6.01789">
        <ele>1684.400024414</ele>
        <time>2014-01-12T11:53:49Z</time>
      </trkpt>
      <trkpt lat="45.22242" lon="6.01784">
        <ele>1683.800048828</ele>
        <time>2014-01-12T11:53:50Z</time>
      </trkpt>
      <trkpt lat="45.22246" lon="6.01777">
        <ele>1683.199951172</ele>
        <time>2014-01-12T11:53:53Z</time>
      </trkpt>
      <trkpt lat="45.22257" lon="6.01782">
        <ele>1686.800048828</ele>
        <time>2014-01-12T11:53:57Z</time>
      </trkpt>
      <trkpt lat="45.22267" lon="6.01775">
        <ele>1690.400024414</ele>
        <time>2014-01-12T11:54:01Z</time>
      </trkpt>
      <trkpt lat="45.22263" lon="6.01755">
        <ele>1686.199951172</ele>
        <time>2014-01-12T11:54:03Z</time>
      </trkpt>
      <trkpt lat="45.22261" lon="6.01731">
        <ele>1684.199951172</ele>
        <time>2014-01-12T11:54:05Z</time>
      </trkpt>
      <trkpt lat="45.22262" lon="6.01712">
        <ele>1683.400024414</ele>
        <time>2014-01-12T11:54:07Z</time>
      </trkpt>
      <trkpt lat="45.22262" lon="6.01697">
        <ele>1683</ele>
        <time>2014-01-12T11:54:09Z</time>
      </trkpt>
      <trkpt lat="45.22262" lon="6.01691">
        <ele>1682.599975586</ele>
        <time>2014-01-12T11:54:10Z</time>
      </trkpt>
      <trkpt lat="45.22262" lon="6.01676">
        <ele>1682.400024414</ele>
        <time>2014-01-12T11:54:13Z</time>
      </trkpt>
      <trkpt lat="45.22263" lon="6.01671">
        <ele>1682.400024414</ele>
        <time>2014-01-12T11:54:14Z</time>
      </trkpt>
      <trkpt lat="45.22263" lon="6.01659">
        <ele>1683</ele>
        <time>2014-01-12T11:54:17Z</time>
      </trkpt>
      <trkpt lat="45.22263" lon="6.01651">
        <ele>1683.599975586</ele>
        <time>2014-01-12T11:54:19Z</time>
      </trkpt>
      <trkpt lat="45.22263" lon="6.0164">
        <ele>1684.800048828</ele>
        <time>2014-01-12T11:54:23Z</time>
      </trkpt>
      <trkpt lat="45.22263" lon="6.01638">
        <ele>1684.599975586</ele>
        <time>2014-01-12T11:54:24Z</time>
      </trkpt>
      <trkpt lat="45.22261" lon="6.01631">
        <ele>1684.400024414</ele>
        <time>2014-01-12T11:54:27Z</time>
      </trkpt>
      <trkpt lat="45.22259" lon="6.01619">
        <ele>1684.199951172</ele>
        <time>2014-01-12T11:54:32Z</time>
      </trkpt>
      <trkpt lat="45.22258" lon="6.01615">
        <ele>1684</ele>
        <time>2014-01-12T11:54:36Z</time>
      </trkpt>
      <trkpt lat="45.22258" lon="6.01613">
        <ele>1684.199951172</ele>
        <time>2014-01-12T11:54:38Z</time>
      </trkpt>
      <trkpt lat="45.22258" lon="6.0161">
        <ele>1684.199951172</ele>
        <time>2014-01-12T11:54:41Z</time>
      </trkpt>
      <trkpt lat="45.22257" lon="6.01601">
        <ele>1684.800048828</ele>
        <time>2014-01-12T11:54:45Z</time>
      </trkpt>
      <trkpt lat="45.22257" lon="6.01598">
        <ele>1685</ele>
        <time>2014-01-12T11:54:46Z</time>
      </trkpt>
      <trkpt lat="45.22256" lon="6.01586">
        <ele>1685.199951172</ele>
        <time>2014-01-12T11:54:51Z</time>
      </trkpt>
      <trkpt lat="45.22254" lon="6.01567">
        <ele>1684.800048828</ele>
        <time>2014-01-12T11:54:58Z</time>
      </trkpt>
      <trkpt lat="45.22252" lon="6.01554">
        <ele>1684.800048828</ele>
        <time>2014-01-12T11:55:04Z</time>
      </trkpt>
      <trkpt lat="45.22252" lon="6.01552">
        <ele>1684.800048828</ele>
        <time>2014-01-12T11:55:09Z</time>
      </trkpt>
      <trkpt lat="45.22248" lon="6.01548">
        <ele>1683.599975586</ele>
        <time>2014-01-12T11:55:15Z</time>
      </trkpt>
      <trkpt lat="45.22247" lon="6.01547">
        <ele>1683.599975586</ele>
        <time>2014-01-12T11:55:16Z</time>
      </trkpt>
      <trkpt lat="45.22246" lon="6.01537">
        <ele>1683.800048828</ele>
        <time>2014-01-12T11:55:22Z</time>
      </trkpt>
      <trkpt lat="45.22245" lon="6.01531">
        <ele>1684</ele>
        <time>2014-01-12T11:55:27Z</time>
      </trkpt>
      <trkpt lat="45.22244" lon="6.01531">
        <ele>1683.800048828</ele>
        <time>2014-01-12T11:55:28Z</time>
      </trkpt>
      <trkpt lat="45.22244" lon="6.01524">
        <ele>1684.199951172</ele>
        <time>2014-01-12T11:55:52Z</time>
      </trkpt>
      <trkpt lat="45.22243" lon="6.01521">
        <ele>1684.199951172</ele>
        <time>2014-01-12T11:55:54Z</time>
      </trkpt>
      <trkpt lat="45.22242" lon="6.01511">
        <ele>1684.400024414</ele>
        <time>2014-01-12T11:55:58Z</time>
      </trkpt>
      <trkpt lat="45.2224" lon="6.01501">
        <ele>1684.800048828</ele>
        <time>2014-01-12T11:56:03Z</time>
      </trkpt>
      <trkpt lat="45.2224" lon="6.0149">
        <ele>1683.800048828</ele>
        <time>2014-01-12T11:56:07Z</time>
      </trkpt>
      <trkpt lat="45.22238" lon="6.01466">
        <ele>1680.800048828</ele>
        <time>2014-01-12T11:56:13Z</time>
      </trkpt>
      <trkpt lat="45.22232" lon="6.01437">
        <ele>1676.599975586</ele>
        <time>2014-01-12T11:56:18Z</time>
      </trkpt>
      <trkpt lat="45.22228" lon="6.01421">
        <ele>1674.400024414</ele>
        <time>2014-01-12T11:56:21Z</time>
      </trkpt>
      <trkpt lat="45.2223" lon="6.01409">
        <ele>1673</ele>
        <time>2014-01-12T11:56:23Z</time>
      </trkpt>
      <trkpt lat="45.22234" lon="6.01397">
        <ele>1671.400024414</ele>
        <time>2014-01-12T11:56:25Z</time>
      </trkpt>
      <trkpt lat="45.22236" lon="6.0139">
        <ele>1670.599975586</ele>
        <time>2014-01-12T11:56:26Z</time>
      </trkpt>
      <trkpt lat="45.22239" lon="6.01383">
        <ele>1669.800048828</ele>
        <time>2014-01-12T11:56:27Z</time>
      </trkpt>
      <trkpt lat="45.22245" lon="6.01374">
        <ele>1669</ele>
        <time>2014-01-12T11:56:29Z</time>
      </trkpt>
      <trkpt lat="45.22248" lon="6.0137">
        <ele>1668.800048828</ele>
        <time>2014-01-12T11:56:30Z</time>
      </trkpt>
      <trkpt lat="45.22253" lon="6.01369">
        <ele>1670</ele>
        <time>2014-01-12T11:56:31Z</time>
      </trkpt>
      <trkpt lat="45.2226" lon="6.01363">
        <ele>1671.199951172</ele>
        <time>2014-01-12T11:56:33Z</time>
      </trkpt>
      <trkpt lat="45.22274" lon="6.01351">
        <ele>1674</ele>
        <time>2014-01-12T11:56:37Z</time>
      </trkpt>
      <trkpt lat="45.22279" lon="6.01334">
        <ele>1672.199951172</ele>
        <time>2014-01-12T11:56:41Z</time>
      </trkpt>
      <trkpt lat="45.2228" lon="6.01328">
        <ele>1671.199951172</ele>
        <time>2014-01-12T11:56:42Z</time>
      </trkpt>
      <trkpt lat="45.22283" lon="6.01308">
        <ele>1667</ele>
        <time>2014-01-12T11:56:45Z</time>
      </trkpt>
      <trkpt lat="45.22286" lon="6.01301">
        <ele>1666.599975586</ele>
        <time>2014-01-12T11:56:46Z</time>
      </trkpt>
      <trkpt lat="45.2229" lon="6.01295">
        <ele>1666.199951172</ele>
        <time>2014-01-12T11:56:48Z</time>
      </trkpt>
      <trkpt lat="45.22288" lon="6.01295">
        <ele>1665.800048828</ele>
        <time>2014-01-12T11:56:49Z</time>
      </trkpt>
      <trkpt lat="45.22278" lon="6.01298">
        <ele>1663</ele>
        <time>2014-01-12T11:56:52Z</time>
      </trkpt>
      <trkpt lat="45.22269" lon="6.01297">
        <ele>1659.599975586</ele>
        <time>2014-01-12T11:56:54Z</time>
      </trkpt>
      <trkpt lat="45.22261" lon="6.01301">
        <ele>1657.800048828</ele>
        <time>2014-01-12T11:56:56Z</time>
      </trkpt>
      <trkpt lat="45.22243" lon="6.01306">
        <ele>1654.800048828</ele>
        <time>2014-01-12T11:57:00Z</time>
      </trkpt>
      <trkpt lat="45.22239" lon="6.01306">
        <ele>1654.199951172</ele>
        <time>2014-01-12T11:57:01Z</time>
      </trkpt>
      <trkpt lat="45.22234" lon="6.01296">
        <ele>1651.199951172</ele>
        <time>2014-01-12T11:57:03Z</time>
      </trkpt>
      <trkpt lat="45.2223" lon="6.01275">
        <ele>1646</ele>
        <time>2014-01-12T11:57:07Z</time>
      </trkpt>
      <trkpt lat="45.22229" lon="6.0127">
        <ele>1645</ele>
        <time>2014-01-12T11:57:08Z</time>
      </trkpt>
      <trkpt lat="45.22232" lon="6.01248">
        <ele>1640.199951172</ele>
        <time>2014-01-12T11:57:12Z</time>
      </trkpt>
      <trkpt lat="45.2224" lon="6.01227">
        <ele>1636.800048828</ele>
        <time>2014-01-12T11:57:16Z</time>
      </trkpt>
      <trkpt lat="45.22242" lon="6.01226">
        <ele>1636.599975586</ele>
        <time>2014-01-12T11:57:19Z</time>
      </trkpt>
      <trkpt lat="45.22242" lon="6.01224">
        <ele>1636.400024414</ele>
        <time>2014-01-12T11:57:20Z</time>
      </trkpt>
      <trkpt lat="45.2224" lon="6.01216">
        <ele>1634.800048828</ele>
        <time>2014-01-12T11:57:23Z</time>
      </trkpt>
      <trkpt lat="45.22241" lon="6.01206">
        <ele>1633</ele>
        <time>2014-01-12T11:57:26Z</time>
      </trkpt>
      <trkpt lat="45.22241" lon="6.01203">
        <ele>1632.400024414</ele>
        <time>2014-01-12T11:57:27Z</time>
      </trkpt>
      <trkpt lat="45.22242" lon="6.01186">
        <ele>1629.199951172</ele>
        <time>2014-01-12T11:57:30Z</time>
      </trkpt>
      <trkpt lat="45.22241" lon="6.01175">
        <ele>1627</ele>
        <time>2014-01-12T11:57:32Z</time>
      </trkpt>
      <trkpt lat="45.2224" lon="6.01169">
        <ele>1625.800048828</ele>
        <time>2014-01-12T11:57:33Z</time>
      </trkpt>
      <trkpt lat="45.22233" lon="6.01146">
        <ele>1622.199951172</ele>
        <time>2014-01-12T11:57:37Z</time>
      </trkpt>
      <trkpt lat="45.22232" lon="6.01138">
        <ele>1621.199951172</ele>
        <time>2014-01-12T11:57:38Z</time>
      </trkpt>
      <trkpt lat="45.22234" lon="6.01115">
        <ele>1618.199951172</ele>
        <time>2014-01-12T11:57:41Z</time>
      </trkpt>
      <trkpt lat="45.22234" lon="6.0111">
        <ele>1617.599975586</ele>
        <time>2014-01-12T11:57:42Z</time>
      </trkpt>
      <trkpt lat="45.22233" lon="6.01092">
        <ele>1615.199951172</ele>
        <time>2014-01-12T11:57:45Z</time>
      </trkpt>
      <trkpt lat="45.2223" lon="6.01075">
        <ele>1612.400024414</ele>
        <time>2014-01-12T11:57:48Z</time>
      </trkpt>
      <trkpt lat="45.22229" lon="6.01054">
        <ele>1608.800048828</ele>
        <time>2014-01-12T11:57:52Z</time>
      </trkpt>
      <trkpt lat="45.22231" lon="6.01044">
        <ele>1607.199951172</ele>
        <time>2014-01-12T11:57:55Z</time>
      </trkpt>
      <trkpt lat="45.22233" lon="6.01016">
        <ele>1602.400024414</ele>
        <time>2014-01-12T11:57:59Z</time>
      </trkpt>
      <trkpt lat="45.22232" lon="6.00999">
        <ele>1599.599975586</ele>
        <time>2014-01-12T11:58:01Z</time>
      </trkpt>
      <trkpt lat="45.22237" lon="6.00989">
        <ele>1597.599975586</ele>
        <time>2014-01-12T11:58:03Z</time>
      </trkpt>
      <trkpt lat="45.22246" lon="6.0097">
        <ele>1593.599975586</ele>
        <time>2014-01-12T11:58:07Z</time>
      </trkpt>
      <trkpt lat="45.22251" lon="6.00962">
        <ele>1592.199951172</ele>
        <time>2014-01-12T11:58:10Z</time>
      </trkpt>
      <trkpt lat="45.22251" lon="6.00961">
        <ele>1592</ele>
        <time>2014-01-12T11:58:14Z</time>
      </trkpt>
      <trkpt lat="45.22251" lon="6.00959">
        <ele>1591.400024414</ele>
        <time>2014-01-12T11:58:20Z</time>
      </trkpt>
      <trkpt lat="45.22251" lon="6.00958">
        <ele>1591.599975586</ele>
        <time>2014-01-12T11:58:33Z</time>
      </trkpt>
      <trkpt lat="45.22251" lon="6.00958">
        <ele>1591.199951172</ele>
        <time>2014-01-12T11:58:34Z</time>
      </trkpt>
      <trkpt lat="45.2225" lon="6.00958">
        <ele>1591</ele>
        <time>2014-01-12T11:58:35Z</time>
      </trkpt>
      <trkpt lat="45.22248" lon="6.00958">
        <ele>1591</ele>
        <time>2014-01-12T11:58:38Z</time>
      </trkpt>
      <trkpt lat="45.22245" lon="6.00957">
        <ele>1591.199951172</ele>
        <time>2014-01-12T11:58:41Z</time>
      </trkpt>
      <trkpt lat="45.22244" lon="6.00954">
        <ele>1590.599975586</ele>
        <time>2014-01-12T11:58:43Z</time>
      </trkpt>
      <trkpt lat="45.22241" lon="6.00946">
        <ele>1589.400024414</ele>
        <time>2014-01-12T11:58:48Z</time>
      </trkpt>
      <trkpt lat="45.22241" lon="6.00944">
        <ele>1589.199951172</ele>
        <time>2014-01-12T11:58:49Z</time>
      </trkpt>
      <trkpt lat="45.22244" lon="6.00941">
        <ele>1588.199951172</ele>
        <time>2014-01-12T11:58:53Z</time>
      </trkpt>
      <trkpt lat="45.22244" lon="6.0094">
        <ele>1588</ele>
        <time>2014-01-12T11:58:54Z</time>
      </trkpt>
      <trkpt lat="45.22246" lon="6.00937">
        <ele>1587.400024414</ele>
        <time>2014-01-12T11:58:56Z</time>
      </trkpt>
      <trkpt lat="45.22246" lon="6.00935">
        <ele>1587</ele>
        <time>2014-01-12T11:58:57Z</time>
      </trkpt>
      <trkpt lat="45.22248" lon="6.00926">
        <ele>1585</ele>
        <time>2014-01-12T11:59:02Z</time>
      </trkpt>
      <trkpt lat="45.2225" lon="6.00923">
        <ele>1584.199951172</ele>
        <time>2014-01-12T11:59:04Z</time>
      </trkpt>
      <trkpt lat="45.22254" lon="6.00916">
        <ele>1584.199951172</ele>
        <time>2014-01-12T11:59:09Z</time>
      </trkpt>
      <trkpt lat="45.22253" lon="6.00914">
        <ele>1583.599975586</ele>
        <time>2014-01-12T11:59:10Z</time>
      </trkpt>
      <trkpt lat="45.22251" lon="6.00914">
        <ele>1582.599975586</ele>
        <time>2014-01-12T11:59:13Z</time>
      </trkpt>
      <trkpt lat="45.2225" lon="6.00915">
        <ele>1582.599975586</ele>
        <time>2014-01-12T11:59:14Z</time>
      </trkpt>
      <trkpt lat="45.22248" lon="6.00918">
        <ele>1583.599975586</ele>
        <time>2014-01-12T11:59:24Z</time>
      </trkpt>
      <trkpt lat="45.22247" lon="6.00916">
        <ele>1583.199951172</ele>
        <time>2014-01-12T11:59:34Z</time>
      </trkpt>
      <trkpt lat="45.22248" lon="6.00914">
        <ele>1582.800048828</ele>
        <time>2014-01-12T11:59:39Z</time>
      </trkpt>
      <trkpt lat="45.22251" lon="6.00911">
        <ele>1582.199951172</ele>
        <time>2014-01-12T11:59:41Z</time>
      </trkpt>
      <trkpt lat="45.22246" lon="6.00905">
        <ele>1581</ele>
        <time>2014-01-12T11:59:44Z</time>
      </trkpt>
      <trkpt lat="45.22243" lon="6.00904">
        <ele>1581</ele>
        <time>2014-01-12T11:59:45Z</time>
      </trkpt>
      <trkpt lat="45.2224" lon="6.00899">
        <ele>1580.400024414</ele>
        <time>2014-01-12T11:59:47Z</time>
      </trkpt>
      <trkpt lat="45.22244" lon="6.00893">
        <ele>1578.599975586</ele>
        <time>2014-01-12T11:59:48Z</time>
      </trkpt>
      <trkpt lat="45.22245" lon="6.00876">
        <ele>1574.599975586</ele>
        <time>2014-01-12T11:59:51Z</time>
      </trkpt>
      <trkpt lat="45.22239" lon="6.00859">
        <ele>1571.599975586</ele>
        <time>2014-01-12T11:59:55Z</time>
      </trkpt>
      <trkpt lat="45.22234" lon="6.00849">
        <ele>1569.800048828</ele>
        <time>2014-01-12T11:59:57Z</time>
      </trkpt>
      <trkpt lat="45.22233" lon="6.00845">
        <ele>1569</ele>
        <time>2014-01-12T11:59:58Z</time>
      </trkpt>
      <trkpt lat="45.22228" lon="6.00833">
        <ele>1566.800048828</ele>
        <time>2014-01-12T12:00:01Z</time>
      </trkpt>
      <trkpt lat="45.22226" lon="6.0083">
        <ele>1566.199951172</ele>
        <time>2014-01-12T12:00:02Z</time>
      </trkpt>
      <trkpt lat="45.22222" lon="6.00821">
        <ele>1564.599975586</ele>
        <time>2014-01-12T12:00:04Z</time>
      </trkpt>
      <trkpt lat="45.22219" lon="6.00817">
        <ele>1564</ele>
        <time>2014-01-12T12:00:05Z</time>
      </trkpt>
      <trkpt lat="45.22216" lon="6.00813">
        <ele>1563.400024414</ele>
        <time>2014-01-12T12:00:06Z</time>
      </trkpt>
      <trkpt lat="45.22208" lon="6.00799">
        <ele>1561.199951172</ele>
        <time>2014-01-12T12:00:09Z</time>
      </trkpt>
      <trkpt lat="45.22198" lon="6.00773">
        <ele>1557</ele>
        <time>2014-01-12T12:00:13Z</time>
      </trkpt>
      <trkpt lat="45.22198" lon="6.00768">
        <ele>1556.199951172</ele>
        <time>2014-01-12T12:00:14Z</time>
      </trkpt>
      <trkpt lat="45.22194" lon="6.00756">
        <ele>1554.199951172</ele>
        <time>2014-01-12T12:00:17Z</time>
      </trkpt>
      <trkpt lat="45.22193" lon="6.00751">
        <ele>1553.400024414</ele>
        <time>2014-01-12T12:00:18Z</time>
      </trkpt>
      <trkpt lat="45.22192" lon="6.00731">
        <ele>1549.800048828</ele>
        <time>2014-01-12T12:00:22Z</time>
      </trkpt>
      <trkpt lat="45.2219" lon="6.00712">
        <ele>1546.800048828</ele>
        <time>2014-01-12T12:00:27Z</time>
      </trkpt>
      <trkpt lat="45.2219" lon="6.0071">
        <ele>1546.400024414</ele>
        <time>2014-01-12T12:00:28Z</time>
      </trkpt>
      <trkpt lat="45.2219" lon="6.00709">
        <ele>1546.400024414</ele>
        <time>2014-01-12T12:00:31Z</time>
      </trkpt>
      <trkpt lat="45.22191" lon="6.0071">
        <ele>1546.400024414</ele>
        <time>2014-01-12T12:00:44Z</time>
      </trkpt>
      <trkpt lat="45.22191" lon="6.00708">
        <ele>1546</ele>
        <time>2014-01-12T12:00:45Z</time>
      </trkpt>
      <trkpt lat="45.22191" lon="6.00705">
        <ele>1545.400024414</ele>
        <time>2014-01-12T12:00:46Z</time>
      </trkpt>
      <trkpt lat="45.22191" lon="6.00703">
        <ele>1545</ele>
        <time>2014-01-12T12:00:47Z</time>
      </trkpt>
      <trkpt lat="45.22194" lon="6.00688">
        <ele>1542</ele>
        <time>2014-01-12T12:00:53Z</time>
      </trkpt>
      <trkpt lat="45.22193" lon="6.00682">
        <ele>1541</ele>
        <time>2014-01-12T12:00:55Z</time>
      </trkpt>
      <trkpt lat="45.22193" lon="6.00679">
        <ele>1540.400024414</ele>
        <time>2014-01-12T12:00:56Z</time>
      </trkpt>
      <trkpt lat="45.22194" lon="6.00673">
        <ele>1539.199951172</ele>
        <time>2014-01-12T12:00:58Z</time>
      </trkpt>
      <trkpt lat="45.22191" lon="6.00666">
        <ele>1538.599975586</ele>
        <time>2014-01-12T12:01:01Z</time>
      </trkpt>
      <trkpt lat="45.2219" lon="6.00662">
        <ele>1537.800048828</ele>
        <time>2014-01-12T12:01:03Z</time>
      </trkpt>
      <trkpt lat="45.22193" lon="6.00655">
        <ele>1535.800048828</ele>
        <time>2014-01-12T12:01:07Z</time>
      </trkpt>
      <trkpt lat="45.22194" lon="6.00653">
        <ele>1535</ele>
        <time>2014-01-12T12:01:08Z</time>
      </trkpt>
      <trkpt lat="45.22195" lon="6.00652">
        <ele>1534.599975586</ele>
        <time>2014-01-12T12:01:09Z</time>
      </trkpt>
      <trkpt lat="45.22197" lon="6.00637">
        <ele>1531</ele>
        <time>2014-01-12T12:01:14Z</time>
      </trkpt>
      <trkpt lat="45.22196" lon="6.00635">
        <ele>1530.800048828</ele>
        <time>2014-01-12T12:01:15Z</time>
      </trkpt>
      <trkpt lat="45.22196" lon="6.00624">
        <ele>1528.400024414</ele>
        <time>2014-01-12T12:01:21Z</time>
      </trkpt>
      <trkpt lat="45.22194" lon="6.00612">
        <ele>1526.199951172</ele>
        <time>2014-01-12T12:01:26Z</time>
      </trkpt>
      <trkpt lat="45.2219" lon="6.0061">
        <ele>1526.400024414</ele>
        <time>2014-01-12T12:01:29Z</time>
      </trkpt>
      <trkpt lat="45.22189" lon="6.00613">
        <ele>1527</ele>
        <time>2014-01-12T12:01:31Z</time>
      </trkpt>
      <trkpt lat="45.22188" lon="6.00614">
        <ele>1527.599975586</ele>
        <time>2014-01-12T12:01:34Z</time>
      </trkpt>
      <trkpt lat="45.22187" lon="6.00613">
        <ele>1527.599975586</ele>
        <time>2014-01-12T12:01:36Z</time>
      </trkpt>
      <trkpt lat="45.22187" lon="6.00614">
        <ele>1527.800048828</ele>
        <time>2014-01-12T12:01:39Z</time>
      </trkpt>
      <trkpt lat="45.2219" lon="6.00611">
        <ele>1526.599975586</ele>
        <time>2014-01-12T12:01:59Z</time>
      </trkpt>
      <trkpt lat="45.2219" lon="6.0061">
        <ele>1526.199951172</ele>
        <time>2014-01-12T12:02:03Z</time>
      </trkpt>
      <trkpt lat="45.22195" lon="6.00612">
        <ele>1526</ele>
        <time>2014-01-12T12:02:11Z</time>
      </trkpt>
      <trkpt lat="45.22196" lon="6.00614">
        <ele>1526.199951172</ele>
        <time>2014-01-12T12:02:15Z</time>
      </trkpt>
      <trkpt lat="45.22194" lon="6.00612">
        <ele>1526</ele>
        <time>2014-01-12T12:02:20Z</time>
      </trkpt>
      <trkpt lat="45.22192" lon="6.00601">
        <ele>1523.800048828</ele>
        <time>2014-01-12T12:02:23Z</time>
      </trkpt>
      <trkpt lat="45.2219" lon="6.0058">
        <ele>1520</ele>
        <time>2014-01-12T12:02:27Z</time>
      </trkpt>
      <trkpt lat="45.22194" lon="6.00573">
        <ele>1517.800048828</ele>
        <time>2014-01-12T12:02:31Z</time>
      </trkpt>
      <trkpt lat="45.222" lon="6.00576">
        <ele>1517</ele>
        <time>2014-01-12T12:02:35Z</time>
      </trkpt>
      <trkpt lat="45.22206" lon="6.00577">
        <ele>1516.199951172</ele>
        <time>2014-01-12T12:02:39Z</time>
      </trkpt>
      <trkpt lat="45.22209" lon="6.00576">
        <ele>1515.199951172</ele>
        <time>2014-01-12T12:02:42Z</time>
      </trkpt>
      <trkpt lat="45.22214" lon="6.00579">
        <ele>1515</ele>
        <time>2014-01-12T12:02:46Z</time>
      </trkpt>
      <trkpt lat="45.22216" lon="6.00579">
        <ele>1514.400024414</ele>
        <time>2014-01-12T12:02:50Z</time>
      </trkpt>
      <trkpt lat="45.22217" lon="6.00577">
        <ele>1513.800048828</ele>
        <time>2014-01-12T12:02:51Z</time>
      </trkpt>
      <trkpt lat="45.22218" lon="6.00574">
        <ele>1513</ele>
        <time>2014-01-12T12:02:52Z</time>
      </trkpt>
      <trkpt lat="45.22217" lon="6.00563">
        <ele>1510.599975586</ele>
        <time>2014-01-12T12:02:55Z</time>
      </trkpt>
      <trkpt lat="45.22219" lon="6.00563">
        <ele>1509.800048828</ele>
        <time>2014-01-12T12:02:57Z</time>
      </trkpt>
      <trkpt lat="45.22219" lon="6.00563">
        <ele>1509.800048828</ele>
        <time>2014-01-12T12:02:58Z</time>
      </trkpt>
      <trkpt lat="45.22222" lon="6.00562">
        <ele>1508.800048828</ele>
        <time>2014-01-12T12:03:06Z</time>
      </trkpt>
      <trkpt lat="45.22224" lon="6.00561">
        <ele>1508.400024414</ele>
        <time>2014-01-12T12:03:13Z</time>
      </trkpt>
      <trkpt lat="45.22224" lon="6.00561">
        <ele>1508.400024414</ele>
        <time>2014-01-12T12:03:14Z</time>
      </trkpt>
      <trkpt lat="45.22227" lon="6.0055">
        <ele>1504.800048828</ele>
        <time>2014-01-12T12:03:18Z</time>
      </trkpt>
      <trkpt lat="45.22229" lon="6.00546">
        <ele>1503</ele>
        <time>2014-01-12T12:03:20Z</time>
      </trkpt>
      <trkpt lat="45.22229" lon="6.00543">
        <ele>1502.199951172</ele>
        <time>2014-01-12T12:03:21Z</time>
      </trkpt>
      <trkpt lat="45.22227" lon="6.00532">
        <ele>1499.800048828</ele>
        <time>2014-01-12T12:03:25Z</time>
      </trkpt>
      <trkpt lat="45.22236" lon="6.00527">
        <ele>1495.800048828</ele>
        <time>2014-01-12T12:03:29Z</time>
      </trkpt>
      <trkpt lat="45.2224" lon="6.00525">
        <ele>1494</ele>
        <time>2014-01-12T12:03:32Z</time>
      </trkpt>
      <trkpt lat="45.22238" lon="6.0052">
        <ele>1493.199951172</ele>
        <time>2014-01-12T12:03:34Z</time>
      </trkpt>
      <trkpt lat="45.22238" lon="6.00516">
        <ele>1491.800048828</ele>
        <time>2014-01-12T12:03:35Z</time>
      </trkpt>
      <trkpt lat="45.2225" lon="6.005">
        <ele>1483</ele>
        <time>2014-01-12T12:03:38Z</time>
      </trkpt>
      <trkpt lat="45.2225" lon="6.005">
        <ele>1483</ele>
        <time>2014-01-12T12:03:42Z</time>
      </trkpt>
      <trkpt lat="45.22237" lon="6.00498">
        <ele>1487.199951172</ele>
        <time>2014-01-12T12:03:44Z</time>
      </trkpt>
      <trkpt lat="45.22237" lon="6.00496">
        <ele>1487</ele>
        <time>2014-01-12T12:03:45Z</time>
      </trkpt>
      <trkpt lat="45.2223" lon="6.00481">
        <ele>1486.400024414</ele>
        <time>2014-01-12T12:03:49Z</time>
      </trkpt>
      <trkpt lat="45.22231" lon="6.00471">
        <ele>1483.800048828</ele>
        <time>2014-01-12T12:03:52Z</time>
      </trkpt>
      <trkpt lat="45.22233" lon="6.00457">
        <ele>1480</ele>
        <time>2014-01-12T12:03:55Z</time>
      </trkpt>
      <trkpt lat="45.22235" lon="6.00453">
        <ele>1478.199951172</ele>
        <time>2014-01-12T12:03:56Z</time>
      </trkpt>
      <trkpt lat="45.22241" lon="6.00446">
        <ele>1474.199951172</ele>
        <time>2014-01-12T12:03:58Z</time>
      </trkpt>
      <trkpt lat="45.22245" lon="6.00442">
        <ele>1472</ele>
        <time>2014-01-12T12:03:59Z</time>
      </trkpt>
      <trkpt lat="45.22256" lon="6.00432">
        <ele>1466.800048828</ele>
        <time>2014-01-12T12:04:03Z</time>
      </trkpt>
      <trkpt lat="45.22264" lon="6.00422">
        <ele>1463.199951172</ele>
        <time>2014-01-12T12:04:06Z</time>
      </trkpt>
      <trkpt lat="45.22271" lon="6.00414">
        <ele>1460.400024414</ele>
        <time>2014-01-12T12:04:09Z</time>
      </trkpt>
      <trkpt lat="45.22274" lon="6.00403">
        <ele>1457.800048828</ele>
        <time>2014-01-12T12:04:12Z</time>
      </trkpt>
      <trkpt lat="45.22284" lon="6.00393">
        <ele>1454.400024414</ele>
        <time>2014-01-12T12:04:15Z</time>
      </trkpt>
      <trkpt lat="45.22297" lon="6.00377">
        <ele>1449.199951172</ele>
        <time>2014-01-12T12:04:18Z</time>
      </trkpt>
      <trkpt lat="45.22311" lon="6.00372">
        <ele>1446.199951172</ele>
        <time>2014-01-12T12:04:20Z</time>
      </trkpt>
      <trkpt lat="45.22317" lon="6.00368">
        <ele>1444.400024414</ele>
        <time>2014-01-12T12:04:21Z</time>
      </trkpt>
      <trkpt lat="45.22332" lon="6.00345">
        <ele>1437.599975586</ele>
        <time>2014-01-12T12:04:24Z</time>
      </trkpt>
      <trkpt lat="45.22329" lon="6.00311">
        <ele>1432.800048828</ele>
        <time>2014-01-12T12:04:27Z</time>
      </trkpt>
      <trkpt lat="45.22318" lon="6.00307">
        <ele>1434.199951172</ele>
        <time>2014-01-12T12:04:29Z</time>
      </trkpt>
      <trkpt lat="45.22309" lon="6.00291">
        <ele>1433.800048828</ele>
        <time>2014-01-12T12:04:32Z</time>
      </trkpt>
      <trkpt lat="45.22311" lon="6.00272">
        <ele>1431.400024414</ele>
        <time>2014-01-12T12:04:35Z</time>
      </trkpt>
      <trkpt lat="45.22309" lon="6.00253">
        <ele>1429.599975586</ele>
        <time>2014-01-12T12:04:39Z</time>
      </trkpt>
      <trkpt lat="45.22301" lon="6.00244">
        <ele>1430.199951172</ele>
        <time>2014-01-12T12:04:42Z</time>
      </trkpt>
      <trkpt lat="45.223" lon="6.00231">
        <ele>1429.400024414</ele>
        <time>2014-01-12T12:04:45Z</time>
      </trkpt>
      <trkpt lat="45.22301" lon="6.00206">
        <ele>1426.400024414</ele>
        <time>2014-01-12T12:04:49Z</time>
      </trkpt>
      <trkpt lat="45.22316" lon="6.00196">
        <ele>1420.599975586</ele>
        <time>2014-01-12T12:04:52Z</time>
      </trkpt>
      <trkpt lat="45.22327" lon="6.00193">
        <ele>1416.599975586</ele>
        <time>2014-01-12T12:04:54Z</time>
      </trkpt>
      <trkpt lat="45.22335" lon="6.00188">
        <ele>1413.599975586</ele>
        <time>2014-01-12T12:04:56Z</time>
      </trkpt>
      <trkpt lat="45.22352" lon="6.00166">
        <ele>1411.199951172</ele>
        <time>2014-01-12T12:05:00Z</time>
      </trkpt>
      <trkpt lat="45.22372" lon="6.00147">
        <ele>1409.599975586</ele>
        <time>2014-01-12T12:05:04Z</time>
      </trkpt>
      <trkpt lat="45.22384" lon="6.00139">
        <ele>1408.400024414</ele>
        <time>2014-01-12T12:05:07Z</time>
      </trkpt>
      <trkpt lat="45.22391" lon="6.00137">
        <ele>1407.800048828</ele>
        <time>2014-01-12T12:05:09Z</time>
      </trkpt>
      <trkpt lat="45.22399" lon="6.00132">
        <ele>1406.599975586</ele>
        <time>2014-01-12T12:05:11Z</time>
      </trkpt>
      <trkpt lat="45.22414" lon="6.00119">
        <ele>1402.599975586</ele>
        <time>2014-01-12T12:05:15Z</time>
      </trkpt>
      <trkpt lat="45.22419" lon="6.00116">
        <ele>1402</ele>
        <time>2014-01-12T12:05:16Z</time>
      </trkpt>
      <trkpt lat="45.22423" lon="6.00111">
        <ele>1401.800048828</ele>
        <time>2014-01-12T12:05:17Z</time>
      </trkpt>
      <trkpt lat="45.22435" lon="6.00096">
        <ele>1400.800048828</ele>
        <time>2014-01-12T12:05:20Z</time>
      </trkpt>
      <trkpt lat="45.22452" lon="6.00074">
        <ele>1400.400024414</ele>
        <time>2014-01-12T12:05:24Z</time>
      </trkpt>
      <trkpt lat="45.22463" lon="6.00058">
        <ele>1399.800048828</ele>
        <time>2014-01-12T12:05:27Z</time>
      </trkpt>
      <trkpt lat="45.22467" lon="6.00053">
        <ele>1399.400024414</ele>
        <time>2014-01-12T12:05:28Z</time>
      </trkpt>
      <trkpt lat="45.2247" lon="6.00048">
        <ele>1398.800048828</ele>
        <time>2014-01-12T12:05:29Z</time>
      </trkpt>
      <trkpt lat="45.22475" lon="6.00035">
        <ele>1396.599975586</ele>
        <time>2014-01-12T12:05:31Z</time>
      </trkpt>
      <trkpt lat="45.22482" lon="6.00024">
        <ele>1394.800048828</ele>
        <time>2014-01-12T12:05:33Z</time>
      </trkpt>
      <trkpt lat="45.22486" lon="6.0002">
        <ele>1394.199951172</ele>
        <time>2014-01-12T12:05:34Z</time>
      </trkpt>
      <trkpt lat="45.22489" lon="6.00013">
        <ele>1392.800048828</ele>
        <time>2014-01-12T12:05:35Z</time>
      </trkpt>
      <trkpt lat="45.22502" lon="5.99988">
        <ele>1389</ele>
        <time>2014-01-12T12:05:39Z</time>
      </trkpt>
      <trkpt lat="45.22504" lon="5.99981">
        <ele>1389.400024414</ele>
        <time>2014-01-12T12:05:40Z</time>
      </trkpt>
      <trkpt lat="45.22506" lon="5.99975">
        <ele>1389.400024414</ele>
        <time>2014-01-12T12:05:41Z</time>
      </trkpt>
      <trkpt lat="45.22511" lon="5.99959">
        <ele>1389.800048828</ele>
        <time>2014-01-12T12:05:44Z</time>
      </trkpt>
      <trkpt lat="45.22511" lon="5.99955">
        <ele>1389</ele>
        <time>2014-01-12T12:05:45Z</time>
      </trkpt>
      <trkpt lat="45.22511" lon="5.99951">
        <ele>1388.599975586</ele>
        <time>2014-01-12T12:05:47Z</time>
      </trkpt>
      <trkpt lat="45.2251" lon="5.99951">
        <ele>1388</ele>
        <time>2014-01-12T12:05:52Z</time>
      </trkpt>
      <trkpt lat="45.22508" lon="5.99953">
        <ele>1387</ele>
        <time>2014-01-12T12:06:03Z</time>
      </trkpt>
      <trkpt lat="45.22506" lon="5.99951">
        <ele>1386</ele>
        <time>2014-01-12T12:06:05Z</time>
      </trkpt>
      <trkpt lat="45.22506" lon="5.99949">
        <ele>1385.400024414</ele>
        <time>2014-01-12T12:06:06Z</time>
      </trkpt>
      <trkpt lat="45.22506" lon="5.99945">
        <ele>1384.599975586</ele>
        <time>2014-01-12T12:06:08Z</time>
      </trkpt>
      <trkpt lat="45.22506" lon="5.99943">
        <ele>1384.199951172</ele>
        <time>2014-01-12T12:06:09Z</time>
      </trkpt>
      <trkpt lat="45.22507" lon="5.99937">
        <ele>1383.800048828</ele>
        <time>2014-01-12T12:06:11Z</time>
      </trkpt>
      <trkpt lat="45.22506" lon="5.99935">
        <ele>1382.800048828</ele>
        <time>2014-01-12T12:06:12Z</time>
      </trkpt>
      <trkpt lat="45.22507" lon="5.99929">
        <ele>1382.400024414</ele>
        <time>2014-01-12T12:06:14Z</time>
      </trkpt>
      <trkpt lat="45.22506" lon="5.99921">
        <ele>1380.599975586</ele>
        <time>2014-01-12T12:06:18Z</time>
      </trkpt>
      <trkpt lat="45.22501" lon="5.99916">
        <ele>1377.400024414</ele>
        <time>2014-01-12T12:06:22Z</time>
      </trkpt>
      <trkpt lat="45.225" lon="5.99914">
        <ele>1376.400024414</ele>
        <time>2014-01-12T12:06:23Z</time>
      </trkpt>
      <trkpt lat="45.22495" lon="5.99909">
        <ele>1375</ele>
        <time>2014-01-12T12:06:28Z</time>
      </trkpt>
      <trkpt lat="45.22491" lon="5.99911">
        <ele>1375.400024414</ele>
        <time>2014-01-12T12:06:32Z</time>
      </trkpt>
      <trkpt lat="45.22487" lon="5.99913">
        <ele>1375.400024414</ele>
        <time>2014-01-12T12:06:34Z</time>
      </trkpt>
      <trkpt lat="45.2248" lon="5.9991">
        <ele>1374.400024414</ele>
        <time>2014-01-12T12:06:39Z</time>
      </trkpt>
      <trkpt lat="45.22472" lon="5.99908">
        <ele>1373.400024414</ele>
        <time>2014-01-12T12:06:44Z</time>
      </trkpt>
      <trkpt lat="45.22464" lon="5.99908">
        <ele>1373</ele>
        <time>2014-01-12T12:06:50Z</time>
      </trkpt>
      <trkpt lat="45.22463" lon="5.99908">
        <ele>1372.800048828</ele>
        <time>2014-01-12T12:06:51Z</time>
      </trkpt>
      <trkpt lat="45.2246" lon="5.99907">
        <ele>1372.199951172</ele>
        <time>2014-01-12T12:06:52Z</time>
      </trkpt>
      <trkpt lat="45.22455" lon="5.99904">
        <ele>1371.400024414</ele>
        <time>2014-01-12T12:06:55Z</time>
      </trkpt>
      <trkpt lat="45.22452" lon="5.99902">
        <ele>1370.800048828</ele>
        <time>2014-01-12T12:06:58Z</time>
      </trkpt>
      <trkpt lat="45.2245" lon="5.99901">
        <ele>1370.400024414</ele>
        <time>2014-01-12T12:06:59Z</time>
      </trkpt>
      <trkpt lat="45.22446" lon="5.99895">
        <ele>1368.599975586</ele>
        <time>2014-01-12T12:07:02Z</time>
      </trkpt>
      <trkpt lat="45.22446" lon="5.99886">
        <ele>1366.599975586</ele>
        <time>2014-01-12T12:07:05Z</time>
      </trkpt>
      <trkpt lat="45.22447" lon="5.99882">
        <ele>1365.599975586</ele>
        <time>2014-01-12T12:07:10Z</time>
      </trkpt>
      <trkpt lat="45.22447" lon="5.99882">
        <ele>1365.599975586</ele>
        <time>2014-01-12T12:07:11Z</time>
      </trkpt>
      <trkpt lat="45.22445" lon="5.99879">
        <ele>1364.800048828</ele>
        <time>2014-01-12T12:07:13Z</time>
      </trkpt>
      <trkpt lat="45.22445" lon="5.9988">
        <ele>1365</ele>
        <time>2014-01-12T12:07:20Z</time>
      </trkpt>
      <trkpt lat="45.22444" lon="5.99882">
        <ele>1365.599975586</ele>
        <time>2014-01-12T12:07:27Z</time>
      </trkpt>
      <trkpt lat="45.22442" lon="5.99871">
        <ele>1362.599975586</ele>
        <time>2014-01-12T12:07:33Z</time>
      </trkpt>
      <trkpt lat="45.22443" lon="5.99851">
        <ele>1358.199951172</ele>
        <time>2014-01-12T12:07:37Z</time>
      </trkpt>
      <trkpt lat="45.22449" lon="5.9984">
        <ele>1356.199951172</ele>
        <time>2014-01-12T12:07:41Z</time>
      </trkpt>
      <trkpt lat="45.22449" lon="5.9984">
        <ele>1356.199951172</ele>
        <time>2014-01-12T12:07:46Z</time>
      </trkpt>
      <trkpt lat="45.22446" lon="5.99846">
        <ele>1357</ele>
        <time>2014-01-12T12:07:52Z</time>
      </trkpt>
      <trkpt lat="45.22446" lon="5.99846">
        <ele>1357.199951172</ele>
        <time>2014-01-12T12:07:53Z</time>
      </trkpt>
      <trkpt lat="45.22446" lon="5.99847">
        <ele>1357.400024414</ele>
        <time>2014-01-12T12:07:54Z</time>
      </trkpt>
      <trkpt lat="45.22446" lon="5.99847">
        <ele>1357.599975586</ele>
        <time>2014-01-12T12:07:55Z</time>
      </trkpt>
      <trkpt lat="45.22448" lon="5.99848">
        <ele>1357.800048828</ele>
        <time>2014-01-12T12:08:03Z</time>
      </trkpt>
      <trkpt lat="45.22449" lon="5.99846">
        <ele>1357.599975586</ele>
        <time>2014-01-12T12:08:11Z</time>
      </trkpt>
      <trkpt lat="45.22448" lon="5.99849">
        <ele>1358.199951172</ele>
        <time>2014-01-12T12:08:23Z</time>
      </trkpt>
      <trkpt lat="45.22447" lon="5.99846">
        <ele>1357.199951172</ele>
        <time>2014-01-12T12:08:30Z</time>
      </trkpt>
      <trkpt lat="45.22448" lon="5.99846">
        <ele>1357.199951172</ele>
        <time>2014-01-12T12:08:34Z</time>
      </trkpt>
      <trkpt lat="45.22447" lon="5.99844">
        <ele>1356.800048828</ele>
        <time>2014-01-12T12:08:51Z</time>
      </trkpt>
      <trkpt lat="45.22447" lon="5.99845">
        <ele>1357</ele>
        <time>2014-01-12T12:08:52Z</time>
      </trkpt>
      <trkpt lat="45.22448" lon="5.99847">
        <ele>1357.599975586</ele>
        <time>2014-01-12T12:08:56Z</time>
      </trkpt>
      <trkpt lat="45.22448" lon="5.9985">
        <ele>1358.199951172</ele>
        <time>2014-01-12T12:08:59Z</time>
      </trkpt>
      <trkpt lat="45.2245" lon="5.99849">
        <ele>1358.400024414</ele>
        <time>2014-01-12T12:09:07Z</time>
      </trkpt>
      <trkpt lat="45.22452" lon="5.99848">
        <ele>1358.199951172</ele>
        <time>2014-01-12T12:09:14Z</time>
      </trkpt>
      <trkpt lat="45.22457" lon="5.99844">
        <ele>1357.800048828</ele>
        <time>2014-01-12T12:09:19Z</time>
      </trkpt>
      <trkpt lat="45.22461" lon="5.9984">
        <ele>1357.400024414</ele>
        <time>2014-01-12T12:09:33Z</time>
      </trkpt>
      <trkpt lat="45.22463" lon="5.99836">
        <ele>1356.599975586</ele>
        <time>2014-01-12T12:09:38Z</time>
      </trkpt>
      <trkpt lat="45.22465" lon="5.99834">
        <ele>1356.400024414</ele>
        <time>2014-01-12T12:09:40Z</time>
      </trkpt>
      <trkpt lat="45.22467" lon="5.99833">
        <ele>1356.400024414</ele>
        <time>2014-01-12T12:09:42Z</time>
      </trkpt>
      <trkpt lat="45.2247" lon="5.99832">
        <ele>1356.599975586</ele>
        <time>2014-01-12T12:09:44Z</time>
      </trkpt>
      <trkpt lat="45.22473" lon="5.99829">
        <ele>1356.400024414</ele>
        <time>2014-01-12T12:09:46Z</time>
      </trkpt>
      <trkpt lat="45.22474" lon="5.99828">
        <ele>1356.199951172</ele>
        <time>2014-01-12T12:09:47Z</time>
      </trkpt>
      <trkpt lat="45.22476" lon="5.99826">
        <ele>1356.199951172</ele>
        <time>2014-01-12T12:09:48Z</time>
      </trkpt>
      <trkpt lat="45.22485" lon="5.99816">
        <ele>1355.400024414</ele>
        <time>2014-01-12T12:09:55Z</time>
      </trkpt>
      <trkpt lat="45.22487" lon="5.99812">
        <ele>1355</ele>
        <time>2014-01-12T12:09:57Z</time>
      </trkpt>
      <trkpt lat="45.22493" lon="5.99805">
        <ele>1354.400024414</ele>
        <time>2014-01-12T12:10:01Z</time>
      </trkpt>
      <trkpt lat="45.22496" lon="5.99794">
        <ele>1353</ele>
        <time>2014-01-12T12:10:06Z</time>
      </trkpt>
      <trkpt lat="45.225" lon="5.99778">
        <ele>1350.599975586</ele>
        <time>2014-01-12T12:10:13Z</time>
      </trkpt>
      <trkpt lat="45.22501" lon="5.99764">
        <ele>1349</ele>
        <time>2014-01-12T12:10:20Z</time>
      </trkpt>
      <trkpt lat="45.225" lon="5.99752">
        <ele>1346.800048828</ele>
        <time>2014-01-12T12:10:26Z</time>
      </trkpt>
      <trkpt lat="45.22501" lon="5.99748">
        <ele>1346.400024414</ele>
        <time>2014-01-12T12:10:28Z</time>
      </trkpt>
      <trkpt lat="45.22502" lon="5.99736">
        <ele>1345</ele>
        <time>2014-01-12T12:10:32Z</time>
      </trkpt>
      <trkpt lat="45.22505" lon="5.9972">
        <ele>1343.800048828</ele>
        <time>2014-01-12T12:10:39Z</time>
      </trkpt>
      <trkpt lat="45.22506" lon="5.9971">
        <ele>1342.800048828</ele>
        <time>2014-01-12T12:10:44Z</time>
      </trkpt>
      <trkpt lat="45.22509" lon="5.99697">
        <ele>1341.800048828</ele>
        <time>2014-01-12T12:10:49Z</time>
      </trkpt>
      <trkpt lat="45.2251" lon="5.99695">
        <ele>1341.800048828</ele>
        <time>2014-01-12T12:10:50Z</time>
      </trkpt>
      <trkpt lat="45.22512" lon="5.99684">
        <ele>1340.599975586</ele>
        <time>2014-01-12T12:10:56Z</time>
      </trkpt>
      <trkpt lat="45.22511" lon="5.99664">
        <ele>1336.800048828</ele>
        <time>2014-01-12T12:11:04Z</time>
      </trkpt>
      <trkpt lat="45.22509" lon="5.99651">
        <ele>1333.599975586</ele>
        <time>2014-01-12T12:11:10Z</time>
      </trkpt>
      <trkpt lat="45.22506" lon="5.99631">
        <ele>1328.800048828</ele>
        <time>2014-01-12T12:11:19Z</time>
      </trkpt>
      <trkpt lat="45.22507" lon="5.99615">
        <ele>1326.599975586</ele>
        <time>2014-01-12T12:11:26Z</time>
      </trkpt>
      <trkpt lat="45.2251" lon="5.99601">
        <ele>1325.599975586</ele>
        <time>2014-01-12T12:11:33Z</time>
      </trkpt>
      <trkpt lat="45.22518" lon="5.99585">
        <ele>1326</ele>
        <time>2014-01-12T12:11:42Z</time>
      </trkpt>
      <trkpt lat="45.22526" lon="5.99572">
        <ele>1326.599975586</ele>
        <time>2014-01-12T12:11:49Z</time>
      </trkpt>
      <trkpt lat="45.22535" lon="5.99562">
        <ele>1328.199951172</ele>
        <time>2014-01-12T12:11:56Z</time>
      </trkpt>
      <trkpt lat="45.22543" lon="5.99553">
        <ele>1329.199951172</ele>
        <time>2014-01-12T12:12:02Z</time>
      </trkpt>
      <trkpt lat="45.22553" lon="5.9954">
        <ele>1329.199951172</ele>
        <time>2014-01-12T12:12:10Z</time>
      </trkpt>
      <trkpt lat="45.22556" lon="5.9953">
        <ele>1328</ele>
        <time>2014-01-12T12:12:15Z</time>
      </trkpt>
      <trkpt lat="45.22557" lon="5.99529">
        <ele>1328</ele>
        <time>2014-01-12T12:12:16Z</time>
      </trkpt>
      <trkpt lat="45.22564" lon="5.99522">
        <ele>1328.199951172</ele>
        <time>2014-01-12T12:12:22Z</time>
      </trkpt>
      <trkpt lat="45.22566" lon="5.9952">
        <ele>1328.199951172</ele>
        <time>2014-01-12T12:12:23Z</time>
      </trkpt>
      <trkpt lat="45.22573" lon="5.99515">
        <ele>1328.800048828</ele>
        <time>2014-01-12T12:12:27Z</time>
      </trkpt>
      <trkpt lat="45.22576" lon="5.99512">
        <ele>1328.599975586</ele>
        <time>2014-01-12T12:12:29Z</time>
      </trkpt>
      <trkpt lat="45.2258" lon="5.99507">
        <ele>1328.199951172</ele>
        <time>2014-01-12T12:12:32Z</time>
      </trkpt>
      <trkpt lat="45.22584" lon="5.99502">
        <ele>1327.800048828</ele>
        <time>2014-01-12T12:12:35Z</time>
      </trkpt>
      <trkpt lat="45.22589" lon="5.99496">
        <ele>1327.400024414</ele>
        <time>2014-01-12T12:12:38Z</time>
      </trkpt>
      <trkpt lat="45.22593" lon="5.9949">
        <ele>1326.800048828</ele>
        <time>2014-01-12T12:12:42Z</time>
      </trkpt>
      <trkpt lat="45.22596" lon="5.99486">
        <ele>1326.599975586</ele>
        <time>2014-01-12T12:12:44Z</time>
      </trkpt>
      <trkpt lat="45.22598" lon="5.99483">
        <ele>1326.199951172</ele>
        <time>2014-01-12T12:12:46Z</time>
      </trkpt>
      <trkpt lat="45.22603" lon="5.99475">
        <ele>1325.199951172</ele>
        <time>2014-01-12T12:12:50Z</time>
      </trkpt>
      <trkpt lat="45.22612" lon="5.99461">
        <ele>1323.199951172</ele>
        <time>2014-01-12T12:12:58Z</time>
      </trkpt>
      <trkpt lat="45.22619" lon="5.99453">
        <ele>1321.800048828</ele>
        <time>2014-01-12T12:13:04Z</time>
      </trkpt>
      <trkpt lat="45.22618" lon="5.99452">
        <ele>1321.599975586</ele>
        <time>2014-01-12T12:13:08Z</time>
      </trkpt>
      <trkpt lat="45.22618" lon="5.99452">
        <ele>1321.400024414</ele>
        <time>2014-01-12T12:13:09Z</time>
      </trkpt>
      <trkpt lat="45.22619" lon="5.99452">
        <ele>1321.599975586</ele>
        <time>2014-01-12T12:13:32Z</time>
      </trkpt>
      <trkpt lat="45.22623" lon="5.99447">
        <ele>1320.599975586</ele>
        <time>2014-01-12T12:13:35Z</time>
      </trkpt>
      <trkpt lat="45.22637" lon="5.99433">
        <ele>1317.800048828</ele>
        <time>2014-01-12T12:13:39Z</time>
      </trkpt>
      <trkpt lat="45.22654" lon="5.9942">
        <ele>1314.599975586</ele>
        <time>2014-01-12T12:13:43Z</time>
      </trkpt>
      <trkpt lat="45.2266" lon="5.99417">
        <ele>1313.800048828</ele>
        <time>2014-01-12T12:13:44Z</time>
      </trkpt>
      <trkpt lat="45.22682" lon="5.99405">
        <ele>1314.800048828</ele>
        <time>2014-01-12T12:13:48Z</time>
      </trkpt>
      <trkpt lat="45.22693" lon="5.99397">
        <ele>1315.199951172</ele>
        <time>2014-01-12T12:13:50Z</time>
      </trkpt>
      <trkpt lat="45.22711" lon="5.99384">
        <ele>1314.800048828</ele>
        <time>2014-01-12T12:13:53Z</time>
      </trkpt>
      <trkpt lat="45.2272" lon="5.99375">
        <ele>1312.800048828</ele>
        <time>2014-01-12T12:13:55Z</time>
      </trkpt>
      <trkpt lat="45.22725" lon="5.99372">
        <ele>1313</ele>
        <time>2014-01-12T12:13:57Z</time>
      </trkpt>
      <trkpt lat="45.22728" lon="5.9937">
        <ele>1313.199951172</ele>
        <time>2014-01-12T12:13:59Z</time>
      </trkpt>
      <trkpt lat="45.22731" lon="5.99368">
        <ele>1312.400024414</ele>
        <time>2014-01-12T12:14:01Z</time>
      </trkpt>
      <trkpt lat="45.22733" lon="5.99364">
        <ele>1311.199951172</ele>
        <time>2014-01-12T12:14:04Z</time>
      </trkpt>
      <trkpt lat="45.22738" lon="5.99359">
        <ele>1309.599975586</ele>
        <time>2014-01-12T12:14:07Z</time>
      </trkpt>
      <trkpt lat="45.22742" lon="5.99354">
        <ele>1308.199951172</ele>
        <time>2014-01-12T12:14:09Z</time>
      </trkpt>
      <trkpt lat="45.22743" lon="5.99352">
        <ele>1307.199951172</ele>
        <time>2014-01-12T12:14:10Z</time>
      </trkpt>
      <trkpt lat="45.22742" lon="5.99351">
        <ele>1306.199951172</ele>
        <time>2014-01-12T12:14:12Z</time>
      </trkpt>
      <trkpt lat="45.22744" lon="5.9935">
        <ele>1306</ele>
        <time>2014-01-12T12:14:20Z</time>
      </trkpt>
      <trkpt lat="45.22744" lon="5.9935">
        <ele>1306</ele>
        <time>2014-01-12T12:14:26Z</time>
      </trkpt>
      <trkpt lat="45.22744" lon="5.99351">
        <ele>1306.599975586</ele>
        <time>2014-01-12T12:14:36Z</time>
      </trkpt>
      <trkpt lat="45.22742" lon="5.99354">
        <ele>1307.599975586</ele>
        <time>2014-01-12T12:14:47Z</time>
      </trkpt>
      <trkpt lat="45.22741" lon="5.99354">
        <ele>1307.800048828</ele>
        <time>2014-01-12T12:14:49Z</time>
      </trkpt>
      <trkpt lat="45.22741" lon="5.99354">
        <ele>1307.400024414</ele>
        <time>2014-01-12T12:14:50Z</time>
      </trkpt>
      <trkpt lat="45.22742" lon="5.9935">
        <ele>1306</ele>
        <time>2014-01-12T12:15:00Z</time>
      </trkpt>
      <trkpt lat="45.22744" lon="5.99352">
        <ele>1307.599975586</ele>
        <time>2014-01-12T12:15:05Z</time>
      </trkpt>
      <trkpt lat="45.22742" lon="5.99354">
        <ele>1307.599975586</ele>
        <time>2014-01-12T12:15:21Z</time>
      </trkpt>
      <trkpt lat="45.22745" lon="5.99355">
        <ele>1309.599975586</ele>
        <time>2014-01-12T12:15:37Z</time>
      </trkpt>
    </trkseg>
  </trk>
</gpx>